# Wetter Temperatur Luftdruck Luftfeuchtigkeit Sichtweite Windgeschwindigkeit Windrichtung Zeit
1 Clouds 27 1009 73 0 3.5 155 05:19 11.07.2020
2 Clouds 27 1009 73 0 3.5 155 04:44 11.07.2020
3 Clouds 27 1010 75 0 2.98 138 04:19 11.07.2020
4 Clouds 25 1011 85 0 3.51 127 02:53 11.07.2020
5 Clouds 25 1012 84 0 4.03 132 01:57 11.07.2020
6 Haze 26 1010 88 10000 2.6 130 01:22 11.07.2020
7 Haze 26 1010 88 10000 2.6 130 00:55 11.07.2020
8 Haze 26 1010 88 10000 2.6 130 00:36 11.07.2020
9 Haze 26 1010 88 10000 2.6 130 00:18 11.07.2020
10 Clouds 24 1009 100 10000 2.6 120 23:44 10.07.2020
11 Clouds 24 1009 94 10000 1.5 0 23:26 10.07.2020
12 Clouds 24 1009 94 10000 1.5 0 22:55 10.07.2020
13 Clouds 24 1009 94 10000 1.5 0 22:36 10.07.2020
14 Clouds 24 1009 94 10000 1.5 0 22:18 10.07.2020
15 Clouds 24 1008 94 10000 5.1 320 21:38 10.07.2020
16 Clouds 24 1008 94 10000 5.1 320 21:20 10.07.2020
17 Clouds 24 1008 94 10000 5.1 320 20:55 10.07.2020
18 Clouds 24 1008 94 10000 5.1 320 20:36 10.07.2020
19 Clouds 24 1008 94 10000 5.1 320 20:18 10.07.2020
20 Clouds 24 1008 94 10000 5.1 320 19:43 10.07.2020
21 Clouds 24 1009 94 10000 2.6 330 19:22 10.07.2020
22 Clouds 24 1009 94 10000 2.6 330 18:58 10.07.2020
23 Clouds 24 1009 94 10000 2.6 330 18:58 10.07.2020
24 Clouds 24 1009 94 10000 2.6 330 18:37 10.07.2020
25 Clouds 24 1009 94 10000 2.6 330 18:18 10.07.2020
26 Clouds 25 1009 88 10000 2.6 140 17:43 10.07.2020
27 Clouds 25 1009 88 10000 2.6 140 17:24 10.07.2020
28 Clouds 25 1010 88 10000 1.5 0 16:57 10.07.2020
29 Clouds 24 1010 89 0 4.83 122 16:39 10.07.2020
30 Clouds 24 1011 89 0 5.11 112 16:18 10.07.2020
31 Clouds 24 1011 89 0 5.11 112 15:44 10.07.2020
32 Clouds 25 1011 87 0 5.46 119 15:21 10.07.2020
33 Clouds 25 1011 87 0 5.46 119 14:54 10.07.2020
34 Clouds 25 1011 87 0 5.46 119 14:36 10.07.2020
35 Rain 25 1012 88 0 5.35 111 14:18 10.07.2020
36 Clouds 25 1012 87 0 6.54 115 13:54 10.07.2020
37 Clouds 25 1012 87 0 6.54 115 13:36 10.07.2020
38 Clouds 25 1012 88 0 4.91 120 13:18 10.07.2020
39 Clouds 25 1012 88 0 4.91 120 12:42 10.07.2020
40 Rain 25 1011 89 0 4.95 114 12:23 10.07.2020
41 Rain 25 1011 89 0 4.95 114 11:58 10.07.2020
42 Haze 25 1008 94 10000 7.7 150 11:38 10.07.2020
43 Haze 25 1008 94 10000 7.7 150 11:18 10.07.2020
44 Rain 26 1010 87 0 6.43 130 10:41 10.07.2020
45 Haze 28 1008 78 10000 5.1 130 10:21 10.07.2020
46 Haze 28 1008 78 10000 5.1 130 09:56 10.07.2020
47 Haze 30 1007 70 10000 7.7 150 09:36 10.07.2020
48 Haze 30 1007 70 10000 7.7 150 09:18 10.07.2020
49 Haze 30 1007 70 10000 7.7 150 08:54 10.07.2020
50 Smoke 29 1008 79 10000 7.7 160 08:36 10.07.2020
51 Haze 29 1008 79 10000 7.7 160 08:18 10.07.2020
52 Haze 29 1008 79 10000 7.7 160 07:41 10.07.2020
53 Smoke 30 1008 74 10000 7.7 150 07:20 10.07.2020
54 Smoke 30 1008 74 10000 7.7 150 06:45 10.07.2020
55 Smoke 31 1008 70 10000 10.3 150 05:54 10.07.2020
56 Haze 30 1010 74 10000 7.7 150 04:31 10.07.2020
57 Haze 30 1010 74 10000 7.7 150 03:26 10.07.2020
58 Haze 29 1010 79 10000 5.1 140 02:48 10.07.2020
59 Haze 28 1011 78 10000 4.1 140 01:39 10.07.2020
60 Clouds 26 1012 78 0 2.05 125 00:40 10.07.2020
61 Clouds 24 1010 100 10000 1.5 0 00:18 10.07.2020
62 Clouds 24 1010 100 10000 1.5 0 23:43 09.07.2020
63 Clouds 24 1010 100 10000 1.5 0 23:20 09.07.2020
64 Clouds 24 1009 100 10000 1.5 0 22:57 09.07.2020
65 Clouds 24 1009 100 10000 1.5 0 22:39 09.07.2020
66 Clouds 24 1009 100 10000 1.5 0 22:20 09.07.2020
67 Clouds 24 1008 94 10000 1.5 0 21:55 09.07.2020
68 Clouds 24 1008 100 10000 1.5 0 21:37 09.07.2020
69 Clouds 24 1008 100 10000 1.5 0 21:18 09.07.2020
70 Clouds 24 1008 100 10000 1.5 0 21:18 09.07.2020
71 Clouds 24 1008 100 10000 1.5 0 20:42 09.07.2020
72 Clouds 24 1008 100 10000 1.5 0 20:42 09.07.2020
73 Clouds 24 1008 100 10000 1.5 0 20:24 09.07.2020
74 Clouds 24 1008 100 10000 1.5 0 19:56 09.07.2020
75 Clouds 25 1008 94 10000 2.6 150 19:38 09.07.2020
76 Clouds 25 1008 94 10000 2.6 150 19:19 09.07.2020
77 Clouds 25 1008 94 10000 2.6 150 18:41 09.07.2020
78 Clouds 25 1008 94 10000 5.1 150 18:20 09.07.2020
79 Clouds 25 1008 94 10000 5.1 150 17:55 09.07.2020
80 Clouds 25 1009 94 10000 5.1 150 17:37 09.07.2020
81 Clouds 25 1009 94 10000 5.1 150 17:18 09.07.2020
82 Clouds 25 1009 94 10000 5.1 150 16:44 09.07.2020
83 Clouds 25 1009 94 10000 5.1 150 16:20 09.07.2020
84 Clouds 25 1009 94 10000 5.1 150 15:59 09.07.2020
85 Clouds 25 1009 94 10000 5.1 150 15:41 09.07.2020
86 Clouds 26 1009 88 10000 7.7 150 15:23 09.07.2020
87 Clouds 26 1009 88 10000 7.7 150 14:59 09.07.2020
88 Clear 24 1010 90 0 4.11 118 14:40 09.07.2020
89 Clouds 26 1009 88 10000 7.7 150 14:22 09.07.2020
90 Clouds 26 1009 88 10000 7.7 150 13:57 09.07.2020
91 Clouds 26 1009 88 10000 7.7 150 13:57 09.07.2020
92 Clouds 27 1008 88 10000 7.7 150 13:38 09.07.2020
93 Clouds 27 1008 88 10000 7.7 150 13:20 09.07.2020
94 Clouds 27 1008 88 10000 7.7 150 12:43 09.07.2020
95 Clouds 26 1010 86 0 6.09 133 12:24 09.07.2020
96 Clouds 26 1010 86 0 6.09 133 11:59 09.07.2020
97 Clouds 26 1010 86 0 6.09 133 11:41 09.07.2020
98 Haze 28 1007 83 10000 10.3 150 11:22 09.07.2020
99 Haze 28 1007 83 10000 10.3 150 10:58 09.07.2020
100 Haze 28 1007 83 10000 10.3 150 10:40 09.07.2020
101 Haze 28 1007 83 10000 10.3 150 10:21 09.07.2020
102 Clouds 29 1007 79 10000 10.3 160 09:44 09.07.2020
103 Clouds 29 1007 79 10000 10.3 160 09:23 09.07.2020
104 Smoke 30 1006 74 10000 10.3 150 08:54 09.07.2020
105 Haze 31 1007 70 10000 10.3 140 08:36 09.07.2020
106 Smoke 31 1007 70 10000 10.3 140 08:18 09.07.2020
107 Smoke 31 1007 70 10000 10.3 140 07:42 09.07.2020
108 Clouds 28 1008 75 0 6.72 154 07:21 09.07.2020
109 Clouds 28 1008 75 0 6.72 154 07:21 09.07.2020
110 Clouds 30 1008 74 10000 5.1 200 06:21 09.07.2020
111 Clouds 30 1008 74 10000 5.1 200 05:57 09.07.2020
112 Haze 31 1010 66 10000 3.36 177 04:29 09.07.2020
113 Haze 29 1010 74 10000 2.6 10 03:22 09.07.2020
114 Haze 28 1010 74 10000 1.5 0 01:56 09.07.2020
115 Haze 26 1010 83 10000 1.5 0 00:59 09.07.2020
116 Clouds 26 1011 78 0 2.2 118 00:40 09.07.2020
117 Haze 24 1009 94 10000 1.5 0 00:21 09.07.2020
118 Haze 24 1009 94 10000 1.5 0 23:43 08.07.2020
119 Haze 23 1009 100 10000 1.5 0 23:25 08.07.2020
120 Haze 23 1009 100 10000 1.5 0 22:56 08.07.2020
121 Clouds 24 1011 88 0 3.23 112 22:38 08.07.2020
122 Clouds 24 1010 88 0 2.78 116 22:19 08.07.2020
123 Clouds 24 1010 88 0 2.78 116 21:55 08.07.2020
124 Clouds 23 1008 100 10000 5.1 150 21:36 08.07.2020
125 Clouds 23 1008 100 10000 5.1 150 21:18 08.07.2020
126 Clouds 23 1008 100 10000 5.1 150 20:41 08.07.2020
127 Clouds 25 1008 88 10000 2.6 0 20:23 08.07.2020
128 Clouds 25 1008 88 10000 2.6 0 19:55 08.07.2020
129 Clouds 24 1008 94 10000 7.7 150 19:37 08.07.2020
130 Clouds 24 1008 94 10000 7.7 150 19:18 08.07.2020
131 Clouds 24 1008 94 10000 7.7 150 18:41 08.07.2020
132 Clouds 25 1008 94 10000 2.6 130 18:21 08.07.2020
133 Rain 24 1010 89 0 3.16 105 17:57 08.07.2020
134 Clouds 25 1009 88 10000 5.1 170 17:38 08.07.2020
135 Clouds 25 1009 88 10000 5.1 170 17:20 08.07.2020
136 Clouds 25 1009 88 10000 5.1 170 16:57 08.07.2020
137 Clouds 25 1009 94 10000 2.6 160 16:38 08.07.2020
138 Clouds 25 1009 94 10000 2.6 160 16:18 08.07.2020
139 Clouds 25 1009 94 10000 2.6 160 15:56 08.07.2020
140 Clouds 26 1009 88 10000 5.1 150 15:38 08.07.2020
141 Clouds 26 1009 88 10000 5.1 150 15:18 08.07.2020
142 Clouds 26 1009 88 10000 5.1 150 14:42 08.07.2020
143 Clouds 26 1009 88 10000 7.7 150 14:21 08.07.2020
144 Clouds 26 1009 88 10000 7.7 150 13:46 08.07.2020
145 Clouds 26 1009 88 10000 7.7 150 13:27 08.07.2020
146 Clouds 26 1009 88 10000 7.7 150 12:58 08.07.2020
147 Clouds 26 1009 88 10000 7.7 150 12:40 08.07.2020
148 Clouds 26 1009 88 10000 7.7 150 12:19 08.07.2020
149 Haze 28 1008 74 10000 10.3 160 11:39 08.07.2020
150 Haze 28 1008 74 10000 10.3 160 11:21 08.07.2020
151 Haze 28 1008 74 10000 10.3 160 10:56 08.07.2020
152 Haze 29 1007 74 10000 10.3 160 10:38 08.07.2020
153 Haze 29 1007 74 10000 10.3 160 10:19 08.07.2020
154 Haze 29 1007 74 10000 10.3 160 09:43 08.07.2020
155 Haze 29 1007 74 10000 10.3 160 09:43 08.07.2020
156 Haze 30 1007 70 10000 8.2 160 09:23 08.07.2020
157 Haze 30 1007 70 10000 8.2 160 08:43 08.07.2020
158 Smoke 29 1008 74 10000 10.3 160 08:24 08.07.2020
159 Haze 29 1008 74 10000 10.3 160 07:48 08.07.2020
160 Haze 29 1008 74 10000 10.3 160 07:24 08.07.2020
161 Haze 29 1008 74 10000 10.3 160 06:56 08.07.2020
162 Haze 31 1009 70 10000 10.3 150 06:37 08.07.2020
163 Haze 31 1009 70 10000 10.3 150 05:55 08.07.2020
164 Clouds 31 1009 62 10000 7.7 150 05:33 08.07.2020
165 Clouds 30 1010 66 10000 8.75 153 04:36 08.07.2020
166 Haze 29 1011 70 10000 7.7 160 02:48 08.07.2020
167 Haze 28 1011 74 10000 7.7 150 01:52 08.07.2020
168 Haze 26 1011 83 10000 6.2 140 01:32 08.07.2020
169 Haze 24 1011 88 10000 4.1 130 00:28 08.07.2020
170 Haze 24 1011 88 10000 4.1 130 23:56 07.07.2020
171 Clouds 24 1010 88 10000 3.1 130 23:37 07.07.2020
172 Clouds 24 1010 88 10000 3.1 130 23:19 07.07.2020
173 Clouds 24 1010 88 10000 3.1 130 22:43 07.07.2020
174 Clouds 24 1010 88 10000 4.6 150 22:22 07.07.2020
175 Clouds 24 1010 88 10000 4.6 150 21:59 07.07.2020
176 Clear 23 1009 94 10000 4.6 140 21:39 07.07.2020
177 Clear 23 1009 94 10000 4.6 140 21:21 07.07.2020
178 Clear 23 1009 94 10000 4.6 140 20:57 07.07.2020
179 Clear 23 1009 94 10000 4.6 140 20:57 07.07.2020
180 Clouds 24 1010 88 10000 4.6 110 20:38 07.07.2020
181 Clouds 24 1010 88 10000 4.6 110 20:20 07.07.2020
182 Clouds 24 1010 88 10000 4.6 110 20:20 07.07.2020
183 Clouds 24 1010 88 10000 4.6 110 19:41 07.07.2020
184 Clouds 24 1010 88 10000 4.6 110 19:21 07.07.2020
185 Clouds 24 1010 88 10000 5.7 140 18:56 07.07.2020
186 Clouds 25 1010 83 10000 9.3 150 18:38 07.07.2020
187 Clouds 25 1010 83 10000 9.3 150 18:38 07.07.2020
188 Clouds 25 1010 83 10000 9.3 150 18:20 07.07.2020
189 Clouds 25 1010 83 10000 9.3 150 17:57 07.07.2020
190 Clouds 25 1011 88 10000 10.3 150 17:38 07.07.2020
191 Clouds 25 1011 88 10000 10.3 150 17:20 07.07.2020
192 Clouds 25 1011 88 10000 10.3 150 16:43 07.07.2020
193 Clouds 25 1011 88 10000 10.3 140 16:23 07.07.2020
194 Clouds 25 1011 88 10000 10.3 140 15:57 07.07.2020
195 Clouds 25 1011 88 10000 10.3 140 15:37 07.07.2020
196 Clouds 25 1011 88 10000 10.3 140 15:19 07.07.2020
197 Clouds 25 1011 88 10000 10.3 140 14:46 07.07.2020
198 Clouds 25 1011 88 10000 10.3 140 14:24 07.07.2020
199 Clouds 25 1011 88 10000 10.3 140 13:46 07.07.2020
200 Clouds 25 1011 88 10000 10.3 140 13:21 07.07.2020
201 Clouds 26 1011 83 10000 10.3 140 12:57 07.07.2020
202 Clouds 26 1010 78 10000 10.3 140 12:39 07.07.2020
203 Clouds 26 1010 78 10000 10.3 140 12:21 07.07.2020
204 Clouds 26 1010 78 10000 10.3 140 11:46 07.07.2020
205 Clouds 27 1010 78 10000 5.1 150 11:24 07.07.2020
206 Clouds 27 1010 78 10000 5.1 150 10:58 07.07.2020
207 Clear 25 1011 82 0 8.01 136 10:40 07.07.2020
208 Smoke 28 1009 74 10000 7.7 140 10:21 07.07.2020
209 Smoke 28 1009 74 10000 7.7 140 09:54 07.07.2020
210 Smoke 29 1009 70 10000 7.7 150 09:36 07.07.2020
211 Smoke 29 1009 70 10000 7.7 150 09:18 07.07.2020
212 Smoke 30 1009 70 10000 7.7 160 08:39 07.07.2020
213 Smoke 30 1009 70 10000 7.7 160 08:19 07.07.2020
214 Haze 31 1010 62 10000 6.7 160 07:38 07.07.2020
215 Haze 31 1010 62 10000 6.7 160 07:20 07.07.2020
216 Haze 31 1010 62 10000 6.7 160 06:48 07.07.2020
217 Haze 30 1010 62 10000 7.7 150 06:27 07.07.2020
218 Haze 30 1010 62 10000 7.7 150 05:47 07.07.2020
219 Haze 29 1010 70 10000 9.3 160 04:58 07.07.2020
220 Haze 28 1011 74 10000 7.14 150 03:54 07.07.2020
221 Haze 27 1012 78 10000 8.7 150 03:32 07.07.2020
222 Haze 28 1012 74 10000 7.7 150 01:55 07.07.2020
223 Haze 25 1012 88 10000 4.6 120 01:19 07.07.2020
224 Clouds 25 1013 81 0 5.85 123 00:41 07.07.2020
225 Haze 25 1011 83 10000 4.6 130 00:21 07.07.2020
226 Haze 25 1011 83 10000 4.6 130 23:44 06.07.2020
227 Clouds 25 1010 83 10000 6.7 140 23:25 06.07.2020
228 Clouds 25 1010 83 10000 6.7 140 22:59 06.07.2020
229 Clouds 24 1010 88 10000 3.1 140 22:39 06.07.2020
230 Clouds 24 1010 88 10000 3.1 140 22:18 06.07.2020
231 Clouds 24 1010 88 10000 3.1 140 22:18 06.07.2020
232 Clouds 24 1010 88 10000 3.1 140 21:56 06.07.2020
233 Clouds 24 1010 94 10000 4.1 130 21:36 06.07.2020
234 Clouds 24 1010 94 10000 4.1 130 21:18 06.07.2020
235 Clouds 23 1011 90 0 5.67 121 20:40 06.07.2020
236 Clouds 25 1010 88 10000 3.6 140 20:21 06.07.2020
237 Clouds 25 1010 88 10000 3.6 140 19:58 06.07.2020
238 Clouds 23 1011 90 0 5.54 120 19:40 06.07.2020
239 Clouds 24 1010 94 10000 3.1 150 19:22 06.07.2020
240 Clouds 24 1010 94 10000 3.1 150 18:57 06.07.2020
241 Clouds 24 1010 94 10000 3.1 150 18:57 06.07.2020
242 Clouds 25 1011 88 10000 5.1 130 18:39 06.07.2020
243 Clouds 25 1011 88 10000 5.1 130 18:21 06.07.2020
244 Clouds 25 1011 88 10000 5.1 130 17:46 06.07.2020
245 Clouds 25 1011 88 10000 5.1 160 17:28 06.07.2020
246 Clouds 25 1011 88 10000 5.1 160 16:59 06.07.2020
247 Clouds 25 1011 88 10000 5.1 160 16:41 06.07.2020
248 Clouds 25 1012 88 10000 5.1 160 16:22 06.07.2020
249 Clouds 25 1012 88 10000 5.1 160 15:44 06.07.2020
250 Clouds 26 1012 88 10000 5.1 160 15:25 06.07.2020
251 Clouds 26 1012 88 10000 5.1 160 14:57 06.07.2020
252 Clouds 26 1011 88 10000 7.7 160 14:38 06.07.2020
253 Clouds 26 1011 88 10000 7.7 160 14:20 06.07.2020
254 Clouds 26 1011 88 10000 7.7 160 13:55 06.07.2020
255 Clouds 26 1011 88 10000 5.1 160 13:36 06.07.2020
256 Clouds 26 1011 88 10000 5.1 160 13:36 06.07.2020
257 Clouds 26 1011 88 10000 5.1 160 13:18 06.07.2020
258 Clouds 26 1011 88 10000 5.1 160 12:42 06.07.2020
259 Clouds 27 1010 83 10000 7.7 160 12:19 06.07.2020
260 Clouds 27 1010 83 10000 7.7 160 11:57 06.07.2020
261 Haze 27 1009 83 10000 7.7 160 11:38 06.07.2020
262 Haze 27 1009 83 10000 7.7 160 11:19 06.07.2020
263 Haze 27 1009 83 10000 7.7 160 10:43 06.07.2020
264 Haze 29 1009 74 10000 5.1 150 10:22 06.07.2020
265 Haze 29 1009 74 10000 5.1 150 09:59 06.07.2020
266 Haze 29 1009 74 10000 5.1 150 09:41 06.07.2020
267 Haze 30 1008 70 10000 8.92 153 09:21 06.07.2020
268 Haze 30 1008 70 10000 9.24 152 08:55 06.07.2020
269 Haze 31 1008 66 10000 9.24 152 08:36 06.07.2020
270 Haze 31 1008 66 10000 8 157 08:18 06.07.2020
271 Haze 31 1008 66 10000 8 157 08:18 06.07.2020
272 Clear 27 1009 75 0 8 157 07:40 06.07.2020
273 Clouds 31 1009 66 10000 6.99 157 07:22 06.07.2020
274 Haze 31 1010 62 10000 5.1 150 06:39 06.07.2020
275 Haze 31 1010 62 10000 5.1 150 06:20 06.07.2020
276 Haze 31 1010 62 10000 5.1 150 06:20 06.07.2020
277 Clear 28 1010 73 0 6.38 160 05:33 06.07.2020
278 Clear 28 1010 72 0 5.87 168 04:52 06.07.2020
279 Clear 28 1012 69 0 3.54 158 03:25 06.07.2020
280 Clouds 27 1013 71 0 3.35 137 02:21 06.07.2020
281 Clouds 26 1014 75 0 3.29 122 01:22 06.07.2020
282 Clouds 26 1014 75 0 3.29 122 00:33 06.07.2020
283 Clouds 24 1013 81 0 3.29 114 23:59 05.07.2020
284 Clouds 24 1013 81 0 3.29 114 23:40 05.07.2020
285 Clouds 23 1013 86 0 3.5 114 23:22 05.07.2020
286 Clouds 23 1013 86 0 3.5 114 22:58 05.07.2020
287 Clouds 24 1011 88 10000 5.1 110 22:38 05.07.2020
288 Clouds 24 1011 88 10000 5.1 110 22:19 05.07.2020
289 Clouds 24 1011 88 10000 5.1 110 21:56 05.07.2020
290 Clouds 24 1011 88 10000 5.1 110 21:37 05.07.2020
291 Clouds 24 1011 88 10000 5.1 110 21:18 05.07.2020
292 Clouds 24 1011 88 10000 5.1 110 20:42 05.07.2020
293 Clouds 23 1011 88 10000 5.1 110 20:24 05.07.2020
294 Clouds 23 1011 88 10000 5.1 110 19:58 05.07.2020
295 Clouds 23 1011 88 0 4.98 122 19:40 05.07.2020
296 Clouds 24 1011 88 0 5.43 123 19:20 05.07.2020
297 Clouds 24 1011 88 0 5.43 123 18:55 05.07.2020
298 Clouds 24 1011 88 10000 5.1 130 18:36 05.07.2020
299 Clouds 24 1011 88 10000 5.1 130 18:18 05.07.2020
300 Clouds 24 1011 88 10000 5.1 130 17:42 05.07.2020
301 Clouds 24 1011 88 10000 5.1 130 17:42 05.07.2020
302 Clouds 24 1011 88 10000 5.1 130 17:19 05.07.2020
303 Clouds 24 1011 88 10000 5.1 130 16:45 05.07.2020
304 Clouds 24 1012 88 10000 5.1 140 16:26 05.07.2020
305 Clouds 24 1012 88 10000 5.1 140 15:59 05.07.2020
306 Clouds 24 1012 88 10000 7.7 130 15:39 05.07.2020
307 Clouds 24 1012 88 10000 7.7 130 15:19 05.07.2020
308 Clouds 24 1012 88 10000 7.7 130 14:42 05.07.2020
309 Clouds 25 1012 83 10000 10.3 150 14:23 05.07.2020
310 Clouds 25 1012 83 10000 10.3 150 13:58 05.07.2020
311 Clouds 24 1013 83 0 7.94 132 13:40 05.07.2020
312 Clouds 25 1011 83 10000 10.3 150 13:20 05.07.2020
313 Clouds 24 1013 82 0 8.25 131 12:40 05.07.2020
314 Clouds 25 1010 88 10000 7.7 140 12:20 05.07.2020
315 Clouds 25 1010 88 10000 7.7 140 11:55 05.07.2020
316 Clouds 24 1013 81 0 8.33 133 11:36 05.07.2020
317 Clouds 25 1012 81 0 8.22 136 11:18 05.07.2020
318 Clouds 25 1012 81 0 8.22 136 10:42 05.07.2020
319 Clouds 25 1011 79 0 8.36 138 10:20 05.07.2020
320 Clouds 25 1011 79 0 8.36 138 09:59 05.07.2020
321 Clouds 25 1011 79 0 8.36 138 09:40 05.07.2020
322 Haze 28 1009 74 10000 7.7 150 09:20 05.07.2020
323 Haze 28 1009 74 10000 7.7 150 08:51 05.07.2020
324 Clouds 26 1010 74 0 8.97 142 08:33 05.07.2020
325 Clouds 27 1010 72 0 9.46 145 07:49 05.07.2020
326 Haze 29 1010 70 10000 9.46 145 07:30 05.07.2020
327 Clouds 27 1010 71 0 9.24 146 06:53 05.07.2020
328 Clouds 29 1011 70 10000 9.18 143 05:48 05.07.2020
329 Clouds 27 1012 71 0 9.23 144 03:35 05.07.2020
330 Clouds 27 1013 72 0 7.51 145 02:43 05.07.2020
331 Clouds 27 1014 74 0 5.96 140 02:25 05.07.2020
332 Clouds 27 1014 74 0 5.96 140 01:41 05.07.2020
333 Clouds 26 1014 77 0 5.58 130 01:18 05.07.2020
334 Clouds 26 1014 77 0 5.58 130 00:40 05.07.2020
335 Clouds 24 1013 81 0 5.52 126 00:21 05.07.2020
336 Clouds 24 1013 81 0 5.52 126 23:47 04.07.2020
337 Clouds 24 1013 83 0 5.05 122 23:28 04.07.2020
338 Clouds 24 1013 83 0 5.05 122 22:57 04.07.2020
339 Clouds 24 1010 83 10000 2.6 150 22:37 04.07.2020
340 Clouds 24 1010 83 10000 2.6 150 22:19 04.07.2020
341 Clouds 24 1010 83 10000 2.6 150 21:42 04.07.2020
342 Clouds 24 1010 83 10000 5.1 140 21:23 04.07.2020
343 Clouds 23 1012 86 0 5.34 119 20:58 04.07.2020
344 Clouds 25 1010 83 10000 5.1 150 20:39 04.07.2020
345 Clouds 25 1010 83 10000 5.1 150 20:19 04.07.2020
346 Clouds 25 1010 83 10000 5.1 150 19:45 04.07.2020
347 Clouds 25 1011 83 10000 2.6 150 19:22 04.07.2020
348 Clouds 25 1011 83 10000 2.6 150 18:55 04.07.2020
349 Clouds 25 1011 83 10000 2.6 150 18:55 04.07.2020
350 Clouds 25 1011 83 10000 2.6 170 18:37 04.07.2020
351 Clouds 25 1011 83 10000 2.6 170 18:19 04.07.2020
352 Clouds 25 1011 83 10000 2.6 170 17:42 04.07.2020
353 Clouds 25 1012 83 10000 5.1 140 17:24 04.07.2020
354 Clouds 25 1012 83 10000 5.1 140 16:57 04.07.2020
355 Clouds 25 1012 83 10000 5.1 140 16:57 04.07.2020
356 Clouds 25 1012 83 10000 5.7 140 16:38 04.07.2020
357 Clouds 25 1012 83 10000 5.7 140 16:19 04.07.2020
358 Clouds 25 1012 83 10000 5.7 140 16:19 04.07.2020
359 Clouds 25 1012 83 10000 5.7 140 15:46 04.07.2020
360 Clouds 25 1012 83 10000 4.6 140 15:27 04.07.2020
361 Clouds 25 1012 83 10000 4.6 140 14:59 04.07.2020
362 Clouds 25 1012 83 10000 6.2 150 14:38 04.07.2020
363 Clouds 25 1012 83 10000 6.2 150 14:19 04.07.2020
364 Clouds 25 1012 83 10000 6.2 150 13:58 04.07.2020
365 Clouds 26 1012 74 10000 5.1 150 13:39 04.07.2020
366 Clouds 26 1012 74 10000 5.1 150 13:18 04.07.2020
367 Clouds 26 1012 74 10000 5.1 150 12:42 04.07.2020
368 Clouds 24 1012 81 0 6.52 138 12:21 04.07.2020
369 Clouds 24 1012 81 0 6.52 138 11:54 04.07.2020
370 Clouds 24 1012 81 0 6.52 138 11:36 04.07.2020
371 Clouds 25 1012 79 0 6.74 140 11:18 04.07.2020
372 Clouds 25 1012 79 0 6.74 140 10:41 04.07.2020
373 Clouds 25 1011 77 0 7.73 146 10:21 04.07.2020
374 Clouds 25 1011 77 0 7.73 146 09:58 04.07.2020
375 Clouds 25 1011 77 0 7.73 146 09:58 04.07.2020
376 Clouds 25 1011 77 0 7.73 146 09:37 04.07.2020
377 Clear 26 1011 75 0 7.93 148 09:18 04.07.2020
378 Clear 26 1011 75 0 7.93 148 08:46 04.07.2020
379 Clear 26 1011 74 0 8.74 151 08:27 04.07.2020
380 Clear 26 1011 74 0 8.74 151 07:46 04.07.2020
381 Clear 26 1010 74 0 8.75 154 07:26 04.07.2020
382 Clear 26 1010 74 0 8.75 154 06:53 04.07.2020
383 Clear 27 1011 72 0 8.4 156 06:22 04.07.2020
384 Haze 29 1012 62 10000 8.7 150 05:34 04.07.2020
385 Haze 29 1012 62 10000 8.7 150 04:42 04.07.2020
386 Haze 27 1013 69 10000 5.1 150 02:49 04.07.2020
387 Haze 26 1013 69 10000 5.1 140 02:19 04.07.2020
388 Haze 25 1013 78 10000 5.1 150 01:26 04.07.2020
389 Clear 25 1014 71 0 5.84 130 00:40 04.07.2020
390 Clouds 23 1013 83 10000 2.6 130 00:22 04.07.2020
391 Clear 24 1014 76 0 5.45 125 23:40 03.07.2020
392 Clouds 22 1012 88 10000 2.6 110 23:19 03.07.2020
393 Clouds 22 1012 88 10000 2.6 110 23:19 03.07.2020
394 Clouds 22 1012 88 10000 2.6 110 22:55 03.07.2020
395 Clouds 24 1012 78 10000 5.1 110 22:36 03.07.2020
396 Clouds 24 1012 78 10000 5.1 110 22:18 03.07.2020
397 Clouds 24 1012 78 10000 5.1 110 21:40 03.07.2020
398 Clouds 24 1012 78 10000 5.1 110 21:20 03.07.2020
399 Clouds 24 1011 83 10000 7.7 140 20:55 03.07.2020
400 Clouds 24 1011 83 10000 7.7 140 20:36 03.07.2020
401 Clouds 24 1011 83 10000 7.7 140 20:18 03.07.2020
402 Clouds 23 1013 80 0 5.26 119 19:40 03.07.2020
403 Clouds 25 1012 78 10000 10.3 150 19:19 03.07.2020
404 Clouds 25 1012 78 10000 10.3 150 18:54 03.07.2020
405 Clouds 25 1012 78 10000 10.3 150 18:36 03.07.2020
406 Clouds 25 1012 78 10000 10.3 150 18:18 03.07.2020
407 Clouds 25 1013 78 10000 10.3 140 17:41 03.07.2020
408 Clouds 25 1013 78 10000 10.3 140 17:21 03.07.2020
409 Clouds 23 1013 79 0 7.23 125 16:41 03.07.2020
410 Clouds 23 1013 79 0 7.23 125 16:41 03.07.2020
411 Clouds 23 1014 79 0 7.77 126 16:23 03.07.2020
412 Clouds 23 1014 79 0 7.77 126 15:47 03.07.2020
413 Clouds 23 1014 79 0 8.12 129 15:24 03.07.2020
414 Clouds 23 1014 79 0 8.12 129 14:57 03.07.2020
415 Clouds 23 1014 79 0 8.12 129 14:39 03.07.2020
416 Clouds 23 1014 80 0 7.15 127 14:20 03.07.2020
417 Clouds 23 1014 80 0 7.15 127 13:47 03.07.2020
418 Clouds 24 1014 78 0 7.71 129 13:29 03.07.2020
419 Clouds 24 1014 78 0 7.71 129 12:54 03.07.2020
420 Clouds 24 1014 78 0 7.71 129 12:36 03.07.2020
421 Clouds 24 1014 78 0 8.07 133 12:18 03.07.2020
422 Clouds 24 1014 78 0 8.07 133 11:42 03.07.2020
423 Haze 27 1011 74 10000 5.1 150 11:23 03.07.2020
424 Haze 27 1011 74 10000 5.1 150 10:56 03.07.2020
425 Haze 28 1010 74 10000 5.1 160 10:37 03.07.2020
426 Haze 28 1010 74 10000 5.1 160 10:19 03.07.2020
427 Haze 28 1010 74 10000 5.1 160 09:54 03.07.2020
428 Haze 30 1010 66 10000 5.1 160 09:36 03.07.2020
429 Haze 30 1010 66 10000 5.1 160 09:18 03.07.2020
430 Haze 30 1010 62 10000 7.7 150 08:39 03.07.2020
431 Haze 30 1010 62 10000 7.7 150 08:18 03.07.2020
432 Haze 30 1010 62 10000 7.7 150 07:48 03.07.2020
433 Clouds 31 1010 58 10000 7.7 150 07:26 03.07.2020
434 Clouds 31 1010 58 10000 7.7 150 06:47 03.07.2020
435 Haze 30 1011 62 10000 5.1 150 05:57 03.07.2020
436 Haze 29 1012 66 10000 6.7 140 04:35 03.07.2020
437 Clear 27 1014 73 0 7.05 143 02:57 03.07.2020
438 Clear 27 1014 73 0 7.05 143 02:36 03.07.2020
439 Clouds 26 1014 75 0 6.85 133 02:18 03.07.2020
440 Haze 26 1012 78 10000 10.3 140 01:23 03.07.2020
441 Haze 26 1012 78 10000 10.3 140 00:44 03.07.2020
442 Haze 26 1012 78 10000 10.3 140 00:20 03.07.2020
443 Haze 24 1012 83 10000 4.1 140 23:43 02.07.2020
444 Haze 24 1012 83 10000 4.1 140 23:20 02.07.2020
445 Clouds 24 1011 88 10000 3.1 130 22:57 02.07.2020
446 Clouds 24 1011 88 10000 3.1 130 22:39 02.07.2020
447 Clouds 24 1011 88 10000 3.1 130 22:20 02.07.2020
448 Clouds 24 1011 88 10000 3.1 130 22:20 02.07.2020
449 Clouds 24 1011 83 10000 5.1 140 21:54 02.07.2020
450 Clouds 25 1011 83 10000 6.7 140 21:36 02.07.2020
451 Clouds 25 1011 83 10000 6.7 140 21:18 02.07.2020
452 Clouds 25 1011 83 10000 6.7 140 20:42 02.07.2020
453 Clouds 25 1011 83 10000 6.7 140 20:20 02.07.2020
454 Clouds 25 1011 83 10000 6.7 140 19:56 02.07.2020
455 Clouds 25 1011 83 10000 5.1 140 19:38 02.07.2020
456 Clouds 25 1011 83 10000 5.1 140 19:20 02.07.2020
457 Clouds 25 1011 83 10000 5.1 140 18:56 02.07.2020
458 Clouds 25 1011 83 10000 5.1 140 18:37 02.07.2020
459 Clouds 25 1011 83 10000 5.1 140 18:19 02.07.2020
460 Clouds 25 1011 83 10000 5.1 140 17:39 02.07.2020
461 Clouds 25 1011 83 10000 5.1 140 17:20 02.07.2020
462 Clouds 25 1011 83 10000 5.1 140 16:56 02.07.2020
463 Clouds 26 1012 83 10000 7.7 140 16:37 02.07.2020
464 Clouds 26 1012 83 10000 7.7 140 16:19 02.07.2020
465 Clouds 26 1012 83 10000 7.7 140 15:39 02.07.2020
466 Clouds 26 1012 83 10000 7.7 140 15:21 02.07.2020
467 Clouds 26 1012 83 10000 7.7 140 14:46 02.07.2020
468 Clouds 26 1011 83 10000 7.7 140 14:28 02.07.2020
469 Clouds 26 1011 83 10000 7.7 140 13:57 02.07.2020
470 Clouds 26 1011 83 10000 9.3 150 13:39 02.07.2020
471 Clouds 26 1011 83 10000 9.3 150 13:20 02.07.2020
472 Clouds 26 1011 83 10000 9.3 150 12:58 02.07.2020
473 Clouds 24 1013 85 0 6.06 122 12:38 02.07.2020
474 Rain 24 1012 85 0 6.64 127 12:20 02.07.2020
475 Rain 24 1012 85 0 6.64 127 12:20 02.07.2020
476 Rain 24 1012 85 0 6.64 127 11:43 02.07.2020
477 Haze 26 1010 83 10000 10.3 160 11:25 02.07.2020
478 Haze 26 1010 83 10000 10.3 160 11:25 02.07.2020
479 Haze 26 1010 83 10000 10.3 160 10:48 02.07.2020
480 Clouds 25 1011 78 10000 7.7 90 10:27 02.07.2020
481 Clouds 25 1011 78 10000 7.7 90 09:57 02.07.2020
482 Clouds 25 1011 78 10000 7.7 90 09:39 02.07.2020
483 Clouds 25 1011 78 10000 7.7 90 09:20 02.07.2020
484 Haze 28 1009 78 10000 10.3 150 08:44 02.07.2020
485 Haze 28 1009 78 10000 10.3 150 08:24 02.07.2020
486 Haze 28 1009 78 10000 7.7 160 07:56 02.07.2020
487 Haze 28 1009 78 10000 7.7 160 07:37 02.07.2020
488 Haze 28 1009 78 10000 7.7 160 07:18 02.07.2020
489 Haze 28 1009 74 10000 5.1 150 06:40 02.07.2020
490 Haze 28 1009 74 10000 5.1 150 06:20 02.07.2020
491 Haze 29 1010 74 10000 7.7 160 05:44 02.07.2020
492 Haze 29 1011 70 10000 9.3 150 03:55 02.07.2020
493 Haze 29 1011 74 10000 4.1 140 03:31 02.07.2020
494 Clouds 27 1011 78 10000 5.7 130 00:48 02.07.2020
495 Clouds 24 1010 94 10000 5.1 140 00:25 02.07.2020
496 Clouds 24 1010 94 10000 5.1 140 23:47 01.07.2020
497 Clouds 24 1010 94 10000 3.1 140 23:27 01.07.2020
498 Clouds 24 1010 94 10000 3.1 140 22:57 01.07.2020
499 Rain 24 1011 89 0 5.02 118 22:38 01.07.2020
500 Rain 24 1011 89 0 5 120 22:19 01.07.2020
501 Rain 24 1011 89 0 5 120 21:58 01.07.2020
502 Rain 24 1011 89 0 5 120 21:40 01.07.2020
503 Clouds 25 1009 88 10000 2.6 140 21:22 01.07.2020
504 Clouds 25 1009 88 10000 2.6 140 20:56 01.07.2020
505 Clouds 25 1009 88 10000 2.6 140 20:56 01.07.2020
506 Clouds 25 1009 88 10000 4.1 140 20:38 01.07.2020
507 Clouds 25 1009 88 10000 4.1 140 20:38 01.07.2020
508 Clouds 25 1009 88 10000 4.1 140 20:19 01.07.2020
509 Clouds 25 1009 88 10000 4.1 140 19:43 01.07.2020
510 Clouds 25 1010 94 10000 5.1 130 19:24 01.07.2020
511 Clouds 25 1010 94 10000 5.1 130 18:59 01.07.2020
512 Rain 24 1011 91 0 4.19 109 18:40 01.07.2020
513 Clouds 25 1010 88 10000 4.1 140 18:21 01.07.2020
514 Rain 24 1011 91 0 4.55 112 17:56 01.07.2020
515 Clouds 25 1010 94 10000 5.1 140 17:37 01.07.2020
516 Clouds 25 1010 94 10000 5.1 140 17:18 01.07.2020
517 Clouds 25 1010 94 10000 5.1 140 16:43 01.07.2020
518 Clouds 25 1010 94 10000 5.1 140 16:24 01.07.2020
519 Clouds 25 1010 94 10000 5.1 140 15:43 01.07.2020
520 Clouds 25 1010 94 10000 5.1 140 15:25 01.07.2020
521 Clouds 26 1010 88 10000 7.7 150 14:59 01.07.2020
522 Clouds 26 1010 88 10000 7.7 150 14:41 01.07.2020
523 Clouds 26 1010 88 10000 7.7 150 14:20 01.07.2020
524 Clouds 26 1010 88 10000 7.7 160 13:55 01.07.2020
525 Clouds 26 1010 88 10000 7.7 160 13:37 01.07.2020
526 Clouds 26 1010 88 10000 7.7 160 13:37 01.07.2020
527 Clouds 26 1010 88 10000 7.7 160 13:18 01.07.2020
528 Clouds 26 1010 88 10000 7.7 150 12:41 01.07.2020
529 Clouds 27 1009 88 10000 5.1 150 12:23 01.07.2020
530 Clouds 27 1009 88 10000 5.1 150 11:59 01.07.2020
531 Clouds 27 1009 88 10000 5.1 150 11:40 01.07.2020
532 Clouds 27 1009 88 10000 5.1 150 11:21 01.07.2020
533 Haze 27 1008 88 10000 5.1 160 10:56 01.07.2020
534 Haze 28 1008 83 10000 5.1 160 10:38 01.07.2020
535 Haze 28 1008 83 10000 5.1 160 10:20 01.07.2020
536 Haze 29 1007 79 10000 4.1 160 09:38 01.07.2020
537 Haze 29 1007 79 10000 4.1 160 09:20 01.07.2020
538 Haze 29 1007 79 10000 4.1 160 08:57 01.07.2020
539 Haze 29 1007 74 10000 7.82 149 08:39 01.07.2020
540 Haze 29 1007 74 10000 8.01 151 08:19 01.07.2020
541 Haze 29 1007 74 10000 8.01 151 07:41 01.07.2020
542 Haze 28 1008 78 10000 4.1 140 07:22 01.07.2020
543 Haze 28 1008 78 10000 4.1 140 06:54 01.07.2020
544 Haze 28 1009 78 10000 4.6 150 06:32 01.07.2020
545 Haze 28 1009 78 10000 3.6 150 05:35 01.07.2020
546 Haze 28 1010 74 10000 2.6 100 03:55 01.07.2020
547 Haze 27 1010 78 10000 2.6 130 03:36 01.07.2020
548 Haze 27 1010 78 10000 2.6 130 03:18 01.07.2020
549 Haze 26 1010 83 10000 3.6 150 01:55 01.07.2020
550 Haze 25 1010 88 10000 2.6 170 00:48 01.07.2020
551 Haze 24 1009 94 10000 2.6 120 00:26 01.07.2020
552 Haze 24 1009 94 10000 2.6 120 23:57 30.06.2020
553 Clouds 24 1009 88 10000 2.6 0 23:39 30.06.2020
554 Clouds 24 1009 88 10000 2.6 0 23:19 30.06.2020
555 Clouds 24 1009 88 10000 2.6 0 22:41 30.06.2020
556 Clouds 24 1010 89 0 4.78 125 22:18 30.06.2020
557 Clouds 24 1010 89 0 4.78 125 21:41 30.06.2020
558 Clouds 24 1010 88 0 5.13 126 21:19 30.06.2020
559 Rain 24 1010 89 0 5.21 126 20:57 30.06.2020
560 Rain 24 1010 89 0 5.21 126 20:39 30.06.2020
561 Rain 24 1010 88 0 6.01 129 20:20 30.06.2020
562 Rain 24 1010 88 0 6.01 129 19:42 30.06.2020
563 Rain 24 1010 88 0 6.01 130 19:20 30.06.2020
564 Rain 24 1010 88 0 6.01 130 18:46 30.06.2020
565 Rain 24 1010 88 0 6.12 131 18:21 30.06.2020
566 Rain 24 1010 88 0 6.12 131 17:59 30.06.2020
567 Clouds 25 1010 88 10000 5.1 140 17:38 30.06.2020
568 Clouds 25 1010 88 10000 5.1 140 17:19 30.06.2020
569 Clouds 25 1010 88 10000 5.1 140 16:43 30.06.2020
570 Clouds 25 1010 88 10000 5.1 140 16:24 30.06.2020
571 Clouds 25 1010 88 10000 5.1 140 15:59 30.06.2020
572 Rain 24 1011 87 0 7.53 134 15:40 30.06.2020
573 Rain 24 1011 87 0 7.53 134 15:40 30.06.2020
574 Clouds 25 1011 88 10000 5.1 140 15:21 30.06.2020
575 Clouds 25 1011 88 10000 5.1 140 14:54 30.06.2020
576 Clouds 25 1011 88 10000 5.1 140 14:36 30.06.2020
577 Clouds 25 1011 88 10000 5.1 140 14:18 30.06.2020
578 Rain 24 1012 88 0 7.97 134 13:40 30.06.2020
579 Clouds 25 1011 88 10000 5.1 160 13:20 30.06.2020
580 Clouds 25 1011 88 10000 5.1 160 12:57 30.06.2020
581 Clouds 25 1011 88 10000 5.1 160 12:39 30.06.2020
582 Clouds 25 1011 88 10000 5.1 160 12:20 30.06.2020
583 Clouds 25 1011 88 10000 5.1 160 11:57 30.06.2020
584 Haze 26 1010 83 10000 5.1 160 11:38 30.06.2020
585 Haze 26 1010 83 10000 5.1 160 11:38 30.06.2020
586 Haze 26 1010 83 10000 5.1 160 11:19 30.06.2020
587 Haze 26 1010 83 10000 5.1 160 10:55 30.06.2020
588 Clouds 26 1011 88 10000 5.1 150 16:38 28.06.2020
589 Clouds 26 1011 88 10000 5.1 150 16:19 28.06.2020
590 Clouds 26 1011 88 10000 5.1 150 15:55 28.06.2020
591 Clouds 26 1011 88 10000 7.7 140 15:37 28.06.2020
592 Clouds 26 1011 88 10000 7.7 140 15:18 28.06.2020
593 Clouds 26 1011 88 10000 7.7 140 14:42 28.06.2020
594 Rain 25 1012 90 0 6.53 133 14:24 28.06.2020
595 Rain 25 1012 89 0 5.66 130 13:55 28.06.2020
596 Clouds 26 1010 88 10000 9.3 160 13:36 28.06.2020
597 Clouds 26 1010 88 10000 9.3 160 13:18 28.06.2020
598 Clouds 26 1010 88 10000 9.3 160 12:55 28.06.2020
599 Clouds 26 1010 88 10000 9.3 160 12:55 28.06.2020
600 Clouds 27 1009 83 10000 9.3 150 12:36 28.06.2020
601 Clouds 27 1009 83 10000 9.3 150 12:18 28.06.2020
602 Clouds 27 1009 83 10000 9.3 150 11:42 28.06.2020
603 Clouds 27 1009 83 10000 10.3 150 11:21 28.06.2020
604 Clouds 27 1009 83 10000 10.3 150 10:59 28.06.2020
605 Clouds 27 1009 83 10000 10.3 150 10:40 28.06.2020
606 Rain 25 1010 87 0 8.15 145 10:21 28.06.2020
607 Rain 25 1010 87 0 8.15 145 09:41 28.06.2020
608 Rain 26 1009 85 0 8.69 151 09:23 28.06.2020
609 Rain 26 1009 85 0 8.69 151 08:56 28.06.2020
610 Rain 26 1009 85 0 8.69 151 08:36 28.06.2020
611 Rain 27 1008 81 0 8.4 153 08:18 28.06.2020
612 Rain 27 1008 81 0 8.4 153 07:33 28.06.2020
613 Rain 27 1008 79 0 8.02 156 06:56 28.06.2020
614 Rain 27 1008 79 0 8.02 156 06:32 28.06.2020
615 Clouds 28 1009 76 0 7.62 159 05:45 28.06.2020
616 Haze 30 1010 70 10000 4.6 200 04:24 28.06.2020
617 Haze 30 1011 94 10000 1.5 0 02:56 28.06.2020
618 Clouds 27 1012 76 0 2.99 142 02:19 28.06.2020
619 Clouds 26 1012 82 0 3.04 123 01:27 28.06.2020
620 Clouds 26 1012 82 0 3.04 123 00:53 28.06.2020
621 Clouds 25 1011 86 0 3.59 113 00:29 28.06.2020
622 Clouds 25 1011 86 0 3.59 113 23:45 27.06.2020
623 Clouds 24 1011 89 0 4.26 117 23:24 27.06.2020
624 Clouds 24 1011 89 0 4.26 117 22:59 27.06.2020
625 Clouds 24 1011 89 0 4.26 117 22:41 27.06.2020
626 Clouds 24 1010 88 10000 1.5 0 22:23 27.06.2020
627 Clouds 24 1010 88 10000 1.5 0 21:57 27.06.2020
628 Clouds 24 1010 88 10000 1.5 0 21:39 27.06.2020
629 Clouds 24 1010 88 10000 1.5 0 21:20 27.06.2020
630 Clouds 25 1009 88 10000 5.1 140 20:45 27.06.2020
631 Clouds 25 1009 88 10000 5.1 140 20:45 27.06.2020
632 Clouds 25 1009 88 10000 5.1 140 20:19 27.06.2020
633 Clouds 25 1009 88 10000 5.1 140 20:19 27.06.2020
634 Clouds 25 1009 88 10000 5.1 130 19:56 27.06.2020
635 Clouds 25 1009 88 10000 5.1 130 19:37 27.06.2020
636 Clouds 25 1009 88 10000 5.1 130 19:18 27.06.2020
637 Clouds 25 1010 88 10000 5.1 120 18:47 27.06.2020
638 Clouds 25 1010 88 10000 5.1 120 18:28 27.06.2020
639 Clouds 25 1010 88 10000 7.7 140 17:58 27.06.2020
640 Clouds 25 1010 88 10000 7.7 140 17:38 27.06.2020
641 Clouds 25 1010 88 10000 7.7 140 17:19 27.06.2020
642 Rain 24 1011 88 0 7.44 130 16:46 27.06.2020
643 Rain 24 1012 87 0 7.72 131 16:28 27.06.2020
644 Rain 24 1012 87 0 7.72 131 15:59 27.06.2020
645 Rain 24 1012 87 0 7.72 131 15:39 27.06.2020
646 Rain 25 1012 87 0 7.54 134 15:21 27.06.2020
647 Rain 25 1012 87 0 7.54 134 14:43 27.06.2020
648 Clouds 25 1012 85 0 7.72 132 14:24 27.06.2020
649 Clouds 25 1012 85 0 7.72 132 13:58 27.06.2020
650 Clouds 25 1012 85 0 7.72 132 13:38 27.06.2020
651 Clouds 25 1012 84 0 7.84 132 13:19 27.06.2020
652 Clouds 25 1012 84 0 7.84 132 12:57 27.06.2020
653 Clouds 25 1012 84 0 7.84 132 12:38 27.06.2020
654 Clouds 25 1011 83 0 7.57 134 12:20 27.06.2020
655 Clouds 25 1011 83 0 7.57 134 11:43 27.06.2020
656 Clouds 27 1009 83 10000 7.7 160 11:24 27.06.2020
657 Clouds 27 1009 83 10000 7.7 160 10:59 27.06.2020
658 Clouds 27 1009 83 10000 7.7 160 10:38 27.06.2020
659 Clouds 27 1009 83 10000 7.7 160 10:18 27.06.2020
660 Clouds 29 1008 74 10000 7.7 160 09:41 27.06.2020
661 Clouds 29 1008 74 10000 7.7 160 09:21 27.06.2020
662 Clouds 29 1008 79 10000 5.1 160 08:56 27.06.2020
663 Clouds 29 1008 79 10000 5.1 160 08:38 27.06.2020
664 Clouds 29 1008 79 10000 5.1 160 08:19 27.06.2020
665 Clouds 31 1008 66 10000 5.1 160 07:38 27.06.2020
666 Clouds 31 1008 66 10000 5.1 160 07:19 27.06.2020
667 Clouds 31 1009 66 10000 5.1 160 06:38 27.06.2020
668 Clouds 31 1009 66 10000 5.1 160 06:18 27.06.2020
669 Clouds 30 1010 70 10000 10.3 160 04:22 27.06.2020
670 Clouds 30 1010 70 10000 10.3 160 03:51 27.06.2020
671 Clouds 29 1010 70 10000 10.3 150 02:48 27.06.2020
672 Clouds 26 1011 83 10000 5.1 130 02:28 27.06.2020
673 Clouds 26 1011 83 10000 5.1 130 01:41 27.06.2020
674 Clouds 26 1011 83 10000 5.1 140 00:54 27.06.2020
675 Clouds 26 1011 83 10000 5.1 140 00:18 27.06.2020
676 Clouds 25 1010 88 10000 5.1 130 23:41 26.06.2020
677 Clouds 25 1010 88 10000 5.1 130 23:21 26.06.2020
678 Clouds 24 1010 94 10000 5.1 130 22:55 26.06.2020
679 Clouds 24 1010 94 10000 5.1 130 22:36 26.06.2020
680 Clouds 24 1010 94 10000 5.1 130 22:18 26.06.2020
681 Clouds 24 1009 94 10000 5.1 130 21:56 26.06.2020
682 Clouds 24 1009 94 10000 5.1 130 21:36 26.06.2020
683 Clouds 24 1009 94 10000 5.1 130 21:18 26.06.2020
684 Clouds 24 1009 94 10000 5.1 130 21:18 26.06.2020
685 Clouds 24 1009 94 10000 5.1 130 20:41 26.06.2020
686 Clouds 25 1009 88 10000 5.1 130 20:19 26.06.2020
687 Clouds 25 1009 88 10000 5.1 130 19:41 26.06.2020
688 Clouds 25 1009 88 10000 5.1 140 19:23 26.06.2020
689 Clouds 25 1009 88 10000 5.1 140 18:44 26.06.2020
690 Clouds 25 1010 88 10000 7.7 140 18:25 26.06.2020
691 Clouds 25 1010 88 10000 7.7 140 17:58 26.06.2020
692 Clear 24 1011 89 0 5.7 122 17:40 26.06.2020
693 Clouds 26 1010 88 10000 7.7 140 17:21 26.06.2020
694 Clouds 26 1010 88 10000 7.7 140 16:43 26.06.2020
695 Clear 24 1011 89 0 6.74 126 16:23 26.06.2020
696 Clear 24 1011 89 0 6.74 126 15:42 26.06.2020
697 Clear 24 1011 88 0 6.92 128 15:22 26.06.2020
698 Clear 24 1011 88 0 6.92 128 14:59 26.06.2020
699 Clear 24 1011 88 0 6.92 128 14:59 26.06.2020
700 Clear 24 1011 88 0 6.92 128 14:40 26.06.2020
701 Clear 25 1011 87 0 6.72 131 14:22 26.06.2020
702 Clear 25 1011 87 0 6.72 131 13:47 26.06.2020
703 Clouds 25 1011 86 0 6.86 131 13:26 26.06.2020
704 Clouds 25 1011 86 0 6.86 131 12:59 26.06.2020
705 Clouds 25 1011 86 0 6.86 131 12:41 26.06.2020
706 Clouds 25 1011 85 0 7.74 133 12:22 26.06.2020
707 Clouds 25 1011 85 0 7.74 133 11:57 26.06.2020
708 Haze 27 1008 83 10000 10.3 150 11:39 26.06.2020
709 Haze 27 1008 83 10000 10.3 150 11:20 26.06.2020
710 Haze 27 1008 83 10000 10.3 150 10:57 26.06.2020
711 Haze 29 1007 79 10000 10.3 160 10:38 26.06.2020
712 Haze 29 1007 79 10000 10.3 160 10:18 26.06.2020
713 Haze 29 1007 79 10000 10.3 160 09:43 26.06.2020
714 Haze 29 1007 79 10000 10.3 160 09:22 26.06.2020
715 Haze 30 1007 74 10000 10.3 160 08:51 26.06.2020
716 Haze 30 1007 74 10000 10.3 160 08:28 26.06.2020
717 Haze 31 1007 70 10000 5.1 170 07:52 26.06.2020
718 Clouds 28 1008 74 0 8.45 151 07:24 26.06.2020
719 Haze 32 1007 62 10000 7.7 180 06:57 26.06.2020
720 Haze 32 1007 62 10000 7.7 180 06:35 26.06.2020
721 Haze 31 1008 66 10000 7.7 170 05:58 26.06.2020
722 Haze 31 1008 66 10000 7.7 170 05:31 26.06.2020
723 Haze 28 1010 83 10000 5.1 170 02:42 26.06.2020
724 Haze 28 1010 83 10000 1.5 0 02:21 26.06.2020
725 Haze 26 1010 94 10000 1.5 0 00:56 26.06.2020
726 Haze 25 1009 100 10000 1.5 0 00:38 26.06.2020
727 Haze 25 1009 100 10000 1.5 0 23:48 25.06.2020
728 Clouds 25 1009 100 10000 1.5 0 23:23 25.06.2020
729 Clouds 25 1009 100 10000 1.5 0 22:59 25.06.2020
730 Clouds 23 1011 86 0 2.21 107 22:40 25.06.2020
731 Clouds 25 1008 100 10000 1.5 0 22:20 25.06.2020
732 Clouds 25 1008 100 10000 1.5 0 22:20 25.06.2020
733 Clouds 25 1008 100 10000 1.5 0 21:58 25.06.2020
734 Clouds 23 1010 87 0 2.83 95 21:40 25.06.2020
735 Clouds 25 1008 94 10000 1.5 0 21:21 25.06.2020
736 Clouds 25 1008 94 10000 1.5 0 20:57 25.06.2020
737 Clouds 24 1008 100 10000 1.5 0 20:39 25.06.2020
738 Clouds 24 1008 100 10000 1.5 0 20:21 25.06.2020
739 Clouds 24 1008 100 10000 1.5 0 19:54 25.06.2020
740 Clouds 24 1010 89 0 3.32 105 19:36 25.06.2020
741 Clouds 24 1010 90 0 3.73 109 19:18 25.06.2020
742 Clouds 25 1008 94 10000 1.5 0 18:39 25.06.2020
743 Clouds 25 1008 94 10000 1.5 0 18:20 25.06.2020
744 Clouds 25 1008 94 10000 1.5 0 17:45 25.06.2020
745 Clouds 25 1009 100 10000 3.6 130 17:20 25.06.2020
746 Clouds 25 1009 100 10000 3.6 130 16:58 25.06.2020
747 Clouds 26 1009 94 10000 3.6 140 16:38 25.06.2020
748 Clouds 26 1009 94 10000 3.6 140 16:19 25.06.2020
749 Clouds 26 1009 94 10000 3.6 140 15:43 25.06.2020
750 Clouds 26 1009 94 10000 5.1 150 15:25 25.06.2020
751 Clouds 26 1009 94 10000 5.1 150 14:55 25.06.2020
752 Clouds 27 1009 88 10000 7.7 150 14:36 25.06.2020
753 Clouds 27 1009 88 10000 7.7 150 14:18 25.06.2020
754 Clouds 27 1009 88 10000 7.7 150 13:42 25.06.2020
755 Clouds 27 1009 88 10000 7.7 150 13:20 25.06.2020
756 Clouds 27 1009 88 10000 6.2 150 12:57 25.06.2020
757 Clouds 28 1008 88 10000 7.7 150 12:39 25.06.2020
758 Clouds 28 1008 88 10000 7.7 150 12:19 25.06.2020
759 Clouds 28 1008 88 10000 7.7 150 11:42 25.06.2020
760 Clouds 28 1008 88 10000 7.7 150 11:21 25.06.2020
761 Haze 28 1008 83 10000 7.7 160 10:44 25.06.2020
762 Haze 29 1007 83 10000 7.7 170 10:25 25.06.2020
763 Haze 29 1007 83 10000 7.7 170 09:55 25.06.2020
764 Clouds 30 1007 74 10000 7.7 170 09:37 25.06.2020
765 Clouds 30 1007 74 10000 7.7 170 09:18 25.06.2020
766 Clouds 30 1007 74 10000 7.7 170 08:42 25.06.2020
767 Clouds 30 1007 79 10000 7.7 150 08:18 25.06.2020
768 Clouds 30 1007 79 10000 7.7 150 08:18 25.06.2020
769 Clouds 30 1007 79 10000 7.7 150 08:18 25.06.2020
770 Clouds 30 1007 79 10000 7.7 150 07:43 25.06.2020
771 Clouds 31 1007 70 10000 7.7 200 07:24 25.06.2020
772 Clouds 31 1007 70 10000 7.7 200 06:45 25.06.2020
773 Clouds 31 1008 70 10000 5.1 170 06:25 25.06.2020
774 Clouds 31 1009 70 10000 5.1 140 05:38 25.06.2020
775 Clouds 30 1010 74 10000 5.1 130 03:49 25.06.2020
776 Clouds 29 1010 79 10000 2.6 110 02:58 25.06.2020
777 Clouds 27 1011 77 0 1.82 171 02:40 25.06.2020
778 Clouds 28 1010 83 10000 2.6 130 01:43 25.06.2020
779 Clouds 26 1012 85 0 1.66 150 00:51 25.06.2020
780 Clouds 25 1009 94 10000 1.5 0 00:25 25.06.2020
781 Clouds 25 1009 94 10000 1.5 0 23:59 24.06.2020
782 Clouds 24 1009 100 10000 1.5 0 23:38 24.06.2020
783 Clouds 24 1009 100 10000 1.5 0 23:20 24.06.2020
784 Clouds 24 1009 100 10000 1.5 0 22:44 24.06.2020
785 Clouds 24 1008 100 10000 1.5 0 22:22 24.06.2020
786 Clouds 24 1008 100 10000 1.5 0 21:57 24.06.2020
787 Clouds 24 1008 100 10000 1.5 0 21:38 24.06.2020
788 Clouds 24 1008 100 10000 1.5 0 21:20 24.06.2020
789 Clouds 24 1008 100 10000 1.5 0 20:59 24.06.2020
790 Clouds 24 1008 100 10000 1.5 0 20:41 24.06.2020
791 Clouds 24 1008 100 10000 1.5 0 20:22 24.06.2020
792 Clouds 24 1008 100 10000 1.5 0 19:59 24.06.2020
793 Clouds 24 1010 92 0 1.37 82 19:39 24.06.2020
794 Clouds 24 1010 92 0 1.55 81 19:21 24.06.2020
795 Clouds 24 1010 92 0 1.55 81 18:58 24.06.2020
796 Clouds 24 1010 92 0 1.55 81 18:58 24.06.2020
797 Clouds 24 1010 92 0 1.55 81 18:40 24.06.2020
798 Clouds 25 1009 94 10000 4.1 200 18:21 24.06.2020
799 Clouds 25 1009 94 10000 4.1 200 17:56 24.06.2020
800 Clouds 25 1009 94 10000 4.1 200 17:56 24.06.2020
801 Clouds 25 1009 94 10000 2.6 160 17:38 24.06.2020
802 Clouds 25 1009 94 10000 2.6 160 17:19 24.06.2020
803 Clouds 25 1009 94 10000 2.6 160 16:56 24.06.2020
804 Clouds 26 1010 94 10000 2.6 160 16:37 24.06.2020
805 Clouds 26 1010 94 10000 2.6 160 16:19 24.06.2020
806 Clouds 26 1010 94 10000 2.6 160 15:55 24.06.2020
807 Clouds 26 1010 94 10000 5.1 160 15:37 24.06.2020
808 Clouds 26 1010 94 10000 5.1 160 15:19 24.06.2020
809 Clouds 26 1010 94 10000 5.1 160 14:42 24.06.2020
810 Clouds 26 1010 94 10000 7.7 150 14:23 24.06.2020
811 Clouds 26 1010 94 10000 7.7 150 13:43 24.06.2020
812 Clouds 27 1009 88 10000 7.7 160 13:22 24.06.2020
813 Clouds 27 1009 88 10000 7.7 160 12:54 24.06.2020
814 Clouds 27 1009 88 10000 7.7 160 12:36 24.06.2020
815 Clouds 27 1009 88 10000 7.7 160 12:18 24.06.2020
816 Clouds 27 1009 88 10000 7.7 160 11:42 24.06.2020
817 Clouds 27 1009 88 10000 7.7 160 11:42 24.06.2020
818 Haze 28 1008 88 10000 6.7 150 11:24 24.06.2020
819 Haze 28 1008 88 10000 6.7 150 10:55 24.06.2020
820 Haze 28 1008 88 10000 5.1 140 10:36 24.06.2020
821 Haze 28 1008 88 10000 5.1 140 10:18 24.06.2020
822 Haze 28 1008 88 10000 5.1 140 09:42 24.06.2020
823 Haze 29 1008 79 10000 5.1 150 09:21 24.06.2020
824 Haze 29 1008 79 10000 5.1 150 08:41 24.06.2020
825 Haze 30 1008 74 10000 7.7 150 08:20 24.06.2020
826 Haze 30 1008 74 10000 7.7 150 07:50 24.06.2020
827 Haze 30 1008 74 10000 6.2 140 07:29 24.06.2020
828 Haze 30 1008 74 10000 6.2 140 06:49 24.06.2020
829 Haze 31 1009 74 10000 5.1 210 06:25 24.06.2020
830 Haze 31 1009 74 10000 5.1 210 05:48 24.06.2020
831 Haze 29 1010 79 10000 5.1 130 04:42 24.06.2020
832 Haze 30 1010 74 10000 4.1 150 03:51 24.06.2020
833 Clouds 27 1011 77 0 3.17 173 03:33 24.06.2020
834 Clouds 27 1012 76 0 2.44 169 02:41 24.06.2020
835 Haze 26 1011 94 10000 1.5 0 01:19 24.06.2020
836 Haze 26 1011 94 10000 1.5 0 00:41 24.06.2020
837 Haze 25 1010 100 10000 1.5 0 00:21 24.06.2020
838 Haze 25 1010 100 10000 1.5 0 23:41 23.06.2020
839 Clouds 24 1012 90 0 1.69 95 23:19 23.06.2020
840 Clouds 24 1012 90 0 1.69 95 22:42 23.06.2020
841 Clouds 24 1012 91 0 1.61 90 22:19 23.06.2020
842 Clouds 24 1012 91 0 1.61 90 21:59 23.06.2020
843 Clouds 24 1012 91 0 1.61 90 21:38 23.06.2020
844 Clouds 24 1011 91 0 1.85 91 21:19 23.06.2020
845 Clouds 24 1011 91 0 1.85 91 20:55 23.06.2020
846 Clouds 24 1011 91 0 1.85 91 20:55 23.06.2020
847 Clouds 24 1011 91 0 1.85 91 20:37 23.06.2020
848 Clouds 24 1010 91 0 2.18 96 20:18 23.06.2020
849 Clouds 24 1010 91 0 2.18 96 19:44 23.06.2020
850 Clouds 24 1010 92 0 2.61 104 19:24 23.06.2020
851 Clouds 24 1010 92 0 2.61 104 18:40 23.06.2020
852 Clouds 24 1011 91 0 3.25 112 18:19 23.06.2020
853 Clouds 24 1011 91 0 3.25 112 17:56 23.06.2020
854 Clouds 24 1011 91 0 3.25 112 17:56 23.06.2020
855 Clouds 24 1011 91 0 3.25 112 17:38 23.06.2020
856 Clouds 24 1011 91 0 3.95 120 17:18 23.06.2020
857 Clouds 24 1011 91 0 3.95 120 16:54 23.06.2020
858 Clouds 26 1011 94 10000 5.1 150 16:36 23.06.2020
859 Clouds 26 1011 94 10000 5.1 150 16:18 23.06.2020
860 Clouds 26 1011 94 10000 5.1 150 15:42 23.06.2020
861 Clouds 27 1011 88 10000 5.1 150 15:23 23.06.2020
862 Clouds 27 1011 88 10000 5.1 150 14:54 23.06.2020
863 Clouds 27 1011 88 10000 5.1 150 14:36 23.06.2020
864 Clouds 27 1011 88 10000 5.1 150 14:18 23.06.2020
865 Clouds 27 1011 88 10000 5.1 150 13:45 23.06.2020
866 Clouds 27 1011 88 10000 7.7 160 13:25 23.06.2020
867 Clouds 27 1011 88 10000 7.7 160 12:46 23.06.2020
868 Clouds 27 1010 88 10000 7.7 160 12:23 23.06.2020
869 Clouds 27 1010 88 10000 7.7 160 11:59 23.06.2020
870 Clouds 27 1010 88 10000 7.7 160 11:40 23.06.2020
871 Haze 27 1009 88 10000 10.3 150 11:21 23.06.2020
872 Haze 27 1009 88 10000 10.3 150 10:58 23.06.2020
873 Smoke 27 1008 88 10000 7.7 150 10:39 23.06.2020
874 Smoke 27 1008 88 10000 7.7 150 10:21 23.06.2020
875 Smoke 27 1008 88 10000 7.7 150 09:55 23.06.2020
876 Smoke 29 1008 79 10000 5.1 160 09:36 23.06.2020
877 Smoke 29 1008 79 10000 5.1 160 09:18 23.06.2020
878 Smoke 29 1008 79 10000 5.1 160 08:41 23.06.2020
879 Smoke 29 1008 79 10000 5.1 150 08:22 23.06.2020
880 Smoke 29 1008 79 10000 5.1 150 07:43 23.06.2020
881 Smoke 29 1009 79 10000 7.7 160 07:24 23.06.2020
882 Smoke 29 1009 79 10000 7.7 160 06:51 23.06.2020
883 Haze 30 1010 74 10000 8.2 160 06:31 23.06.2020
884 Haze 30 1010 74 10000 8.2 160 05:46 23.06.2020
885 Rain 27 1010 80 0 6.82 168 04:39 23.06.2020
886 Haze 29 1011 79 10000 4.1 140 03:18 23.06.2020
887 Haze 29 1011 79 10000 4.1 140 02:42 23.06.2020
888 Haze 28 1011 78 10000 3.1 150 02:24 23.06.2020
889 Haze 28 1011 78 10000 3.1 150 01:43 23.06.2020
890 Haze 27 1011 83 10000 2.6 120 01:20 23.06.2020
891 Haze 24 1010 94 10000 1.5 180 00:24 23.06.2020
892 Haze 24 1010 94 10000 1.5 180 23:58 22.06.2020
893 Clouds 25 1010 88 10000 1.5 140 23:39 22.06.2020
894 Clouds 25 1010 88 10000 1.5 140 23:19 22.06.2020
895 Clouds 25 1010 88 10000 1.5 140 22:57 22.06.2020
896 Clouds 25 1012 88 0 3.56 121 22:39 22.06.2020
897 Clouds 24 1011 89 0 4.19 122 22:20 22.06.2020
898 Clouds 24 1011 89 0 4.19 122 21:57 22.06.2020
899 Clouds 26 1010 88 10000 5.1 140 21:38 22.06.2020
900 Clouds 26 1010 88 10000 5.1 140 21:20 22.06.2020
901 Clouds 26 1010 88 10000 5.1 140 20:42 22.06.2020
902 Clouds 26 1010 88 10000 5.1 140 20:42 22.06.2020
903 Clouds 26 1010 88 10000 5.7 140 20:24 22.06.2020
904 Clouds 26 1010 88 10000 5.7 140 19:57 22.06.2020
905 Clouds 24 1010 89 0 4.34 128 19:37 22.06.2020
906 Clouds 24 1010 89 0 4.13 127 19:18 22.06.2020
907 Clouds 24 1010 89 0 4.13 127 18:40 22.06.2020
908 Clouds 26 1010 88 10000 5.7 140 18:22 22.06.2020
909 Clouds 26 1010 88 10000 5.7 140 17:57 22.06.2020
910 Clouds 26 1010 88 10000 5.7 140 17:38 22.06.2020
911 Clouds 26 1010 88 10000 5.7 140 17:20 22.06.2020
912 Clouds 25 1011 88 0 4.58 126 16:55 22.06.2020
913 Clouds 26 1010 88 10000 6.2 140 16:37 22.06.2020
914 Clouds 26 1010 88 10000 6.2 140 16:18 22.06.2020
915 Clouds 26 1010 88 10000 6.2 140 15:43 22.06.2020
916 Clouds 26 1011 88 10000 5.7 150 15:25 22.06.2020
917 Clouds 26 1011 88 10000 5.7 150 14:57 22.06.2020
918 Clouds 26 1010 88 10000 6.2 140 14:36 22.06.2020
919 Clouds 26 1010 88 10000 6.2 140 14:18 22.06.2020
920 Clouds 26 1010 88 10000 6.2 140 13:40 22.06.2020
921 Clouds 26 1010 94 10000 7.7 140 13:21 22.06.2020
922 Clouds 26 1010 94 10000 7.7 140 12:59 22.06.2020
923 Clouds 26 1010 94 10000 7.7 140 12:40 22.06.2020
924 Clouds 26 1009 94 10000 7.7 150 12:22 22.06.2020
925 Haze 26 1009 88 10000 8.7 150 11:37 22.06.2020
926 Haze 26 1009 88 10000 8.7 150 11:19 22.06.2020
927 Haze 26 1009 88 10000 8.7 150 10:57 22.06.2020
928 Haze 26 1009 88 10000 8.7 150 10:38 22.06.2020
929 Haze 26 1009 88 10000 8.7 150 10:19 22.06.2020
930 Clouds 28 1008 83 10000 5.1 150 09:56 22.06.2020
931 Clouds 28 1008 83 10000 5.1 150 09:38 22.06.2020
932 Clouds 28 1008 83 10000 5.1 150 09:18 22.06.2020
933 Clouds 28 1008 78 10000 9.8 160 08:54 22.06.2020
934 Haze 28 1008 83 10000 9.3 140 08:36 22.06.2020
935 Haze 28 1008 83 10000 9.3 140 08:18 22.06.2020
936 Haze 28 1008 83 10000 9.3 140 07:45 22.06.2020
937 Haze 29 1008 79 10000 5.1 140 07:24 22.06.2020
938 Haze 31 1009 70 10000 6.7 160 06:38 22.06.2020
939 Haze 31 1009 70 10000 6.7 160 06:19 22.06.2020
940 Haze 31 1009 70 10000 6.7 160 05:41 22.06.2020
941 Clouds 28 1010 83 10000 5.1 200 03:22 22.06.2020
942 Clouds 26 1010 88 10000 5.1 130 01:39 22.06.2020
943 Clouds 26 1010 88 10000 5.1 130 00:44 22.06.2020
944 Clouds 25 1009 94 10000 1.5 0 00:25 22.06.2020
945 Clouds 25 1009 94 10000 1.5 0 23:56 21.06.2020
946 Clouds 25 1009 94 10000 2.6 140 23:37 21.06.2020
947 Clouds 25 1009 94 10000 2.6 140 23:19 21.06.2020
948 Clouds 25 1009 94 10000 2.6 140 22:55 21.06.2020
949 Clouds 25 1008 94 10000 2.6 140 22:36 21.06.2020
950 Clouds 25 1008 94 10000 2.6 140 22:18 21.06.2020
951 Clouds 25 1008 94 10000 2.6 140 21:54 21.06.2020
952 Clouds 25 1008 94 10000 2.6 140 21:36 21.06.2020
953 Clouds 25 1008 94 10000 2.6 140 21:18 21.06.2020
954 Clouds 25 1008 94 10000 2.6 140 20:40 21.06.2020
955 Clouds 25 1008 94 10000 2.6 140 20:19 21.06.2020
956 Clouds 26 1008 94 10000 2.6 140 19:59 21.06.2020
957 Clouds 26 1008 94 10000 2.6 140 19:40 21.06.2020
958 Clouds 26 1009 94 10000 5.1 140 19:20 21.06.2020
959 Clouds 26 1009 94 10000 5.1 140 18:55 21.06.2020
960 Clouds 26 1009 94 10000 7.7 150 18:37 21.06.2020
961 Clouds 26 1009 94 10000 7.7 150 18:19 21.06.2020
962 Clouds 26 1009 94 10000 7.7 150 18:19 21.06.2020
963 Clouds 26 1009 94 10000 7.7 150 17:41 21.06.2020
964 Clouds 26 1009 94 10000 7.7 150 17:21 21.06.2020
965 Clouds 26 1009 94 10000 7.7 150 16:57 21.06.2020
966 Clouds 24 1010 91 0 4.22 125 16:39 21.06.2020
967 Clouds 24 1010 91 0 4.86 128 16:20 21.06.2020
968 Clouds 24 1010 91 0 4.86 128 15:39 21.06.2020
969 Clouds 25 1010 91 0 5.24 131 15:21 21.06.2020
970 Clouds 25 1010 91 0 5.24 131 14:55 21.06.2020
971 Clouds 25 1010 91 0 5.24 131 14:37 21.06.2020
972 Clouds 25 1011 89 0 5.66 133 14:18 21.06.2020
973 Clouds 25 1011 89 0 5.66 133 13:42 21.06.2020
974 Clouds 25 1011 89 0 5.66 133 13:42 21.06.2020
975 Clouds 25 1010 88 0 6.05 134 13:23 21.06.2020
976 Clouds 25 1010 88 0 6.05 134 12:58 21.06.2020
977 Clouds 25 1010 88 0 6.05 134 12:58 21.06.2020
978 Clouds 25 1010 88 0 6.05 134 12:58 21.06.2020
979 Clouds 25 1010 88 0 6.05 134 12:39 21.06.2020
980 Clouds 26 1008 94 10000 9.3 160 12:21 21.06.2020
981 Clouds 26 1008 94 10000 9.3 160 11:42 21.06.2020
982 Clouds 26 1008 94 10000 9.3 160 11:24 21.06.2020
983 Haze 26 1008 94 10000 8.2 160 10:58 21.06.2020
984 Clouds 26 1009 87 0 7.05 144 10:39 21.06.2020
985 Haze 28 1007 83 10000 8.2 160 10:21 21.06.2020
986 Haze 28 1007 83 10000 8.2 160 09:44 21.06.2020
987 Haze 28 1007 83 10000 8.2 160 09:24 21.06.2020
988 Haze 28 1007 83 10000 8.2 160 08:59 21.06.2020
989 Haze 28 1007 83 10000 8.2 160 08:41 21.06.2020
990 Haze 29 1007 79 10000 10.3 160 08:20 21.06.2020
991 Haze 29 1007 79 10000 10.3 160 07:58 21.06.2020
992 Rain 27 1007 82 0 6.19 159 07:39 21.06.2020
993 Clouds 29 1007 79 10000 5.1 150 07:18 21.06.2020
994 Clouds 29 1007 79 10000 5.1 150 06:45 21.06.2020
995 Clouds 29 1008 74 10000 5.39 161 05:57 21.06.2020
996 Clouds 29 1009 74 10000 5.1 150 04:45 21.06.2020
997 Clouds 28 1010 78 10000 7.7 160 03:20 21.06.2020
998 Clouds 28 1010 78 10000 7.7 160 02:38 21.06.2020
999 Clouds 28 1010 78 10000 7.7 160 01:47 21.06.2020
1000 Clouds 26 1010 88 10000 5.1 160 01:20 21.06.2020
1001 Clouds 26 1010 88 10000 5.1 160 00:46 21.06.2020
1002 Clouds 24 1009 94 10000 1.5 0 00:26 21.06.2020
1003 Clouds 24 1009 94 10000 1.5 0 23:46 20.06.2020
1004 Clouds 24 1009 94 10000 1 0 23:23 20.06.2020
1005 Clouds 24 1009 94 10000 1 0 22:59 20.06.2020
1006 Clouds 24 1009 94 10000 1 0 22:41 20.06.2020
1007 Clouds 24 1008 100 10000 2.6 130 22:21 20.06.2020
1008 Clouds 24 1008 100 10000 2.6 130 21:58 20.06.2020
1009 Clouds 24 1008 100 10000 2.6 130 21:40 20.06.2020
1010 Clouds 24 1008 100 10000 2.6 130 21:21 20.06.2020
1011 Clouds 25 1008 94 10000 5.1 160 20:58 20.06.2020
1012 Clouds 25 1008 94 10000 5.1 160 20:40 20.06.2020
1013 Clouds 25 1008 94 10000 5.1 160 20:21 20.06.2020
1014 Clouds 25 1008 94 10000 5.1 160 19:58 20.06.2020
1015 Clouds 25 1008 94 10000 5.1 160 19:58 20.06.2020
1016 Clouds 25 1008 94 10000 5.1 160 19:39 20.06.2020
1017 Clouds 25 1008 94 10000 5.1 160 19:20 20.06.2020
1018 Clouds 25 1008 94 10000 5.1 160 18:43 20.06.2020
1019 Clouds 25 1009 94 10000 5.1 140 18:21 20.06.2020
1020 Clouds 25 1009 94 10000 5.1 140 17:57 20.06.2020
1021 Clouds 25 1009 94 10000 5.1 140 17:39 20.06.2020
1022 Clouds 25 1009 94 10000 5.1 140 17:39 20.06.2020
1023 Clouds 25 1009 94 10000 5.1 140 17:20 20.06.2020
1024 Clouds 25 1009 94 10000 5.1 140 17:20 20.06.2020
1025 Clouds 25 1010 94 10000 6.2 150 16:43 20.06.2020
1026 Clouds 25 1010 94 10000 6.2 150 16:19 20.06.2020
1027 Clouds 25 1010 94 10000 4.1 150 15:58 20.06.2020
1028 Clouds 25 1010 94 10000 4.1 150 15:40 20.06.2020
1029 Clouds 26 1010 88 10000 6.2 150 15:18 20.06.2020
1030 Clouds 26 1010 88 10000 6.2 150 14:43 20.06.2020
1031 Clouds 26 1010 88 10000 6.2 150 14:21 20.06.2020
1032 Clouds 26 1010 88 10000 5.7 150 13:46 20.06.2020
1033 Clouds 26 1010 94 10000 5.1 150 13:26 20.06.2020
1034 Clouds 26 1010 94 10000 5.1 150 12:59 20.06.2020
1035 Clouds 26 1010 94 10000 5.1 150 12:40 20.06.2020
1036 Clouds 27 1009 83 10000 5.1 160 12:20 20.06.2020
1037 Clouds 27 1009 83 10000 5.1 160 11:55 20.06.2020
1038 Haze 27 1008 88 10000 5.1 150 11:36 20.06.2020
1039 Haze 27 1008 88 10000 5.1 150 11:18 20.06.2020
1040 Haze 27 1008 88 10000 5.1 150 10:44 20.06.2020
1041 Haze 27 1008 88 10000 7.7 150 10:21 20.06.2020
1042 Haze 27 1008 88 10000 7.7 150 09:54 20.06.2020
1043 Haze 29 1008 79 10000 7.7 150 09:36 20.06.2020
1044 Haze 29 1008 79 10000 7.7 150 09:18 20.06.2020
1045 Haze 29 1008 79 10000 7.7 150 08:44 20.06.2020
1046 Haze 29 1008 79 10000 5.1 140 08:26 20.06.2020
1047 Haze 29 1008 79 10000 5.1 140 07:51 20.06.2020
1048 Haze 33 1008 49 10000 5.1 370 07:26 20.06.2020
1049 Haze 33 1008 49 10000 5.1 370 06:51 20.06.2020
1050 Haze 33 1008 49 10000 5.1 370 06:23 20.06.2020
1051 Haze 30 1009 74 10000 5.1 150 05:49 20.06.2020
1052 Haze 30 1010 74 10000 7.7 150 04:49 20.06.2020
1053 Clouds 30 1011 70 10000 7.7 150 02:20 20.06.2020
1054 Clouds 28 1011 78 10000 7.7 160 01:45 20.06.2020
1055 Clouds 26 1011 88 10000 4.1 140 00:50 20.06.2020
1056 Clouds 26 1011 88 10000 4.1 140 00:20 20.06.2020
1057 Clouds 25 1011 88 10000 2.6 130 23:48 19.06.2020
1058 Clouds 25 1011 88 10000 2.6 130 23:21 19.06.2020
1059 Clouds 25 1010 94 10000 5.1 130 22:58 19.06.2020
1060 Clouds 25 1010 94 10000 5.1 130 22:40 19.06.2020
1061 Clear 24 1011 89 0 5.84 127 22:21 19.06.2020
1062 Clouds 25 1010 94 10000 7.7 140 21:55 19.06.2020
1063 Clouds 25 1010 94 10000 7.7 140 21:37 19.06.2020
1064 Clouds 25 1010 94 10000 7.7 140 21:18 19.06.2020
1065 Clouds 25 1010 94 10000 7.7 140 20:56 19.06.2020
1066 Clouds 25 1010 94 10000 7.7 140 20:56 19.06.2020
1067 Clouds 25 1010 94 10000 7.7 140 20:56 19.06.2020
1068 Clouds 25 1010 94 10000 5.1 140 20:38 19.06.2020
1069 Clouds 25 1010 94 10000 5.1 140 20:20 19.06.2020
1070 Clouds 25 1010 94 10000 5.1 140 19:54 19.06.2020
1071 Clouds 25 1010 94 10000 5.1 140 19:36 19.06.2020
1072 Clouds 25 1010 94 10000 5.1 140 19:18 19.06.2020
1073 Clouds 25 1010 94 10000 5.1 140 18:40 19.06.2020
1074 Clouds 25 1011 94 10000 7.7 140 18:21 19.06.2020
1075 Clouds 25 1011 94 10000 7.7 140 17:43 19.06.2020
1076 Clouds 26 1011 88 10000 7.7 140 17:25 19.06.2020
1077 -273 0 0 0 0 0 16:59 19.06.2020
1078 Clouds 26 1011 88 10000 7.7 140 16:59 19.06.2020
1079 Clouds 26 1011 88 10000 7.7 140 16:41 19.06.2020
1080 Clouds 25 1012 86 0 7.33 130 16:22 19.06.2020
1081 Clouds 25 1012 86 0 7.33 130 15:49 19.06.2020
1082 Clouds 25 1012 86 0 7.33 130 15:49 19.06.2020
1083 Clouds 26 1012 88 10000 7.7 140 15:27 19.06.2020
1084 Clouds 26 1012 88 10000 7.7 140 14:59 19.06.2020
1085 Clouds 26 1012 88 10000 7.7 140 14:41 19.06.2020
1086 Clouds 26 1012 88 10000 10.3 150 14:21 19.06.2020
1087 Clouds 26 1012 88 10000 10.3 150 13:59 19.06.2020
1088 Clouds 26 1012 88 10000 10.3 150 13:40 19.06.2020
1089 Clouds 26 1011 88 10000 10.3 160 13:22 19.06.2020
1090 Clouds 26 1011 88 10000 10.3 160 12:45 19.06.2020
1091 Clouds 26 1010 88 10000 10.3 160 12:22 19.06.2020
1092 Clouds 26 1010 88 10000 10.3 160 11:57 19.06.2020
1093 Haze 29 1010 74 10000 10.3 160 11:36 19.06.2020
1094 Haze 29 1010 74 10000 10.3 160 11:18 19.06.2020
1095 Haze 29 1010 74 10000 10.3 160 10:43 19.06.2020
1096 Haze 28 1009 78 10000 10.3 160 10:25 19.06.2020
1097 Haze 28 1009 78 10000 10.3 160 09:56 19.06.2020
1098 Haze 28 1009 78 10000 10.3 160 09:37 19.06.2020
1099 Haze 28 1009 78 10000 10.3 160 09:19 19.06.2020
1100 Haze 29 1008 74 10000 12.9 160 08:41 19.06.2020
1101 Haze 29 1008 74 10000 12.9 160 08:23 19.06.2020
1102 Clouds 29 1009 79 10000 5.1 150 07:42 19.06.2020
1103 Clouds 29 1009 79 10000 5.1 150 07:22 19.06.2020
1104 Clouds 30 1009 74 10000 5.1 150 06:59 19.06.2020
1105 Haze 30 1010 70 10000 10.3 170 06:23 19.06.2020
1106 Haze 31 1011 62 10000 7.7 150 05:34 19.06.2020
1107 Haze 30 1011 66 10000 7.7 150 04:21 19.06.2020
1108 Haze 28 1012 74 10000 7.7 150 02:24 19.06.2020
1109 Haze 27 1012 78 10000 5.1 130 00:46 19.06.2020
1110 Clouds 23 1011 94 10000 2.6 150 00:22 19.06.2020
1111 Clouds 23 1011 94 10000 2.6 150 23:58 18.06.2020
1112 Clear 25 1013 83 0 4.39 121 23:39 18.06.2020
1113 Clouds 24 1010 94 10000 3.1 140 23:21 18.06.2020
1114 Clouds 24 1010 94 10000 3.1 140 22:41 18.06.2020
1115 Clouds 25 1010 88 10000 5.7 140 22:21 18.06.2020
1116 Clouds 25 1010 88 10000 5.7 140 21:57 18.06.2020
1117 Clouds 25 1009 88 10000 2.6 130 21:38 18.06.2020
1118 Clouds 25 1009 88 10000 2.6 130 21:19 18.06.2020
1119 Clouds 25 1009 88 10000 2.6 130 20:43 18.06.2020
1120 Clouds 25 1010 88 10000 5.7 130 20:22 18.06.2020
1121 Clouds 25 1010 88 10000 5.7 130 19:58 18.06.2020
1122 Clouds 25 1010 88 10000 5.7 130 19:40 18.06.2020
1123 Clouds 25 1010 88 10000 8.2 150 19:20 18.06.2020
1124 Clouds 25 1010 88 10000 8.2 150 18:41 18.06.2020
1125 Clouds 25 1011 88 10000 7.7 140 18:23 18.06.2020
1126 Clouds 25 1011 88 10000 7.7 140 17:55 18.06.2020
1127 Clouds 26 1011 83 10000 7.7 140 17:37 18.06.2020
1128 Clouds 26 1011 83 10000 7.7 140 17:19 18.06.2020
1129 Clouds 26 1011 83 10000 7.7 140 16:44 18.06.2020
1130 Clouds 25 1011 94 10000 5.1 160 16:25 18.06.2020
1131 Clouds 25 1011 94 10000 5.1 160 16:25 18.06.2020
1132 Clouds 25 1011 94 10000 5.1 160 15:59 18.06.2020
1133 Clear 25 1012 84 0 7.76 126 15:40 18.06.2020
1134 Clouds 26 1012 83 10000 5.1 150 15:20 18.06.2020
1135 Clouds 26 1012 83 10000 5.1 150 14:57 18.06.2020
1136 Clouds 26 1012 88 10000 5.1 150 14:38 18.06.2020
1137 Clouds 26 1012 88 10000 5.1 150 14:20 18.06.2020
1138 Clouds 26 1012 88 10000 5.1 150 13:47 18.06.2020
1139 Clouds 26 1012 88 10000 5.1 150 13:28 18.06.2020
1140 Clouds 26 1012 88 10000 7.7 160 12:57 18.06.2020
1141 Rain 25 1013 86 0 8.46 126 12:39 18.06.2020
1142 Rain 25 1013 85 0 8.75 127 12:20 18.06.2020
1143 Clouds 26 1011 88 10000 12.9 160 11:57 18.06.2020
1144 Haze 27 1011 83 10000 10.3 150 11:38 18.06.2020
1145 Haze 27 1011 83 10000 10.3 150 11:18 18.06.2020
1146 Haze 27 1011 83 10000 10.3 150 10:40 18.06.2020
1147 Haze 27 1010 83 10000 12.9 150 10:18 18.06.2020
1148 Haze 27 1010 83 10000 12.9 150 10:18 18.06.2020
1149 Haze 27 1010 83 10000 12.9 150 09:45 18.06.2020
1150 Haze 28 1009 83 10000 12.9 150 09:27 18.06.2020
1151 Haze 28 1009 83 10000 12.9 150 08:57 18.06.2020
1152 Haze 29 1009 79 10000 12.9 160 08:36 18.06.2020
1153 Haze 29 1009 79 10000 12.9 160 08:18 18.06.2020
1154 Haze 29 1009 79 10000 12.9 160 07:44 18.06.2020
1155 Haze 28 1009 83 10000 7.7 160 07:23 18.06.2020
1156 Haze 29 1011 79 10000 5.1 150 06:37 18.06.2020
1157 Clouds 29 1012 79 10000 5.1 140 04:27 18.06.2020
1158 Clouds 29 1012 74 10000 6.67 148 03:31 18.06.2020
1159 Clouds 27 1013 83 10000 5.1 160 01:43 18.06.2020
1160 Clouds 26 1013 88 10000 5.1 140 01:20 18.06.2020
1161 Clouds 26 1013 88 10000 5.1 140 00:49 18.06.2020
1162 Clouds 25 1012 88 10000 2.6 110 00:26 18.06.2020
1163 Clouds 25 1012 88 10000 2.6 110 23:54 17.06.2020
1164 Clouds 24 1012 94 10000 4.1 140 23:36 17.06.2020
1165 Clouds 24 1012 94 10000 4.1 140 23:18 17.06.2020
1166 Clouds 24 1012 94 10000 4.1 140 22:54 17.06.2020
1167 Clouds 24 1011 100 10000 4.1 160 22:36 17.06.2020
1168 Clouds 24 1011 100 10000 4.1 160 22:18 17.06.2020
1169 Clouds 24 1013 87 0 3.01 104 21:39 17.06.2020
1170 Clouds 24 1011 100 10000 2.6 160 21:20 17.06.2020
1171 Clouds 24 1011 100 10000 2.6 160 20:55 17.06.2020
1172 Clouds 24 1011 100 10000 2.6 160 20:37 17.06.2020
1173 Clouds 24 1011 100 10000 2.6 160 20:18 17.06.2020
1174 Clouds 24 1011 100 10000 2.6 160 19:42 17.06.2020
1175 Clouds 24 1012 100 10000 2.6 100 19:19 17.06.2020
1176 Clouds 24 1012 100 10000 2.6 100 18:48 17.06.2020
1177 Clouds 25 1013 94 10000 2.6 110 18:28 17.06.2020
1178 Clouds 25 1013 94 10000 2.6 110 17:47 17.06.2020
1179 Clouds 25 1013 94 10000 2.6 150 17:23 17.06.2020
1180 Clouds 25 1013 94 10000 2.6 150 16:59 17.06.2020
1181 Clouds 25 1013 94 10000 2.6 150 16:59 17.06.2020
1182 Clouds 25 1013 94 10000 2.6 150 16:40 17.06.2020
1183 Clouds 24 1013 87 0 4.24 122 16:21 17.06.2020
1184 Clouds 24 1013 87 0 4.24 122 15:58 17.06.2020
1185 Clouds 25 1013 94 10000 5.1 160 15:39 17.06.2020
1186 Clouds 25 1013 94 10000 5.1 160 15:21 17.06.2020
1187 Clouds 25 1013 94 10000 5.1 160 14:58 17.06.2020
1188 Clouds 24 1014 88 0 4.97 120 14:39 17.06.2020
1189 Clouds 26 1012 88 10000 5.1 150 14:19 17.06.2020
1190 Clouds 26 1012 88 10000 5.1 150 13:56 17.06.2020
1191 Clouds 25 1012 94 10000 5.1 160 13:38 17.06.2020
1192 Clouds 25 1012 94 10000 5.1 160 13:19 17.06.2020
1193 Clouds 25 1012 94 10000 5.1 160 12:42 17.06.2020
1194 Clouds 26 1011 88 10000 5.1 130 12:23 17.06.2020
1195 Clouds 26 1011 88 10000 5.1 130 11:57 17.06.2020
1196 Clouds 26 1011 88 10000 5.1 130 11:57 17.06.2020
1197 Clouds 26 1011 88 10000 5.1 130 11:38 17.06.2020
1198 Clouds 26 1011 88 10000 5.1 130 11:20 17.06.2020
1199 Clouds 27 1011 83 10000 2.6 180 10:38 17.06.2020
1200 Clouds 27 1011 83 10000 2.6 180 10:19 17.06.2020
1201 Clouds 27 1011 83 10000 2.6 180 09:58 17.06.2020
1202 Clouds 27 1011 83 10000 2.6 180 09:40 17.06.2020
1203 Clouds 27 1011 83 10000 2.6 120 09:20 17.06.2020
1204 Clouds 27 1011 83 10000 2.6 120 08:45 17.06.2020
1205 Clouds 27 1011 83 10000 2.6 120 08:45 17.06.2020
1206 Clouds 27 1011 83 10000 5.1 150 08:20 17.06.2020
1207 Clouds 27 1011 83 10000 5.1 150 07:55 17.06.2020
1208 Clouds 26 1011 88 10000 5.1 160 07:37 17.06.2020
1209 Clouds 26 1011 88 10000 5.1 160 07:19 17.06.2020
1210 Clouds 26 1011 88 10000 5.1 160 06:41 17.06.2020
1211 Clouds 26 1011 94 10000 3.6 150 06:23 17.06.2020
1212 Clouds 26 1011 94 10000 3.6 150 05:59 17.06.2020
1213 Rain 25 1011 87 0 4.99 124 04:39 17.06.2020
1214 Rain 25 1012 86 0 4.4 105 02:44 17.06.2020
1215 Clouds 25 1013 84 0 5.12 116 01:20 17.06.2020
1216 Clouds 25 1011 88 10000 7.7 130 00:37 17.06.2020
1217 Clouds 25 1011 88 10000 7.7 130 00:19 17.06.2020
1218 Clouds 25 1011 88 10000 7.7 130 23:41 16.06.2020
1219 Clouds 25 1010 88 10000 7.7 140 23:23 16.06.2020
1220 Clouds 25 1010 88 10000 7.7 140 22:58 16.06.2020
1221 Clouds 26 1010 88 10000 7.7 130 22:39 16.06.2020
1222 Clouds 26 1010 88 10000 7.7 130 22:19 16.06.2020
1223 Clouds 26 1010 88 10000 7.7 130 21:58 16.06.2020
1224 Clouds 25 1011 86 0 6.23 118 21:40 16.06.2020
1225 Clouds 26 1009 88 10000 7.7 150 21:21 16.06.2020
1226 Clouds 26 1009 88 10000 7.7 150 20:44 16.06.2020
1227 Clouds 26 1009 88 10000 5.1 150 20:25 16.06.2020
1228 Clouds 26 1009 88 10000 5.1 150 19:59 16.06.2020
1229 Clouds 26 1009 88 10000 5.1 150 19:40 16.06.2020
1230 Clouds 26 1010 88 10000 5.1 150 19:22 16.06.2020
1231 Rain 25 1010 86 0 7.34 121 18:59 16.06.2020
1232 Rain 25 1010 86 0 7.34 121 18:41 16.06.2020
1233 Clouds 26 1010 88 10000 7.7 150 18:21 16.06.2020
1234 Clouds 26 1010 88 10000 7.7 150 17:57 16.06.2020
1235 Clouds 26 1010 88 10000 7.7 150 17:38 16.06.2020
1236 Clouds 26 1010 88 10000 7.7 150 17:38 16.06.2020
1237 Clouds 26 1010 88 10000 7.7 150 17:19 16.06.2020
1238 Clouds 26 1010 88 10000 7.7 150 16:56 16.06.2020
1239 Clouds 26 1010 88 10000 7.7 150 16:38 16.06.2020
1240 Clouds 26 1010 88 10000 7.7 150 16:19 16.06.2020
1241 Clouds 26 1010 88 10000 7.7 150 15:56 16.06.2020
1242 Clouds 26 1011 88 10000 5.1 150 15:38 16.06.2020
1243 Clouds 26 1011 88 10000 5.1 150 15:20 16.06.2020
1244 Clouds 26 1011 88 10000 5.1 150 14:43 16.06.2020
1245 Clouds 26 1010 88 10000 5.1 150 14:25 16.06.2020
1246 Clouds 26 1010 88 10000 5.1 150 13:55 16.06.2020
1247 Clouds 26 1010 88 10000 5.1 150 13:37 16.06.2020
1248 Clouds 26 1010 88 10000 5.1 150 13:18 16.06.2020
1249 Clouds 26 1010 88 10000 5.1 150 12:41 16.06.2020
1250 Clouds 26 1009 88 10000 5.1 150 12:21 16.06.2020
1251 Clouds 26 1010 85 0 8.03 131 11:56 16.06.2020
1252 Rain 27 1009 83 10000 5.1 150 11:37 16.06.2020
1253 Rain 27 1009 83 10000 5.1 150 11:37 16.06.2020
1254 Rain 27 1009 83 10000 5.1 150 11:19 16.06.2020
1255 Rain 27 1009 83 10000 5.1 150 10:43 16.06.2020
1256 Clouds 26 1009 83 0 8.54 140 10:21 16.06.2020
1257 Clouds 26 1009 83 0 8.54 140 09:59 16.06.2020
1258 Clouds 26 1009 83 0 8.54 140 09:41 16.06.2020
1259 Clouds 27 1009 80 0 8.97 143 09:21 16.06.2020
1260 Clouds 27 1008 79 0 8.83 144 08:45 16.06.2020
1261 Clouds 30 1007 74 10000 7.7 150 08:26 16.06.2020
1262 Clouds 30 1007 74 10000 7.7 150 07:50 16.06.2020
1263 Clouds 31 1007 70 10000 5.1 150 07:27 16.06.2020
1264 Clouds 31 1007 70 10000 5.1 150 06:54 16.06.2020
1265 Clouds 30 1008 74 10000 5.1 160 06:27 16.06.2020
1266 Clouds 30 1008 74 10000 5.1 160 05:45 16.06.2020
1267 Clouds 29 1009 71 0 8.82 151 04:40 16.06.2020
1268 Clouds 29 1010 73 0 5.46 147 03:00 16.06.2020
1269 Clouds 28 1011 75 0 5.14 133 02:00 16.06.2020
1270 Clouds 28 1011 75 0 5.14 133 01:30 16.06.2020
1271 Clouds 27 1011 80 0 5.34 125 00:45 16.06.2020
1272 Clouds 26 1011 85 0 5.65 121 00:21 16.06.2020
1273 Clouds 26 1011 85 0 5.65 121 23:43 15.06.2020
1274 Clouds 25 1011 88 0 5.76 121 23:23 15.06.2020
1275 Clouds 25 1011 88 0 5.76 121 22:55 15.06.2020
1276 Clouds 25 1008 94 10000 3.6 140 22:37 15.06.2020
1277 Clouds 25 1008 94 10000 3.6 140 22:18 15.06.2020
1278 Clouds 25 1008 94 10000 3.6 140 21:55 15.06.2020
1279 Clouds 25 1008 94 10000 3.6 140 21:37 15.06.2020
1280 Clouds 25 1008 94 10000 3.6 140 21:19 15.06.2020
1281 Clouds 25 1008 94 10000 3.6 140 20:55 15.06.2020
1282 Clouds 25 1008 94 10000 3.6 140 20:37 15.06.2020
1283 Clouds 25 1008 94 10000 3.6 140 20:18 15.06.2020
1284 Clouds 25 1008 94 10000 2.6 140 19:41 15.06.2020
1285 Clouds 25 1008 94 10000 2.6 140 19:22 15.06.2020
1286 Clouds 25 1008 94 10000 2.6 140 19:22 15.06.2020
1287 Clouds 26 1009 88 10000 5.1 130 18:59 15.06.2020
1288 Clouds 26 1009 88 10000 5.1 130 18:41 15.06.2020
1289 Clouds 26 1009 88 10000 7.7 140 18:21 15.06.2020
1290 Clouds 26 1009 88 10000 7.7 140 17:59 15.06.2020
1291 Clouds 26 1009 88 10000 7.7 140 17:40 15.06.2020
1292 Clouds 26 1009 88 10000 7.7 140 17:40 15.06.2020
1293 Clouds 27 1009 83 10000 7.7 140 17:20 15.06.2020
1294 Clouds 27 1009 83 10000 7.7 140 16:57 15.06.2020
1295 Clouds 27 1009 83 10000 7.7 140 16:38 15.06.2020
1296 Clouds 27 1009 83 10000 7.7 140 16:18 15.06.2020
1297 Clouds 27 1009 88 10000 7.7 140 15:41 15.06.2020
1298 Clouds 25 1011 88 0 7.74 128 15:21 15.06.2020
1299 Clouds 27 1010 88 10000 10.3 150 14:58 15.06.2020
1300 Clouds 27 1010 88 10000 10.3 150 14:40 15.06.2020
1301 Clouds 27 1010 83 10000 10.3 140 14:19 15.06.2020
1302 Clouds 27 1010 83 10000 10.3 140 13:56 15.06.2020
1303 Clouds 27 1010 83 10000 10.3 140 13:38 15.06.2020
1304 Clouds 27 1010 83 10000 10.3 140 13:18 15.06.2020
1305 Clouds 27 1009 83 10000 7.7 140 12:42 15.06.2020
1306 Rain 26 1010 85 0 8.2 135 12:22 15.06.2020
1307 Rain 26 1010 85 0 8.2 135 11:47 15.06.2020
1308 Rain 27 1010 83 0 7.92 139 11:27 15.06.2020
1309 Rain 27 1010 83 0 7.92 139 10:58 15.06.2020
1310 Rain 27 1010 83 0 7.92 139 10:39 15.06.2020
1311 Clear 27 1009 82 0 8.63 140 10:20 15.06.2020
1312 Clear 27 1009 82 0 8.63 140 09:43 15.06.2020
1313 Rain 28 1008 79 0 9.85 146 09:23 15.06.2020
1314 Rain 28 1008 81 0 9.46 145 08:46 15.06.2020
1315 Rain 28 1008 77 0 9.77 151 08:26 15.06.2020
1316 Rain 28 1008 77 0 9.77 151 07:53 15.06.2020
1317 Rain 28 1008 77 0 9.77 151 07:34 15.06.2020
1318 Clouds 29 1008 74 0 8.28 156 06:58 15.06.2020
1319 Clouds 29 1009 73 0 6.45 157 06:27 15.06.2020
1320 Clouds 29 1009 73 0 6.45 157 05:50 15.06.2020
1321 Clouds 31 1010 70 10000 7.7 150 05:28 15.06.2020
1322 Clouds 31 1010 70 10000 7.7 160 04:22 15.06.2020
1323 Clouds 31 1010 70 10000 7.7 160 03:48 15.06.2020
1324 Clouds 30 1011 74 10000 5.1 160 02:56 15.06.2020
1325 Clouds 29 1012 79 10000 5.1 130 02:24 15.06.2020
1326 Clouds 29 1012 79 10000 5.1 130 01:41 15.06.2020
1327 Clouds 27 1011 88 10000 5.1 130 01:23 15.06.2020
1328 Clouds 27 1011 88 10000 5.1 130 00:43 15.06.2020
1329 Clouds 26 1011 88 10000 3.6 150 00:23 15.06.2020
1330 Clouds 26 1011 88 10000 3.6 150 23:56 14.06.2020
1331 Clouds 26 1010 94 10000 5.1 130 23:38 14.06.2020
1332 Clouds 26 1010 94 10000 5.1 130 23:20 14.06.2020
1333 Clouds 26 1010 94 10000 5.1 130 22:56 14.06.2020
1334 Clouds 26 1010 94 10000 5.1 130 22:37 14.06.2020
1335 Clouds 26 1010 94 10000 5.1 130 22:18 14.06.2020
1336 Clouds 26 1010 94 10000 5.1 130 21:55 14.06.2020
1337 Clouds 26 1009 94 10000 3.1 140 21:37 14.06.2020
1338 Clouds 26 1009 94 10000 3.1 140 21:18 14.06.2020
1339 Clouds 26 1009 94 10000 3.1 140 20:55 14.06.2020
1340 Clouds 26 1009 100 10000 4.1 150 20:36 14.06.2020
1341 Clouds 26 1009 100 10000 4.1 150 20:18 14.06.2020
1342 Clouds 26 1009 100 10000 4.1 150 19:55 14.06.2020
1343 Clouds 26 1009 94 10000 4.1 150 19:36 14.06.2020
1344 Clouds 26 1009 94 10000 4.1 150 19:18 14.06.2020
1345 Clouds 26 1009 94 10000 4.1 150 18:55 14.06.2020
1346 Clouds 26 1009 94 10000 4.1 150 18:36 14.06.2020
1347 Clouds 26 1009 94 10000 4.1 150 18:18 14.06.2020
1348 Clouds 27 1010 88 10000 4.1 150 17:40 14.06.2020
1349 Clear 25 1011 90 0 4.18 118 17:20 14.06.2020
1350 Clear 25 1011 90 0 4.18 118 16:58 14.06.2020
1351 Clear 25 1011 90 0 4.18 118 16:39 14.06.2020
1352 Clear 25 1011 90 0 4.33 116 16:19 14.06.2020
1353 Clear 25 1011 90 0 4.33 116 15:55 14.06.2020
1354 Clear 25 1011 90 0 4.33 116 15:36 14.06.2020
1355 Clear 25 1012 89 0 4.43 117 15:18 14.06.2020
1356 Clear 25 1012 89 0 4.43 117 14:41 14.06.2020
1357 Clouds 25 1012 90 0 4.84 121 14:22 14.06.2020
1358 Clouds 25 1012 90 0 4.84 121 13:58 14.06.2020
1359 Clouds 25 1012 90 0 4.84 121 13:40 14.06.2020
1360 Rain 26 1012 90 0 5.46 131 13:21 14.06.2020
1361 Rain 26 1012 90 0 5.46 131 13:21 14.06.2020
1362 Rain 26 1012 90 0 5.46 131 12:57 14.06.2020
1363 Rain 26 1012 90 0 5.46 131 12:38 14.06.2020
1364 Rain 26 1012 89 0 5.74 138 12:20 14.06.2020
1365 Rain 26 1012 89 0 5.74 138 12:20 14.06.2020
1366 Rain 26 1012 89 0 5.74 138 11:56 14.06.2020
1367 Clouds 28 1009 88 10000 6.2 140 11:38 14.06.2020
1368 Clouds 28 1009 88 10000 6.2 140 11:19 14.06.2020
1369 Clouds 28 1009 88 10000 6.2 140 10:42 14.06.2020
1370 Clouds 28 1008 88 10000 6.2 140 10:20 14.06.2020
1371 Clouds 28 1008 88 10000 6.2 140 09:51 14.06.2020
1372 Clouds 29 1008 79 10000 6.2 150 09:26 14.06.2020
1373 Clouds 29 1008 79 10000 6.2 150 08:58 14.06.2020
1374 Clouds 29 1008 79 10000 6.2 150 08:40 14.06.2020
1375 Haze 31 1008 74 10000 6.2 140 08:18 14.06.2020
1376 Haze 31 1008 74 10000 6.2 140 07:50 14.06.2020
1377 Haze 31 1009 74 10000 5.1 140 07:32 14.06.2020
1378 Haze 31 1010 74 10000 5.1 140 06:31 14.06.2020
1379 Clouds 28 1010 77 0 3.46 164 05:43 14.06.2020
1380 Haze 31 1011 74 10000 5.1 180 04:55 14.06.2020
1381 Clouds 31 1012 74 10000 5.1 160 04:30 14.06.2020
1382 Clouds 29 1012 83 10000 5.1 160 03:23 14.06.2020
1383 Clouds 29 1012 83 10000 5.1 160 02:27 14.06.2020
1384 Haze 29 1012 89 10000 3.6 150 01:41 14.06.2020
1385 Clouds 28 1012 88 10000 2.1 160 00:56 14.06.2020
1386 Clouds 25 1011 100 10000 1 150 00:37 14.06.2020
1387 Clouds 25 1011 100 10000 1 150 00:18 14.06.2020
1388 Clouds 25 1011 100 10000 1 150 23:42 13.06.2020
1389 Clouds 25 1010 100 10000 1 0 23:23 13.06.2020
1390 Clouds 25 1010 100 10000 1 0 22:56 13.06.2020
1391 Clouds 26 1010 100 10000 1.5 0 22:37 13.06.2020
1392 Clouds 26 1010 100 10000 1.5 0 22:18 13.06.2020
1393 Clouds 26 1010 100 10000 1.5 0 21:43 13.06.2020
1394 Clouds 25 1010 100 10000 1.5 0 21:25 13.06.2020
1395 Clouds 25 1010 100 10000 1.5 0 21:00 13.06.2020
1396 Clouds 25 1010 100 10000 1.5 0 20:41 13.06.2020
1397 Clouds 25 1009 100 10000 1.5 0 20:19 13.06.2020
1398 Clouds 25 1009 100 10000 1.5 0 19:42 13.06.2020
1399 Clouds 25 1010 100 10000 1.5 0 19:21 13.06.2020
1400 Clouds 25 1010 100 10000 1.5 0 18:59 13.06.2020
1401 Clouds 25 1010 100 10000 1.5 0 18:41 13.06.2020
1402 Clouds 25 1010 100 10000 1.5 0 18:21 13.06.2020
1403 Clouds 26 1010 94 10000 1.5 0 17:59 13.06.2020
1404 Clouds 26 1010 94 10000 1.5 0 17:40 13.06.2020
1405 Clouds 26 1010 94 10000 1.5 0 17:22 13.06.2020
1406 Clouds 27 1010 94 10000 5.1 140 16:56 13.06.2020
1407 Clouds 27 1010 94 10000 5.1 140 16:37 13.06.2020
1408 Clouds 27 1010 94 10000 5.1 140 16:19 13.06.2020
1409 Clear 25 1011 92 0 0.8 68 15:44 13.06.2020
1410 Clear 26 1011 93 0 1.35 114 15:26 13.06.2020
1411 Clear 26 1011 93 0 1.35 114 14:55 13.06.2020
1412 Clear 25 1011 92 0 1.52 113 14:36 13.06.2020
1413 Clouds 26 1012 92 0 2.19 126 14:18 13.06.2020
1414 Clouds 26 1012 92 0 2.19 126 13:41 13.06.2020
1415 Clouds 26 1011 91 0 2.72 128 13:23 13.06.2020
1416 Clouds 26 1011 91 0 2.72 128 12:44 13.06.2020
1417 Clouds 26 1011 90 0 3.45 126 12:26 13.06.2020
1418 Clouds 26 1011 90 0 3.45 126 11:59 13.06.2020
1419 Clouds 27 1008 88 10000 7.7 150 11:39 13.06.2020
1420 Clouds 27 1008 88 10000 7.7 150 11:19 13.06.2020
1421 Clouds 27 1008 88 10000 7.7 150 10:57 13.06.2020
1422 Clouds 27 1008 88 10000 7.7 150 10:38 13.06.2020
1423 Clouds 27 1008 88 10000 7.7 150 10:19 13.06.2020
1424 Clouds 29 1008 83 10000 5.1 140 09:44 13.06.2020
1425 Clouds 29 1008 83 10000 5.1 140 09:44 13.06.2020
1426 Clouds 30 1007 79 10000 5.1 140 09:25 13.06.2020
1427 Clouds 30 1007 79 10000 5.1 140 08:49 13.06.2020
1428 Clouds 31 1007 74 10000 5.1 140 08:31 13.06.2020
1429 Clouds 31 1007 74 10000 5.1 140 08:30 13.06.2020
1430 Clouds 31 1007 74 10000 5.1 140 07:54 13.06.2020
1431 Clouds 30 1008 79 10000 5.1 150 07:28 13.06.2020
1432 Clouds 30 1008 79 10000 5.1 150 06:50 13.06.2020
1433 Clouds 30 1009 79 10000 5.1 160 06:30 13.06.2020
1434 Clouds 30 1009 79 10000 5.1 160 05:45 13.06.2020
1435 Clouds 33 1009 63 10000 2.6 290 05:24 13.06.2020
1436 Clouds 31 1010 74 10000 5.1 330 03:47 13.06.2020
1437 Clouds 29 1011 83 10000 1.5 0 02:54 13.06.2020
1438 Clouds 28 1011 88 10000 1.5 0 02:29 13.06.2020
1439 Clouds 28 1011 88 10000 1.5 0 01:41 13.06.2020
1440 Clouds 27 1011 94 0 2.1 300 01:18 13.06.2020
1441 Clouds 27 1011 94 0 2.1 300 00:42 13.06.2020
1442 Smoke 26 1010 100 10000 2.1 0 00:23 13.06.2020
1443 Smoke 26 1010 100 10000 2.1 0 23:41 12.06.2020
1444 Haze 26 1010 100 10000 2.1 0 23:19 12.06.2020
1445 Smoke 26 1010 100 10000 2.1 0 23:19 12.06.2020
1446 Smoke 26 1009 100 10000 1.5 0 22:56 12.06.2020
1447 Smoke 26 1009 100 10000 1.5 0 22:38 12.06.2020
1448 Smoke 26 1009 100 10000 1.5 0 22:18 12.06.2020
1449 Clouds 26 1009 94 10000 1.5 0 21:44 12.06.2020
1450 Clouds 26 1008 94 10000 1.5 0 21:24 12.06.2020
1451 Clouds 26 1008 94 10000 1.5 0 20:58 12.06.2020
1452 Clouds 25 1008 100 10000 1.5 0 20:39 12.06.2020
1453 Clouds 25 1008 100 10000 1.5 0 20:20 12.06.2020
1454 Clouds 25 1008 100 10000 1.5 0 19:46 12.06.2020
1455 Clouds 25 1008 100 10000 1.5 0 19:22 12.06.2020
1456 Clouds 25 1008 100 10000 1.5 0 18:59 12.06.2020
1457 Clouds 26 1008 100 10000 1.5 0 18:37 12.06.2020
1458 Clouds 26 1008 100 10000 1.5 0 18:18 12.06.2020
1459 Clouds 26 1008 100 10000 1.5 0 17:44 12.06.2020
1460 Clouds 26 1008 94 10000 1 0 17:26 12.06.2020
1461 Clouds 26 1008 94 10000 1 0 16:47 12.06.2020
1462 Clouds 27 1009 94 10000 5.1 150 16:24 12.06.2020
1463 Clouds 27 1009 94 10000 5.1 150 15:59 12.06.2020
1464 Clouds 27 1009 94 10000 5.1 150 15:41 12.06.2020
1465 Clouds 27 1009 94 10000 4.1 170 15:19 12.06.2020
1466 Clouds 27 1009 94 10000 4.1 170 14:42 12.06.2020
1467 Clouds 27 1009 94 10000 4.1 170 14:22 12.06.2020
1468 Clouds 27 1009 94 10000 4.1 170 13:57 12.06.2020
1469 Clouds 27 1009 94 10000 6.2 160 13:39 12.06.2020
1470 Clouds 27 1009 94 10000 6.2 160 13:18 12.06.2020
1471 Clouds 27 1009 94 10000 6.2 160 12:40 12.06.2020
1472 Clouds 27 1009 94 10000 6.2 160 12:40 12.06.2020
1473 Clouds 27 1009 94 10000 6.2 160 12:19 12.06.2020
1474 Clouds 27 1008 94 10000 7.7 170 11:49 12.06.2020
1475 Clouds 27 1008 94 10000 7.7 170 11:23 12.06.2020
1476 Haze 27 1007 94 10000 7.7 160 10:58 12.06.2020
1477 Haze 27 1007 94 10000 7.7 160 10:40 12.06.2020
1478 Smoke 28 1007 83 10000 5.7 140 10:21 12.06.2020
1479 Smoke 28 1007 83 10000 5.7 140 09:44 12.06.2020
1480 Smoke 28 1007 83 10000 5.7 140 09:21 12.06.2020
1481 Haze 29 1007 83 10000 7.7 140 08:43 12.06.2020
1482 Haze 29 1007 83 10000 7.7 140 08:24 12.06.2020
1483 Haze 31 1007 74 10000 5.1 180 07:43 12.06.2020
1484 Haze 31 1007 74 10000 5.1 180 07:24 12.06.2020
1485 Haze 30 1007 79 10000 5.1 150 06:44 12.06.2020
1486 Haze 31 1008 74 10000 5.1 160 06:24 12.06.2020
1487 Haze 31 1008 74 10000 5.1 160 05:50 12.06.2020
1488 Clouds 30 1009 79 10000 5.1 210 05:26 12.06.2020
1489 Clouds 31 1009 70 10000 1.5 0 03:58 12.06.2020
1490 Clouds 29 1010 79 10000 5.1 340 02:43 12.06.2020
1491 Clouds 27 1010 88 10000 5.1 330 01:51 12.06.2020
1492 Fog 24 1010 100 0 2.1 0 01:21 12.06.2020
1493 Fog 24 1010 100 0 2.1 0 00:40 12.06.2020
1494 Fog 24 1009 100 0 2.1 0 00:21 12.06.2020
1495 Fog 24 1009 100 0 2.1 0 23:57 11.06.2020
1496 Fog 24 1009 100 0 1.5 0 23:39 11.06.2020
1497 Fog 24 1009 100 0 1.5 0 23:20 11.06.2020
1498 Fog 24 1009 100 0 1.5 0 22:55 11.06.2020
1499 Fog 24 1008 100 1000 1.52 91 22:37 11.06.2020
1500 Fog 24 1008 100 1000 1.52 91 22:37 11.06.2020
1501 Fog 24 1008 100 1000 1.9 103 22:19 11.06.2020
1502 Fog 24 1008 100 1000 1.9 103 21:43 11.06.2020
1503 Clouds 24 1008 100 10000 2.6 30 21:20 11.06.2020
1504 Clouds 24 1008 100 10000 2.6 30 20:57 11.06.2020
1505 Clouds 24 1009 92 0 2.02 115 20:39 11.06.2020
1506 Clouds 25 1009 92 0 2.06 120 20:20 11.06.2020
1507 Clouds 25 1009 92 0 2.06 120 19:43 11.06.2020
1508 Clouds 24 1008 100 10000 2.6 140 19:22 11.06.2020
1509 Clouds 24 1008 100 10000 2.6 140 18:57 11.06.2020
1510 Clouds 25 1008 100 10000 2.6 150 18:39 11.06.2020
1511 Clouds 25 1008 100 10000 2.6 150 18:19 11.06.2020
1512 Clouds 25 1008 100 10000 2.6 150 17:55 11.06.2020
1513 Clouds 25 1009 92 0 3.09 116 17:37 11.06.2020
1514 Clouds 25 1010 92 0 4.03 124 17:18 11.06.2020
1515 Clouds 25 1010 92 0 4.03 124 16:42 11.06.2020
1516 Clouds 26 1009 94 10000 5.1 150 16:23 11.06.2020
1517 Clouds 26 1009 94 10000 5.1 150 15:57 11.06.2020
1518 Clouds 26 1009 94 10000 5.1 150 15:57 11.06.2020
1519 Clouds 26 1009 94 10000 5.1 160 15:38 11.06.2020
1520 Clouds 26 1009 94 10000 5.1 160 15:20 11.06.2020
1521 Clouds 26 1009 94 10000 5.1 160 14:44 11.06.2020
1522 Clouds 26 1009 94 10000 5.1 160 14:21 11.06.2020
1523 Clouds 26 1009 94 10000 5.1 160 13:57 11.06.2020
1524 Clouds 26 1009 94 10000 5.1 160 13:39 11.06.2020
1525 Clouds 26 1009 94 10000 5.1 160 13:20 11.06.2020
1526 Clouds 27 1008 88 10000 7.7 150 12:56 11.06.2020
1527 Clouds 27 1008 88 10000 7.7 150 12:56 11.06.2020
1528 Clouds 27 1008 88 10000 7.7 150 12:38 11.06.2020
1529 Clouds 27 1008 88 10000 7.7 150 12:19 11.06.2020
1530 Clouds 27 1008 88 10000 7.7 150 11:57 11.06.2020
1531 Clouds 27 1008 88 10000 7.7 150 11:38 11.06.2020
1532 Clouds 27 1008 88 10000 7.7 150 11:20 11.06.2020
1533 Clouds 27 1007 94 10000 5.7 150 10:54 11.06.2020
1534 Haze 28 1007 88 10000 7.7 150 10:36 11.06.2020
1535 Haze 28 1007 88 10000 7.7 150 10:18 11.06.2020
1536 Rain 26 1008 89 0 7.59 146 09:40 11.06.2020
1537 Haze 29 1007 83 10000 7.7 140 09:22 11.06.2020
1538 Haze 29 1007 83 10000 7.7 140 09:22 11.06.2020
1539 Haze 29 1007 83 10000 7.7 140 08:43 11.06.2020
1540 Haze 29 1007 83 10000 7.7 150 08:19 11.06.2020
1541 Rain 27 1007 88 0 7.5 152 07:42 11.06.2020
1542 Haze 30 1007 79 10000 6.2 150 07:24 11.06.2020
1543 Haze 30 1008 74 10000 5.1 180 06:38 11.06.2020
1544 Haze 30 1008 74 10000 5.1 180 06:20 11.06.2020
1545 Clouds 30 1008 79 10000 5.7 150 04:52 11.06.2020
1546 Clouds 28 1010 83 10000 2.6 130 03:26 11.06.2020
1547 Clouds 28 1010 83 10000 2.6 130 02:49 11.06.2020
1548 Clouds 27 1011 76 0 3.06 155 01:59 11.06.2020
1549 Haze 26 1010 94 10000 4.1 330 01:39 11.06.2020
1550 Haze 26 1010 94 10000 4.1 330 01:19 11.06.2020
1551 Haze 26 1010 94 10000 4.1 330 00:43 11.06.2020
1552 Haze 24 1009 100 10000 4.1 30 00:24 11.06.2020
1553 Haze 24 1009 100 10000 4.1 30 23:43 10.06.2020
1554 Clouds 24 1009 100 10000 1.5 0 23:24 10.06.2020
1555 Clouds 24 1009 100 10000 1.5 0 22:56 10.06.2020
1556 Clouds 23 1008 100 10000 1.5 0 22:37 10.06.2020
1557 Clouds 23 1008 100 10000 1.5 0 22:18 10.06.2020
1558 Clouds 23 1008 100 10000 1.5 0 21:55 10.06.2020
1559 Clouds 24 1010 89 0 3.42 119 21:37 10.06.2020
1560 Clouds 24 1010 90 0 3.44 123 21:18 10.06.2020
1561 Clouds 24 1010 90 0 3.44 123 20:55 10.06.2020
1562 Clouds 24 1010 90 0 3.44 123 20:37 10.06.2020
1563 Clouds 24 1010 89 0 3.56 126 20:18 10.06.2020
1564 Clouds 24 1010 89 0 3.56 126 19:38 10.06.2020
1565 Clouds 24 1010 89 0 3.88 123 19:18 10.06.2020
1566 Clouds 24 1010 89 0 3.88 123 18:56 10.06.2020
1567 Clouds 24 1010 89 0 3.88 123 18:37 10.06.2020
1568 Clouds 24 1010 89 0 4.42 126 18:19 10.06.2020
1569 Clouds 24 1010 89 0 4.42 126 17:54 10.06.2020
1570 Clouds 24 1010 89 0 4.42 126 17:36 10.06.2020
1571 Clouds 25 1010 88 0 4.93 128 17:18 10.06.2020
1572 Clouds 25 1010 88 0 4.93 128 16:41 10.06.2020
1573 Clouds 25 1010 100 10000 2.6 160 16:22 10.06.2020
1574 Clouds 25 1010 100 10000 2.6 160 16:22 10.06.2020
1575 Clouds 25 1010 100 10000 2.6 160 15:59 10.06.2020
1576 Clouds 25 1010 100 10000 5.1 160 15:38 10.06.2020
1577 Clouds 25 1010 100 10000 5.1 160 15:20 10.06.2020
1578 Clouds 25 1010 100 10000 5.1 160 14:41 10.06.2020
1579 Clouds 26 1011 94 10000 5.1 160 14:22 10.06.2020
1580 Clouds 26 1011 94 10000 5.1 160 13:58 10.06.2020
1581 Clouds 26 1010 88 10000 7.7 170 13:39 10.06.2020
1582 Clouds 26 1010 88 10000 7.7 170 13:21 10.06.2020
1583 Clouds 26 1010 88 10000 7.7 170 12:42 10.06.2020
1584 Clouds 26 1009 88 10000 8.7 150 12:20 10.06.2020
1585 Clouds 26 1009 88 10000 8.7 150 11:56 10.06.2020
1586 Clouds 26 1009 88 10000 8.7 150 11:56 10.06.2020
1587 Clouds 26 1009 88 10000 5.1 150 11:38 10.06.2020
1588 Clouds 26 1009 88 10000 5.1 150 11:19 10.06.2020
1589 Clouds 26 1009 88 10000 5.1 150 10:44 10.06.2020
1590 Haze 29 1008 74 10000 5.1 150 10:25 10.06.2020
1591 Haze 29 1008 74 10000 5.1 150 09:58 10.06.2020
1592 Haze 29 1008 74 10000 5.1 150 09:39 10.06.2020
1593 Haze 29 1008 74 10000 5.1 150 09:20 10.06.2020
1594 Clouds 27 1009 79 0 8.49 146 08:42 10.06.2020
1595 Haze 29 1008 79 10000 2.6 170 08:23 10.06.2020
1596 Haze 29 1008 79 10000 2.6 170 07:43 10.06.2020
1597 Haze 29 1008 79 10000 2.6 170 07:23 10.06.2020
1598 Clouds 28 1009 77 0 8.8 149 06:59 10.06.2020
1599 Haze 30 1009 74 10000 7.7 150 06:38 10.06.2020
1600 Haze 30 1009 74 10000 7.7 150 06:18 10.06.2020
1601 Haze 30 1009 74 10000 7.7 150 05:49 10.06.2020
1602 Clouds 28 1010 75 0 8.55 150 05:18 10.06.2020
1603 Clouds 28 1011 75 0 7.44 148 04:29 10.06.2020
1604 Clouds 28 1012 75 0 5.71 149 02:34 10.06.2020
1605 Clouds 28 1013 76 0 4.86 139 01:47 10.06.2020
1606 Clouds 27 1012 78 0 4.5 130 01:21 10.06.2020
1607 Clouds 27 1012 78 0 4.5 130 00:38 10.06.2020
1608 Clouds 26 1012 82 0 3.37 119 00:20 10.06.2020
1609 Clouds 26 1012 82 0 3.37 119 23:42 09.06.2020
1610 Clouds 25 1011 87 0 3.42 107 23:23 09.06.2020
1611 Clouds 25 1011 87 0 3.42 107 22:57 09.06.2020
1612 Clouds 25 1010 94 10000 5.1 150 22:39 09.06.2020
1613 Clouds 25 1010 94 10000 5.1 150 22:20 09.06.2020
1614 Clouds 25 1010 94 10000 5.1 150 21:57 09.06.2020
1615 Clouds 25 1010 94 10000 5.1 150 21:39 09.06.2020
1616 Clouds 25 1010 94 10000 5.1 150 21:21 09.06.2020
1617 Clouds 25 1010 94 10000 5.1 150 20:58 09.06.2020
1618 Clouds 25 1010 94 10000 7.7 150 20:39 09.06.2020
1619 Clouds 25 1010 94 10000 7.7 150 20:20 09.06.2020
1620 Clouds 25 1010 94 10000 7.7 150 19:58 09.06.2020
1621 Clouds 24 1011 89 0 4.71 114 19:39 09.06.2020
1622 Clouds 24 1011 89 0 5.29 120 19:20 09.06.2020
1623 Clouds 24 1011 89 0 5.29 120 18:57 09.06.2020
1624 Clouds 25 1011 94 10000 7.7 130 18:39 09.06.2020
1625 Clouds 25 1011 94 10000 7.7 130 18:19 09.06.2020
1626 Clouds 25 1011 94 10000 7.7 130 17:55 09.06.2020
1627 Clouds 26 1011 88 10000 5.1 130 17:37 09.06.2020
1628 Clouds 26 1011 88 10000 5.1 130 17:18 09.06.2020
1629 Clouds 26 1011 88 10000 5.1 130 16:42 09.06.2020
1630 Clouds 25 1011 94 10000 7.7 130 16:23 09.06.2020
1631 Clouds 25 1011 94 10000 7.7 130 15:56 09.06.2020
1632 Clouds 26 1011 88 10000 9.3 140 15:37 09.06.2020
1633 Clouds 26 1011 88 10000 9.3 140 15:19 09.06.2020
1634 Clouds 26 1011 88 10000 9.3 140 14:41 09.06.2020
1635 Clouds 26 1012 88 10000 10.3 150 14:21 09.06.2020
1636 Clouds 26 1012 88 10000 10.3 150 13:58 09.06.2020
1637 Clouds 25 1013 88 0 6.24 127 13:40 09.06.2020
1638 Clouds 26 1011 88 10000 10.3 150 13:21 09.06.2020
1639 Clouds 26 1011 88 10000 10.3 150 12:44 09.06.2020
1640 Clouds 27 1010 83 10000 10.3 150 12:21 09.06.2020
1641 Clouds 27 1010 83 10000 10.3 150 11:59 09.06.2020
1642 Clouds 26 1012 85 0 7.09 134 11:41 09.06.2020
1643 Clouds 27 1009 83 10000 5.1 150 11:20 09.06.2020
1644 Clouds 27 1009 83 10000 5.1 150 10:58 09.06.2020
1645 Clouds 27 1009 83 10000 5.1 150 10:40 09.06.2020
1646 Clouds 27 1009 83 10000 5.1 150 10:22 09.06.2020
1647 Clouds 29 1009 79 10000 7.7 160 09:44 09.06.2020
1648 Clouds 30 1008 74 10000 9.14 152 09:24 09.06.2020
1649 Clouds 30 1008 74 10000 9.07 151 08:56 09.06.2020
1650 Clouds 30 1008 74 10000 9.07 151 08:38 09.06.2020
1651 Clouds 30 1008 74 10000 9.19 152 08:19 09.06.2020
1652 Haze 31 1009 70 10000 7.7 150 07:38 09.06.2020
1653 Haze 31 1009 70 10000 7.7 150 07:19 09.06.2020
1654 Haze 31 1009 70 10000 7.7 150 06:53 09.06.2020
1655 Haze 31 1009 70 10000 7.7 150 06:53 09.06.2020
1656 Clouds 29 1008 70 0 8.46 155 06:33 09.06.2020
1657 Clouds 29 1009 68 0 7.45 156 05:34 09.06.2020
1658 Clouds 28 1012 67 0 4.36 147 03:19 09.06.2020
1659 Clear 27 1013 70 0 4.43 128 01:42 09.06.2020
1660 Clear 26 1013 75 0 5.2 121 01:19 09.06.2020
1661 Clear 26 1013 75 0 5.2 121 00:49 09.06.2020
1662 Clouds 25 1010 88 10000 4.1 120 00:20 09.06.2020
1663 Clouds 25 1010 88 10000 4.1 120 23:58 08.06.2020
1664 Clouds 25 1010 88 10000 4.1 120 23:37 08.06.2020
1665 Clouds 25 1010 88 10000 4.1 120 23:19 08.06.2020
1666 Clouds 25 1010 88 10000 3.6 110 22:42 08.06.2020
1667 Clear 23 1012 86 0 6.15 121 22:22 08.06.2020
1668 Clear 23 1012 86 0 6.15 121 21:58 08.06.2020
1669 Clear 23 1012 86 0 6.15 121 21:40 08.06.2020
1670 Clouds 25 1009 88 10000 7.7 140 21:21 08.06.2020
1671 Clouds 25 1009 88 10000 7.7 140 20:57 08.06.2020
1672 Clouds 25 1009 88 10000 7.7 140 20:39 08.06.2020
1673 Clouds 25 1009 88 10000 7.7 140 20:20 08.06.2020
1674 Clouds 25 1009 88 10000 7.7 150 19:55 08.06.2020
1675 Clouds 25 1009 88 10000 7.7 150 19:37 08.06.2020
1676 Clouds 25 1009 88 10000 7.7 150 19:18 08.06.2020
1677 Clouds 25 1010 94 10000 7.7 140 18:40 08.06.2020
1678 Clouds 25 1010 94 10000 7.7 140 18:18 08.06.2020
1679 Clouds 25 1010 94 10000 10.3 150 17:56 08.06.2020
1680 Clouds 25 1010 94 10000 10.3 150 17:37 08.06.2020
1681 Clouds 25 1010 94 10000 10.3 150 17:19 08.06.2020
1682 Clouds 25 1010 94 10000 10.3 150 16:45 08.06.2020
1683 Clouds 24 1011 88 0 7.75 129 16:25 08.06.2020
1684 Clouds 24 1011 88 0 7.75 129 15:57 08.06.2020
1685 Clouds 25 1011 94 10000 7.7 140 15:39 08.06.2020
1686 Clouds 25 1011 94 10000 7.7 140 15:19 08.06.2020
1687 Clouds 25 1011 94 10000 7.7 140 14:41 08.06.2020
1688 Clouds 26 1010 88 10000 10.3 150 14:22 08.06.2020
1689 Clouds 26 1010 88 10000 10.3 150 13:56 08.06.2020
1690 Clouds 26 1010 88 10000 10.3 150 13:38 08.06.2020
1691 Clouds 26 1010 88 10000 10.3 150 13:19 08.06.2020
1692 Clouds 26 1010 88 10000 10.3 150 12:40 08.06.2020
1693 Clouds 26 1010 88 10000 10.3 150 12:19 08.06.2020
1694 Clouds 25 1012 85 0 6.73 129 11:42 08.06.2020
1695 Clouds 27 1008 83 10000 10.3 140 11:24 08.06.2020
1696 Clouds 27 1008 83 10000 10.3 140 10:59 08.06.2020
1697 Clouds 25 1011 84 0 6.71 132 10:40 08.06.2020
1698 Haze 28 1008 83 10000 10.3 150 10:21 08.06.2020
1699 Haze 28 1008 83 10000 10.3 150 09:59 08.06.2020
1700 Haze 28 1008 83 10000 10.3 150 09:59 08.06.2020
1701 Haze 28 1008 83 10000 10.3 150 09:41 08.06.2020
1702 Haze 29 1008 79 10000 10.3 150 09:22 08.06.2020
1703 Haze 29 1008 79 10000 10.3 150 08:47 08.06.2020
1704 Haze 29 1008 79 10000 10.3 150 08:47 08.06.2020
1705 Haze 31 1008 70 10000 10.3 150 08:23 08.06.2020
1706 Haze 31 1008 70 10000 10.3 150 07:46 08.06.2020
1707 Haze 31 1008 70 10000 7.7 150 07:24 08.06.2020
1708 Haze 31 1008 70 10000 7.7 150 06:51 08.06.2020
1709 Rain 28 1009 77 0 9.69 149 06:33 08.06.2020
1710 Rain 28 1009 76 0 9.48 151 05:52 08.06.2020
1711 Haze 30 1010 74 10000 7.7 160 04:29 08.06.2020
1712 Haze 29 1011 74 10000 5.1 170 02:32 08.06.2020
1713 Haze 27 1011 83 10000 5.1 140 01:55 08.06.2020
1714 Haze 27 1011 83 10000 5.1 140 01:30 08.06.2020
1715 Haze 26 1010 88 10000 4.1 150 00:33 08.06.2020
1716 Haze 24 1010 100 10000 2.6 140 23:58 07.06.2020
1717 Haze 24 1010 100 10000 2.6 140 23:36 07.06.2020
1718 Haze 24 1010 100 10000 2.6 140 23:18 07.06.2020
1719 Haze 24 1009 94 10000 2.6 140 22:39 07.06.2020
1720 Haze 24 1009 94 10000 2.6 140 22:20 07.06.2020
1721 Clouds 24 1009 94 10000 2.6 200 21:59 07.06.2020
1722 Clouds 24 1009 94 10000 2.6 200 21:39 07.06.2020
1723 Clouds 24 1009 94 10000 2.6 200 21:20 07.06.2020
1724 Clouds 24 1009 94 10000 2.6 200 21:20 07.06.2020
1725 Clouds 24 1009 94 10000 2.6 200 21:20 07.06.2020
1726 Clouds 24 1009 94 10000 2.6 200 21:20 07.06.2020
1727 Clouds 24 1009 94 10000 2.6 150 20:56 07.06.2020
1728 Clouds 24 1009 94 10000 2.6 150 20:38 07.06.2020
1729 Clouds 24 1009 94 10000 2.6 150 20:18 07.06.2020
1730 Clouds 25 1008 88 10000 5.1 130 19:55 07.06.2020
1731 Clouds 25 1008 88 10000 5.1 130 19:55 07.06.2020
1732 Clouds 25 1008 88 10000 5.1 130 19:37 07.06.2020
1733 Clouds 25 1008 88 10000 5.1 130 19:19 07.06.2020
1734 Clouds 24 1009 94 10000 5.1 150 18:54 07.06.2020
1735 Clouds 25 1009 88 10000 5.1 120 18:36 07.06.2020
1736 Clouds 25 1009 88 10000 5.1 120 18:18 07.06.2020
1737 Clouds 25 1009 88 10000 5.1 120 17:41 07.06.2020
1738 Clouds 25 1009 88 10000 5.1 120 17:22 07.06.2020
1739 Clouds 25 1009 88 10000 4.6 140 16:45 07.06.2020
1740 Clouds 26 1009 88 10000 4.6 160 16:23 07.06.2020
1741 Clouds 26 1009 88 10000 4.6 160 15:45 07.06.2020
1742 Clouds 26 1009 88 10000 4.6 160 15:24 07.06.2020
1743 Rain 24 1011 89 0 5.59 127 15:00 07.06.2020
1744 Rain 24 1011 89 0 5.59 127 14:38 07.06.2020
1745 Clouds 24 1011 89 0 6.05 127 14:18 07.06.2020
1746 Clouds 24 1011 89 0 6.05 127 13:45 07.06.2020
1747 Clouds 24 1011 89 0 6.05 127 13:45 07.06.2020
1748 Clouds 24 1011 89 0 6.05 127 13:45 07.06.2020
1749 Clouds 24 1011 88 0 6.54 129 13:19 07.06.2020
1750 Clouds 24 1011 88 0 6.54 129 12:44 07.06.2020
1751 Clouds 24 1011 88 0 6.54 129 12:44 07.06.2020
1752 Clouds 25 1010 88 0 6.82 132 12:26 07.06.2020
1753 Clouds 25 1010 88 0 6.82 132 11:56 07.06.2020
1754 Clouds 25 1010 88 0 6.82 132 11:38 07.06.2020
1755 Clouds 25 1010 88 0 6.82 132 11:38 07.06.2020
1756 Clouds 25 1009 87 0 6.74 132 11:20 07.06.2020
1757 Clouds 25 1009 87 0 6.74 132 10:57 07.06.2020
1758 Clouds 25 1009 87 0 6.74 132 10:39 07.06.2020
1759 Haze 29 1006 79 10000 5.1 140 10:19 07.06.2020
1760 Haze 29 1006 79 10000 5.1 140 09:56 07.06.2020
1761 Haze 29 1006 79 10000 8.2 140 09:37 07.06.2020
1762 Haze 29 1006 79 10000 8.2 140 09:19 07.06.2020
1763 Haze 29 1006 79 10000 8.2 140 08:41 07.06.2020
1764 Haze 29 1006 79 10000 8.2 140 08:41 07.06.2020
1765 Haze 29 1006 79 10000 8.2 140 08:23 07.06.2020
1766 Haze 29 1006 79 10000 8.2 140 07:44 07.06.2020
1767 Haze 30 1007 74 10000 7.7 160 07:26 07.06.2020
1768 Haze 31 1007 70 10000 4.1 180 06:24 07.06.2020
1769 Haze 31 1009 66 10000 2.1 0 05:28 07.06.2020
1770 Haze 31 1009 66 10000 2.1 0 04:19 07.06.2020
1771 Clouds 27 1011 78 0 3.12 123 02:26 07.06.2020
1772 Clouds 27 1011 78 0 3.12 123 01:40 07.06.2020
1773 Rain 26 1012 83 0 3.35 116 01:22 07.06.2020
1774 Haze 26 1010 88 10000 5.1 150 00:40 07.06.2020
1775 Haze 26 1010 88 10000 5.1 150 00:18 07.06.2020
1776 Haze 25 1009 88 10000 2.6 120 23:55 06.06.2020
1777 Haze 25 1009 88 10000 2.6 120 23:36 06.06.2020
1778 Haze 25 1009 88 10000 2.6 120 23:18 06.06.2020
1779 Clouds 24 1009 94 10000 1.5 0 22:55 06.06.2020
1780 Clouds 24 1009 94 10000 1.5 0 22:36 06.06.2020
1781 Clouds 24 1009 94 10000 1.5 0 22:18 06.06.2020
1782 Clouds 24 1008 94 10000 1.5 0 21:42 06.06.2020
1783 Clouds 24 1008 94 10000 1.5 0 21:20 06.06.2020
1784 Clouds 24 1008 94 10000 2.6 140 20:41 06.06.2020
1785 Clouds 24 1008 94 10000 2.6 140 20:21 06.06.2020
1786 Clouds 24 1008 94 10000 1.5 0 19:59 06.06.2020
1787 Clouds 24 1008 94 10000 1.5 0 19:41 06.06.2020
1788 Clouds 24 1008 94 10000 1.5 0 19:22 06.06.2020
1789 Clouds 25 1008 88 10000 2.6 110 18:57 06.06.2020
1790 Rain 24 1010 90 0 5.11 119 18:39 06.06.2020
1791 Clouds 25 1008 88 10000 3.6 140 18:20 06.06.2020
1792 Clouds 25 1008 88 10000 3.6 140 17:44 06.06.2020
1793 Clouds 26 1009 83 10000 7.7 150 17:21 06.06.2020
1794 Clouds 26 1009 83 10000 7.7 150 16:57 06.06.2020
1795 Clouds 26 1009 83 10000 7.7 150 16:39 06.06.2020
1796 Clouds 26 1009 83 10000 7.7 150 16:20 06.06.2020
1797 Clouds 26 1009 83 10000 7.7 150 15:45 06.06.2020
1798 Clouds 26 1009 88 10000 9.3 160 15:21 06.06.2020
1799 Clouds 26 1009 88 10000 9.3 160 14:59 06.06.2020
1800 Clouds 25 1011 88 0 6.44 123 14:38 06.06.2020
1801 Clouds 27 1009 83 10000 10.3 160 14:19 06.06.2020
1802 Clouds 27 1009 83 10000 10.3 160 13:49 06.06.2020
1803 Clouds 27 1008 83 10000 10.3 150 13:19 06.06.2020
1804 Clouds 27 1008 83 10000 10.3 150 12:58 06.06.2020
1805 Clouds 27 1008 83 10000 10.3 150 12:39 06.06.2020
1806 Clouds 27 1007 83 10000 10.3 150 12:20 06.06.2020
1807 Clouds 27 1007 83 10000 10.3 150 11:55 06.06.2020
1808 Clouds 28 1007 78 10000 10.3 150 11:36 06.06.2020
1809 Clouds 28 1007 78 10000 10.3 150 11:18 06.06.2020
1810 Clouds 28 1007 78 10000 10.3 150 10:55 06.06.2020
1811 Clouds 28 1007 83 10000 10.3 140 10:36 06.06.2020
1812 Clouds 28 1007 83 10000 10.3 140 10:18 06.06.2020
1813 Clouds 28 1007 83 10000 10.3 140 09:41 06.06.2020
1814 Clouds 30 1006 74 10000 12.9 150 09:23 06.06.2020
1815 Clouds 30 1006 74 10000 12.9 150 08:48 06.06.2020
1816 Clouds 30 1006 79 10000 10.3 150 08:24 06.06.2020
1817 Clouds 30 1006 79 10000 10.3 150 07:56 06.06.2020
1818 Clouds 30 1007 79 10000 10.3 160 07:38 06.06.2020
1819 Clouds 30 1007 79 10000 10.3 160 07:19 06.06.2020
1820 Clouds 30 1007 79 10000 10.3 160 06:43 06.06.2020
1821 Clouds 30 1007 79 10000 10.3 160 06:43 06.06.2020
1822 Clouds 30 1007 79 10000 10.3 160 06:43 06.06.2020
1823 Clouds 30 1008 79 10000 7.7 160 06:25 06.06.2020
1824 Clouds 30 1009 79 10000 2.6 140 05:33 06.06.2020
1825 Clouds 30 1009 79 10000 2.6 140 04:50 06.06.2020
1826 Clouds 28 1010 83 10000 1 0 03:29 06.06.2020
1827 Fog 26 1011 94 10000 1 0 02:26 06.06.2020
1828 Fog 26 1010 94 10000 2.1 0 01:23 06.06.2020
1829 Fog 26 1010 94 10000 2.1 0 00:56 06.06.2020
1830 Clouds 26 1011 84 0 3.92 128 00:38 06.06.2020
1831 Fog 25 1010 100 10000 1.5 0 00:20 06.06.2020
1832 Fog 25 1010 100 10000 1.5 0 23:39 05.06.2020
1833 Clouds 25 1009 100 10000 1.5 0 23:19 05.06.2020
1834 Clouds 25 1009 100 10000 1.5 0 22:56 05.06.2020
1835 Clouds 25 1009 100 10000 1.5 0 22:37 05.06.2020
1836 Clouds 25 1009 100 10000 1.5 0 22:19 05.06.2020
1837 Clouds 25 1009 100 10000 1.5 0 22:19 05.06.2020
1838 Clouds 25 1009 100 10000 1.5 0 21:43 05.06.2020
1839 Clouds 25 1008 100 10000 1 0 21:23 05.06.2020
1840 Clouds 25 1008 100 10000 1 0 20:58 05.06.2020
1841 Clouds 25 1008 100 10000 1 0 20:39 05.06.2020
1842 Clouds 26 1009 94 10000 2.1 220 20:21 05.06.2020
1843 Clouds 26 1009 94 10000 2.1 220 19:43 05.06.2020
1844 Clouds 25 1009 100 10000 2.6 50 19:23 05.06.2020
1845 Clouds 25 1009 100 10000 2.6 50 18:57 05.06.2020
1846 Rain 24 1010 92 0 1.85 109 18:38 05.06.2020
1847 Clouds 26 1010 94 10000 1.5 0 18:19 05.06.2020
1848 Clouds 26 1010 94 10000 1.5 0 17:57 05.06.2020
1849 Clouds 24 1010 93 0 1.75 97 17:39 05.06.2020
1850 Clouds 25 1010 100 10000 2.6 160 17:19 05.06.2020
1851 Clouds 25 1010 100 10000 2.6 160 16:39 05.06.2020
1852 Clouds 26 1010 94 10000 2.6 120 16:20 05.06.2020
1853 Clouds 26 1010 94 10000 2.6 120 15:55 05.06.2020
1854 Clouds 26 1010 94 10000 2.6 120 15:55 05.06.2020
1855 Clouds 26 1010 94 10000 2.6 120 15:36 05.06.2020
1856 Clouds 26 1010 94 10000 2.6 120 15:18 05.06.2020
1857 Clouds 26 1011 100 10000 6.2 150 14:40 05.06.2020
1858 Clouds 26 1011 100 10000 6.2 150 14:22 05.06.2020
1859 Clouds 26 1011 100 10000 6.2 150 13:59 05.06.2020
1860 Clouds 26 1011 100 10000 6.2 150 13:39 05.06.2020
1861 Clouds 26 1011 100 10000 6.2 150 13:20 05.06.2020
1862 Clouds 26 1011 100 10000 5.1 140 12:42 05.06.2020
1863 Clouds 26 1010 100 10000 5.1 150 12:20 05.06.2020
1864 Clouds 26 1010 100 10000 5.1 150 11:56 05.06.2020
1865 Clouds 27 1009 94 10000 7.7 150 11:37 05.06.2020
1866 Clouds 27 1009 94 10000 7.7 150 11:19 05.06.2020
1867 Clouds 27 1009 94 10000 7.7 150 10:42 05.06.2020
1868 Clouds 28 1009 88 10000 5.1 150 10:21 05.06.2020
1869 Clouds 28 1009 88 10000 5.1 150 09:58 05.06.2020
1870 Clouds 28 1009 88 10000 5.1 150 09:40 05.06.2020
1871 Clouds 29 1008 83 10000 7.2 150 09:21 05.06.2020
1872 Clouds 29 1008 83 10000 7.2 150 08:59 05.06.2020
1873 Clouds 29 1008 83 10000 7.2 150 08:58 05.06.2020
1874 Clouds 29 1008 83 10000 7.2 150 08:58 05.06.2020
1875 Clouds 29 1008 83 10000 7.2 150 08:40 05.06.2020
1876 Clouds 29 1008 83 10000 3.6 140 08:19 05.06.2020
1877 Clouds 29 1008 83 10000 3.6 140 07:53 05.06.2020
1878 Clouds 29 1009 83 10000 5.1 170 07:33 05.06.2020
1879 Clouds 29 1009 83 10000 5.1 170 06:50 05.06.2020
1880 Clouds 30 1010 74 10000 1.5 0 05:23 05.06.2020
1881 Clouds 30 1011 74 10000 2.1 0 04:30 05.06.2020
1882 Clouds 29 1011 79 10000 1.5 0 03:38 05.06.2020
1883 Clouds 25 1012 100 10000 2.6 320 02:30 05.06.2020
1884 Clouds 25 1012 100 10000 2.6 320 01:59 05.06.2020
1885 Clouds 25 1011 100 0 1.5 0 01:33 05.06.2020
1886 Clouds 25 1011 100 0 1.5 0 00:46 05.06.2020
1887 Fog 24 1011 100 0 1.5 0 00:22 05.06.2020
1888 Fog 24 1011 100 0 2.1 0 23:58 04.06.2020
1889 Fog 24 1011 100 0 2.1 0 23:40 04.06.2020
1890 Fog 24 1010 100 0 1.5 0 23:21 04.06.2020
1891 Fog 24 1010 100 0 1.5 0 22:42 04.06.2020
1892 Clouds 24 1011 91 0 2.39 105 22:21 04.06.2020
1893 -273 0 0 0 0 0 21:58 04.06.2020
1894 Clouds 24 1011 91 0 2.39 105 21:58 04.06.2020
1895 Clouds 24 1011 91 0 2.39 105 21:38 04.06.2020
1896 Clear 24 1010 91 0 2.12 95 21:20 04.06.2020
1897 Clear 24 1010 91 0 2.12 95 20:57 04.06.2020
1898 Clear 24 1010 91 0 2.12 95 20:38 04.06.2020
1899 Clouds 24 1010 91 0 2.38 100 20:19 04.06.2020
1900 Clouds 24 1010 91 0 2.38 100 19:55 04.06.2020
1901 Clouds 24 1010 91 0 2.38 100 19:36 04.06.2020
1902 Clouds 24 1010 91 0 2.51 108 19:18 04.06.2020
1903 Clouds 24 1010 91 0 2.51 108 18:38 04.06.2020
1904 Clouds 25 1011 100 10000 1.5 0 18:20 04.06.2020
1905 Clouds 25 1011 100 10000 1.5 0 17:44 04.06.2020
1906 Clouds 25 1012 100 10000 1 0 17:24 04.06.2020
1907 Clouds 25 1012 100 10000 1 0 16:59 04.06.2020
1908 Clouds 25 1012 100 10000 1 0 16:40 04.06.2020
1909 Clouds 25 1012 100 10000 1 0 16:20 04.06.2020
1910 Clouds 25 1012 100 10000 1 0 16:20 04.06.2020
1911 Clouds 25 1012 100 10000 1 0 15:45 04.06.2020
1912 Clouds 25 1012 100 10000 2.1 130 15:26 04.06.2020
1913 Clouds 25 1012 100 10000 2.1 130 14:42 04.06.2020
1914 Clouds 25 1012 100 10000 3.1 150 14:24 04.06.2020
1915 Clouds 25 1012 100 10000 3.1 150 13:59 04.06.2020
1916 Clouds 25 1012 100 10000 3.1 150 13:59 04.06.2020
1917 Clouds 25 1012 100 10000 3.1 150 13:40 04.06.2020
1918 Clouds 25 1012 100 10000 3.1 170 13:21 04.06.2020
1919 Clouds 25 1012 100 10000 3.1 170 12:59 04.06.2020
1920 Clouds 25 1012 100 10000 3.1 170 12:40 04.06.2020
1921 Clouds 26 1011 94 10000 10.3 170 12:22 04.06.2020
1922 Clouds 26 1011 94 10000 10.3 170 11:54 04.06.2020
1923 Rain 25 1013 90 0 6.28 135 11:36 04.06.2020
1924 Rain 25 1012 90 0 6.29 140 11:18 04.06.2020
1925 Rain 25 1012 90 0 6.29 140 10:41 04.06.2020
1926 Rain 27 1010 88 10000 8.2 160 10:22 04.06.2020
1927 Rain 27 1010 88 10000 8.2 160 09:57 04.06.2020
1928 Rain 26 1011 89 0 6.74 141 09:38 04.06.2020
1929 Rain 27 1009 88 10000 5.1 140 09:20 04.06.2020
1930 Rain 27 1009 88 10000 5.1 140 08:42 04.06.2020
1931 Clouds 28 1010 83 10000 5.55 153 08:23 04.06.2020
1932 Clouds 28 1010 83 10000 5.55 153 07:42 04.06.2020
1933 Rain 27 1010 86 0 5.09 157 07:21 04.06.2020
1934 Rain 27 1010 86 0 5.09 157 06:40 04.06.2020
1935 Clouds 27 1011 88 10000 5.1 150 06:22 04.06.2020
1936 Clouds 29 1012 79 10000 3.1 180 05:34 04.06.2020
1937 Clouds 29 1012 83 10000 3.6 320 03:51 04.06.2020
1938 Clouds 27 1013 75 0 0.98 208 02:22 04.06.2020
1939 Clouds 27 1013 76 0 1.03 222 01:39 04.06.2020
1940 Haze 27 1013 88 10000 2.6 130 01:19 04.06.2020
1941 Clouds 24 1012 100 10000 1.5 0 00:20 04.06.2020
1942 Clouds 25 1013 84 0 1.16 49 23:39 03.06.2020
1943 Clouds 23 1011 100 10000 1.5 0 23:19 03.06.2020
1944 Clouds 23 1011 100 10000 1.5 0 22:56 03.06.2020
1945 Clouds 23 1011 100 10000 1.5 0 22:38 03.06.2020
1946 Clouds 23 1011 100 10000 1.5 0 22:18 03.06.2020
1947 Clouds 24 1012 89 0 1.59 93 21:55 03.06.2020
1948 Clouds 24 1012 89 0 1.59 93 21:37 03.06.2020
1949 Clouds 24 1012 90 0 1.81 91 21:18 03.06.2020
1950 Clouds 24 1011 90 0 2.14 103 20:42 03.06.2020
1951 Rain 24 1011 90 0 2.38 104 20:21 03.06.2020
1952 Rain 24 1011 90 0 2.38 104 20:21 03.06.2020
1953 Rain 24 1011 90 0 2.38 104 19:57 03.06.2020
1954 Rain 24 1011 90 0 2.38 104 19:39 03.06.2020
1955 Clouds 24 1011 90 0 3.31 109 19:20 03.06.2020
1956 Clouds 24 1011 90 0 3.31 109 18:58 03.06.2020
1957 Clouds 24 1011 90 0 3.31 109 18:40 03.06.2020
1958 Clouds 24 1012 90 0 4.02 118 18:19 03.06.2020
1959 Clouds 24 1012 90 0 4.02 118 17:45 03.06.2020
1960 Clouds 25 1012 89 0 4.29 130 17:23 03.06.2020
1961 Clouds 25 1012 89 0 4.29 130 16:58 03.06.2020
1962 Clouds 25 1012 89 0 4.29 130 16:39 03.06.2020
1963 Rain 25 1012 100 10000 3.6 160 16:19 03.06.2020
1964 Rain 25 1012 100 10000 3.6 160 15:54 03.06.2020
1965 Clouds 25 1013 100 10000 2.6 150 15:36 03.06.2020
1966 Clouds 25 1013 100 10000 2.6 150 15:18 03.06.2020
1967 Clouds 25 1013 100 10000 2.6 150 14:42 03.06.2020
1968 Clouds 25 1012 94 10000 4.1 140 14:22 03.06.2020
1969 Clouds 25 1012 94 10000 4.1 140 13:40 03.06.2020
1970 Clouds 25 1012 100 10000 3.1 140 13:20 03.06.2020
1971 Clouds 25 1012 100 10000 3.1 140 13:20 03.06.2020
1972 Clouds 25 1012 100 10000 3.1 140 12:54 03.06.2020
1973 Clouds 25 1012 94 10000 3.6 130 12:36 03.06.2020
1974 Clouds 25 1012 94 10000 3.6 130 12:36 03.06.2020
1975 Clouds 25 1012 94 10000 3.6 130 12:18 03.06.2020
1976 Clouds 25 1012 94 10000 3.6 130 11:41 03.06.2020
1977 Clouds 25 1011 94 10000 5.1 160 11:23 03.06.2020
1978 Clouds 25 1011 94 10000 5.1 160 10:43 03.06.2020
1979 Rain 26 1010 88 10000 7.7 150 10:24 03.06.2020
1980 Rain 26 1010 88 10000 7.7 150 09:47 03.06.2020
1981 Clouds 27 1009 83 10000 7.7 150 09:23 03.06.2020
1982 Clouds 27 1009 83 10000 7.7 150 08:59 03.06.2020
1983 Clouds 27 1009 83 10000 7.7 150 08:41 03.06.2020
1984 Clouds 28 1009 83 10000 5.1 160 08:21 03.06.2020
1985 Clouds 28 1009 83 10000 5.1 160 07:44 03.06.2020
1986 Clouds 29 1009 79 10000 7.7 160 07:23 03.06.2020
1987 Clouds 29 1009 79 10000 7.7 160 06:54 03.06.2020
1988 Rain 28 1010 78 10000 7.7 160 06:33 03.06.2020
1989 Rain 28 1010 78 10000 7.7 160 06:33 03.06.2020
1990 Rain 27 1011 79 0 9.17 150 05:49 03.06.2020
1991 Rain 28 1011 78 10000 7.7 160 05:21 03.06.2020
1992 Clouds 27 1012 88 10000 5.1 160 03:52 03.06.2020
1993 Rain 26 1013 84 0 7.72 144 03:23 03.06.2020
1994 Rain 26 1013 94 10000 5.1 150 02:24 03.06.2020
1995 Rain 26 1014 85 0 6.75 132 00:49 03.06.2020
1996 Rain 26 1014 87 0 7.05 129 00:26 03.06.2020
1997 Rain 26 1014 87 0 7.05 129 23:52 02.06.2020
1998 Rain 25 1014 89 0 7.19 131 23:28 02.06.2020
1999 Rain 25 1014 89 0 7.19 131 22:58 02.06.2020
2000 Rain 25 1014 89 0 7.19 131 22:39 02.06.2020
2001 Rain 25 1014 89 0 7.19 131 22:39 02.06.2020
2002 Rain 25 1013 90 0 6.83 132 22:19 02.06.2020
2003 Rain 25 1013 90 0 6.83 132 21:57 02.06.2020
2004 Clouds 25 1011 94 10000 5.1 160 21:38 02.06.2020
2005 Clouds 25 1011 94 10000 5.1 160 21:20 02.06.2020
2006 Clouds 25 1011 94 10000 5.1 160 20:58 02.06.2020
2007 Clouds 25 1011 94 10000 5.1 160 20:40 02.06.2020
2008 Clouds 25 1011 94 10000 5.1 160 20:21 02.06.2020
2009 Clouds 25 1011 94 10000 6.2 160 19:44 02.06.2020
2010 Clouds 25 1011 94 10000 6.2 160 19:26 02.06.2020
2011 Clouds 25 1011 94 10000 5.1 160 18:58 02.06.2020
2012 Clouds 25 1011 94 10000 5.1 160 18:58 02.06.2020
2013 Clouds 25 1011 94 10000 5.1 160 18:40 02.06.2020
2014 Clouds 25 1011 94 10000 5.1 160 18:20 02.06.2020
2015 Clouds 25 1012 94 10000 5.1 160 17:55 02.06.2020
2016 Clouds 25 1012 94 10000 5.1 160 17:37 02.06.2020
2017 Clouds 25 1012 94 10000 5.1 160 17:37 02.06.2020
2018 Clouds 25 1012 94 10000 5.1 160 17:18 02.06.2020
2019 Clouds 25 1012 100 10000 10.3 150 16:41 02.06.2020
2020 Clouds 25 1012 94 10000 10.3 140 16:21 02.06.2020
2021 Clouds 25 1012 94 10000 10.3 140 16:21 02.06.2020
2022 Clouds 25 1012 94 10000 10.3 140 15:59 02.06.2020
2023 Clouds 25 1012 94 10000 10.3 140 15:40 02.06.2020
2024 Clouds 25 1013 94 10000 10.3 160 15:20 02.06.2020
2025 Clouds 25 1013 94 10000 10.3 160 15:20 02.06.2020
2026 Clouds 25 1013 94 10000 10.3 160 14:46 02.06.2020
2027 Clouds 25 1013 94 10000 10.3 160 14:27 02.06.2020
2028 Clouds 25 1013 94 10000 10.3 160 13:55 02.06.2020
2029 Clouds 25 1013 94 10000 10.3 160 13:36 02.06.2020
2030 Clouds 25 1013 94 10000 10.3 160 13:18 02.06.2020
2031 Clouds 25 1012 94 10000 7.7 150 12:54 02.06.2020
2032 Clouds 25 1012 94 10000 7.7 150 12:36 02.06.2020
2033 Clouds 25 1012 94 10000 7.7 150 12:36 02.06.2020
2034 Clouds 25 1012 94 10000 7.7 150 12:18 02.06.2020
2035 Clouds 25 1011 94 10000 10.3 160 11:40 02.06.2020
2036 Rain 25 1013 87 0 7.34 144 11:21 02.06.2020
2037 Rain 25 1013 87 0 7.34 144 10:55 02.06.2020
2038 Rain 25 1013 87 0 7.34 144 10:37 02.06.2020
2039 Rain 26 1012 86 0 7.49 146 10:18 02.06.2020
2040 Rain 26 1012 86 0 7.49 146 09:42 02.06.2020
2041 Rain 26 1011 84 0 7.75 149 09:20 02.06.2020
2042 Rain 26 1011 84 0 7.75 149 08:53 02.06.2020
2043 Rain 26 1010 83 0 8.06 154 08:27 02.06.2020
2044 Rain 26 1010 83 0 8.06 154 07:55 02.06.2020
2045 Rain 26 1010 83 0 8.06 154 07:31 02.06.2020
2046 Rain 27 1010 82 0 8.16 157 06:51 02.06.2020
2047 Rain 27 1010 82 0 8.16 157 06:31 02.06.2020
2048 Haze 28 1012 78 10000 7.7 170 05:28 02.06.2020
2049 Haze 29 1013 74 10000 5.1 160 03:53 02.06.2020
2050 Haze 28 1014 78 10000 7.7 140 02:30 02.06.2020
2051 Haze 27 1014 83 10000 4.1 140 01:34 02.06.2020
2052 Haze 25 1013 88 10000 1.5 0 00:26 02.06.2020
2053 Haze 25 1013 88 10000 1.5 0 23:59 01.06.2020
2054 Clouds 24 1012 94 10000 2.6 110 23:38 01.06.2020
2055 Clouds 24 1012 94 10000 2.6 110 23:18 01.06.2020
2056 Clouds 24 1012 94 10000 2.6 110 22:54 01.06.2020
2057 Clouds 24 1012 94 10000 3.6 140 22:36 01.06.2020
2058 Clouds 24 1012 94 10000 3.6 140 22:18 01.06.2020
2059 Clouds 24 1012 94 10000 3.6 140 21:41 01.06.2020
2060 Clouds 24 1012 94 10000 3.1 150 21:20 01.06.2020
2061 Clouds 24 1012 94 10000 3.1 150 20:58 01.06.2020
2062 Clouds 24 1012 94 10000 3.1 150 20:39 01.06.2020
2063 Clouds 24 1012 94 10000 4.1 150 20:19 01.06.2020
2064 Clouds 24 1012 94 10000 4.1 150 19:55 01.06.2020
2065 Clouds 25 1012 83 10000 2.1 0 19:37 01.06.2020
2066 Clouds 25 1012 83 10000 2.1 0 19:19 01.06.2020
2067 Clouds 25 1012 83 10000 2.1 0 18:55 01.06.2020
2068 Clouds 25 1013 88 10000 6.7 140 18:37 01.06.2020
2069 Clouds 25 1013 88 10000 6.7 140 18:18 01.06.2020
2070 Clouds 25 1013 88 10000 6.7 140 17:40 01.06.2020
2071 Clouds 25 1012 83 10000 5.1 130 17:19 01.06.2020
2072 Clouds 25 1012 83 10000 5.1 130 16:42 01.06.2020
2073 Rain 25 1014 87 0 7.59 135 16:22 01.06.2020
2074 Rain 25 1014 87 0 7.59 135 15:59 01.06.2020
2075 Rain 25 1014 87 0 7.59 135 15:39 01.06.2020
2076 Rain 25 1014 86 0 7.49 135 15:20 01.06.2020
2077 Rain 25 1014 86 0 7.49 135 14:57 01.06.2020
2078 Rain 25 1014 86 0 7.49 135 14:39 01.06.2020
2079 Rain 25 1014 86 0 7.85 135 14:21 01.06.2020
2080 Rain 25 1014 86 0 7.85 135 13:44 01.06.2020
2081 Rain 25 1013 86 0 7.61 133 13:22 01.06.2020
2082 Rain 25 1013 86 0 7.61 133 12:59 01.06.2020
2083 Rain 25 1013 86 0 7.61 133 12:40 01.06.2020
2084 Rain 26 1013 85 0 8.22 136 12:22 01.06.2020
2085 Rain 26 1013 85 0 8.22 136 11:59 01.06.2020
2086 Rain 26 1013 85 0 8.22 136 11:38 01.06.2020
2087 Clouds 26 1013 84 0 8.54 139 11:19 01.06.2020
2088 Clouds 26 1013 84 0 8.54 139 10:56 01.06.2020
2089 Haze 29 1010 79 10000 5.1 160 10:37 01.06.2020
2090 Haze 29 1010 79 10000 5.1 160 10:18 01.06.2020
2091 Haze 29 1010 79 10000 5.1 160 09:46 01.06.2020
2092 Haze 29 1010 74 10000 5.1 150 09:26 01.06.2020
2093 Haze 29 1010 74 10000 5.1 150 08:57 01.06.2020
2094 Clouds 27 1011 82 0 8.73 143 08:37 01.06.2020
2095 Clouds 27 1010 80 0 9.43 147 08:18 01.06.2020
2096 Clouds 27 1010 80 0 9.43 147 07:41 01.06.2020
2097 Clouds 30 1010 74 10000 10.3 160 07:22 01.06.2020
2098 Clouds 30 1010 74 10000 10.3 160 06:49 01.06.2020
2099 Clouds 30 1011 74 10000 7.7 150 05:57 01.06.2020
2100 Clouds 28 1012 83 10000 7.7 150 04:58 01.06.2020
2101 Haze 30 1013 79 10000 10.3 160 03:57 01.06.2020
2102 Haze 28 1013 83 10000 10.3 140 03:37 01.06.2020
2103 Haze 28 1013 83 10000 10.3 140 02:49 01.06.2020
2104 Haze 28 1013 83 10000 7.7 140 01:40 01.06.2020
2105 Haze 27 1013 88 10000 3.1 160 01:18 01.06.2020
2106 Haze 27 1013 88 10000 3.1 160 00:46 01.06.2020
2107 Haze 25 1012 100 10000 0.5 0 00:21 01.06.2020
2108 Haze 25 1012 100 10000 0.5 0 00:21 01.06.2020
2109 Haze 25 1012 100 10000 0.5 0 23:59 31.05.2020
2110 Haze 25 1012 100 10000 0.5 0 23:40 31.05.2020
2111 Haze 24 1012 100 10000 1 0 23:22 31.05.2020
2112 Haze 24 1012 100 10000 1 0 22:58 31.05.2020
2113 Haze 24 1012 100 10000 1 0 22:58 31.05.2020
2114 Haze 24 1012 100 10000 1 0 22:58 31.05.2020
2115 Haze 24 1012 100 10000 1 0 22:40 31.05.2020
2116 Clouds 24 1011 100 10000 2.1 320 22:21 31.05.2020
2117 Clouds 24 1011 100 10000 2.1 320 21:56 31.05.2020
2118 Clouds 24 1011 100 10000 2.1 320 21:38 31.05.2020
2119 Clouds 24 1011 100 10000 2.1 320 21:19 31.05.2020
2120 Clouds 24 1011 100 10000 2.1 320 20:42 31.05.2020
2121 Clouds 24 1011 100 10000 5.1 150 20:23 31.05.2020
2122 Clouds 24 1011 100 10000 5.1 150 19:56 31.05.2020
2123 Clouds 25 1011 94 10000 5.1 150 19:37 31.05.2020
2124 Clouds 25 1011 94 10000 5.1 150 19:19 31.05.2020
2125 Clouds 25 1011 94 10000 5.1 150 19:19 31.05.2020
2126 Clouds 25 1011 94 10000 5.1 150 18:44 31.05.2020
2127 Clouds 25 1012 100 10000 5.1 150 18:25 31.05.2020
2128 Clouds 25 1012 100 10000 5.1 150 17:57 31.05.2020
2129 Clouds 25 1012 100 10000 5.1 150 17:39 31.05.2020
2130 Clouds 25 1012 100 10000 5.1 150 17:19 31.05.2020
2131 Clouds 25 1012 100 10000 5.1 150 16:40 31.05.2020
2132 Clouds 26 1013 94 10000 2.1 140 16:21 31.05.2020
2133 Clouds 26 1013 94 10000 2.1 140 15:40 31.05.2020
2134 Clouds 25 1013 94 10000 1 0 15:22 31.05.2020
2135 Clouds 25 1013 94 10000 1 0 14:56 31.05.2020
2136 Clouds 26 1013 88 10000 1 160 14:38 31.05.2020
2137 Clouds 26 1013 88 10000 1 160 14:18 31.05.2020
2138 Clouds 26 1013 88 10000 1 160 13:54 31.05.2020
2139 Clouds 26 1013 94 10000 3.1 0 13:36 31.05.2020
2140 Clouds 26 1013 94 10000 3.1 0 13:18 31.05.2020
2141 Clouds 26 1013 94 10000 3.1 0 12:41 31.05.2020
2142 Clouds 26 1012 94 10000 2.1 0 12:22 31.05.2020
2143 Clouds 26 1012 94 10000 2.1 0 11:49 31.05.2020
2144 Clouds 28 1012 83 10000 5.1 160 11:24 31.05.2020
2145 Clouds 28 1012 83 10000 5.1 160 11:24 31.05.2020
2146 Clouds 28 1012 83 10000 5.1 160 10:58 31.05.2020
2147 Clouds 28 1012 83 10000 5.1 160 10:58 31.05.2020
2148 Clouds 28 1012 83 10000 5.1 160 10:39 31.05.2020
2149 Clouds 29 1011 79 10000 5.1 150 10:21 31.05.2020
2150 Clouds 29 1011 79 10000 5.1 150 09:46 31.05.2020
2151 Clouds 30 1010 79 10000 5.1 160 09:24 31.05.2020
2152 Clouds 30 1010 79 10000 5.1 160 08:59 31.05.2020
2153 Clouds 30 1010 79 10000 5.1 160 08:40 31.05.2020
2154 Clouds 31 1010 74 10000 10.3 160 08:22 31.05.2020
2155 Clouds 31 1010 74 10000 10.3 160 07:46 31.05.2020
2156 Clouds 31 1011 74 10000 10.3 160 07:21 31.05.2020
2157 Clouds 31 1011 74 10000 10.3 160 06:55 31.05.2020
2158 Clouds 31 1012 74 10000 8.7 160 06:34 31.05.2020
2159 Clouds 31 1012 74 10000 8.7 160 05:46 31.05.2020
2160 Clear 29 1012 75 0 6.71 163 05:27 31.05.2020
2161 Haze 31 1013 70 10000 5.7 150 03:56 31.05.2020
2162 Haze 30 1014 79 10000 7.7 170 02:59 31.05.2020
2163 Haze 29 1014 79 10000 2.1 160 01:51 31.05.2020
2164 Haze 27 1013 88 10000 1.5 0 01:30 31.05.2020
2165 Haze 25 1013 100 10000 1.5 0 00:31 31.05.2020
2166 Haze 25 1013 100 10000 1.5 0 23:59 30.05.2020
2167 Haze 25 1013 100 10000 1.5 0 23:41 30.05.2020
2168 Clouds 25 1013 100 10000 1.5 0 23:22 30.05.2020
2169 Clouds 25 1013 100 10000 1.5 0 22:42 30.05.2020
2170 Clouds 24 1013 91 0 2.77 116 22:23 30.05.2020
2171 Clouds 24 1013 91 0 2.77 116 21:56 30.05.2020
2172 Clouds 24 1013 91 0 2.77 116 21:38 30.05.2020
2173 Clouds 24 1013 90 0 2.68 111 21:20 30.05.2020
2174 Clouds 24 1013 90 0 2.68 111 20:57 30.05.2020
2175 Clouds 24 1013 90 0 2.68 111 20:38 30.05.2020
2176 Clouds 25 1012 90 0 3.08 116 20:20 30.05.2020
2177 Clouds 25 1012 90 0 3.08 116 19:43 30.05.2020
2178 Clouds 25 1012 91 0 3.49 117 19:22 30.05.2020
2179 Clouds 25 1012 91 0 3.49 117 18:54 30.05.2020
2180 Clouds 25 1012 91 0 3.49 117 18:36 30.05.2020
2181 Clouds 25 1013 91 0 4.19 117 18:18 30.05.2020
2182 Clouds 25 1013 91 0 4.19 117 17:38 30.05.2020
2183 Clouds 25 1013 90 0 4.88 122 17:19 30.05.2020
2184 Clouds 25 1013 90 0 4.88 122 16:44 30.05.2020
2185 Clouds 25 1013 90 0 5.41 126 16:23 30.05.2020
2186 Clouds 25 1013 90 0 5.41 126 15:56 30.05.2020
2187 Clouds 25 1013 90 0 5.41 126 15:38 30.05.2020
2188 Clouds 26 1014 89 0 6.09 131 15:19 30.05.2020
2189 Clouds 26 1014 89 0 6.09 131 14:42 30.05.2020
2190 Clouds 26 1014 87 0 6.8 133 14:21 30.05.2020
2191 Clouds 26 1014 87 0 6.74 134 13:42 30.05.2020
2192 Clouds 26 1014 87 0 6.87 137 13:20 30.05.2020
2193 Clouds 26 1014 87 0 6.87 137 12:40 30.05.2020
2194 Clouds 26 1013 86 0 7.17 138 12:20 30.05.2020
2195 Clouds 26 1013 86 0 7.17 138 11:56 30.05.2020
2196 Haze 27 1011 94 10000 10.3 150 11:38 30.05.2020
2197 Haze 27 1011 94 10000 10.3 150 11:20 30.05.2020
2198 Haze 27 1011 94 10000 10.3 150 10:39 30.05.2020
2199 Haze 27 1011 94 10000 10.3 150 10:39 30.05.2020
2200 Haze 27 1011 94 10000 10.3 150 10:39 30.05.2020
2201 Haze 28 1011 88 10000 10.8 150 10:21 30.05.2020
2202 Haze 28 1011 88 10000 10.8 150 09:47 30.05.2020
2203 Haze 29 1010 83 10000 7.7 140 09:29 30.05.2020
2204 Haze 29 1010 83 10000 7.7 140 08:47 30.05.2020
2205 Haze 30 1011 74 10000 7.7 160 08:28 30.05.2020
2206 Haze 30 1011 74 10000 7.7 160 07:44 30.05.2020
2207 Haze 30 1011 74 10000 7.7 160 07:44 30.05.2020
2208 Haze 30 1011 79 10000 7.7 150 07:21 30.05.2020
2209 Haze 31 1012 74 10000 5.1 150 06:33 30.05.2020
2210 Haze 31 1012 74 10000 5.1 150 05:58 30.05.2020
2211 Haze 30 1012 74 10000 5.1 160 05:34 30.05.2020
2212 Haze 29 1013 83 10000 2.6 160 03:39 30.05.2020
2213 Haze 29 1014 83 10000 2.1 0 02:30 30.05.2020
2214 Haze 29 1014 83 10000 2.1 0 01:45 30.05.2020
2215 Haze 26 1013 100 10000 1.5 0 00:38 30.05.2020
2216 Haze 26 1013 100 10000 1.5 0 00:18 30.05.2020
2217 Haze 26 1013 100 10000 1.5 0 23:43 29.05.2020
2218 Clouds 26 1012 100 10000 1.5 0 23:21 29.05.2020
2219 Clouds 26 1012 100 10000 1.5 0 22:58 29.05.2020
2220 Clouds 26 1012 100 10000 1.5 0 22:40 29.05.2020
2221 Clouds 26 1012 94 10000 2.6 110 22:19 29.05.2020
2222 Clouds 26 1012 94 10000 2.6 110 21:55 29.05.2020
2223 Clear 25 1013 91 0 2.81 114 21:36 29.05.2020
2224 Clouds 24 1013 91 0 3.54 113 21:18 29.05.2020
2225 Clouds 24 1013 91 0 3.54 113 20:44 29.05.2020
2226 Clouds 25 1013 91 0 3.97 114 20:19 29.05.2020
2227 Clouds 25 1013 91 0 3.97 114 19:56 29.05.2020
2228 Clouds 26 1012 100 10000 2.6 130 19:37 29.05.2020
2229 Clouds 26 1012 100 10000 2.6 130 19:19 29.05.2020
2230 Clouds 26 1012 100 10000 2.6 130 18:44 29.05.2020
2231 Clouds 26 1012 94 10000 5.1 150 18:19 29.05.2020
2232 Clouds 26 1012 94 10000 5.1 150 17:40 29.05.2020
2233 Clouds 26 1012 94 10000 5.1 160 17:22 29.05.2020
2234 Clouds 26 1012 94 10000 5.1 160 17:22 29.05.2020
2235 Clouds 26 1012 94 10000 5.1 160 16:58 29.05.2020
2236 Clouds 26 1012 94 10000 5.1 160 16:40 29.05.2020
2237 Clouds 27 1013 88 10000 5.1 150 16:22 29.05.2020
2238 Clouds 27 1013 88 10000 5.1 150 15:54 29.05.2020
2239 Clouds 27 1013 94 10000 8.2 150 15:36 29.05.2020
2240 Clouds 27 1013 94 10000 8.2 150 15:18 29.05.2020
2241 Clouds 27 1013 94 10000 8.2 150 15:18 29.05.2020
2242 Clouds 25 1014 89 0 6.24 128 14:39 29.05.2020
2243 Clouds 27 1013 94 10000 7.7 140 14:20 29.05.2020
2244 Clouds 27 1013 94 10000 7.7 140 13:43 29.05.2020
2245 Haze 27 1012 94 10000 10.8 160 13:23 29.05.2020
2246 Haze 27 1012 94 10000 10.8 160 12:58 29.05.2020
2247 Haze 27 1012 94 10000 10.8 160 12:39 29.05.2020
2248 Haze 27 1012 94 10000 10.8 160 12:39 29.05.2020
2249 Haze 28 1011 83 10000 5.1 170 12:20 29.05.2020
2250 Haze 28 1011 83 10000 5.1 170 11:44 29.05.2020
2251 Haze 29 1010 83 10000 5.1 160 11:25 29.05.2020
2252 Haze 29 1010 83 10000 5.1 160 10:55 29.05.2020
2253 Haze 29 1010 83 10000 5.1 150 10:36 29.05.2020
2254 Haze 29 1010 83 10000 5.1 150 10:18 29.05.2020
2255 Haze 29 1010 83 10000 5.1 150 09:41 29.05.2020
2256 Haze 30 1009 79 10000 7.7 150 09:19 29.05.2020
2257 Haze 30 1009 79 10000 7.7 150 08:48 29.05.2020
2258 Rain 27 1011 86 0 8.98 156 08:25 29.05.2020
2259 Rain 27 1011 86 0 8.98 156 07:48 29.05.2020
2260 Rain 27 1011 86 0 8.98 156 07:30 29.05.2020
2261 Rain 28 1011 80 0 8 161 06:58 29.05.2020
2262 Rain 28 1011 80 0 8 161 06:39 29.05.2020
2263 Clouds 31 1011 74 10000 5.1 170 06:21 29.05.2020
2264 Clouds 31 1011 74 10000 5.1 170 05:40 29.05.2020
2265 Clouds 28 1015 74 0 2.97 144 02:18 29.05.2020
2266 Clouds 27 1014 94 10000 5.1 140 01:27 29.05.2020
2267 Clouds 27 1014 94 10000 5.1 140 00:53 29.05.2020
2268 Clouds 26 1013 100 10000 3.1 140 00:32 29.05.2020
2269 Clouds 26 1013 100 10000 3.1 140 23:57 28.05.2020
2270 Clouds 26 1014 84 0 2.94 111 23:38 28.05.2020
2271 Clouds 25 1014 89 0 3.26 112 23:18 28.05.2020
2272 Clouds 25 1014 89 0 3.26 112 22:42 28.05.2020
2273 Clouds 25 1013 91 0 3.07 111 22:23 28.05.2020
2274 Clouds 25 1013 91 0 3.07 111 21:56 28.05.2020
2275 Clouds 25 1013 91 0 3.07 111 21:37 28.05.2020
2276 Clouds 25 1013 91 0 3.18 109 21:19 28.05.2020
2277 Clouds 25 1013 91 0 3.18 109 20:56 28.05.2020
2278 Clouds 25 1013 91 0 3.18 109 20:37 28.05.2020
2279 Clouds 25 1012 91 0 3.4 110 20:18 28.05.2020
2280 Clouds 25 1012 91 0 3.4 110 20:18 28.05.2020
2281 Clouds 25 1012 91 0 3.4 110 19:43 28.05.2020
2282 Clouds 25 1012 91 0 3.73 114 19:20 28.05.2020
2283 Clouds 25 1012 91 0 3.73 114 18:57 28.05.2020
2284 Clouds 25 1012 91 0 3.73 114 18:39 28.05.2020
2285 Clouds 25 1012 91 0 4.56 121 18:21 28.05.2020
2286 Clouds 25 1012 91 0 4.56 121 17:41 28.05.2020
2287 Clouds 25 1013 91 0 5.29 125 17:22 28.05.2020
2288 Clouds 25 1013 91 0 5.29 125 16:56 28.05.2020
2289 Clouds 27 1013 94 10000 5.1 160 16:36 28.05.2020
2290 Clouds 27 1013 94 10000 5.1 160 16:18 28.05.2020
2291 Clouds 27 1013 94 10000 5.1 160 15:41 28.05.2020
2292 Clouds 27 1013 94 10000 5.1 160 15:23 28.05.2020
2293 Clouds 27 1013 94 10000 5.1 160 14:43 28.05.2020
2294 Clouds 26 1013 100 10000 7.7 160 14:25 28.05.2020
2295 Clouds 26 1013 100 10000 7.7 160 13:49 28.05.2020
2296 Clouds 26 1012 100 10000 5.1 160 13:30 28.05.2020
2297 Clouds 26 1012 100 10000 5.1 160 12:59 28.05.2020
2298 Clouds 27 1012 94 10000 5.1 160 12:38 28.05.2020
2299 Clouds 27 1012 94 10000 5.1 160 12:19 28.05.2020
2300 Clouds 27 1012 94 10000 5.1 160 11:42 28.05.2020
2301 Haze 27 1011 94 10000 5.1 160 11:24 28.05.2020
2302 Haze 27 1011 94 10000 5.1 160 10:56 28.05.2020
2303 Haze 28 1011 88 10000 7.7 150 10:38 28.05.2020
2304 Haze 28 1011 88 10000 7.7 150 10:18 28.05.2020
2305 Haze 28 1011 88 10000 7.7 150 09:39 28.05.2020
2306 Haze 29 1010 83 10000 7.7 150 09:19 28.05.2020
2307 Haze 29 1010 83 10000 7.7 150 08:48 28.05.2020
2308 Haze 30 1010 79 10000 5.1 150 08:26 28.05.2020
2309 Haze 30 1010 79 10000 5.1 150 07:45 28.05.2020
2310 Haze 31 1010 74 10000 7.7 160 07:26 28.05.2020
2311 Haze 31 1010 74 10000 7.7 160 06:56 28.05.2020
2312 Clouds 31 1011 74 10000 5.1 160 06:37 28.05.2020
2313 Clouds 31 1011 74 10000 5.1 160 05:40 28.05.2020
2314 Clouds 31 1012 74 10000 5.1 140 04:54 28.05.2020
2315 Clouds 31 1013 70 10000 5.1 140 04:27 28.05.2020
2316 Clouds 31 1013 70 10000 5.1 140 03:45 28.05.2020
2317 Clouds 30 1013 74 10000 9.3 150 02:45 28.05.2020
2318 Clouds 28 1013 83 10000 6.2 150 01:50 28.05.2020
2319 Clouds 27 1013 88 10000 6.2 130 00:54 28.05.2020
2320 Clouds 26 1012 94 10000 5.1 140 00:24 28.05.2020
2321 Clouds 26 1012 94 10000 5.1 140 23:57 27.05.2020
2322 Clouds 26 1012 94 10000 5.1 140 23:39 27.05.2020
2323 Clouds 26 1012 94 10000 7.7 140 23:20 27.05.2020
2324 Clouds 26 1012 94 10000 7.7 140 22:54 27.05.2020
2325 Clouds 25 1014 89 0 4.23 122 22:36 27.05.2020
2326 Clouds 25 1014 91 0 4.5 121 22:18 27.05.2020
2327 Clouds 25 1014 91 0 4.5 121 21:40 27.05.2020
2328 Clouds 25 1013 91 0 5.1 124 21:21 27.05.2020
2329 Clouds 25 1013 91 0 4.62 122 20:58 27.05.2020
2330 Clouds 25 1013 91 0 4.62 122 20:40 27.05.2020
2331 Clouds 25 1013 91 0 4.62 122 20:40 27.05.2020
2332 Clouds 25 1012 91 0 5.18 126 20:20 27.05.2020
2333 Clouds 25 1012 91 0 5.18 126 19:47 27.05.2020
2334 Clouds 25 1012 91 0 5.64 129 19:21 27.05.2020
2335 Clouds 25 1012 91 0 5.64 129 18:58 27.05.2020
2336 Clouds 25 1012 91 0 5.64 129 18:39 27.05.2020
2337 Clouds 25 1013 90 0 6.04 132 18:19 27.05.2020
2338 Clouds 25 1013 90 0 6.04 132 17:43 27.05.2020
2339 Clouds 26 1012 94 10000 5.1 160 17:24 27.05.2020
2340 Clouds 26 1012 94 10000 5.1 160 16:57 27.05.2020
2341 Clouds 26 1012 94 10000 5.1 160 16:57 27.05.2020
2342 Clouds 26 1013 94 10000 5.1 160 16:38 27.05.2020
2343 Clouds 26 1013 94 10000 5.1 160 16:20 27.05.2020
2344 Clouds 26 1013 94 10000 5.1 160 15:49 27.05.2020
2345 Clouds 26 1013 100 10000 5.1 150 15:23 27.05.2020
2346 Clouds 26 1013 100 10000 5.1 150 14:58 27.05.2020
2347 Clouds 26 1013 100 10000 5.1 150 14:39 27.05.2020
2348 Rain 26 1013 94 10000 5.1 150 14:20 27.05.2020
2349 Rain 26 1013 94 10000 5.1 150 13:42 27.05.2020
2350 Rain 26 1012 100 10000 5.1 150 13:24 27.05.2020
2351 Rain 26 1012 100 10000 5.1 150 12:43 27.05.2020
2352 Clouds 27 1012 88 10000 5.1 150 12:24 27.05.2020
2353 Clouds 27 1012 88 10000 5.1 150 11:59 27.05.2020
2354 Clouds 27 1011 94 10000 10.3 160 11:37 27.05.2020
2355 Clouds 27 1011 94 10000 10.3 160 11:19 27.05.2020
2356 Clouds 27 1011 94 10000 10.3 160 10:55 27.05.2020
2357 Clouds 27 1011 94 10000 10.3 160 10:36 27.05.2020
2358 Clouds 27 1011 94 10000 10.3 160 10:18 27.05.2020
2359 Clouds 27 1012 87 0 7.97 147 09:40 27.05.2020
2360 Clouds 29 1010 83 10000 10.3 150 09:21 27.05.2020
2361 Clouds 29 1010 83 10000 10.3 150 08:43 27.05.2020
2362 Clouds 28 1011 88 10000 10.3 140 08:25 27.05.2020
2363 Clouds 28 1011 88 10000 10.3 140 07:54 27.05.2020
2364 Clouds 29 1011 83 10000 10.3 140 07:35 27.05.2020
2365 Clouds 29 1011 83 10000 10.3 140 06:57 27.05.2020
2366 Clouds 29 1011 83 10000 10.3 140 06:33 27.05.2020
2367 Clouds 30 1012 79 10000 7.7 160 05:55 27.05.2020
2368 Clouds 30 1012 79 10000 7.7 160 05:35 27.05.2020
2369 Clouds 29 1013 76 0 6.61 159 04:19 27.05.2020
2370 Rain 28 1014 88 10000 2.6 150 02:30 27.05.2020
2371 Rain 28 1014 88 10000 2.6 150 01:45 27.05.2020
2372 Clear 27 1015 80 0 4.26 132 01:20 27.05.2020
2373 Clear 27 1015 80 0 4.26 132 00:41 27.05.2020
2374 Clouds 26 1015 85 0 3.8 123 00:19 27.05.2020
2375 Clouds 26 1015 85 0 3.8 123 23:42 26.05.2020
2376 Clouds 25 1014 89 0 3.92 120 23:24 26.05.2020
2377 Clouds 25 1014 89 0 3.92 120 22:59 26.05.2020
2378 Clouds 25 1014 89 0 3.92 120 22:58 26.05.2020
2379 Clouds 26 1012 94 10000 2.6 150 22:38 26.05.2020
2380 Clouds 26 1012 94 10000 2.6 150 22:20 26.05.2020
2381 Clouds 26 1012 94 10000 2.6 150 21:56 26.05.2020
2382 Clouds 26 1012 94 10000 2.6 150 21:56 26.05.2020
2383 Clouds 26 1012 94 10000 2.6 150 21:38 26.05.2020
2384 Clouds 26 1012 94 10000 2.6 150 21:19 26.05.2020
2385 Clouds 26 1012 94 10000 4.1 90 20:42 26.05.2020
2386 Clouds 25 1013 90 0 4.62 121 20:21 26.05.2020
2387 Clouds 26 1012 94 10000 4.1 100 19:55 26.05.2020
2388 Clouds 26 1012 94 10000 4.1 100 19:37 26.05.2020
2389 Clouds 26 1012 94 10000 4.1 100 19:18 26.05.2020
2390 Clouds 25 1013 91 0 4.56 123 18:41 26.05.2020
2391 Clouds 25 1013 91 0 4.67 125 18:21 26.05.2020
2392 Clouds 25 1013 91 0 4.67 125 17:43 26.05.2020
2393 Clouds 25 1014 91 0 5.04 124 17:24 26.05.2020
2394 Clouds 25 1014 91 0 5.04 124 16:59 26.05.2020
2395 Clouds 25 1014 91 0 5.04 124 16:41 26.05.2020
2396 Clouds 25 1015 90 0 5.58 128 16:19 26.05.2020
2397 Clouds 25 1015 90 0 5.58 128 15:44 26.05.2020
2398 Clouds 26 1014 94 10000 7.7 150 15:21 26.05.2020
2399 Clouds 26 1014 94 10000 7.7 150 14:56 26.05.2020
2400 Clouds 26 1014 94 10000 7.7 160 14:38 26.05.2020
2401 Clouds 26 1014 94 10000 7.7 160 14:20 26.05.2020
2402 Clouds 26 1014 94 10000 7.7 160 13:41 26.05.2020
2403 Clouds 26 1014 94 10000 10.3 150 13:23 26.05.2020
2404 Clouds 26 1014 94 10000 10.3 150 12:57 26.05.2020
2405 Clouds 26 1013 94 10000 10.3 150 12:38 26.05.2020
2406 Clouds 26 1013 94 10000 10.3 150 12:19 26.05.2020
2407 Clouds 26 1013 94 10000 10.3 150 11:41 26.05.2020
2408 Clouds 26 1013 88 0 7.1 141 11:21 26.05.2020
2409 Clouds 26 1013 88 0 7.1 141 10:57 26.05.2020
2410 Clouds 26 1013 88 0 7.1 141 10:37 26.05.2020
2411 Clouds 26 1013 88 0 7.43 146 10:18 26.05.2020
2412 Clouds 26 1013 88 0 7.43 146 09:38 26.05.2020
2413 Clouds 27 1012 85 0 7.74 151 09:19 26.05.2020
2414 Clouds 27 1012 85 0 7.74 151 08:41 26.05.2020
2415 Rain 27 1011 84 0 7.45 156 08:22 26.05.2020
2416 Rain 27 1011 84 0 7.45 156 07:44 26.05.2020
2417 Rain 28 1011 83 0 7.08 157 07:23 26.05.2020
2418 Rain 28 1011 83 0 7.08 157 06:53 26.05.2020
2419 Rain 28 1011 83 0 7.08 157 06:31 26.05.2020
2420 Rain 28 1012 82 0 7.11 158 05:43 26.05.2020
2421 Haze 29 1013 83 10000 9.8 150 05:21 26.05.2020
2422 Haze 29 1013 83 10000 9.8 150 04:48 26.05.2020
2423 Clouds 29 1014 83 10000 7.7 160 04:29 26.05.2020
2424 Clouds 29 1014 83 10000 7.7 160 03:49 26.05.2020
2425 Clouds 28 1014 83 10000 5.1 140 02:36 26.05.2020
2426 Clouds 28 1014 83 10000 5.1 140 01:47 26.05.2020
2427 Clouds 28 1014 83 10000 2.6 120 00:44 26.05.2020
2428 Clouds 25 1014 100 10000 1.5 160 00:26 26.05.2020
2429 Clouds 25 1014 100 10000 1.5 160 23:59 25.05.2020
2430 Clouds 25 1014 100 10000 1.5 160 23:39 25.05.2020
2431 Clouds 24 1013 100 10000 1.5 0 23:20 25.05.2020
2432 Clouds 24 1013 100 10000 1.5 0 22:56 25.05.2020
2433 Clouds 24 1013 100 10000 1.5 0 22:37 25.05.2020
2434 Clouds 24 1013 100 10000 1.5 0 22:19 25.05.2020
2435 Clouds 24 1013 100 10000 1.5 0 21:58 25.05.2020
2436 Clouds 25 1012 100 10000 1.5 0 21:38 25.05.2020
2437 Clouds 25 1012 100 10000 1.5 0 21:19 25.05.2020
2438 Clouds 25 1012 100 10000 1.5 0 20:58 25.05.2020
2439 Clouds 25 1012 100 10000 1.5 0 20:40 25.05.2020
2440 Clouds 25 1012 100 10000 2.6 330 20:20 25.05.2020
2441 Clouds 25 1012 100 10000 2.6 330 19:55 25.05.2020
2442 Clouds 25 1013 100 10000 3.6 150 19:37 25.05.2020
2443 Clouds 25 1013 100 10000 3.6 150 19:18 25.05.2020
2444 Clouds 25 1013 100 10000 3.6 150 18:42 25.05.2020
2445 Clouds 25 1013 94 10000 3.6 150 18:21 25.05.2020
2446 Clouds 25 1013 94 10000 3.6 150 17:54 25.05.2020
2447 Clouds 25 1013 100 10000 3.1 130 17:36 25.05.2020
2448 Clouds 25 1013 100 10000 3.1 130 17:18 25.05.2020
2449 Clouds 25 1013 100 10000 3.1 130 16:41 25.05.2020
2450 Clouds 26 1014 90 0 4.74 131 16:22 25.05.2020
2451 Clouds 26 1014 90 0 4.74 131 15:58 25.05.2020
2452 Clouds 26 1014 90 0 4.74 131 15:58 25.05.2020
2453 Clouds 26 1014 90 0 4.74 131 15:40 25.05.2020
2454 Clouds 26 1015 90 0 5.13 138 15:18 25.05.2020
2455 Clouds 26 1015 90 0 5.13 138 14:43 25.05.2020
2456 Clouds 26 1015 89 0 5.37 135 14:24 25.05.2020
2457 Clouds 25 1015 90 0 5.45 132 13:57 25.05.2020
2458 Clouds 25 1015 90 0 5.45 132 13:37 25.05.2020
2459 Clouds 26 1014 89 0 5.66 132 13:19 25.05.2020
2460 Clouds 26 1014 89 0 5.66 132 12:54 25.05.2020
2461 Clouds 26 1014 89 0 5.66 132 12:36 25.05.2020
2462 Clouds 26 1014 88 0 6.37 139 12:18 25.05.2020
2463 Clouds 27 1012 88 10000 8.7 160 11:38 25.05.2020
2464 Clouds 27 1012 88 10000 8.7 160 11:19 25.05.2020
2465 Clouds 27 1012 88 10000 8.7 160 10:43 25.05.2020
2466 Clouds 28 1012 83 10000 7.7 160 10:21 25.05.2020
2467 Clouds 28 1012 83 10000 7.7 160 09:57 25.05.2020
2468 Clouds 28 1011 83 10000 7.7 150 09:38 25.05.2020
2469 Clouds 28 1011 83 10000 7.7 150 09:19 25.05.2020
2470 Clouds 28 1011 83 10000 7.7 150 08:57 25.05.2020
2471 Clouds 28 1011 83 10000 8.7 140 08:36 25.05.2020
2472 Clouds 28 1011 83 10000 8.7 140 08:18 25.05.2020
2473 Clouds 28 1011 83 10000 8.7 140 07:42 25.05.2020
2474 Clouds 29 1013 79 10000 7.7 150 07:20 25.05.2020
2475 Clouds 29 1013 79 10000 7.7 150 06:46 25.05.2020
2476 Clouds 29 1013 79 10000 7.7 150 06:27 25.05.2020
2477 Clouds 29 1014 79 10000 1.5 0 03:46 25.05.2020
2478 Clouds 27 1015 88 10000 1.5 0 03:22 25.05.2020
2479 Clouds 27 1015 88 10000 1.5 0 02:44 25.05.2020
2480 Haze 26 1015 94 10000 2.6 150 01:42 25.05.2020
2481 Clouds 25 1014 94 10000 1.5 0 00:58 25.05.2020
2482 Haze 25 1014 94 10000 1.5 0 00:33 25.05.2020
2483 Haze 25 1014 94 10000 1.5 0 23:59 24.05.2020
2484 Haze 25 1014 94 10000 1.5 0 23:39 24.05.2020
2485 Clouds 24 1012 100 10000 1.5 0 23:21 24.05.2020
2486 Clouds 24 1012 100 10000 1.5 0 22:58 24.05.2020
2487 Clouds 24 1012 100 10000 1.5 0 22:39 24.05.2020
2488 Clouds 24 1012 100 10000 1.5 0 22:18 24.05.2020
2489 Clouds 24 1012 100 10000 1.5 0 21:55 24.05.2020
2490 Clouds 24 1011 100 10000 1.5 0 21:37 24.05.2020
2491 Clouds 24 1011 100 10000 1.5 0 21:18 24.05.2020
2492 Clouds 24 1011 100 10000 1.5 0 20:43 24.05.2020
2493 Clouds 24 1011 100 10000 2.6 130 20:21 24.05.2020
2494 Clouds 24 1011 100 10000 2.6 130 19:56 24.05.2020
2495 Clouds 24 1013 100 10000 4.1 170 19:38 24.05.2020
2496 Clouds 24 1013 100 10000 4.1 170 19:18 24.05.2020
2497 Clouds 24 1013 100 10000 4.1 170 18:42 24.05.2020
2498 Rain 24 1012 91 0 4.12 121 18:23 24.05.2020
2499 Rain 24 1012 91 0 4.12 121 17:58 24.05.2020
2500 Rain 24 1012 91 0 4.12 121 17:40 24.05.2020
2501 Clouds 25 1013 94 10000 7.7 150 17:21 24.05.2020
2502 Clouds 25 1013 94 10000 7.7 150 16:56 24.05.2020
2503 Clouds 25 1013 94 10000 7.7 150 16:37 24.05.2020
2504 Clouds 25 1013 94 10000 7.7 150 16:19 24.05.2020
2505 Rain 25 1013 90 0 5.67 133 15:55 24.05.2020
2506 Clouds 25 1014 94 10000 7.7 150 15:37 24.05.2020
2507 Clouds 25 1014 94 10000 7.7 150 15:18 24.05.2020
2508 Clouds 25 1014 94 10000 7.7 150 14:42 24.05.2020
2509 Clouds 25 1013 94 10000 7.7 150 14:22 24.05.2020
2510 Clouds 25 1013 94 10000 7.7 150 13:57 24.05.2020
2511 Clouds 25 1012 94 10000 5.1 130 13:38 24.05.2020
2512 Clouds 25 1012 94 10000 5.1 130 13:20 24.05.2020
2513 Clouds 25 1012 94 10000 5.1 130 12:57 24.05.2020
2514 Clouds 26 1012 88 10000 5.1 130 12:38 24.05.2020
2515 Clouds 26 1012 88 10000 5.1 130 12:19 24.05.2020
2516 Clouds 26 1012 88 10000 5.1 130 11:56 24.05.2020
2517 Clouds 26 1012 88 10000 5.1 130 11:56 24.05.2020
2518 Clouds 27 1011 83 10000 10.3 150 11:37 24.05.2020
2519 Clouds 27 1011 83 10000 10.3 150 11:19 24.05.2020
2520 Clouds 27 1011 83 10000 10.3 150 10:43 24.05.2020
2521 Clouds 27 1010 83 10000 10.3 150 10:24 24.05.2020
2522 Clouds 27 1010 83 10000 10.3 150 09:59 24.05.2020
2523 Clouds 27 1010 83 10000 10.3 150 09:41 24.05.2020
2524 Clouds 27 1010 88 10000 10.3 150 09:18 24.05.2020
2525 Clouds 27 1010 88 10000 10.3 150 08:43 24.05.2020
2526 Clouds 27 1010 83 10000 10.3 150 08:25 24.05.2020
2527 Clouds 27 1010 83 10000 10.3 150 07:59 24.05.2020
2528 Clouds 27 1010 83 10000 10.3 150 07:41 24.05.2020
2529 Rain 27 1010 86 0 6.99 153 07:21 24.05.2020
2530 Rain 27 1010 86 0 6.99 153 06:45 24.05.2020
2531 Clouds 29 1011 74 10000 10.3 170 05:50 24.05.2020
2532 Clouds 28 1013 83 10000 10.3 140 03:59 24.05.2020
2533 Clouds 28 1013 83 10000 10.3 140 03:40 24.05.2020
2534 Rain 27 1012 86 0 6.91 150 02:30 24.05.2020
2535 Clouds 26 1013 88 10000 5.1 160 01:32 24.05.2020
2536 Clouds 25 1012 94 10000 5.1 150 00:38 24.05.2020
2537 Clouds 25 1012 94 10000 5.1 150 00:20 24.05.2020
2538 Clouds 25 1012 94 10000 5.1 150 23:40 23.05.2020
2539 Clouds 24 1012 94 10000 5.1 150 23:21 23.05.2020
2540 Clouds 24 1012 94 10000 5.1 150 22:57 23.05.2020
2541 Clouds 24 1011 94 10000 5.1 150 22:37 23.05.2020
2542 Clouds 24 1011 94 10000 5.1 150 22:19 23.05.2020
2543 Clouds 24 1011 94 10000 5.1 150 21:57 23.05.2020
2544 Clouds 24 1011 94 0 5.1 150 21:37 23.05.2020
2545 Clouds 24 1011 94 0 5.1 150 21:19 23.05.2020
2546 Clouds 24 1011 94 0 5.1 150 20:54 23.05.2020
2547 Rain 25 1011 91 0 3.45 134 20:36 23.05.2020
2548 Rain 25 1011 91 0 3.63 146 20:18 23.05.2020
2549 Rain 25 1011 91 0 3.63 146 19:41 23.05.2020
2550 Rain 25 1011 90 0 3.14 148 19:19 23.05.2020
2551 Rain 25 1011 90 0 3.14 148 18:55 23.05.2020
2552 Rain 25 1011 90 0 3.14 148 18:36 23.05.2020
2553 Rain 25 1011 88 0 2.68 157 18:18 23.05.2020
2554 Rain 25 1011 88 0 2.68 157 17:54 23.05.2020
2555 Clouds 25 1012 100 10000 7.7 160 17:36 23.05.2020
2556 Clouds 25 1012 100 10000 7.7 160 17:18 23.05.2020
2557 Clouds 25 1012 100 10000 7.7 160 16:41 23.05.2020
2558 Clouds 25 1012 100 10000 7.7 150 16:21 23.05.2020
2559 Clouds 25 1012 100 10000 7.7 150 15:58 23.05.2020
2560 Clouds 25 1012 100 10000 7.7 150 15:39 23.05.2020
2561 Clouds 24 1012 100 0 2.1 0 15:21 23.05.2020
2562 Clouds 24 1012 100 0 2.1 0 14:42 23.05.2020
2563 Clouds 24 1012 100 0 2.1 0 14:42 23.05.2020
2564 Clouds 24 1012 100 0 2.1 0 14:24 23.05.2020
2565 Clouds 25 1012 100 0 1.5 0 13:56 23.05.2020
2566 Clouds 25 1011 100 0 7.7 300 13:37 23.05.2020
2567 Clouds 25 1011 100 0 7.7 300 13:18 23.05.2020
2568 Clouds 25 1011 100 0 7.7 300 12:41 23.05.2020
2569 Clouds 25 1011 100 0 7.7 300 12:20 23.05.2020
2570 Clouds 27 1010 94 10000 1.5 0 11:57 23.05.2020
2571 Clouds 26 1012 87 0 1.04 94 11:37 23.05.2020
2572 Rain 26 1011 87 0 0.75 111 11:19 23.05.2020
2573 Clouds 38 1009 50 10000 2.6 50 10:55 23.05.2020
2574 Clouds 30 1009 74 10000 5.1 250 10:36 23.05.2020
2575 Clouds 30 1009 74 10000 5.1 250 10:18 23.05.2020
2576 Clouds 30 1009 74 10000 5.1 250 09:42 23.05.2020
2577 Clouds 31 1008 74 10000 5.7 270 09:24 23.05.2020
2578 Clouds 31 1008 74 10000 5.7 270 08:57 23.05.2020
2579 Clouds 30 1008 79 10000 7.7 240 08:37 23.05.2020
2580 Clouds 30 1008 79 10000 7.7 240 08:18 23.05.2020
2581 Clouds 30 1008 79 10000 7.7 240 07:44 23.05.2020
2582 Rain 28 1009 79 0 2.9 256 07:22 23.05.2020
2583 Rain 28 1009 79 0 2.9 256 06:42 23.05.2020
2584 Clouds 31 1009 74 10000 7.2 260 05:51 23.05.2020
2585 Clouds 29 1010 72 0 2.61 273 03:52 23.05.2020
2586 Rain 29 1011 71 0 2.33 282 03:23 23.05.2020
2587 Rain 29 1011 71 0 2.33 282 03:23 23.05.2020
2588 Rain 29 1011 71 0 2.33 282 02:31 23.05.2020
2589 Clouds 27 1012 82 0 1.57 360 01:28 23.05.2020
2590 Clouds 27 1012 82 0 1.57 360 00:53 23.05.2020
2591 Clouds 27 1012 82 0 1.57 360 00:34 23.05.2020
2592 Clouds 26 1012 87 0 1.48 21 23:59 22.05.2020
2593 Clouds 26 1012 87 0 1.48 21 23:40 22.05.2020
2594 Clouds 26 1012 87 0 1.48 21 23:40 22.05.2020
2595 Clouds 25 1011 90 0 1.59 46 23:20 22.05.2020
2596 Clouds 25 1011 90 0 1.59 46 22:57 22.05.2020
2597 Clouds 25 1011 90 0 1.59 46 22:39 22.05.2020
2598 Clouds 25 1009 100 10000 4.1 300 22:19 22.05.2020
2599 Clouds 25 1009 100 10000 4.1 300 21:45 22.05.2020
2600 Clouds 25 1008 100 10000 1.5 0 21:22 22.05.2020
2601 Clouds 25 1008 100 10000 1.5 0 20:55 22.05.2020
2602 Clouds 25 1008 100 10000 2.6 320 20:36 22.05.2020
2603 Clouds 25 1008 100 10000 2.6 320 20:18 22.05.2020
2604 Clouds 25 1008 100 10000 2.6 320 19:43 22.05.2020
2605 Clouds 25 1008 93 0 1.59 71 19:24 22.05.2020
2606 Clouds 25 1008 93 0 1.59 71 18:40 22.05.2020
2607 Clouds 26 1009 100 10000 2.6 30 18:21 22.05.2020
2608 Clouds 26 1009 100 10000 2.6 30 17:59 22.05.2020
2609 Clouds 26 1009 100 10000 2.6 30 17:39 22.05.2020
2610 Clouds 26 1010 100 10000 2.6 130 17:19 22.05.2020
2611 Clouds 26 1010 100 10000 2.6 130 16:45 22.05.2020
2612 Clouds 27 1010 94 10000 2.6 150 16:21 22.05.2020
2613 Clouds 27 1010 94 10000 2.6 150 15:59 22.05.2020
2614 Clouds 27 1010 94 10000 2.6 150 15:41 22.05.2020
2615 Clouds 27 1010 94 10000 2.6 330 15:21 22.05.2020
2616 Clouds 27 1010 94 10000 2.6 330 14:44 22.05.2020
2617 Clouds 27 1009 94 10000 2.6 340 14:25 22.05.2020
2618 Clouds 27 1009 94 10000 2.6 340 13:49 22.05.2020
2619 Clouds 28 1009 88 10000 3.1 300 13:21 22.05.2020
2620 Clouds 28 1009 88 10000 3.1 300 12:56 22.05.2020
2621 Clouds 28 1007 88 10000 1.5 0 12:37 22.05.2020
2622 Clouds 28 1007 88 10000 1.5 0 12:19 22.05.2020
2623 Clouds 28 1007 88 10000 1.5 0 11:44 22.05.2020
2624 Haze 29 1007 83 10000 3.1 130 11:21 22.05.2020
2625 Haze 29 1007 83 10000 3.1 130 11:21 22.05.2020
2626 Haze 29 1007 83 10000 3.1 130 10:55 22.05.2020
2627 Smoke 30 1006 74 10000 5.1 190 10:37 22.05.2020
2628 Smoke 30 1006 74 10000 5.1 190 10:18 22.05.2020
2629 Smoke 30 1006 74 10000 5.1 190 09:42 22.05.2020
2630 Smoke 31 1005 70 10000 5.1 200 09:19 22.05.2020
2631 Smoke 31 1005 70 10000 5.1 200 08:45 22.05.2020
2632 Haze 31 1005 79 10000 5.1 140 08:22 22.05.2020
2633 Haze 31 1005 79 10000 5.1 140 07:57 22.05.2020
2634 Haze 32 1006 70 10000 5.1 190 07:27 22.05.2020
2635 Haze 32 1006 70 10000 5.1 190 06:59 22.05.2020
2636 Haze 32 1006 70 10000 5.1 190 06:40 22.05.2020
2637 Haze 32 1007 70 10000 5.1 190 05:53 22.05.2020
2638 Clouds 33 1007 70 10000 6.7 180 05:32 22.05.2020
2639 Clouds 33 1007 70 10000 6.7 180 04:44 22.05.2020
2640 Haze 31 1008 74 10000 5.1 220 03:49 22.05.2020
2641 Clouds 31 1009 74 10000 5.1 200 03:23 22.05.2020
2642 Haze 30 1009 79 10000 2.6 120 01:57 22.05.2020
2643 Haze 29 1009 83 10000 2.6 115 01:29 22.05.2020
2644 Haze 29 1009 83 10000 2.6 115 00:49 22.05.2020
2645 Haze 26 1008 100 10000 1 0 00:28 22.05.2020
2646 Haze 26 1008 100 10000 1 0 23:45 21.05.2020
2647 Clouds 25 1008 100 10000 1 0 23:25 21.05.2020
2648 Clouds 25 1008 100 10000 1 0 22:59 21.05.2020
2649 Clouds 25 1008 100 10000 1 0 22:41 21.05.2020
2650 Clouds 25 1010 86 0 1.65 22 22:23 21.05.2020
2651 Clouds 25 1010 86 0 1.65 22 21:59 21.05.2020
2652 Clouds 25 1010 86 0 1.65 22 21:59 21.05.2020
2653 Clouds 25 1010 86 0 1.65 22 21:41 21.05.2020
2654 Clouds 25 1009 87 0 1.49 5 21:22 21.05.2020
2655 Clouds 25 1009 87 0 1.49 5 20:46 21.05.2020
2656 Clouds 26 1008 94 10000 2.6 330 20:22 21.05.2020
2657 Clouds 26 1008 94 10000 2.6 330 19:55 21.05.2020
2658 Clouds 26 1008 94 10000 2.6 330 19:36 21.05.2020
2659 Clouds 26 1008 94 10000 2.6 330 19:18 21.05.2020
2660 Clouds 26 1008 94 10000 2.6 330 18:40 21.05.2020
2661 Clouds 26 1008 94 10000 2.6 330 18:20 21.05.2020
2662 Clouds 26 1009 87 0 0.66 68 17:58 21.05.2020
2663 Clouds 26 1009 87 0 0.66 68 17:40 21.05.2020
2664 Clouds 26 1009 94 10000 5.1 330 17:22 21.05.2020
2665 Clouds 26 1009 94 10000 5.1 330 16:46 21.05.2020
2666 Clouds 26 1009 100 10000 5.1 330 16:24 21.05.2020
2667 Clouds 26 1009 100 10000 5.1 330 15:47 21.05.2020
2668 Clouds 26 1010 87 0 1.29 90 15:24 21.05.2020
2669 Clouds 26 1010 87 0 1.29 90 14:57 21.05.2020
2670 Clouds 26 1008 94 10000 2.6 150 14:38 21.05.2020
2671 Clouds 26 1008 94 10000 2.6 150 14:18 21.05.2020
2672 Clouds 26 1008 94 10000 2.6 150 13:41 21.05.2020
2673 Clouds 26 1008 94 10000 2.6 150 13:22 21.05.2020
2674 Clouds 26 1008 94 10000 2.6 150 12:57 21.05.2020
2675 Rain 27 1008 94 10000 2.6 150 12:37 21.05.2020
2676 Rain 27 1008 94 10000 2.6 150 12:18 21.05.2020
2677 Rain 27 1008 94 10000 2.6 150 11:42 21.05.2020
2678 Clouds 39 1008 51 10000 5.1 150 11:23 21.05.2020
2679 Clouds 39 1008 51 10000 5.1 150 10:57 21.05.2020
2680 Clouds 39 1008 51 10000 5.1 150 10:39 21.05.2020
2681 Clouds 30 1007 84 10000 5.1 180 10:19 21.05.2020
2682 Clouds 30 1007 84 10000 5.1 180 09:43 21.05.2020
2683 Clouds 31 1006 79 10000 5.1 210 09:25 21.05.2020
2684 Clouds 31 1006 79 10000 5.1 210 08:59 21.05.2020
2685 Clouds 31 1006 79 10000 5.1 210 08:40 21.05.2020
2686 Clouds 32 1006 70 10000 4.1 230 08:22 21.05.2020
2687 Clouds 32 1006 70 10000 4.1 230 07:44 21.05.2020
2688 Clouds 31 1007 79 10000 5.1 230 07:25 21.05.2020
2689 Clouds 31 1007 79 10000 5.1 230 06:48 21.05.2020
2690 Clouds 31 1007 79 10000 4.1 220 05:53 21.05.2020
2691 Rain 29 1008 74 0 3.14 263 04:53 21.05.2020
2692 Clouds 30 1009 79 10000 4.1 300 03:21 21.05.2020
2693 Clouds 28 1009 88 10000 3.1 300 02:37 21.05.2020
2694 Clouds 28 1009 88 10000 3.1 300 02:18 21.05.2020
2695 Clouds 28 1009 88 10000 3.1 300 01:42 21.05.2020
2696 Rain 28 1011 73 0 0.82 9 01:18 21.05.2020
2697 Rain 28 1011 73 0 0.82 9 00:44 21.05.2020
2698 Rain 26 1010 79 0 1.18 12 00:21 21.05.2020
2699 Rain 26 1010 79 0 1.18 12 23:40 20.05.2020
2700 Clouds 25 1009 84 0 1.8 20 23:19 20.05.2020
2701 Clouds 25 1009 84 0 1.8 20 22:55 20.05.2020
2702 Clouds 25 1007 100 10000 1.5 0 22:37 20.05.2020
2703 Clouds 25 1007 100 10000 1.5 0 22:19 20.05.2020
2704 Clouds 25 1007 100 10000 1.5 0 21:40 20.05.2020
2705 Clouds 25 1006 100 10000 1.5 0 21:20 20.05.2020
2706 Clouds 25 1006 100 10000 1.5 0 20:44 20.05.2020
2707 Clouds 25 1006 100 10000 1.5 0 20:24 20.05.2020
2708 Clouds 25 1006 100 10000 1.5 0 19:55 20.05.2020
2709 Clouds 26 1006 94 10000 1.5 0 19:37 20.05.2020
2710 Clouds 26 1006 94 10000 1.5 0 19:18 20.05.2020
2711 Clouds 26 1006 94 10000 1.5 0 18:42 20.05.2020
2712 Clouds 26 1007 94 10000 1.5 0 18:22 20.05.2020
2713 Clouds 26 1007 94 10000 1.5 0 17:41 20.05.2020
2714 Clouds 26 1007 94 10000 1.5 0 17:22 20.05.2020
2715 Clouds 26 1007 94 10000 1.5 0 16:56 20.05.2020
2716 Clouds 26 1008 94 10000 1.5 0 16:38 20.05.2020
2717 Clouds 26 1008 94 10000 1.5 0 16:19 20.05.2020
2718 Clouds 26 1008 94 10000 1.5 0 15:43 20.05.2020
2719 Clouds 27 1008 94 10000 1.5 0 15:25 20.05.2020
2720 Clouds 27 1008 94 10000 1.5 0 14:45 20.05.2020
2721 Clouds 26 1009 90 0 1.79 110 14:23 20.05.2020
2722 Clouds 26 1009 90 0 1.79 110 13:55 20.05.2020
2723 Clouds 28 1007 94 10000 5.1 160 13:37 20.05.2020
2724 Clouds 28 1007 94 10000 5.1 160 13:18 20.05.2020
2725 Clouds 28 1007 94 10000 5.1 160 13:18 20.05.2020
2726 Clouds 28 1007 94 10000 5.1 160 12:42 20.05.2020
2727 Clouds 27 1007 94 10000 10.3 150 12:20 20.05.2020
2728 Clear 27 1009 89 0 3.52 141 11:38 20.05.2020
2729 Clear 27 1009 89 0 3.52 141 11:37 20.05.2020
2730 Clear 27 1008 89 0 4.47 141 11:19 20.05.2020
2731 Clear 27 1008 89 0 4.47 141 10:44 20.05.2020
2732 Clear 27 1007 87 0 5.06 145 10:22 20.05.2020
2733 Clear 27 1007 87 0 5.06 145 09:57 20.05.2020
2734 Clear 27 1007 87 0 5.06 145 09:38 20.05.2020
2735 Rain 28 1006 82 0 4.85 148 09:19 20.05.2020
2736 Rain 28 1006 82 0 4.85 148 08:41 20.05.2020
2737 Rain 28 1006 79 0 4.01 149 08:19 20.05.2020
2738 Rain 28 1006 79 0 4.01 149 08:19 20.05.2020
2739 Rain 28 1006 79 0 4.01 149 07:49 20.05.2020
2740 Rain 28 1006 79 0 3.17 155 07:23 20.05.2020
2741 Rain 28 1006 79 0 3.17 155 06:49 20.05.2020
2742 Rain 29 1006 78 0 4.02 192 05:52 20.05.2020
2743 Clouds 32 1008 75 10000 2.6 170 04:37 20.05.2020
2744 Clouds 32 1008 75 10000 2.6 170 03:55 20.05.2020
2745 Clouds 32 1009 66 10000 2.1 0 03:25 20.05.2020
2746 Clouds 29 1008 83 10000 1 315 01:33 20.05.2020
2747 Clouds 29 1008 83 10000 1 315 00:48 20.05.2020
2748 Clouds 26 1008 94 10000 1.5 310 00:25 20.05.2020
2749 Clouds 26 1008 94 10000 1.5 310 23:47 19.05.2020
2750 Clouds 25 1007 100 10000 1.5 290 23:23 19.05.2020
2751 Clouds 25 1007 100 10000 1.5 290 22:58 19.05.2020
2752 Clouds 25 1007 100 10000 1.5 290 22:39 19.05.2020
2753 Clouds 25 1007 100 10000 2.6 320 22:20 19.05.2020
2754 Clouds 25 1007 100 10000 2.6 320 21:59 19.05.2020
2755 Clouds 25 1007 100 10000 2.6 320 21:39 19.05.2020
2756 Haze 25 1006 100 10000 1.5 0 21:21 19.05.2020
2757 Haze 25 1006 100 10000 1.5 0 20:58 19.05.2020
2758 Haze 25 1006 100 10000 1.5 0 20:40 19.05.2020
2759 Clouds 25 1006 100 10000 2.6 330 20:22 19.05.2020
2760 Clouds 25 1006 100 10000 2.6 330 19:56 19.05.2020
2761 Clouds 25 1006 100 10000 2.6 340 19:37 19.05.2020
2762 Clouds 25 1006 100 10000 2.6 340 19:19 19.05.2020
2763 Clouds 25 1006 100 10000 2.6 340 18:42 19.05.2020
2764 Clouds 26 1006 94 10000 2.6 350 18:20 19.05.2020
2765 Clouds 26 1006 94 10000 2.6 350 17:44 19.05.2020
2766 Clouds 26 1007 94 10000 2.6 300 17:22 19.05.2020
2767 Clouds 26 1007 94 10000 2.6 300 16:59 19.05.2020
2768 Clouds 26 1008 90 0 2.37 98 16:39 19.05.2020
2769 Clouds 26 1009 90 0 2.48 108 16:20 19.05.2020
2770 Clouds 26 1009 90 0 2.48 108 15:47 19.05.2020
2771 Clouds 26 1009 90 0 3 129 15:23 19.05.2020
2772 Clouds 26 1009 90 0 3 129 14:58 19.05.2020
2773 Clouds 26 1009 90 0 3 129 14:40 19.05.2020
2774 Clouds 27 1009 89 0 3 122 14:21 19.05.2020
2775 Clouds 27 1009 89 0 3 122 13:58 19.05.2020
2776 Clouds 27 1009 89 0 3 122 13:39 19.05.2020
2777 Clouds 27 1009 88 0 3.72 128 13:21 19.05.2020
2778 Clouds 27 1009 88 0 3.72 128 12:57 19.05.2020
2779 Clouds 27 1009 88 0 3.72 128 12:38 19.05.2020
2780 Clouds 27 1008 88 0 4.52 133 12:20 19.05.2020
2781 Clouds 27 1008 88 0 4.52 133 11:54 19.05.2020
2782 Haze 28 1006 88 10000 5.1 140 11:36 19.05.2020
2783 Haze 28 1006 88 10000 5.1 140 11:36 19.05.2020
2784 Haze 28 1006 88 10000 5.1 140 11:18 19.05.2020
2785 Haze 28 1006 88 10000 5.1 140 10:42 19.05.2020
2786 Haze 30 1005 79 10000 5.1 160 10:23 19.05.2020
2787 Haze 30 1005 79 10000 5.1 160 09:47 19.05.2020
2788 Haze 31 1005 74 10000 7.2 180 09:25 19.05.2020
2789 Haze 31 1005 74 10000 7.2 180 08:59 19.05.2020
2790 Haze 31 1005 74 10000 7.2 180 08:41 19.05.2020
2791 Haze 32 1005 70 10000 5.1 180 08:23 19.05.2020
2792 Haze 32 1005 70 10000 5.1 180 07:42 19.05.2020
2793 Haze 32 1005 70 10000 5.1 180 07:42 19.05.2020
2794 Haze 33 1005 66 10000 5.1 160 07:24 19.05.2020
2795 Haze 33 1005 66 10000 5.1 160 06:41 19.05.2020
2796 Haze 32 1006 70 10000 5.1 200 06:22 19.05.2020
2797 Haze 32 1006 70 10000 5.1 200 05:39 19.05.2020
2798 Haze 32 1007 70 10000 5.1 200 04:54 19.05.2020
2799 Clouds 30 1009 74 10000 2.6 350 02:59 19.05.2020
2800 Clouds 29 1009 83 10000 2.6 240 01:22 19.05.2020
2801 Haze 28 1009 88 10000 1.5 0 00:41 19.05.2020
2802 Clouds 25 1008 100 10000 1.5 0 00:21 19.05.2020
2803 Clouds 25 1008 100 10000 1.5 0 23:40 18.05.2020
2804 Clouds 25 1010 87 0 2.13 85 23:21 18.05.2020
2805 Clouds 25 1010 87 0 2.13 85 22:59 18.05.2020
2806 Clouds 25 1010 87 0 2.13 85 22:59 18.05.2020
2807 Clouds 25 1010 87 0 2.13 85 22:39 18.05.2020
2808 Clouds 25 1007 100 10000 1.5 0 22:20 18.05.2020
2809 Clouds 25 1007 100 10000 1.5 0 21:43 18.05.2020
2810 Clouds 24 1007 100 10000 1.5 0 21:22 18.05.2020
2811 Clouds 24 1007 100 10000 1.5 0 20:58 18.05.2020
2812 Clouds 25 1009 88 0 1.79 86 20:39 18.05.2020
2813 Clouds 25 1006 94 10000 1.5 0 20:20 18.05.2020
2814 Clouds 25 1006 94 10000 1.5 0 19:56 18.05.2020
2815 Clouds 25 1006 94 10000 1.5 0 19:38 18.05.2020
2816 Clouds 25 1006 94 10000 1.5 0 19:18 18.05.2020
2817 Clouds 25 1006 94 10000 1.5 0 18:44 18.05.2020
2818 Clouds 25 1007 94 10000 1.5 0 18:22 18.05.2020
2819 Clouds 25 1008 87 0 1.06 104 17:39 18.05.2020
2820 Clouds 26 1008 94 10000 5.1 130 17:18 18.05.2020
2821 Clouds 26 1008 94 10000 5.1 130 16:56 18.05.2020
2822 Clouds 26 1008 94 10000 5.1 130 16:38 18.05.2020
2823 Clouds 26 1008 94 10000 5.1 130 16:18 18.05.2020
2824 Clouds 26 1008 94 10000 5.1 130 15:55 18.05.2020
2825 Clouds 26 1009 88 0 3.03 104 15:37 18.05.2020
2826 Clouds 26 1010 89 0 3.59 119 15:18 18.05.2020
2827 Clouds 26 1010 89 0 3.59 119 14:42 18.05.2020
2828 Clouds 27 1008 94 10000 7.7 150 14:23 18.05.2020
2829 Clouds 27 1008 94 10000 7.7 150 13:57 18.05.2020
2830 Clouds 28 1008 88 10000 7.7 150 13:38 18.05.2020
2831 Clouds 28 1008 88 10000 7.7 150 13:19 18.05.2020
2832 Clouds 28 1008 88 10000 7.7 150 12:55 18.05.2020
2833 Clouds 28 1007 88 10000 7.7 150 12:37 18.05.2020
2834 Clouds 28 1007 88 10000 7.7 150 12:18 18.05.2020
2835 Clouds 28 1007 88 10000 7.7 150 11:46 18.05.2020
2836 Clouds 29 1007 83 10000 7.7 150 11:26 18.05.2020
2837 Clouds 29 1007 83 10000 7.7 150 10:47 18.05.2020
2838 Clouds 29 1006 83 10000 8.7 160 10:28 18.05.2020
2839 Clouds 29 1006 83 10000 8.7 160 09:57 18.05.2020
2840 Clouds 29 1006 83 10000 8.7 160 09:39 18.05.2020
2841 Clouds 31 1006 74 10000 6.7 170 09:20 18.05.2020
2842 Clouds 31 1006 74 10000 6.7 170 08:42 18.05.2020
2843 Clouds 31 1006 74 10000 6.7 170 08:23 18.05.2020
2844 Haze 32 1006 66 10000 5.1 180 07:50 18.05.2020
2845 Haze 32 1006 66 10000 5.1 180 07:26 18.05.2020
2846 Haze 33 1006 63 10000 5.1 190 06:48 18.05.2020
2847 Haze 33 1006 63 10000 5.1 190 06:25 18.05.2020
2848 Haze 33 1007 66 10000 3.1 190 05:46 18.05.2020
2849 Clouds 29 1009 72 0 4.07 172 04:26 18.05.2020
2850 Haze 31 1009 70 10000 5.1 240 03:30 18.05.2020
2851 Clouds 28 1011 73 0 2.86 145 01:57 18.05.2020
2852 Clouds 27 1011 77 0 2.59 145 00:50 18.05.2020
2853 Clouds 26 1011 83 0 2.12 99 00:22 18.05.2020
2854 Clouds 26 1011 83 0 2.12 99 23:56 17.05.2020
2855 Clouds 26 1011 83 0 2.12 99 23:38 17.05.2020
2856 Clouds 25 1010 88 0 2.85 91 23:19 17.05.2020
2857 Clouds 25 1010 88 0 2.85 91 22:55 17.05.2020
2858 Clouds 24 1008 100 10000 1.5 0 22:36 17.05.2020
2859 Clouds 24 1008 100 10000 1.5 0 22:18 17.05.2020
2860 Clouds 24 1008 100 10000 1.5 0 21:41 17.05.2020
2861 Clouds 24 1008 94 10000 3.1 130 21:20 17.05.2020
2862 Clouds 24 1008 94 10000 3.1 130 20:57 17.05.2020
2863 Clouds 24 1008 94 10000 3.1 130 20:39 17.05.2020
2864 Clouds 24 1007 94 10000 1 0 20:19 17.05.2020
2865 Clouds 24 1007 94 10000 1 0 19:47 17.05.2020
2866 Clear 24 1009 89 0 2.88 113 19:28 17.05.2020
2867 Clear 24 1009 89 0 2.88 113 18:58 17.05.2020
2868 Clouds 25 1009 88 10000 2.6 130 18:38 17.05.2020
2869 Clouds 25 1009 88 10000 2.6 130 18:20 17.05.2020
2870 Clouds 25 1009 88 10000 2.6 130 17:41 17.05.2020
2871 Clear 25 1010 89 0 4.34 118 17:23 17.05.2020
2872 Clear 25 1010 89 0 4.34 118 16:57 17.05.2020
2873 Clear 25 1010 89 0 4.34 118 16:39 17.05.2020
2874 Clouds 26 1009 88 10000 7.7 140 16:20 17.05.2020
2875 Clouds 26 1009 88 10000 7.7 140 15:46 17.05.2020
2876 Clouds 27 1009 83 10000 7.7 140 15:25 17.05.2020
2877 Clouds 27 1009 83 10000 7.7 140 14:58 17.05.2020
2878 Clouds 27 1009 83 10000 7.7 140 14:40 17.05.2020
2879 Clouds 27 1009 83 10000 7.7 140 14:21 17.05.2020
2880 Clouds 27 1009 83 10000 7.7 140 13:43 17.05.2020
2881 Clouds 27 1008 83 10000 7.7 150 13:21 17.05.2020
2882 Clear 26 1009 84 0 7.06 133 10:50 17.05.2020
2883 Haze 31 1009 62 10000 5.1 180 03:55 17.05.2020
2884 Haze 29 1010 66 10000 5.1 150 02:28 17.05.2020
2885 Haze 29 1010 66 10000 5.1 150 01:55 17.05.2020
2886 Haze 28 1010 69 10000 2.1 220 00:56 17.05.2020
2887 Smoke 24 1010 88 10000 2.1 0 00:37 17.05.2020
2888 Haze 24 1010 88 10000 2.1 0 23:57 16.05.2020
2889 Haze 24 1010 88 10000 2.1 0 23:57 16.05.2020
2890 Clouds 25 1011 80 0 5.53 121 23:39 16.05.2020
2891 Clouds 23 1009 88 10000 2.6 160 23:19 16.05.2020
2892 Clouds 23 1009 88 10000 2.6 160 22:55 16.05.2020
2893 Clouds 23 1009 88 10000 3.6 140 22:36 16.05.2020
2894 Clouds 23 1009 88 10000 3.6 140 22:18 16.05.2020
2895 Clouds 23 1009 88 10000 3.6 140 21:42 16.05.2020
2896 Clouds 24 1008 83 10000 2.6 130 21:23 16.05.2020
2897 Clouds 24 1008 83 10000 2.6 130 20:57 16.05.2020
2898 Clouds 24 1008 83 10000 1.5 0 20:38 16.05.2020
2899 Clouds 24 1008 83 10000 1.5 0 20:20 16.05.2020
2900 Clouds 24 1008 83 10000 1.5 0 19:43 16.05.2020
2901 Clouds 25 1008 78 10000 1.5 0 19:23 16.05.2020
2902 Clouds 25 1008 78 10000 1.5 0 18:59 16.05.2020
2903 Clouds 25 1008 78 10000 1.5 0 18:41 16.05.2020
2904 Clouds 25 1009 83 10000 7.7 130 18:22 16.05.2020
2905 Clouds 25 1009 83 10000 7.7 130 17:42 16.05.2020
2906 Clouds 25 1009 83 10000 7.7 130 17:22 16.05.2020
2907 Haze 26 1010 78 10000 9.8 140 16:57 16.05.2020
2908 Clouds 26 1010 78 10000 8.2 160 16:39 16.05.2020
2909 Clouds 26 1010 78 10000 8.2 160 16:18 16.05.2020
2910 Clouds 26 1010 78 10000 8.2 160 15:42 16.05.2020
2911 Clouds 26 1010 83 10000 5.1 140 15:21 16.05.2020
2912 Clouds 26 1010 83 10000 5.1 140 14:59 16.05.2020
2913 Clouds 26 1010 83 10000 5.1 140 14:41 16.05.2020
2914 Clouds 26 1010 83 10000 5.7 140 14:20 16.05.2020
2915 Clouds 26 1010 83 10000 5.7 140 13:55 16.05.2020
2916 Clouds 27 1010 78 10000 7.7 140 13:36 16.05.2020
2917 Clouds 27 1010 78 10000 7.7 140 13:18 16.05.2020
2918 Clouds 27 1010 78 10000 7.7 140 12:42 16.05.2020
2919 Haze 27 1009 78 10000 11.8 140 12:19 16.05.2020
2920 Haze 27 1009 78 10000 11.8 140 11:42 16.05.2020
2921 Rain 25 1010 87 0 7.68 127 11:23 16.05.2020
2922 Rain 25 1010 87 0 7.68 127 10:58 16.05.2020
2923 Rain 25 1010 87 0 7.68 127 10:40 16.05.2020
2924 Smoke 29 1007 74 10000 10.3 160 10:21 16.05.2020
2925 Haze 29 1007 74 10000 10.3 160 09:47 16.05.2020
2926 Smoke 31 1007 66 10000 11.3 160 09:29 16.05.2020
2927 Smoke 31 1007 66 10000 11.3 160 09:29 16.05.2020
2928 Smoke 31 1007 66 10000 11.3 160 08:59 16.05.2020
2929 Smoke 31 1007 66 10000 11.3 160 08:40 16.05.2020
2930 Smoke 32 1007 62 10000 12.9 150 08:18 16.05.2020
2931 Haze 32 1007 62 10000 12.9 150 07:43 16.05.2020
2932 Haze 32 1007 62 10000 12.9 150 07:43 16.05.2020
2933 Smoke 32 1007 62 10000 10.3 150 07:21 16.05.2020
2934 Smoke 32 1007 62 10000 10.3 150 06:47 16.05.2020
2935 Smoke 33 1008 55 10000 7.7 150 06:21 16.05.2020
2936 Smoke 33 1008 55 10000 7.7 150 05:43 16.05.2020
2937 Haze 32 1009 59 10000 6.7 150 05:24 16.05.2020
2938 Haze 30 1010 66 10000 3.1 160 03:29 16.05.2020
2939 Haze 30 1010 66 10000 3.1 160 02:47 16.05.2020
2940 Haze 29 1010 70 10000 3.6 140 02:19 16.05.2020
2941 Haze 29 1010 70 10000 3.6 140 01:40 16.05.2020
2942 Haze 27 1010 78 10000 2.6 150 00:58 16.05.2020
2943 Haze 27 1010 78 10000 2.6 150 00:40 16.05.2020
2944 Clouds 24 1010 88 10000 1.5 0 00:20 16.05.2020
2945 Clouds 24 1010 88 10000 1.5 0 23:40 15.05.2020
2946 Clouds 22 1009 94 10000 1.5 0 23:19 15.05.2020
2947 Clouds 22 1009 94 10000 1.5 0 22:42 15.05.2020
2948 Clouds 23 1008 94 10000 1.5 0 22:21 15.05.2020
2949 Clouds 23 1008 94 10000 1.5 0 21:57 15.05.2020
2950 Clear 24 1011 87 0 6.41 119 21:39 15.05.2020
2951 Clouds 23 1008 94 10000 1.5 0 21:21 15.05.2020
2952 Clouds 23 1008 94 10000 1.5 0 20:56 15.05.2020
2953 Clouds 23 1008 94 10000 1.5 0 20:37 15.05.2020
2954 Clouds 23 1008 94 10000 1.5 0 20:37 15.05.2020
2955 Clouds 23 1008 94 10000 1.5 0 20:19 15.05.2020
2956 Clouds 23 1008 94 10000 1.5 0 19:43 15.05.2020
2957 Clouds 23 1008 94 10000 1.5 0 19:24 15.05.2020
2958 Clouds 24 1008 88 10000 1.5 0 18:54 15.05.2020
2959 Clouds 24 1008 88 10000 1.5 0 18:54 15.05.2020
2960 Clouds 25 1008 83 10000 1.5 0 18:36 15.05.2020
2961 Clouds 25 1008 83 10000 1.5 0 18:18 15.05.2020
2962 Clouds 25 1008 83 10000 1.5 0 18:18 15.05.2020
2963 Clouds 25 1008 83 10000 1.5 0 17:37 15.05.2020
2964 Clouds 25 1008 83 10000 1.5 0 17:19 15.05.2020
2965 Clouds 25 1009 83 10000 5.1 120 16:56 15.05.2020
2966 Clouds 25 1009 88 10000 5.1 130 16:37 15.05.2020
2967 Clouds 25 1009 88 10000 5.1 130 16:18 15.05.2020
2968 Clouds 25 1009 88 10000 5.1 130 15:41 15.05.2020
2969 Clouds 25 1009 88 10000 5.1 130 15:41 15.05.2020
2970 Clouds 26 1010 83 10000 5.1 130 15:21 15.05.2020
2971 Clouds 26 1010 83 10000 5.1 130 14:57 15.05.2020
2972 Clouds 26 1010 83 10000 5.1 130 14:39 15.05.2020
2973 Clouds 27 1009 88 10000 5.1 140 14:21 15.05.2020
2974 Clouds 27 1009 88 10000 5.1 140 14:21 15.05.2020
2975 Clouds 27 1009 88 10000 5.1 140 13:42 15.05.2020
2976 Clouds 27 1009 88 10000 5.1 140 13:22 15.05.2020
2977 Clouds 26 1011 82 0 9.24 129 12:56 15.05.2020
2978 Clouds 26 1011 82 0 9.24 129 12:37 15.05.2020
2979 Clouds 26 1011 82 0 9.01 131 12:18 15.05.2020
2980 Clouds 26 1011 82 0 9.01 131 12:18 15.05.2020
2981 Clouds 26 1011 82 0 9.01 131 11:56 15.05.2020
2982 Haze 28 1007 83 10000 5.1 160 11:37 15.05.2020
2983 Haze 28 1007 83 10000 5.1 160 11:18 15.05.2020
2984 Haze 28 1007 83 10000 5.1 160 10:54 15.05.2020
2985 Smoke 29 1007 79 10000 5.1 150 10:36 15.05.2020
2986 Smoke 29 1007 79 10000 5.1 150 10:18 15.05.2020
2987 Clouds 27 1009 80 0 9.29 139 09:39 15.05.2020
2988 Smoke 30 1007 74 10000 5.1 160 09:19 15.05.2020
2989 Clouds 28 1009 77 0 10.13 142 08:58 15.05.2020
2990 Smoke 30 1007 74 10000 7.7 160 08:37 15.05.2020
2991 Smoke 30 1007 74 10000 7.7 160 08:19 15.05.2020
2992 Smoke 30 1007 74 10000 7.7 160 07:44 15.05.2020
2993 Clouds 31 1008 70 10000 7.7 160 07:24 15.05.2020
2994 Clouds 31 1008 70 10000 7.7 160 06:52 15.05.2020
2995 Haze 31 1008 70 10000 5.1 160 05:49 15.05.2020
2996 Haze 32 1010 59 10000 8.2 140 04:28 15.05.2020
2997 Haze 32 1010 59 10000 8.2 140 03:47 15.05.2020
2998 Clear 29 1012 69 0 4.39 158 02:30 15.05.2020
2999 Clouds 27 1013 76 0 2.65 128 01:21 15.05.2020
3000 Clouds 27 1013 76 0 2.65 128 00:50 15.05.2020
3001 Clouds 27 1013 76 0 2.65 128 00:30 15.05.2020
3002 Clouds 26 1013 81 0 2.26 111 23:44 14.05.2020
3003 Clouds 24 1013 87 0 2.6 104 23:22 14.05.2020
3004 Clouds 24 1013 87 0 2.6 104 22:59 14.05.2020
3005 Clouds 24 1013 87 0 2.6 104 22:40 14.05.2020
3006 Clouds 24 1012 89 0 3 109 22:19 14.05.2020
3007 Clouds 24 1012 89 0 3 109 21:56 14.05.2020
3008 Clear 23 1010 94 10000 1 360 21:38 14.05.2020
3009 Clear 23 1010 94 10000 1 360 21:19 14.05.2020
3010 Clear 24 1011 89 0 2.61 108 20:43 14.05.2020
3011 Clear 23 1010 94 10000 1 340 20:21 14.05.2020
3012 Clear 23 1010 94 10000 1 340 19:59 14.05.2020
3013 Clear 23 1010 94 10000 1 340 19:40 14.05.2020
3014 Clear 24 1010 94 10000 0.5 0 19:21 14.05.2020
3015 Clear 24 1010 94 10000 0.5 0 18:58 14.05.2020
3016 Clouds 24 1011 94 10000 1.5 160 18:38 14.05.2020
3017 Clouds 24 1011 94 10000 1.5 160 18:20 14.05.2020
3018 Clouds 24 1011 94 10000 1.5 160 17:58 14.05.2020
3019 Clouds 26 1011 83 10000 2.6 120 17:37 14.05.2020
3020 Clouds 26 1011 83 10000 2.6 120 17:19 14.05.2020
3021 Clouds 26 1011 83 10000 2.6 120 16:57 14.05.2020
3022 Clouds 26 1012 83 10000 2.6 140 16:38 14.05.2020
3023 Clouds 26 1012 83 10000 2.6 140 16:18 14.05.2020
3024 Clouds 26 1012 83 10000 2.6 140 15:55 14.05.2020
3025 Clouds 26 1012 83 10000 5.1 130 15:36 14.05.2020
3026 Clouds 26 1012 83 10000 5.1 130 15:36 14.05.2020
3027 Clouds 26 1012 83 10000 5.1 130 15:18 14.05.2020
3028 Clouds 26 1012 83 10000 5.1 130 14:40 14.05.2020
3029 Clouds 25 1013 86 0 5.61 128 14:20 14.05.2020
3030 Clouds 25 1013 86 0 5.61 128 13:57 14.05.2020
3031 Clouds 25 1013 86 0 5.61 128 13:38 14.05.2020
3032 Clouds 26 1013 84 0 6.37 133 13:20 14.05.2020
3033 Clouds 26 1013 84 0 6.37 133 12:58 14.05.2020
3034 Clouds 27 1011 83 10000 7.7 150 12:38 14.05.2020
3035 Clouds 27 1011 83 10000 7.7 150 12:19 14.05.2020
3036 Clouds 27 1011 83 10000 7.7 150 11:57 14.05.2020
3037 Haze 27 1010 83 10000 10.3 160 11:38 14.05.2020
3038 Haze 27 1010 83 10000 10.3 160 11:19 14.05.2020
3039 Haze 27 1010 83 10000 10.3 160 10:45 14.05.2020
3040 Clouds 27 1011 81 0 7.29 147 10:26 14.05.2020
3041 Haze 28 1009 78 10000 10.3 150 09:57 14.05.2020
3042 Haze 29 1009 74 10000 10.3 150 09:38 14.05.2020
3043 Haze 29 1009 74 10000 10.3 150 09:19 14.05.2020
3044 Haze 29 1009 74 10000 10.3 150 08:40 14.05.2020
3045 Clouds 30 1009 70 10000 10.3 140 08:20 14.05.2020
3046 Clouds 30 1009 70 10000 10.3 140 07:45 14.05.2020
3047 Clear 28 1009 70 0 7.08 156 07:22 14.05.2020
3048 Clear 28 1009 70 0 7.08 156 06:53 14.05.2020
3049 Clear 28 1009 70 0 7.08 156 06:53 14.05.2020
3050 Haze 31 1010 66 10000 7.7 160 06:27 14.05.2020
3051 Haze 31 1010 66 10000 7.7 160 05:43 14.05.2020
3052 Clouds 28 1010 71 0 6.31 160 05:22 14.05.2020
3053 Clouds 28 1011 70 0 5.51 163 03:52 14.05.2020
3054 Clear 28 1012 70 0 4.35 163 03:21 14.05.2020
3055 Clear 28 1012 70 0 4.35 163 02:40 14.05.2020
3056 Clouds 28 1013 72 0 3.52 148 01:53 14.05.2020
3057 Clouds 27 1013 76 0 3.82 133 00:58 14.05.2020
3058 Clouds 27 1013 76 0 3.82 133 00:30 14.05.2020
3059 Clouds 26 1013 82 0 3.73 124 23:57 13.05.2020
3060 Clouds 26 1013 82 0 3.73 124 23:38 13.05.2020
3061 Clouds 24 1012 87 0 3.82 121 23:18 13.05.2020
3062 Clouds 24 1012 87 0 3.82 121 22:42 13.05.2020
3063 Clouds 24 1010 94 10000 1 0 22:22 13.05.2020
3064 Clouds 24 1010 94 10000 1 0 21:59 13.05.2020
3065 Clouds 24 1010 94 10000 1 0 21:40 13.05.2020
3066 Clouds 24 1010 88 10000 2.1 140 21:19 13.05.2020
3067 Clouds 24 1010 88 10000 2.1 140 20:56 13.05.2020
3068 Clouds 24 1010 88 10000 2.1 140 20:38 13.05.2020
3069 Clouds 24 1010 88 10000 2.1 140 20:19 13.05.2020
3070 Clouds 25 1010 88 10000 2.6 120 19:42 13.05.2020
3071 Clouds 25 1010 88 10000 2.6 120 19:23 13.05.2020
3072 Clouds 26 1010 83 10000 3.6 130 18:44 13.05.2020
3073 Clouds 26 1010 83 10000 3.6 130 18:22 13.05.2020
3074 Clouds 26 1011 83 10000 3.1 140 17:58 13.05.2020
3075 Clouds 26 1011 83 10000 3.1 140 17:38 13.05.2020
3076 Clouds 26 1011 83 10000 3.1 140 17:18 13.05.2020
3077 Clouds 26 1011 83 10000 5.1 130 16:41 13.05.2020
3078 Clouds 26 1011 83 10000 5.1 130 16:19 13.05.2020
3079 Clouds 26 1011 83 10000 7.7 130 15:55 13.05.2020
3080 Clouds 26 1011 83 10000 7.7 140 15:37 13.05.2020
3081 Clouds 26 1011 83 10000 7.7 140 15:18 13.05.2020
3082 Clouds 26 1011 83 10000 7.7 140 14:42 13.05.2020
3083 Clouds 26 1011 83 10000 7.7 140 14:24 13.05.2020
3084 Clouds 25 1013 86 0 6.43 131 13:59 13.05.2020
3085 Clouds 25 1013 86 0 6.43 131 13:41 13.05.2020
3086 Clouds 27 1010 78 10000 10.3 150 13:22 13.05.2020
3087 Clouds 27 1010 78 10000 10.3 150 12:58 13.05.2020
3088 Clouds 27 1010 78 10000 10.3 150 12:39 13.05.2020
3089 Clouds 27 1009 83 10000 10.3 150 12:20 13.05.2020
3090 Clouds 27 1009 83 10000 10.3 150 11:56 13.05.2020
3091 Clouds 27 1009 83 10000 10.3 150 11:56 13.05.2020
3092 Clouds 27 1009 83 10000 10.3 150 11:56 13.05.2020
3093 Clouds 26 1012 81 0 7.02 133 11:37 13.05.2020
3094 Clouds 26 1011 80 0 7.55 138 11:19 13.05.2020
3095 Clouds 26 1011 80 0 7.55 138 10:56 13.05.2020
3096 Clouds 26 1011 80 0 7.55 138 10:38 13.05.2020
3097 Clouds 27 1010 79 0 8.32 146 10:19 13.05.2020
3098 Clouds 27 1010 79 0 8.32 146 09:45 13.05.2020
3099 Clouds 27 1009 77 0 8.29 150 09:23 13.05.2020
3100 Clouds 27 1009 77 0 8.37 148 08:57 13.05.2020
3101 Clouds 27 1009 77 0 8.37 148 08:37 13.05.2020
3102 Clouds 28 1009 74 0 8.33 153 08:19 13.05.2020
3103 Clouds 28 1009 74 0 8.33 153 07:44 13.05.2020
3104 Rain 28 1009 72 0 8.19 157 07:26 13.05.2020
3105 Rain 28 1009 72 0 8.19 157 06:49 13.05.2020
3106 Clouds 28 1009 70 0 7.59 161 06:28 13.05.2020
3107 Clouds 29 1010 69 0 6.78 160 04:57 13.05.2020
3108 Clouds 30 1011 58 10000 5.1 140 03:28 13.05.2020
3109 Clouds 30 1011 58 10000 5.1 140 02:34 13.05.2020
3110 Clouds 28 1011 69 10000 5.1 140 01:38 13.05.2020
3111 Clouds 28 1011 69 10000 5.1 140 00:53 13.05.2020
3112 Clouds 25 1011 73 10000 5.1 110 00:22 13.05.2020
3113 Clouds 25 1011 73 10000 5.1 110 23:40 12.05.2020
3114 Clouds 25 1010 78 10000 5.1 110 23:21 12.05.2020
3115 Clouds 25 1010 78 10000 5.1 110 22:58 12.05.2020
3116 Clouds 25 1010 78 10000 5.1 110 22:40 12.05.2020
3117 Clouds 25 1010 78 10000 5.1 110 22:21 12.05.2020
3118 Clouds 25 1010 78 10000 7.2 130 21:55 12.05.2020
3119 Clouds 26 1010 74 10000 4.6 130 21:37 12.05.2020
3120 Clouds 26 1010 74 10000 4.6 130 21:18 12.05.2020
3121 Clouds 26 1010 74 10000 4.6 130 20:57 12.05.2020
3122 Clouds 26 1010 74 10000 8.2 140 20:38 12.05.2020
3123 Clouds 26 1010 74 10000 8.2 140 20:20 12.05.2020
3124 Clouds 26 1010 74 10000 8.2 140 20:20 12.05.2020
3125 Clouds 26 1010 74 10000 8.2 140 19:56 12.05.2020
3126 Clouds 26 1010 78 10000 4.1 120 19:37 12.05.2020
3127 Clouds 26 1010 78 10000 4.1 120 19:19 12.05.2020
3128 Clouds 26 1010 78 10000 4.1 120 18:43 12.05.2020
3129 Clouds 26 1011 78 10000 6.7 140 18:24 12.05.2020
3130 Clouds 26 1011 78 10000 6.7 140 17:58 12.05.2020
3131 Clouds 26 1011 78 10000 6.7 140 17:39 12.05.2020
3132 Clouds 26 1011 78 10000 9.3 140 17:21 12.05.2020
3133 Clouds 26 1011 78 10000 9.3 140 16:43 12.05.2020
3134 Clouds 24 1012 86 0 6 123 16:23 12.05.2020
3135 Clouds 24 1012 86 0 6 123 15:56 12.05.2020
3136 Clouds 24 1012 86 0 6 123 15:37 12.05.2020
3137 Clouds 24 1012 85 0 6.68 124 15:18 12.05.2020
3138 Clouds 24 1012 85 0 6.68 124 15:18 12.05.2020
3139 Clouds 24 1012 85 0 6.68 124 14:55 12.05.2020
3140 Clouds 24 1012 85 0 6.68 124 14:36 12.05.2020
3141 Rain 24 1013 85 0 7.47 128 14:18 12.05.2020
3142 Clouds 25 1012 85 0 7.61 128 13:55 12.05.2020
3143 Clouds 25 1012 85 0 7.61 128 13:37 12.05.2020
3144 Clouds 25 1012 84 0 7.69 132 13:18 12.05.2020
3145 Clouds 25 1012 84 0 7.69 132 12:56 12.05.2020
3146 Clouds 25 1012 84 0 7.69 132 12:56 12.05.2020
3147 Clouds 25 1012 84 0 7.69 132 12:37 12.05.2020
3148 Clouds 25 1012 84 0 7.69 132 12:37 12.05.2020
3149 Clouds 25 1012 83 0 7.75 132 12:19 12.05.2020
3150 Clouds 25 1012 83 0 7.75 132 11:56 12.05.2020
3151 Haze 28 1009 74 10000 7.7 160 11:37 12.05.2020
3152 Haze 28 1009 74 10000 7.7 160 11:19 12.05.2020
3153 Haze 28 1009 74 10000 7.7 160 10:55 12.05.2020
3154 Haze 28 1008 78 10000 7.7 160 10:36 12.05.2020
3155 Haze 28 1008 78 10000 7.7 160 10:18 12.05.2020
3156 Haze 28 1008 78 10000 7.7 160 09:55 12.05.2020
3157 Haze 30 1007 70 10000 10.3 160 09:36 12.05.2020
3158 Haze 30 1007 70 10000 10.3 160 09:18 12.05.2020
3159 Clouds 27 1009 80 0 9.15 144 08:39 12.05.2020
3160 Haze 32 1007 66 10000 8.7 170 08:19 12.05.2020
3161 Haze 32 1007 66 10000 8.7 170 07:44 12.05.2020
3162 Haze 32 1008 59 10000 9.3 150 07:25 12.05.2020
3163 Haze 32 1008 59 10000 9.3 150 06:50 12.05.2020
3164 Haze 33 1009 59 10000 10.3 160 06:29 12.05.2020
3165 Haze 33 1009 59 10000 10.3 160 05:59 12.05.2020
3166 Haze 33 1009 59 10000 10.3 160 05:41 12.05.2020
3167 Haze 32 1011 59 10000 10.3 160 03:43 12.05.2020
3168 Haze 31 1011 62 10000 10.3 150 02:53 12.05.2020
3169 Haze 30 1011 62 10000 7.7 160 02:25 12.05.2020
3170 Clouds 28 1011 74 10000 7.7 140 01:27 12.05.2020
3171 Clouds 26 1010 83 10000 5.1 130 00:37 12.05.2020
3172 Clouds 26 1010 83 10000 5.1 130 00:18 12.05.2020
3173 Clouds 26 1010 83 10000 5.1 130 23:42 11.05.2020
3174 Clouds 25 1009 83 10000 4.6 130 23:21 11.05.2020
3175 Clouds 25 1009 83 10000 4.6 130 22:59 11.05.2020
3176 Clouds 25 1009 83 10000 4.6 130 22:59 11.05.2020
3177 Clouds 25 1009 83 10000 4.6 130 22:41 11.05.2020
3178 Clouds 25 1009 83 10000 4.6 130 22:20 11.05.2020
3179 Clouds 25 1009 83 10000 2.6 150 21:59 11.05.2020
3180 Clouds 25 1009 83 10000 2.6 150 21:40 11.05.2020
3181 Clouds 27 1009 74 10000 1.5 0 21:19 11.05.2020
3182 Clouds 27 1009 74 10000 1.5 0 20:59 11.05.2020
3183 Clouds 27 1009 74 10000 1.5 0 20:40 11.05.2020
3184 Clouds 26 1009 78 10000 2.6 200 20:21 11.05.2020
3185 Clouds 25 1010 88 0 5.37 115 19:56 11.05.2020
3186 Clouds 26 1009 78 10000 2.6 200 19:38 11.05.2020
3187 Clouds 26 1009 78 10000 2.6 200 19:20 11.05.2020
3188 Clouds 25 1010 89 0 5.56 117 18:56 11.05.2020
3189 Clouds 25 1010 89 0 5.56 117 18:37 11.05.2020
3190 Clouds 25 1011 89 0 5.83 119 18:18 11.05.2020
3191 Clouds 25 1011 89 0 5.83 119 17:55 11.05.2020
3192 Haze 27 1010 78 10000 5.1 140 17:36 11.05.2020
3193 Haze 27 1010 78 10000 5.1 140 17:36 11.05.2020
3194 Haze 27 1010 78 10000 5.1 140 17:36 11.05.2020
3195 Haze 27 1010 78 10000 5.1 140 17:18 11.05.2020
3196 Haze 27 1010 78 10000 5.1 140 16:42 11.05.2020
3197 Haze 27 1011 78 10000 5.1 140 16:22 11.05.2020
3198 Haze 27 1011 78 10000 5.1 140 15:58 11.05.2020
3199 Haze 27 1011 78 10000 5.1 140 15:39 11.05.2020
3200 Haze 27 1011 78 10000 5.1 150 15:19 11.05.2020
3201 Haze 27 1011 78 10000 5.1 150 14:55 11.05.2020
3202 Haze 28 1011 74 10000 5.1 150 14:37 11.05.2020
3203 Haze 28 1011 74 10000 5.1 150 14:18 11.05.2020
3204 Haze 28 1011 74 10000 5.1 150 14:18 11.05.2020
3205 Haze 28 1011 74 10000 5.1 150 13:41 11.05.2020
3206 Haze 27 1010 83 10000 5.1 150 13:22 11.05.2020
3207 Haze 27 1010 83 10000 5.1 150 12:58 11.05.2020
3208 Haze 27 1010 83 10000 5.1 150 12:40 11.05.2020
3209 Haze 28 1009 78 10000 5.1 150 12:22 11.05.2020
3210 Haze 28 1009 78 10000 5.1 150 11:56 11.05.2020
3211 Haze 28 1009 78 10000 5.1 150 11:38 11.05.2020
3212 Haze 28 1009 78 10000 5.1 150 11:19 11.05.2020
3213 Haze 28 1009 78 10000 5.1 150 10:55 11.05.2020
3214 Haze 28 1009 78 10000 5.1 150 10:55 11.05.2020
3215 Haze 28 1008 78 10000 10.3 150 10:37 11.05.2020
3216 Haze 28 1008 78 10000 10.3 150 10:18 11.05.2020
3217 Haze 28 1008 78 10000 10.3 150 09:54 11.05.2020
3218 Haze 30 1007 74 10000 7.7 150 09:36 11.05.2020
3219 Haze 30 1007 74 10000 7.7 150 09:18 11.05.2020
3220 Haze 30 1007 74 10000 7.7 150 08:39 11.05.2020
3221 Haze 30 1007 74 10000 7.7 150 08:19 11.05.2020
3222 Haze 31 1007 70 10000 7.7 160 07:50 11.05.2020
3223 Haze 31 1007 70 10000 7.7 150 07:32 11.05.2020
3224 Haze 31 1007 70 10000 7.7 150 06:54 11.05.2020
3225 Haze 32 1008 66 10000 7.7 140 06:31 11.05.2020
3226 Haze 32 1008 66 10000 7.7 140 05:31 11.05.2020
3227 Haze 32 1009 66 10000 5.1 160 04:58 11.05.2020
3228 Haze 31 1010 70 10000 7.7 160 03:46 11.05.2020
3229 Haze 29 1010 79 10000 5.1 170 02:35 11.05.2020
3230 Haze 29 1010 79 10000 5.1 170 01:47 11.05.2020
3231 Clouds 28 1010 78 10000 5.1 140 00:54 11.05.2020
3232 Clouds 27 1010 83 10000 5.7 140 00:24 11.05.2020
3233 Clouds 27 1010 83 10000 5.7 140 23:46 10.05.2020
3234 Clouds 26 1009 83 10000 5.1 130 23:27 10.05.2020
3235 Clouds 26 1009 83 10000 5.1 130 22:59 10.05.2020
3236 Clouds 26 1009 83 10000 5.1 130 22:41 10.05.2020
3237 Clouds 25 1010 88 0 7.4 129 22:23 10.05.2020
3238 Clouds 25 1010 88 0 7.4 129 21:46 10.05.2020
3239 Clouds 25 1009 87 0 7.6 129 21:21 10.05.2020
3240 Clouds 25 1009 87 0 7.6 129 21:21 10.05.2020
3241 Clouds 25 1009 87 0 7.6 129 20:56 10.05.2020
3242 Clouds 25 1009 87 0 7.6 129 20:38 10.05.2020
3243 Clouds 26 1009 87 0 7.63 130 20:20 10.05.2020
3244 Clouds 26 1009 87 0 7.63 130 19:54 10.05.2020
3245 Clouds 26 1009 87 0 7.63 130 19:36 10.05.2020
3246 Clouds 26 1009 87 0 7.49 130 19:18 10.05.2020
3247 Clouds 26 1009 87 0 7.49 130 18:54 10.05.2020
3248 Clouds 26 1009 87 0 7.49 130 18:36 10.05.2020
3249 Clouds 26 1010 88 0 7.4 130 18:18 10.05.2020
3250 Clouds 26 1010 88 0 7.4 130 17:41 10.05.2020
3251 Clouds 27 1009 94 10000 5.1 150 17:22 10.05.2020
3252 Clouds 27 1009 94 10000 5.1 150 16:59 10.05.2020
3253 Clouds 27 1009 94 10000 5.1 150 16:41 10.05.2020
3254 Clouds 27 1009 94 10000 5.1 150 16:19 10.05.2020
3255 Clouds 27 1010 94 10000 5.1 150 15:55 10.05.2020
3256 Clouds 27 1010 94 10000 5.1 150 15:36 10.05.2020
3257 Clouds 27 1010 94 10000 5.1 150 15:18 10.05.2020
3258 Clouds 27 1010 94 10000 5.1 150 14:39 10.05.2020
3259 Clouds 27 1010 94 10000 5.1 150 14:20 10.05.2020
3260 Clouds 27 1010 94 10000 5.1 150 14:20 10.05.2020
3261 Clouds 27 1010 94 10000 5.1 150 13:59 10.05.2020
3262 Clouds 27 1010 94 10000 5.1 150 13:59 10.05.2020
3263 Clouds 27 1010 94 10000 5.1 150 13:59 10.05.2020
3264 Clouds 27 1010 94 10000 5.1 150 13:39 10.05.2020
3265 Clouds 28 1009 88 10000 5.1 150 13:21 10.05.2020
3266 Clouds 28 1009 88 10000 5.1 150 12:58 10.05.2020
3267 Clouds 28 1009 88 10000 5.1 150 12:40 10.05.2020
3268 Clouds 28 1009 88 10000 5.1 150 12:40 10.05.2020
3269 Clouds 28 1009 88 10000 5.1 150 12:21 10.05.2020
3270 Haze 28 1008 88 10000 5.1 150 11:58 10.05.2020
3271 Haze 28 1008 88 10000 5.1 150 11:39 10.05.2020
3272 Haze 28 1008 88 10000 5.1 150 11:20 10.05.2020
3273 Haze 28 1008 88 10000 5.1 150 11:20 10.05.2020
3274 Haze 28 1008 88 10000 10.3 160 10:47 10.05.2020
3275 Haze 30 1007 79 10000 10.3 150 10:29 10.05.2020
3276 Haze 30 1007 79 10000 10.3 150 09:59 10.05.2020
3277 Haze 30 1007 79 10000 10.3 150 09:40 10.05.2020
3278 Haze 30 1007 79 10000 10.3 140 09:21 10.05.2020
3279 Haze 30 1007 79 10000 10.3 140 08:51 10.05.2020
3280 Haze 30 1007 79 10000 7.7 140 08:24 10.05.2020
3281 Haze 30 1007 79 10000 7.7 140 07:45 10.05.2020
3282 Haze 32 1008 70 10000 10.3 140 07:21 10.05.2020
3283 Haze 32 1008 70 10000 10.3 140 06:58 10.05.2020
3284 Haze 32 1008 66 10000 7.7 150 06:35 10.05.2020
3285 Haze 32 1008 66 10000 7.7 150 05:52 10.05.2020
3286 Haze 33 1009 63 10000 7.7 170 04:58 10.05.2020
3287 Clouds 32 1010 70 0 7.7 170 04:38 10.05.2020
3288 Clouds 32 1010 70 0 7.7 170 04:20 10.05.2020
3289 Clouds 30 1011 72 0 5.2 160 03:39 10.05.2020
3290 Smoke 31 1010 70 10000 2.1 0 02:50 10.05.2020
3291 Haze 31 1011 70 10000 1.5 0 02:22 10.05.2020
3292 Haze 31 1011 70 10000 1.5 0 01:42 10.05.2020
3293 Clouds 27 1011 83 10000 3.6 140 01:20 10.05.2020
3294 Clouds 27 1011 83 10000 3.6 140 00:55 10.05.2020
3295 Clouds 25 1010 94 10000 1.5 0 00:26 10.05.2020
3296 Clouds 25 1010 94 10000 1.5 0 23:59 09.05.2020
3297 Clouds 25 1010 94 10000 1.5 0 23:39 09.05.2020
3298 Clouds 25 1010 94 10000 1.5 0 23:20 09.05.2020
3299 Clouds 25 1010 94 10000 1.5 0 22:42 09.05.2020
3300 Clouds 25 1009 94 10000 2.6 140 22:24 09.05.2020
3301 Clouds 25 1009 94 10000 2.6 140 21:58 09.05.2020
3302 Clouds 25 1009 94 10000 2.6 140 21:40 09.05.2020
3303 Clouds 25 1009 94 10000 2.6 140 21:21 09.05.2020
3304 Clouds 25 1009 94 10000 2.6 140 20:58 09.05.2020
3305 Clouds 25 1010 91 0 4.05 116 20:38 09.05.2020
3306 Clouds 25 1010 91 0 3.69 113 20:20 09.05.2020
3307 Clouds 25 1010 91 0 3.69 113 19:56 09.05.2020
3308 Clouds 25 1009 94 10000 4.1 140 19:37 09.05.2020
3309 Clouds 25 1009 94 10000 4.1 140 19:18 09.05.2020
3310 Clouds 25 1009 94 10000 4.1 140 18:43 09.05.2020
3311 Clouds 26 1010 88 10000 4.1 130 18:23 09.05.2020
3312 Clouds 26 1010 88 10000 4.1 130 17:45 09.05.2020
3313 Clouds 26 1010 88 10000 5.7 140 17:23 09.05.2020
3314 Clouds 26 1010 88 10000 5.7 140 16:57 09.05.2020
3315 Clouds 26 1011 94 10000 4.1 150 16:38 09.05.2020
3316 Clouds 26 1011 94 10000 4.1 150 16:18 09.05.2020
3317 Clouds 26 1011 94 10000 4.1 150 15:42 09.05.2020
3318 Clouds 27 1011 88 10000 5.7 150 15:22 09.05.2020
3319 Clouds 27 1011 88 10000 5.7 150 15:22 09.05.2020
3320 Clouds 27 1011 88 10000 5.7 150 14:56 09.05.2020
3321 Clouds 27 1010 88 10000 7.7 160 14:37 09.05.2020
3322 Clouds 27 1010 88 10000 7.7 160 14:18 09.05.2020
3323 Clouds 27 1010 88 10000 7.7 160 13:43 09.05.2020
3324 Clouds 27 1009 88 10000 5.1 150 13:22 09.05.2020
3325 Clouds 27 1009 88 10000 5.1 150 12:59 09.05.2020
3326 Clouds 27 1009 88 10000 5.1 150 12:39 09.05.2020
3327 Clouds 28 1009 78 10000 8.7 160 12:21 09.05.2020
3328 Clouds 28 1009 78 10000 8.7 160 11:45 09.05.2020
3329 Clouds 28 1009 83 10000 7.7 150 11:20 09.05.2020
3330 Clouds 28 1009 83 10000 7.7 150 10:54 09.05.2020
3331 Smoke 29 1008 79 10000 7.7 150 10:36 09.05.2020
3332 Smoke 29 1008 79 10000 7.7 150 10:18 09.05.2020
3333 Smoke 29 1008 79 10000 7.7 150 09:43 09.05.2020
3334 Smoke 29 1008 79 10000 7.7 140 09:20 09.05.2020
3335 Smoke 29 1008 79 10000 7.7 140 08:55 09.05.2020
3336 Clouds 31 1008 70 10000 7.7 140 08:36 09.05.2020
3337 Clouds 31 1008 70 10000 7.7 140 07:56 09.05.2020
3338 Haze 32 1008 66 10000 7.7 170 07:38 09.05.2020
3339 Haze 32 1008 66 10000 7.7 170 07:20 09.05.2020
3340 Haze 32 1009 66 10000 7.7 170 06:27 09.05.2020
3341 Haze 32 1009 66 10000 7.7 170 06:27 09.05.2020
3342 Haze 32 1009 66 10000 7.7 170 05:50 09.05.2020
3343 Haze 32 1010 66 10000 5.1 130 05:20 09.05.2020
3344 Haze 31 1011 70 10000 3.6 160 03:39 09.05.2020
3345 Haze 32 1011 66 10000 2.6 140 02:54 09.05.2020
3346 Haze 30 1011 74 10000 2.6 90 02:30 09.05.2020
3347 Haze 30 1011 74 10000 2.6 90 01:49 09.05.2020
3348 Clouds 27 1011 83 10000 2.6 150 01:21 09.05.2020
3349 Clouds 25 1012 87 0 3.65 125 00:42 09.05.2020
3350 Clouds 25 1010 94 10000 2.6 140 00:18 09.05.2020
3351 Clouds 25 1010 94 10000 2.6 140 23:43 08.05.2020
3352 Clouds 25 1011 88 0 4.03 121 23:25 08.05.2020
3353 Clouds 25 1011 88 0 4.03 121 22:55 08.05.2020
3354 Clouds 25 1011 88 0 4.03 121 22:37 08.05.2020
3355 Clouds 24 1010 88 0 3.91 117 22:18 08.05.2020
3356 Clouds 24 1010 88 0 3.91 117 21:54 08.05.2020
3357 Clouds 24 1010 88 0 3.91 117 21:36 08.05.2020
3358 Clouds 24 1010 88 0 3.12 117 21:18 08.05.2020
3359 Clouds 24 1010 88 0 3.12 117 20:41 08.05.2020
3360 Clouds 24 1010 89 0 3.38 117 20:23 08.05.2020
3361 Clouds 24 1010 89 0 3.38 117 19:58 08.05.2020
3362 Clouds 24 1010 89 0 3.38 117 19:40 08.05.2020
3363 Clouds 24 1010 89 0 3.59 119 19:20 08.05.2020
3364 Clouds 24 1010 89 0 3.59 119 19:20 08.05.2020
3365 Clouds 24 1010 89 0 3.59 119 18:45 08.05.2020
3366 Clouds 24 1010 89 0 3.8 113 18:27 08.05.2020
3367 Clouds 24 1010 89 0 3.8 113 17:43 08.05.2020
3368 Clouds 24 1010 89 0 3.8 113 17:43 08.05.2020
3369 Clouds 26 1010 83 10000 3.1 140 17:20 08.05.2020
3370 Clouds 26 1010 83 10000 3.1 140 16:56 08.05.2020
3371 Clouds 26 1011 83 10000 5.1 140 16:37 08.05.2020
3372 Clouds 26 1011 83 10000 5.1 140 16:19 08.05.2020
3373 Clouds 26 1011 83 10000 5.1 140 15:42 08.05.2020
3374 Rain 24 1012 90 0 5.63 120 15:20 08.05.2020
3375 Rain 24 1012 90 0 5.63 120 14:56 08.05.2020
3376 Rain 24 1012 90 0 5.63 120 14:56 08.05.2020
3377 Clouds 26 1010 83 10000 5.1 150 14:38 08.05.2020
3378 Clouds 26 1010 83 10000 5.1 150 14:18 08.05.2020
3379 Clouds 26 1010 83 10000 5.1 150 13:41 08.05.2020
3380 Clouds 27 1009 78 10000 7.7 150 13:20 08.05.2020
3381 Clouds 27 1009 78 10000 7.7 150 12:56 08.05.2020
3382 Clouds 28 1008 74 10000 7.7 150 12:38 08.05.2020
3383 Clouds 28 1008 74 10000 7.7 150 12:20 08.05.2020
3384 Clouds 28 1008 74 10000 7.7 150 12:20 08.05.2020
3385 Clouds 28 1008 74 10000 7.7 150 11:44 08.05.2020
3386 Smoke 29 1008 74 10000 7.7 150 11:23 08.05.2020
3387 Smoke 29 1008 74 10000 7.7 150 10:58 08.05.2020
3388 Smoke 29 1008 74 10000 7.7 150 10:40 08.05.2020
3389 Haze 30 1007 70 10000 5.1 160 10:19 08.05.2020
3390 Smoke 30 1007 70 10000 5.1 160 09:56 08.05.2020
3391 Smoke 31 1007 66 10000 5.1 160 09:37 08.05.2020
3392 Haze 31 1007 66 10000 5.1 160 09:18 08.05.2020
3393 Smoke 31 1007 66 10000 5.1 160 08:40 08.05.2020
3394 Clouds 31 1007 66 10000 7.7 150 08:21 08.05.2020
3395 Rain 29 1009 74 0 8.86 147 07:43 08.05.2020
3396 Haze 32 1007 62 10000 10.3 140 07:23 08.05.2020
3397 Haze 32 1007 62 10000 10.3 140 06:50 08.05.2020
3398 Haze 32 1008 62 10000 7.7 140 06:22 08.05.2020
3399 Clouds 29 1009 72 0 8.28 150 05:41 08.05.2020
3400 Clouds 31 1010 66 10000 6.7 160 04:30 08.05.2020
3401 Clouds 27 1011 78 10000 5.1 140 02:32 08.05.2020
3402 Clouds 27 1011 78 10000 5.1 140 01:45 08.05.2020
3403 Clouds 27 1011 78 10000 5.1 140 01:23 08.05.2020
3404 Clouds 27 1011 78 10000 5.1 140 00:51 08.05.2020
3405 Clouds 25 1010 83 10000 4.1 120 00:28 08.05.2020
3406 Clouds 25 1010 83 10000 4.1 120 23:57 07.05.2020
3407 Clouds 25 1011 84 0 6.43 124 23:39 07.05.2020
3408 Clouds 25 1011 84 0 6.43 124 23:39 07.05.2020
3409 Clouds 24 1009 88 10000 4.1 150 23:21 07.05.2020
3410 Clouds 24 1009 88 10000 4.1 150 22:42 07.05.2020
3411 Clouds 24 1008 88 10000 2.6 120 22:21 07.05.2020
3412 Clouds 24 1008 88 10000 2.6 120 21:58 07.05.2020
3413 Clouds 24 1008 88 10000 2.6 120 21:39 07.05.2020
3414 Clouds 25 1008 83 10000 4.1 120 21:20 07.05.2020
3415 Clouds 25 1008 83 10000 4.1 120 20:59 07.05.2020
3416 Clouds 25 1008 83 10000 4.1 120 20:41 07.05.2020
3417 Clouds 25 1009 83 10000 4.1 140 20:20 07.05.2020
3418 Clouds 25 1009 83 10000 4.1 140 20:20 07.05.2020
3419 Clouds 25 1009 83 10000 4.1 140 19:50 07.05.2020
3420 Clouds 25 1009 83 10000 5.7 140 19:24 07.05.2020
3421 Clouds 25 1009 83 10000 5.7 140 18:59 07.05.2020
3422 Clouds 25 1010 87 0 7.08 124 18:39 07.05.2020
3423 Clouds 25 1010 86 0 7.07 123 18:20 07.05.2020
3424 Clouds 25 1010 86 0 7.07 123 17:42 07.05.2020
3425 Clouds 26 1010 83 10000 10.3 140 17:20 07.05.2020
3426 Clouds 26 1010 83 10000 10.3 140 16:43 07.05.2020
3427 Clouds 26 1010 83 10000 10.3 140 16:20 07.05.2020
3428 Clouds 26 1010 83 10000 10.3 140 15:58 07.05.2020
3429 Clouds 26 1010 83 10000 10.3 140 15:58 07.05.2020
3430 Clouds 26 1011 83 10000 10.3 140 15:39 07.05.2020
3431 Clouds 26 1011 83 10000 10.3 140 15:19 07.05.2020
3432 Clouds 26 1011 83 10000 10.3 140 14:59 07.05.2020
3433 Clouds 26 1011 83 10000 10.3 140 14:41 07.05.2020
3434 Clouds 26 1011 83 10000 10.3 140 14:18 07.05.2020
3435 Clouds 26 1011 83 10000 10.3 140 13:42 07.05.2020
3436 Clouds 27 1010 78 10000 10.3 140 13:24 07.05.2020
3437 Clouds 27 1010 78 10000 10.3 140 12:43 07.05.2020
3438 Clouds 26 1009 83 10000 12.9 140 12:20 07.05.2020
3439 Clouds 26 1009 83 10000 12.9 140 11:54 07.05.2020
3440 Clouds 26 1009 83 10000 7.7 140 11:36 07.05.2020
3441 Clouds 26 1009 83 10000 7.7 140 11:18 07.05.2020
3442 Clouds 26 1009 83 10000 7.7 140 10:40 07.05.2020
3443 Clouds 28 1008 74 10000 5.1 150 10:20 07.05.2020
3444 Clouds 28 1008 74 10000 5.1 150 09:41 07.05.2020
3445 Clouds 28 1009 74 0 7.76 142 09:20 07.05.2020
3446 Clouds 28 1009 74 0 7.76 142 08:56 07.05.2020
3447 Clouds 30 1008 70 10000 12.9 150 08:37 07.05.2020
3448 Clouds 30 1008 70 10000 12.9 150 08:19 07.05.2020
3449 Clouds 30 1008 70 10000 12.9 150 07:41 07.05.2020
3450 Clouds 30 1008 70 10000 12.9 150 07:41 07.05.2020
3451 Clouds 30 1008 66 10000 10.3 150 07:22 07.05.2020
3452 Clouds 30 1008 66 10000 10.3 150 06:39 07.05.2020
3453 Haze 31 1009 62 10000 7.7 150 06:21 07.05.2020
3454 Haze 31 1010 62 10000 5.1 150 05:25 07.05.2020
3455 Haze 31 1011 62 10000 5.1 150 03:50 07.05.2020
3456 Haze 29 1012 70 10000 5.1 150 03:21 07.05.2020
3457 Haze 29 1012 70 10000 5.1 150 02:41 07.05.2020
3458 Haze 28 1011 74 10000 5.1 140 01:40 07.05.2020
3459 Clouds 27 1011 78 10000 5.1 140 01:22 07.05.2020
3460 Clouds 27 1011 78 10000 5.1 140 00:44 07.05.2020
3461 Clouds 26 1011 83 10000 5.1 140 00:25 07.05.2020
3462 Clouds 26 1011 83 10000 5.1 140 23:46 06.05.2020
3463 Clouds 26 1010 78 10000 5.1 140 23:24 06.05.2020
3464 Clouds 26 1010 78 10000 5.1 140 22:56 06.05.2020
3465 Clouds 26 1009 83 10000 5.1 150 22:38 06.05.2020
3466 Clouds 26 1009 83 10000 5.1 150 22:38 06.05.2020
3467 Clouds 26 1009 83 10000 5.1 150 22:19 06.05.2020
3468 Clouds 26 1009 83 10000 5.1 150 21:55 06.05.2020
3469 Clouds 26 1009 83 10000 7.7 150 21:37 06.05.2020
3470 Clouds 26 1009 83 10000 7.7 150 21:18 06.05.2020
3471 Clouds 26 1009 83 10000 7.7 150 20:42 06.05.2020
3472 Clouds 26 1009 83 10000 5.1 120 20:22 06.05.2020
3473 Clouds 26 1009 83 10000 5.1 120 19:57 06.05.2020
3474 Clouds 25 1010 83 0 7.26 126 19:38 06.05.2020
3475 Clouds 25 1011 83 0 7.46 126 19:19 06.05.2020
3476 Clouds 26 1010 83 10000 5.1 150 18:58 06.05.2020
3477 Clouds 26 1010 83 10000 10.3 150 18:38 06.05.2020
3478 Clouds 26 1010 83 10000 10.3 150 18:20 06.05.2020
3479 Clouds 26 1010 83 10000 10.3 150 17:55 06.05.2020
3480 Clouds 26 1010 83 10000 10.3 150 17:37 06.05.2020
3481 Clouds 26 1010 83 10000 10.3 150 17:18 06.05.2020
3482 Clouds 26 1011 83 10000 10.3 150 16:58 06.05.2020
3483 Clouds 26 1011 83 10000 10.3 150 16:40 06.05.2020
3484 Clouds 26 1011 83 10000 10.3 150 16:20 06.05.2020
3485 Clouds 26 1011 83 10000 10.3 150 15:48 06.05.2020
3486 Clouds 26 1011 83 10000 10.3 160 15:23 06.05.2020
3487 Clouds 26 1011 83 10000 10.3 160 14:59 06.05.2020
3488 Clouds 26 1011 83 10000 10.3 160 14:39 06.05.2020
3489 Clouds 25 1011 88 10000 10.3 140 14:19 06.05.2020
3490 Clouds 25 1011 88 10000 10.3 140 14:19 06.05.2020
3491 Clouds 25 1011 88 10000 10.3 140 13:58 06.05.2020
3492 Clouds 25 1012 84 0 6.67 129 13:39 06.05.2020
3493 Clouds 26 1011 83 10000 10.3 150 13:19 06.05.2020
3494 Clouds 26 1011 83 10000 10.3 150 12:43 06.05.2020
3495 Clouds 25 1012 84 0 6.58 135 12:25 06.05.2020
3496 Clouds 25 1012 84 0 6.58 135 11:42 06.05.2020
3497 Clouds 25 1011 83 0 6.57 133 11:23 06.05.2020
3498 Clouds 25 1011 83 0 6.57 133 10:58 06.05.2020
3499 Clouds 25 1011 83 0 6.57 133 10:40 06.05.2020
3500 Clouds 26 1010 82 0 6.45 134 10:20 06.05.2020
3501 Clouds 26 1010 82 0 6.45 134 09:59 06.05.2020
3502 Clouds 26 1010 82 0 6.45 134 09:38 06.05.2020
3503 Clouds 27 1010 78 0 7.18 137 09:20 06.05.2020
3504 Clouds 27 1010 78 0 7.18 137 08:44 06.05.2020
3505 Clouds 27 1010 77 0 7.58 138 08:21 06.05.2020
3506 Clouds 27 1010 77 0 7.58 138 07:56 06.05.2020
3507 Clouds 27 1010 77 0 7.58 138 07:38 06.05.2020
3508 Clouds 27 1010 78 0 7.67 138 07:19 06.05.2020
3509 Clouds 27 1010 78 0 7.67 138 06:46 06.05.2020
3510 Rain 27 1010 79 0 7.68 139 06:21 06.05.2020
3511 Rain 27 1010 79 0 7.68 139 05:49 06.05.2020
3512 Rain 27 1010 79 0 7.68 139 05:49 06.05.2020
3513 Haze 31 1010 66 10000 5.1 150 05:31 06.05.2020
3514 Rain 27 1011 79 0 7.76 141 03:53 06.05.2020
3515 Clouds 27 1011 77 0 7.33 140 03:28 06.05.2020
3516 Clouds 27 1011 77 0 7.33 140 02:54 06.05.2020
3517 Haze 28 1012 78 10000 10.3 150 02:26 06.05.2020
3518 Haze 28 1012 78 10000 10.3 150 01:43 06.05.2020
3519 Haze 27 1012 83 10000 7.7 150 01:21 06.05.2020
3520 Haze 27 1012 83 10000 7.7 150 00:44 06.05.2020
3521 Clouds 26 1011 83 10000 5.1 130 00:19 06.05.2020
3522 Clouds 26 1011 83 10000 5.1 130 00:19 06.05.2020
3523 Clouds 26 1011 83 10000 5.1 130 23:41 05.05.2020
3524 Clouds 25 1011 88 10000 5.1 120 23:20 05.05.2020
3525 Clouds 25 1011 88 10000 5.1 120 22:55 05.05.2020
3526 Clouds 25 1010 88 10000 5.1 140 22:37 05.05.2020
3527 Clouds 25 1010 88 10000 5.1 140 22:18 05.05.2020
3528 Clouds 25 1010 88 10000 5.1 140 21:41 05.05.2020
3529 Clouds 25 1010 88 10000 5.1 140 21:21 05.05.2020
3530 Clouds 25 1010 88 10000 5.1 140 21:21 05.05.2020
3531 Clouds 25 1010 88 10000 5.1 140 20:59 05.05.2020
3532 Clouds 25 1010 88 10000 5.1 140 20:40 05.05.2020
3533 Clouds 26 1010 83 10000 5.1 150 20:20 05.05.2020
3534 Clouds 26 1010 83 10000 5.1 150 19:59 05.05.2020
3535 Clouds 26 1010 83 10000 5.1 150 19:38 05.05.2020
3536 Clouds 26 1010 83 10000 5.1 150 19:20 05.05.2020
3537 Clouds 26 1010 83 10000 5.1 150 18:56 05.05.2020
3538 Clouds 26 1011 88 10000 6.7 150 18:38 05.05.2020
3539 Clouds 26 1011 88 10000 6.7 150 18:19 05.05.2020
3540 Clouds 26 1011 88 10000 6.7 150 17:44 05.05.2020
3541 Clouds 25 1011 86 0 6.6 130 17:25 05.05.2020
3542 Clouds 25 1011 86 0 6.6 130 16:59 05.05.2020
3543 Clouds 25 1011 86 0 6.6 130 16:37 05.05.2020
3544 Clouds 25 1011 86 0 6.47 129 16:18 05.05.2020
3545 Clouds 25 1011 86 0 6.47 129 15:56 05.05.2020
3546 Clouds 25 1011 86 0 6.47 129 15:38 05.05.2020
3547 Clouds 25 1011 86 0 6.19 129 15:19 05.05.2020
3548 Clouds 25 1011 86 0 6.19 129 14:54 05.05.2020
3549 Clouds 25 1011 86 0 6.19 129 14:36 05.05.2020
3550 Clouds 25 1011 84 0 6.29 130 14:18 05.05.2020
3551 Clouds 25 1011 84 0 6.29 130 13:41 05.05.2020
3552 Clouds 25 1012 83 0 6.04 128 13:21 05.05.2020
3553 Clouds 25 1012 83 0 6.04 128 12:59 05.05.2020
3554 Clouds 25 1012 81 0 6.04 128 12:40 05.05.2020
3555 Clouds 25 1011 81 0 6.03 125 12:20 05.05.2020
3556 Clouds 25 1011 81 0 6.03 125 11:59 05.05.2020
3557 Clouds 25 1011 81 0 6.03 125 11:40 05.05.2020
3558 Clouds 26 1011 82 0 6.34 125 11:19 05.05.2020
3559 Clouds 26 1011 82 0 6.34 125 10:54 05.05.2020
3560 Clouds 28 1009 78 10000 7.7 160 10:36 05.05.2020
3561 Clouds 28 1009 78 10000 7.7 160 10:18 05.05.2020
3562 Clouds 28 1009 78 10000 7.7 160 09:43 05.05.2020
3563 Clouds 28 1009 78 10000 7.7 160 09:43 05.05.2020
3564 Clouds 29 1008 79 10000 5.1 150 09:25 05.05.2020
3565 Clouds 29 1008 79 10000 5.1 150 08:42 05.05.2020
3566 Haze 30 1008 74 10000 5.1 150 08:21 05.05.2020
3567 Haze 30 1008 74 10000 5.1 150 08:21 05.05.2020
3568 Haze 30 1008 74 10000 5.1 150 07:58 05.05.2020
3569 Haze 29 1009 74 10000 9.3 140 07:39 05.05.2020
3570 Haze 29 1009 74 10000 9.3 140 07:19 05.05.2020
3571 Haze 29 1009 74 10000 9.3 140 06:50 05.05.2020
3572 Haze 29 1009 74 10000 5.1 150 06:29 05.05.2020
3573 Haze 29 1009 74 10000 5.1 150 06:29 05.05.2020
3574 Haze 29 1009 74 10000 5.1 150 06:29 05.05.2020
3575 Haze 29 1009 74 10000 5.1 150 06:29 05.05.2020
3576 Haze 29 1009 74 10000 5.1 150 05:43 05.05.2020
3577 Clouds 28 1011 83 10000 7.7 150 03:39 05.05.2020
3578 Rain 26 1012 88 0 7.25 137 02:18 05.05.2020
3579 Clouds 27 1011 88 10000 7.7 150 00:54 05.05.2020
3580 Clouds 27 1011 88 10000 7.7 150 00:22 05.05.2020
3581 Clouds 26 1011 88 10000 2.6 100 23:46 04.05.2020
3582 Clouds 25 1010 94 10000 5.1 110 23:23 04.05.2020
3583 Clouds 25 1010 94 10000 5.1 110 22:57 04.05.2020
3584 Clouds 25 1009 94 10000 3.6 140 22:38 04.05.2020
3585 Clouds 25 1009 94 10000 3.6 140 22:19 04.05.2020
3586 Clouds 25 1009 94 10000 3.6 140 21:54 04.05.2020
3587 Clouds 25 1009 94 10000 1 0 21:34 04.05.2020
3588 Clouds 25 1009 94 10000 1 0 20:58 04.05.2020
3589 Clouds 25 1009 94 10000 1 0 20:58 04.05.2020
3590 Clouds 25 1009 94 10000 1 0 20:58 04.05.2020
3591 Clouds 25 1009 100 10000 1.5 0 20:38 04.05.2020
3592 Clouds 25 1009 100 10000 1.5 0 20:18 04.05.2020
3593 Clouds 25 1009 100 10000 1.5 0 19:42 04.05.2020
3594 Clouds 25 1010 100 10000 1 0 19:21 04.05.2020
3595 Clouds 25 1010 100 10000 1 0 19:21 04.05.2020
3596 Clouds 25 1010 100 10000 1 0 18:56 04.05.2020
3597 Clouds 25 1010 100 10000 1.5 0 18:38 04.05.2020
3598 Clouds 25 1010 100 10000 1.5 0 18:18 04.05.2020
3599 Clouds 25 1010 100 10000 1.5 0 17:55 04.05.2020
3600 Rain 25 1010 91 0 3.83 119 17:37 04.05.2020
3601 Rain 25 1011 90 0 4.83 124 17:18 04.05.2020
3602 Rain 25 1011 90 0 4.83 124 16:42 04.05.2020
3603 Clouds 26 1011 94 10000 3.1 280 16:21 04.05.2020
3604 Clouds 26 1011 94 10000 3.1 280 15:46 04.05.2020
3605 Clouds 26 1011 94 10000 3.1 280 15:46 04.05.2020
3606 Clouds 26 1012 94 10000 2.1 0 15:25 04.05.2020
3607 Clouds 26 1012 94 10000 2.1 0 14:58 04.05.2020
3608 Clouds 26 1012 94 10000 2.1 0 14:40 04.05.2020
3609 Clouds 26 1012 94 10000 2.1 0 14:40 04.05.2020
3610 Clouds 26 1012 94 10000 2.1 0 14:40 04.05.2020
3611 Clouds 26 1012 94 10000 2.1 0 14:40 04.05.2020
3612 Clouds 26 1012 94 10000 2.1 0 14:40 04.05.2020
3613 Clouds 26 1012 94 10000 1.5 0 14:12 04.05.2020
3614 Clouds 26 1012 94 10000 1.5 0 14:12 04.05.2020
3615 Clouds 26 1012 94 10000 1.5 0 14:12 04.05.2020
3616 Clouds 26 1012 94 10000 1.5 0 14:10 04.05.2020
3617 Rain 25 1012 92 0 5.64 120 12:49 04.05.2020
3618 Rain 25 1012 92 0 5.64 120 12:49 04.05.2020
3619 Rain 25 1012 92 0 5.64 120 12:49 04.05.2020
3620 Rain 25 1012 92 0 5.64 120 12:49 04.05.2020
3621 Rain 25 1012 92 0 5.64 120 12:49 04.05.2020
3622 Clouds 27 1010 88 10000 5.1 140 12:25 04.05.2020
3623 Clouds 27 1010 88 10000 5.1 140 12:25 04.05.2020
3624 Clouds 27 1010 88 10000 5.1 140 12:24 04.05.2020
3625 Clouds 27 1010 88 10000 5.1 140 12:24 04.05.2020
3626 Clouds 29 1008 83 10000 7.7 150 09:59 04.05.2020
3627 Haze 29 1007 83 10000 7.7 150 09:24 04.05.2020
3628 Haze 29 1007 83 10000 7.7 150 09:22 04.05.2020
3629 Haze 29 1007 83 10000 7.7 150 09:17 04.05.2020
3630 Haze 29 1007 83 10000 7.7 150 09:13 04.05.2020
3631 Haze 29 1007 83 10000 7.7 150 09:13 04.05.2020
3632 Clouds 31 1007 74 10000 5.1 160 07:51 04.05.2020
3633 Clouds 31 1007 74 10000 5.1 160 07:51 04.05.2020
3634 Clouds 31 1007 74 10000 5.1 160 07:51 04.05.2020
3635 Clouds 31 1007 74 10000 5.1 160 07:28 04.05.2020
3636 Clouds 31 1007 74 10000 5.1 160 07:28 04.05.2020
3637 Clouds 31 1007 74 10000 5.1 160 07:28 04.05.2020
3638 Clouds 31 1007 74 10000 5.1 160 07:28 04.05.2020
3639 Clouds 31 1007 74 10000 5.1 160 07:28 04.05.2020
3640 Clouds 32 1009 70 10000 5.1 200 04:58 04.05.2020
3641 Haze 31 1011 74 10000 5.1 120 03:22 04.05.2020
3642 Haze 31 1011 74 10000 5.1 120 03:22 04.05.2020
3643 Clouds 30 1011 79 10000 2.6 120 02:31 04.05.2020
3644 Clouds 25 1010 100 10000 1.5 0 00:38 04.05.2020
3645 Clouds 25 1010 100 10000 1.5 0 23:46 03.05.2020
3646 Clouds 24 1009 100 10000 1.5 0 23:25 03.05.2020
3647 Clouds 24 1009 100 10000 1.5 0 22:57 03.05.2020
3648 Clouds 25 1008 100 10000 1.5 0 22:38 03.05.2020
3649 Clouds 25 1008 100 10000 1.5 0 22:38 03.05.2020
3650 Clouds 25 1008 100 10000 1.5 0 22:38 03.05.2020
3651 Clouds 25 1008 100 10000 1.5 0 22:20 03.05.2020
3652 Clouds 25 1008 100 10000 1.5 0 21:41 03.05.2020
3653 Clouds 26 1010 88 0 3.39 121 21:20 03.05.2020
3654 Clouds 26 1010 88 0 3.39 121 20:47 03.05.2020
3655 Clouds 25 1008 100 10000 1.5 0 20:23 03.05.2020
3656 Clouds 25 1008 100 10000 1.5 0 19:55 03.05.2020
3657 Clouds 25 1008 100 10000 1.5 0 19:55 03.05.2020
3658 Clouds 25 1008 100 10000 1.5 0 19:36 03.05.2020
3659 Clouds 25 1008 100 10000 1.5 0 19:18 03.05.2020
3660 Clouds 26 1008 94 10000 2.6 100 18:39 03.05.2020
3661 Clouds 26 1008 94 10000 2.6 100 18:20 03.05.2020
3662 Clouds 26 1008 94 10000 2.6 100 17:42 03.05.2020
3663 Clouds 26 1009 89 0 5.64 119 17:22 03.05.2020
3664 Clouds 26 1009 89 0 5.64 119 16:57 03.05.2020
3665 Clouds 26 1009 89 0 5.64 119 16:57 03.05.2020
3666 Clouds 26 1009 89 0 5.64 119 16:57 03.05.2020
3667 Clouds 26 1009 89 0 5.64 119 16:57 03.05.2020
3668 Clouds 26 1009 89 0 5.64 119 16:57 03.05.2020
3669 Clouds 26 1009 89 0 5.64 119 16:37 03.05.2020
3670 Rain 26 1010 90 0 6.36 119 16:18 03.05.2020
3671 Rain 26 1010 90 0 6.36 119 15:55 03.05.2020
3672 Rain 26 1010 90 0 6.36 119 15:37 03.05.2020
3673 Rain 26 1011 90 0 7.14 122 15:18 03.05.2020
3674 Rain 26 1011 90 0 7.14 122 15:18 03.05.2020
3675 Rain 26 1011 90 0 7.14 122 14:41 03.05.2020
3676 Rain 26 1011 90 0 7.14 122 14:41 03.05.2020
3677 Rain 26 1011 89 0 7.57 132 14:22 03.05.2020
3678 Rain 26 1011 89 0 7.57 132 14:22 03.05.2020
3679 Rain 26 1011 89 0 7.57 132 14:22 03.05.2020
3680 Rain 26 1011 89 0 7.57 132 13:57 03.05.2020
3681 Rain 26 1011 89 0 7.57 132 13:33 03.05.2020
3682 Rain 26 1011 89 0 7.57 132 13:33 03.05.2020
3683 Rain 26 1011 89 0 7.57 132 13:33 03.05.2020
3684 Rain 26 1011 89 0 7.57 132 13:33 03.05.2020
3685 Rain 26 1011 87 0 8.23 136 12:47 03.05.2020
3686 Rain 27 1010 86 0 8.26 136 12:20 03.05.2020
3687 Rain 27 1010 86 0 8.26 136 11:57 03.05.2020
3688 Rain 27 1010 86 0 8.26 136 11:39 03.05.2020
3689 Rain 27 1009 85 0 8.66 139 11:19 03.05.2020
3690 Rain 27 1009 85 0 8.66 139 10:52 03.05.2020
3691 Rain 27 1009 85 0 8.66 139 10:52 03.05.2020
3692 Rain 27 1009 85 0 8.66 139 10:52 03.05.2020
3693 Rain 27 1009 85 0 8.66 139 10:52 03.05.2020
3694 Rain 27 1009 85 0 8.66 139 10:52 03.05.2020
3695 Rain 27 1008 83 0 9.24 144 10:24 03.05.2020
3696 Rain 27 1008 83 0 9.24 144 10:24 03.05.2020
3697 Rain 27 1008 83 0 9.24 144 10:24 03.05.2020
3698 Rain 27 1008 83 0 9.24 144 10:24 03.05.2020
3699 Haze 30 1006 79 10000 10.3 160 09:39 03.05.2020
3700 Haze 30 1006 79 10000 10.3 160 08:57 03.05.2020
3701 Haze 30 1006 79 10000 10.3 160 08:57 03.05.2020
3702 Haze 31 1005 74 10000 10.3 150 08:27 03.05.2020
3703 Haze 31 1005 74 10000 10.3 150 07:40 03.05.2020
3704 Haze 31 1005 74 10000 10.3 150 07:40 03.05.2020
3705 Haze 32 1006 70 10000 5.1 160 06:31 03.05.2020
3706 Haze 32 1006 70 10000 5.1 160 06:31 03.05.2020
3707 Haze 32 1006 70 10000 5.1 160 06:31 03.05.2020
3708 Haze 32 1006 70 10000 5.1 160 05:49 03.05.2020
3709 Haze 33 1008 70 10000 5.1 140 05:28 03.05.2020
3710 Haze 33 1009 70 10000 5.1 140 04:27 03.05.2020
3711 Haze 33 1009 70 10000 5.1 140 04:27 03.05.2020
3712 Haze 31 1010 74 10000 5.1 150 03:29 03.05.2020
3713 Haze 31 1010 74 10000 1.5 0 02:30 03.05.2020
3714 Haze 31 1010 74 10000 1.5 0 01:46 03.05.2020
3715 Clouds 30 1009 79 10000 1.5 0 01:27 03.05.2020
3716 Clouds 30 1009 79 10000 1.5 0 00:56 03.05.2020
3717 Clouds 26 1009 100 10000 1 0 00:38 03.05.2020
3718 Clouds 26 1009 100 10000 1 0 00:19 03.05.2020
3719 Clouds 26 1009 100 10000 1 0 00:19 03.05.2020
3720 Clouds 26 1009 100 10000 1 0 23:43 02.05.2020
3721 Clouds 26 1008 94 10000 1 0 23:25 02.05.2020
3722 Clouds 26 1008 94 10000 1 0 22:44 02.05.2020
3723 Clouds 26 1007 100 10000 1.5 0 22:24 02.05.2020
3724 Clouds 26 1007 100 10000 1.5 0 21:57 02.05.2020
3725 Clouds 26 1007 100 10000 1.5 0 21:39 02.05.2020
3726 Clouds 26 1007 100 10000 1.5 0 21:19 02.05.2020
3727 Clouds 26 1007 100 10000 1.5 0 20:57 02.05.2020
3728 Clouds 26 1007 100 10000 1.5 0 20:37 02.05.2020
3729 Clouds 26 1007 100 10000 1.5 0 20:19 02.05.2020
3730 Clouds 26 1007 100 10000 1.5 0 19:57 02.05.2020
3731 Clouds 26 1008 100 10000 1.5 0 19:38 02.05.2020
3732 Clouds 26 1008 100 10000 1.5 0 19:19 02.05.2020
3733 Clouds 26 1008 100 10000 1.5 0 18:42 02.05.2020
3734 Clouds 26 1008 100 10000 1.5 0 18:23 02.05.2020
3735 Rain 26 1008 89 0 3.23 109 17:58 02.05.2020
3736 Rain 26 1008 89 0 3.23 109 17:39 02.05.2020
3737 Clouds 26 1009 100 10000 1.5 0 17:20 02.05.2020
3738 Clouds 26 1009 100 10000 1.5 0 16:59 02.05.2020
3739 Rain 26 1009 88 0 3.93 115 16:39 02.05.2020
3740 Rain 26 1009 88 0 3.93 115 16:39 02.05.2020
3741 Clouds 27 1009 94 10000 1.5 0 16:21 02.05.2020
3742 Clouds 27 1009 94 10000 1.5 0 15:43 02.05.2020
3743 Clouds 27 1009 94 10000 1.5 0 15:20 02.05.2020
3744 Clouds 27 1009 94 10000 1.5 0 14:57 02.05.2020
3745 Clouds 28 1009 88 10000 1.5 0 14:39 02.05.2020
3746 Clouds 28 1009 88 10000 1.5 0 14:20 02.05.2020
3747 Clouds 28 1009 88 10000 1.5 0 14:20 02.05.2020
3748 Clouds 28 1009 88 10000 1.5 0 13:40 02.05.2020
3749 Clouds 28 1008 88 10000 1.5 0 13:21 02.05.2020
3750 Clouds 28 1008 88 10000 1.5 0 12:43 02.05.2020
3751 Clouds 28 1007 88 10000 1.5 0 12:25 02.05.2020
3752 Clouds 28 1007 88 10000 1.5 0 11:59 02.05.2020
3753 Clouds 28 1007 88 10000 1.5 0 11:40 02.05.2020
3754 Haze 29 1006 83 10000 5.1 150 11:22 02.05.2020
3755 Haze 29 1006 83 10000 5.1 150 10:57 02.05.2020
3756 Haze 31 1005 74 10000 5.1 170 10:38 02.05.2020
3757 Haze 31 1005 74 10000 5.1 170 10:20 02.05.2020
3758 Haze 31 1005 74 10000 5.1 170 10:20 02.05.2020
3759 Haze 31 1005 74 10000 5.1 170 09:55 02.05.2020
3760 Haze 31 1005 74 10000 5.1 180 09:36 02.05.2020
3761 Haze 31 1005 74 10000 5.1 180 09:18 02.05.2020
3762 Haze 31 1005 74 10000 5.1 180 08:45 02.05.2020
3763 Haze 33 1005 70 10000 6.2 230 08:25 02.05.2020
3764 Haze 33 1005 70 10000 6.2 230 07:47 02.05.2020
3765 Clouds 32 1006 66 10000 5.1 270 07:28 02.05.2020
3766 Clouds 32 1006 66 10000 5.1 270 06:50 02.05.2020
3767 Haze 31 1008 74 10000 6.2 280 05:29 02.05.2020
3768 Haze 31 1008 74 10000 6.2 280 04:47 02.05.2020
3769 Clouds 29 1009 83 10000 5.1 230 04:23 02.05.2020
3770 Clouds 30 1010 84 10000 5.1 340 02:44 02.05.2020
3771 Clouds 29 1010 83 10000 5.1 340 02:22 02.05.2020
3772 Clouds 28 1009 88 10000 2.6 340 01:33 02.05.2020
3773 Clouds 28 1009 88 10000 2.6 340 00:46 02.05.2020
3774 Clouds 26 1008 100 10000 2.6 310 00:25 02.05.2020
3775 Clouds 26 1008 100 10000 2.6 310 23:57 01.05.2020
3776 Clouds 26 1008 100 10000 1.5 0 23:38 01.05.2020
3777 Clouds 26 1008 100 10000 1.5 0 23:19 01.05.2020
3778 Clouds 26 1008 100 10000 1.5 0 22:54 01.05.2020
3779 Rain 26 1009 87 0 3.02 356 22:36 01.05.2020
3780 Rain 26 1008 89 0 2.77 360 22:18 01.05.2020
3781 Rain 26 1008 89 0 2.77 360 21:41 01.05.2020
3782 Clouds 25 1007 89 0 1.68 25 21:21 01.05.2020
3783 Clouds 25 1007 89 0 1.68 25 20:58 01.05.2020
3784 Clouds 25 1007 89 0 1.68 25 20:40 01.05.2020
3785 Rain 26 1007 89 0 1.75 48 20:20 01.05.2020
3786 Rain 26 1007 89 0 1.75 48 19:59 01.05.2020
3787 Rain 26 1007 89 0 1.75 48 19:41 01.05.2020
3788 Clouds 26 1007 88 0 1.69 93 19:21 01.05.2020
3789 Clouds 26 1007 88 0 1.69 93 19:21 01.05.2020
3790 Clouds 26 1007 88 0 1.69 93 18:56 01.05.2020
3791 Clouds 26 1007 88 0 1.69 93 18:38 01.05.2020
3792 Clouds 26 1007 88 0 2.54 121 18:19 01.05.2020
3793 Clouds 26 1007 88 0 2.54 121 17:41 01.05.2020
3794 Clouds 27 1008 94 10000 1.5 0 17:22 01.05.2020
3795 Clouds 27 1008 94 10000 1.5 0 16:58 01.05.2020
3796 Clouds 27 1008 94 10000 1.5 0 16:40 01.05.2020
3797 Clouds 27 1008 94 10000 1 0 16:20 01.05.2020
3798 Clouds 27 1008 94 10000 1 0 15:57 01.05.2020
3799 Rain 26 1009 88 0 4.07 127 15:39 01.05.2020
3800 Clouds 27 1008 94 10000 1.5 0 15:19 01.05.2020
3801 Clouds 27 1008 94 10000 1.5 0 14:44 01.05.2020
3802 Clouds 27 1008 88 10000 1.5 0 14:24 01.05.2020
3803 Clouds 27 1008 88 10000 1.5 0 13:56 01.05.2020
3804 Rain 27 1008 94 10000 3.1 120 13:38 01.05.2020
3805 Rain 27 1008 94 10000 3.1 120 13:19 01.05.2020
3806 Rain 27 1008 94 10000 3.1 120 12:54 01.05.2020
3807 Clouds 29 1007 89 10000 6.2 160 12:36 01.05.2020
3808 Clouds 29 1007 89 10000 6.2 160 12:18 01.05.2020
3809 Clouds 29 1007 89 10000 6.2 160 11:41 01.05.2020
3810 Haze 29 1006 83 10000 7.7 160 11:23 01.05.2020
3811 Haze 29 1006 83 10000 7.7 160 10:56 01.05.2020
3812 Rain 27 1008 87 0 6.82 150 10:37 01.05.2020
3813 Rain 27 1007 87 0 6.23 156 10:19 01.05.2020
3814 Rain 27 1007 87 0 6.23 156 10:19 01.05.2020
3815 Rain 27 1007 87 0 6.23 156 09:43 01.05.2020
3816 Rain 28 1006 84 0 5.74 151 09:19 01.05.2020
3817 Rain 28 1006 85 0 5.18 153 08:54 01.05.2020
3818 Haze 32 1004 70 10000 7.7 190 08:36 01.05.2020
3819 Haze 32 1004 70 10000 7.7 190 08:18 01.05.2020
3820 Rain 28 1005 81 0 4.43 160 07:41 01.05.2020
3821 Haze 32 1005 70 10000 7.7 150 07:21 01.05.2020
3822 Haze 32 1005 70 10000 7.7 150 07:21 01.05.2020
3823 Haze 32 1006 70 10000 9.3 150 06:39 01.05.2020
3824 Clouds 29 1007 75 0 3.32 185 05:26 01.05.2020
3825 Clouds 29 1008 74 0 2.8 198 04:19 01.05.2020
3826 Clouds 29 1009 73 0 1.8 217 02:57 01.05.2020
3827 Clouds 29 1009 73 0 1.8 217 02:38 01.05.2020
3828 Clouds 29 1009 74 0 0.41 312 01:54 01.05.2020
3829 Clouds 27 1010 80 0 1.08 0 01:27 01.05.2020
3830 Clouds 27 1010 80 0 1.08 0 00:41 01.05.2020
3831 Clouds 27 1010 80 0 1.08 0 00:41 01.05.2020
3832 Clouds 26 1008 94 10000 1 0 00:22 01.05.2020
3833 Clouds 26 1008 94 10000 1 0 23:57 30.04.2020
3834 Clouds 26 1010 85 0 1.52 19 23:39 30.04.2020
3835 Clouds 24 1007 100 10000 2.6 310 23:21 30.04.2020
3836 Clouds 24 1007 100 10000 2.6 310 22:59 30.04.2020
3837 Clouds 25 1010 88 0 1.82 24 22:39 30.04.2020
3838 Clouds 25 1007 94 10000 2.6 310 22:19 30.04.2020
3839 Clouds 25 1007 94 10000 2.6 310 21:43 30.04.2020
3840 Clouds 26 1007 94 10000 3.6 320 21:23 30.04.2020
3841 Clouds 26 1007 94 10000 3.6 320 20:58 30.04.2020
3842 Clouds 26 1007 94 10000 3.6 320 20:40 30.04.2020
3843 Clouds 26 1007 94 10000 3.6 320 20:18 30.04.2020
3844 Clouds 26 1007 94 10000 3.6 320 19:47 30.04.2020
3845 Clouds 26 1008 94 10000 3.6 320 19:26 30.04.2020
3846 Clouds 26 1008 94 10000 3.6 320 18:59 30.04.2020
3847 Clouds 25 1008 88 0 1.64 37 18:39 30.04.2020
3848 Clouds 25 1008 87 0 1.41 44 18:21 30.04.2020
3849 Clouds 25 1008 87 0 1.41 44 17:58 30.04.2020
3850 Clouds 25 1008 87 0 1.41 44 17:39 30.04.2020
3851 Clouds 26 1009 94 10000 1.5 0 17:20 30.04.2020
3852 Clouds 26 1009 94 10000 1.5 0 16:56 30.04.2020
3853 Clouds 26 1008 100 10000 1.5 0 16:38 30.04.2020
3854 Clouds 26 1008 100 10000 1.5 0 16:18 30.04.2020
3855 Clouds 26 1008 100 10000 1.5 0 15:45 30.04.2020
3856 Clouds 27 1009 94 10000 1.5 0 15:24 30.04.2020
3857 Clouds 27 1009 94 10000 1.5 0 14:54 30.04.2020
3858 Clouds 28 1009 94 10000 2.6 160 14:36 30.04.2020
3859 Clouds 28 1009 94 10000 2.6 160 14:18 30.04.2020
3860 Clouds 28 1009 94 10000 2.6 160 13:54 30.04.2020
3861 Clouds 27 1009 94 10000 2.6 160 13:36 30.04.2020
3862 Clouds 27 1009 94 10000 2.6 160 13:18 30.04.2020
3863 Clouds 27 1009 94 10000 2.6 160 12:41 30.04.2020
3864 Clouds 28 1008 88 10000 4.1 140 12:19 30.04.2020
3865 Clouds 28 1008 88 10000 4.1 140 11:54 30.04.2020
3866 Haze 28 1007 88 10000 5.1 130 11:36 30.04.2020
3867 Haze 28 1007 88 10000 5.1 130 11:18 30.04.2020
3868 Haze 28 1007 88 10000 5.1 130 10:40 30.04.2020
3869 Haze 30 1006 84 10000 5.1 170 10:21 30.04.2020
3870 Haze 30 1006 84 10000 5.1 170 09:57 30.04.2020
3871 Haze 30 1006 79 10000 7.7 200 09:38 30.04.2020
3872 Haze 30 1006 79 10000 7.7 200 09:20 30.04.2020
3873 Haze 30 1006 79 10000 7.7 200 08:46 30.04.2020
3874 Haze 31 1006 74 10000 6.7 180 08:26 30.04.2020
3875 Haze 31 1006 74 10000 6.7 180 07:44 30.04.2020
3876 Haze 32 1006 70 10000 6.7 200 07:26 30.04.2020
3877 Haze 32 1006 70 10000 6.7 200 06:54 30.04.2020
3878 Haze 32 1007 75 10000 6.2 230 06:26 30.04.2020
3879 Haze 32 1007 75 10000 6.2 230 05:46 30.04.2020
3880 Clouds 29 1007 73 0 3 239 04:43 30.04.2020
3881 Clouds 29 1008 71 0 2.63 246 04:19 30.04.2020
3882 Clouds 29 1010 70 0 1.61 272 02:48 30.04.2020
3883 Clouds 28 1011 73 0 1.68 304 02:26 30.04.2020
3884 Clouds 28 1011 73 0 1.96 320 01:36 30.04.2020
3885 Clouds 27 1011 80 0 2.09 327 00:42 30.04.2020
3886 Clouds 26 1010 84 0 1.81 340 00:20 30.04.2020
3887 Clouds 26 1010 84 0 1.81 340 23:57 29.04.2020
3888 Clouds 25 1008 94 10000 1.5 0 23:37 29.04.2020
3889 Clouds 25 1008 94 10000 1.5 0 23:19 29.04.2020
3890 Clouds 25 1008 94 10000 1.5 0 22:41 29.04.2020
3891 Clouds 25 1008 94 10000 1.5 0 22:22 29.04.2020
3892 Clouds 25 1008 100 10000 1.5 0 21:59 29.04.2020
3893 Clouds 25 1009 87 0 0.93 48 21:37 29.04.2020
3894 Clouds 25 1009 87 0 0.43 3 21:19 29.04.2020
3895 Clouds 25 1007 100 10000 0.5 340 20:55 29.04.2020
3896 Clouds 25 1009 87 0 0.43 3 20:36 29.04.2020
3897 Clouds 25 1008 88 0 0.74 337 20:18 29.04.2020
3898 Clouds 25 1008 88 0 0.74 337 20:18 29.04.2020
3899 Clear 25 1007 100 10000 1 0 19:42 29.04.2020
3900 Clear 25 1007 100 10000 1 30 19:20 29.04.2020
3901 Clear 25 1007 100 10000 1 30 18:43 29.04.2020
3902 Clear 25 1007 100 10000 1.5 10 18:25 29.04.2020
3903 Clear 25 1007 100 10000 1.5 10 17:59 29.04.2020
3904 Clear 25 1007 100 10000 1.5 10 17:41 29.04.2020
3905 Clear 25 1007 100 10000 1.5 10 17:21 29.04.2020
3906 Clouds 25 1009 88 0 3.32 332 16:39 29.04.2020
3907 Clouds 26 1009 88 0 2.6 4 16:20 29.04.2020
3908 Clouds 26 1009 88 0 2.6 4 15:58 29.04.2020
3909 Clouds 26 1009 88 0 2.6 4 15:39 29.04.2020
3910 Clouds 26 1008 100 10000 1.5 0 15:21 29.04.2020
3911 Rain 26 1010 89 0 2.63 61 14:57 29.04.2020
3912 Clouds 27 1008 94 10000 1.5 0 14:39 29.04.2020
3913 Clouds 27 1008 94 10000 1.5 0 14:20 29.04.2020
3914 Clouds 27 1008 94 10000 1.5 0 13:42 29.04.2020
3915 Clouds 28 1008 88 10000 1.5 0 13:21 29.04.2020
3916 Clouds 28 1008 88 10000 1.5 0 12:59 29.04.2020
3917 Clouds 28 1008 88 10000 1.5 0 12:40 29.04.2020
3918 Clouds 28 1007 94 10000 1.5 0 12:19 29.04.2020
3919 Clouds 28 1007 94 10000 1.5 0 11:58 29.04.2020
3920 Rain 27 1009 87 0 5.96 141 11:36 29.04.2020
3921 Rain 27 1008 87 0 6.15 153 11:18 29.04.2020
3922 Rain 27 1008 87 0 6.15 153 10:37 29.04.2020
3923 Rain 27 1007 87 0 5.94 157 10:19 29.04.2020
3924 Rain 27 1007 87 0 5.94 157 09:42 29.04.2020
3925 Rain 28 1006 84 0 5.48 151 09:24 29.04.2020
3926 Rain 28 1006 84 0 5.48 151 08:59 29.04.2020
3927 Rain 28 1006 84 0 5.48 151 08:59 29.04.2020
3928 Rain 28 1006 84 0 5.48 151 08:41 29.04.2020
3929 Rain 28 1006 81 0 4.81 152 08:23 29.04.2020
3930 Rain 28 1006 81 0 4.81 152 07:47 29.04.2020
3931 Rain 29 1006 78 0 4.38 156 07:24 29.04.2020
3932 Rain 29 1006 78 0 4.38 156 06:51 29.04.2020
3933 Rain 29 1006 78 0 4.38 156 06:31 29.04.2020
3934 Clouds 31 1007 79 10000 5.1 100 05:22 29.04.2020
3935 Clouds 31 1007 79 10000 5.1 100 04:45 29.04.2020
3936 Clouds 30 1008 79 10000 2.6 70 04:18 29.04.2020
3937 Clouds 30 1008 79 10000 5.1 310 02:49 29.04.2020
3938 Clouds 29 1008 83 10000 5.1 310 01:44 29.04.2020
3939 Clouds 28 1010 78 0 0.99 98 01:26 29.04.2020
3940 Clouds 28 1010 78 0 0.99 98 00:50 29.04.2020
3941 Clouds 27 1008 88 10000 2.1 0 00:20 29.04.2020
3942 Clouds 27 1008 88 10000 2.1 0 23:51 28.04.2020
3943 Clouds 25 1007 100 10000 1.5 0 23:24 28.04.2020
3944 Clouds 25 1007 100 10000 1.5 0 22:58 28.04.2020
3945 Clouds 26 1006 94 10000 2.1 0 22:37 28.04.2020
3946 Clouds 26 1006 94 10000 2.1 0 22:37 28.04.2020
3947 Clouds 26 1006 94 10000 2.1 0 22:18 28.04.2020
3948 Clouds 26 1006 94 10000 2.1 0 21:57 28.04.2020
3949 Clouds 26 1006 94 10000 2.1 0 21:38 28.04.2020
3950 Clouds 26 1006 94 10000 2.1 0 21:20 28.04.2020
3951 Clouds 26 1006 94 10000 2.1 0 20:55 28.04.2020
3952 Clouds 26 1006 94 10000 2.1 0 20:37 28.04.2020
3953 Clouds 26 1006 94 10000 2.1 0 20:19 28.04.2020
3954 Clouds 26 1006 94 10000 2.1 0 19:43 28.04.2020
3955 Clouds 25 1006 100 10000 1.5 0 19:22 28.04.2020
3956 Clouds 25 1006 100 10000 1.5 0 18:59 28.04.2020
3957 Clouds 25 1006 100 10000 1.5 0 18:59 28.04.2020
3958 Clouds 25 1006 100 10000 1.5 0 18:40 28.04.2020
3959 Clouds 26 1007 94 10000 2.6 120 18:19 28.04.2020
3960 Clouds 26 1007 94 10000 2.6 120 18:19 28.04.2020
3961 -273 0 0 0 0 0 18:19 28.04.2020
3962 Clouds 26 1007 94 10000 2.6 120 17:58 28.04.2020
3963 Clouds 25 1008 88 0 2.61 114 17:36 28.04.2020
3964 Clouds 26 1008 88 0 3.31 117 17:18 28.04.2020
3965 Clouds 26 1008 88 0 3.31 117 17:18 28.04.2020
3966 Clouds 26 1008 88 0 3.31 117 16:43 28.04.2020
3967 Clouds 26 1009 88 0 4.01 122 16:23 28.04.2020
3968 Clouds 26 1009 88 0 4.01 122 15:58 28.04.2020
3969 Clouds 26 1009 88 0 4.01 122 15:39 28.04.2020
3970 Clouds 26 1009 88 0 5.08 126 15:21 28.04.2020
3971 Clouds 26 1009 88 0 5.08 126 14:58 28.04.2020
3972 Clouds 26 1009 88 0 5.08 126 14:40 28.04.2020
3973 Clouds 26 1009 88 0 5.61 128 14:21 28.04.2020
3974 Clouds 26 1009 88 0 5.61 128 13:58 28.04.2020
3975 Clouds 26 1009 88 0 5.61 128 13:38 28.04.2020
3976 Clouds 26 1009 87 0 6.06 131 13:19 28.04.2020
3977 Clouds 26 1009 87 0 6.06 131 12:44 28.04.2020
3978 Rain 27 1008 87 0 7.06 135 12:24 28.04.2020
3979 Rain 27 1008 87 0 7.06 135 11:45 28.04.2020
3980 Haze 28 1006 88 10000 5.1 150 11:26 28.04.2020
3981 Haze 28 1006 88 10000 5.1 150 10:59 28.04.2020
3982 Rain 27 1007 87 0 7.48 144 10:39 28.04.2020
3983 Rain 27 1007 87 0 7.48 144 10:39 28.04.2020
3984 Rain 27 1007 86 0 7.38 150 10:19 28.04.2020
3985 Rain 27 1007 86 0 7.38 150 09:57 28.04.2020
3986 Haze 31 1005 79 10000 9.8 170 09:39 28.04.2020
3987 Haze 31 1005 79 10000 9.8 170 09:20 28.04.2020
3988 Haze 31 1005 79 10000 9.8 170 08:45 28.04.2020
3989 Rain 28 1006 82 0 6.36 153 08:26 28.04.2020
3990 Rain 28 1006 82 0 6.36 153 07:45 28.04.2020
3991 Haze 31 1006 74 10000 7.7 140 07:20 28.04.2020
3992 Haze 31 1006 74 10000 7.7 140 06:50 28.04.2020
3993 Haze 32 1007 70 10000 5.7 190 06:22 28.04.2020
3994 Haze 32 1007 70 10000 5.7 190 05:41 28.04.2020
3995 Rain 29 1007 72 0 3.33 168 04:56 28.04.2020
3996 Haze 29 1009 79 10000 5.1 130 02:59 28.04.2020
3997 Clouds 29 1010 75 0 1.07 167 02:28 28.04.2020
3998 Haze 28 1009 88 10000 1.5 0 01:23 28.04.2020
3999 Haze 28 1009 88 10000 1.5 0 00:55 28.04.2020
4000 Haze 28 1009 88 10000 1.5 0 00:22 28.04.2020
4001 Haze 27 1009 94 10000 1.5 0 23:45 27.04.2020
4002 Fog 25 1008 100 10000 1.5 0 23:23 27.04.2020
4003 Fog 25 1008 100 10000 1.5 0 23:23 27.04.2020
4004 Fog 25 1008 100 10000 1.5 0 22:55 27.04.2020
4005 Fog 25 1008 100 10000 1.5 0 22:37 27.04.2020
4006 Fog 25 1008 100 10000 1.5 0 22:18 27.04.2020
4007 Fog 25 1008 100 10000 1.5 0 21:55 27.04.2020
4008 Fog 25 1008 100 10000 2.1 0 21:37 27.04.2020
4009 Fog 25 1008 100 10000 2.1 0 21:18 27.04.2020
4010 Fog 25 1008 100 10000 2.1 0 20:43 27.04.2020
4011 Clouds 26 1008 100 10000 1 0 20:22 27.04.2020
4012 Clouds 26 1008 100 10000 1 0 19:58 27.04.2020
4013 Clouds 25 1008 100 10000 1.5 0 19:38 27.04.2020
4014 Clouds 25 1008 100 10000 1.5 0 19:19 27.04.2020
4015 Clouds 25 1008 100 10000 1.5 0 18:56 27.04.2020
4016 Clouds 26 1009 94 10000 2.6 0 18:37 27.04.2020
4017 Clouds 26 1009 94 10000 2.6 0 18:18 27.04.2020
4018 Clouds 26 1009 94 10000 2.6 0 17:43 27.04.2020
4019 Clouds 26 1009 94 10000 2.6 0 17:43 27.04.2020
4020 Rain 26 1009 94 10000 2.6 0 17:21 27.04.2020
4021 Rain 26 1009 94 10000 2.6 0 16:56 27.04.2020
4022 Rain 26 1009 94 10000 1.5 0 16:38 27.04.2020
4023 Rain 26 1009 94 10000 1.5 0 16:20 27.04.2020
4024 Rain 26 1009 94 10000 1.5 0 15:56 27.04.2020
4025 Rain 26 1009 94 10000 1.5 0 15:37 27.04.2020
4026 Rain 26 1009 94 10000 1.5 0 15:18 27.04.2020
4027 Rain 26 1009 94 10000 1.5 0 14:41 27.04.2020
4028 Clouds 26 1009 94 10000 1.5 0 14:20 27.04.2020
4029 Clouds 26 1009 94 10000 1.5 0 13:57 27.04.2020
4030 Clouds 27 1008 94 10000 5.1 100 13:39 27.04.2020
4031 Clouds 27 1008 94 10000 5.1 100 13:39 27.04.2020
4032 Clouds 27 1008 94 10000 5.1 100 13:19 27.04.2020
4033 Clouds 27 1008 94 10000 5.1 100 12:43 27.04.2020
4034 Clouds 27 1008 94 10000 5.1 150 12:23 27.04.2020
4035 Clouds 27 1008 94 10000 5.1 150 11:57 27.04.2020
4036 Clouds 30 1007 79 10000 5.1 150 11:38 27.04.2020
4037 Clouds 30 1007 79 10000 5.1 150 11:19 27.04.2020
4038 Clouds 30 1007 79 10000 5.1 150 10:42 27.04.2020
4039 Rain 27 1008 84 0 5.8 141 10:24 27.04.2020
4040 Clouds 30 1006 79 10000 5.1 200 09:58 27.04.2020
4041 Clouds 30 1006 79 10000 5.1 200 09:40 27.04.2020
4042 Clouds 30 1005 79 10000 5.1 190 09:18 27.04.2020
4043 Clouds 30 1005 79 10000 5.1 190 08:52 27.04.2020
4044 Clouds 30 1005 79 10000 5.1 190 08:32 27.04.2020
4045 Haze 30 1005 79 10000 6.2 200 07:45 27.04.2020
4046 Rain 28 1007 79 0 3.93 151 07:27 27.04.2020
4047 Rain 28 1007 79 0 3.93 151 06:58 27.04.2020
4048 Rain 28 1007 79 0 3.93 151 06:30 27.04.2020
4049 Haze 31 1007 74 10000 7.7 200 05:57 27.04.2020
4050 Haze 31 1007 74 10000 7.7 200 05:19 27.04.2020
4051 Clouds 32 1007 70 10000 5.1 200 04:39 27.04.2020
4052 Clouds 32 1007 70 10000 5.1 200 04:39 27.04.2020
4053 Clouds 31 1009 70 10000 3.6 320 03:45 27.04.2020
4054 Clouds 31 1009 70 10000 3.6 320 03:45 27.04.2020
4055 Clouds 29 1009 83 10000 3.6 340 02:30 27.04.2020
4056 Clouds 26 1009 100 10000 2.1 0 01:20 27.04.2020
4057 Clouds 26 1009 100 10000 2.1 0 00:40 27.04.2020
4058 Fog 26 1009 100 10000 1.5 0 00:18 27.04.2020
4059 Fog 25 1008 100 0 1.5 0 23:41 26.04.2020
4060 Fog 25 1008 100 0 1.5 0 23:22 26.04.2020
4061 Clouds 25 1008 100 10000 2.1 0 22:59 26.04.2020
4062 Clouds 25 1008 100 10000 2.1 0 22:40 26.04.2020
4063 Clouds 25 1007 100 10000 1.5 0 22:21 26.04.2020
4064 Clouds 25 1007 100 10000 1.5 0 21:58 26.04.2020
4065 Clouds 26 1009 84 0 1.31 53 21:39 26.04.2020
4066 Clouds 25 1008 100 10000 1.5 0 21:19 26.04.2020
4067 Clouds 25 1008 100 10000 1.5 0 21:19 26.04.2020
4068 Clouds 25 1008 100 10000 1.5 0 21:19 26.04.2020
4069 Clouds 25 1008 100 10000 1.5 0 20:55 26.04.2020
4070 Rain 26 1008 86 0 2.35 107 20:37 26.04.2020
4071 Rain 26 1008 86 0 2.35 107 20:37 26.04.2020
4072 Rain 26 1008 86 0 2.35 107 20:19 26.04.2020
4073 Rain 26 1008 86 0 2.35 107 19:57 26.04.2020
4074 Clouds 26 1008 94 10000 1.5 0 19:36 26.04.2020
4075 Clouds 26 1008 94 10000 1.5 0 19:18 26.04.2020
4076 Clouds 26 1008 94 10000 1.5 0 18:43 26.04.2020
4077 Clouds 26 1008 94 10000 2.6 130 18:24 26.04.2020
4078 Clouds 26 1008 94 10000 2.6 130 17:43 26.04.2020
4079 Clouds 27 1009 94 10000 1 0 17:23 26.04.2020
4080 Clouds 27 1009 94 10000 1 0 16:57 26.04.2020
4081 Clouds 27 1009 94 10000 2.1 150 16:38 26.04.2020
4082 Clouds 27 1009 94 10000 2.1 150 16:19 26.04.2020
4083 Clouds 27 1009 94 10000 2.1 150 15:57 26.04.2020
4084 Clouds 27 1009 94 10000 2.6 150 15:37 26.04.2020
4085 Clouds 27 1009 94 10000 2.6 150 15:18 26.04.2020
4086 Clouds 27 1009 94 10000 2.6 150 14:41 26.04.2020
4087 Clouds 27 1009 94 10000 2.6 150 14:19 26.04.2020
4088 Clouds 27 1009 94 10000 2.6 140 13:59 26.04.2020
4089 Clouds 27 1009 94 10000 2.6 140 13:40 26.04.2020
4090 Clouds 27 1009 94 10000 2.6 140 13:22 26.04.2020
4091 Clouds 28 1008 88 10000 4.1 170 12:56 26.04.2020
4092 Rain 26 1010 85 0 5.24 132 12:37 26.04.2020
4093 Rain 27 1008 84 0 4.7 144 12:19 26.04.2020
4094 Clouds 28 1007 88 10000 1.5 160 11:54 26.04.2020
4095 Clouds 28 1007 88 10000 1.5 160 11:36 26.04.2020
4096 Clouds 28 1007 88 10000 1.5 160 11:18 26.04.2020
4097 Clouds 28 1007 88 10000 5.1 160 10:42 26.04.2020
4098 Clouds 29 1006 83 10000 7.7 170 10:24 26.04.2020
4099 Clouds 29 1006 83 10000 7.7 170 09:58 26.04.2020
4100 Haze 29 1005 83 10000 5.7 180 09:38 26.04.2020
4101 Haze 29 1005 83 10000 5.7 180 09:19 26.04.2020
4102 Haze 29 1005 83 10000 5.7 180 08:41 26.04.2020
4103 Haze 29 1005 79 10000 5.1 190 08:22 26.04.2020
4104 Haze 29 1005 79 10000 5.1 190 07:49 26.04.2020
4105 Haze 30 1006 79 10000 5.1 210 07:24 26.04.2020
4106 Haze 30 1006 79 10000 5.1 210 06:50 26.04.2020
4107 Haze 31 1006 74 10000 5.1 220 06:25 26.04.2020
4108 Haze 31 1006 74 10000 5.1 220 05:51 26.04.2020
4109 Haze 32 1007 70 10000 5.1 320 05:32 26.04.2020
4110 Rain 29 1007 72 0 2.9 178 04:39 26.04.2020
4111 Rain 29 1007 72 0 2.9 178 03:40 26.04.2020
4112 Clouds 28 1010 88 10000 2.6 350 02:37 26.04.2020
4113 Clouds 28 1010 88 10000 2.6 350 02:19 26.04.2020
4114 Clouds 27 1010 88 10000 2.6 350 01:36 26.04.2020
4115 Clouds 27 1010 88 10000 2.6 350 00:41 26.04.2020
4116 Clouds 26 1009 94 10000 2.6 320 00:21 26.04.2020
4117 Clouds 26 1009 94 10000 2.6 320 00:21 26.04.2020
4118 Clouds 26 1009 94 10000 2.6 320 23:56 25.04.2020
4119 Clouds 25 1009 100 10000 3.1 340 23:37 25.04.2020
4120 Clouds 25 1009 100 10000 3.1 340 23:18 25.04.2020
4121 Clouds 25 1009 100 10000 3.1 340 22:42 25.04.2020
4122 Fog 25 1008 100 10000 4.1 330 22:20 25.04.2020
4123 Fog 25 1008 100 10000 4.1 330 21:58 25.04.2020
4124 Clouds 25 1008 100 10000 2.6 330 21:39 25.04.2020
4125 Clouds 25 1008 100 10000 2.6 330 21:19 25.04.2020
4126 Clouds 25 1008 100 10000 2.6 330 20:43 25.04.2020
4127 Clouds 26 1009 84 0 4.31 123 20:23 25.04.2020
4128 Clouds 26 1009 84 0 4.31 123 19:59 25.04.2020
4129 Clouds 26 1008 88 10000 5.1 130 19:39 25.04.2020
4130 Clouds 26 1008 88 10000 5.1 130 19:21 25.04.2020
4131 Clouds 26 1008 88 10000 5.1 130 18:56 25.04.2020
4132 Clouds 26 1009 88 10000 5.1 130 18:37 25.04.2020
4133 Clouds 26 1009 88 10000 5.1 130 18:18 25.04.2020
4134 Clouds 26 1009 88 10000 5.1 130 17:42 25.04.2020
4135 Clouds 26 1009 88 10000 2.1 170 17:22 25.04.2020
4136 Clouds 26 1009 88 10000 2.1 170 17:00 25.04.2020
4137 Clouds 26 1009 88 10000 2.1 170 16:41 25.04.2020
4138 Clouds 27 1009 88 10000 5.1 150 16:23 25.04.2020
4139 Clouds 27 1009 88 10000 5.1 150 15:58 25.04.2020
4140 Clouds 27 1009 88 10000 5.1 150 15:38 25.04.2020
4141 Clouds 27 1009 88 10000 5.1 150 15:19 25.04.2020
4142 Clouds 27 1009 88 10000 5.1 150 14:56 25.04.2020
4143 Clouds 28 1009 83 10000 7.7 160 14:37 25.04.2020
4144 Clouds 28 1009 83 10000 7.7 160 14:18 25.04.2020
4145 Clouds 28 1009 83 10000 7.7 160 13:41 25.04.2020
4146 Clouds 28 1009 83 10000 7.7 160 13:19 25.04.2020
4147 Clouds 28 1009 83 10000 7.7 160 12:55 25.04.2020
4148 Clouds 28 1008 83 10000 7.7 150 12:37 25.04.2020
4149 Clouds 28 1008 83 10000 7.7 150 12:18 25.04.2020
4150 Clouds 28 1008 83 10000 7.7 150 12:18 25.04.2020
4151 Clouds 28 1008 83 10000 7.7 150 11:42 25.04.2020
4152 Haze 29 1007 79 10000 7.7 150 11:24 25.04.2020
4153 Haze 29 1007 79 10000 7.7 150 10:57 25.04.2020
4154 Haze 30 1007 74 10000 7.7 150 10:38 25.04.2020
4155 Haze 30 1007 74 10000 7.7 150 10:19 25.04.2020
4156 Haze 30 1007 74 10000 7.7 150 09:43 25.04.2020
4157 Haze 30 1007 74 10000 7.7 150 09:22 25.04.2020
4158 Haze 30 1006 74 10000 7.7 150 08:55 25.04.2020
4159 Haze 31 1006 74 10000 7.7 160 08:36 25.04.2020
4160 Haze 31 1006 74 10000 7.7 160 08:18 25.04.2020
4161 Haze 31 1006 74 10000 7.7 160 07:42 25.04.2020
4162 Haze 32 1006 70 10000 7.7 160 07:19 25.04.2020
4163 Haze 32 1006 70 10000 7.7 160 06:42 25.04.2020
4164 Haze 32 1007 66 10000 7.7 150 05:44 25.04.2020
4165 Clouds 31 1008 70 10000 5.1 160 05:26 25.04.2020
4166 Clouds 32 1009 62 10000 9.3 150 04:20 25.04.2020
4167 Clouds 29 1010 79 10000 6.2 160 02:38 25.04.2020
4168 Clouds 29 1010 79 10000 6.2 160 01:56 25.04.2020
4169 Clouds 28 1009 83 10000 6.2 150 01:38 25.04.2020
4170 Clouds 28 1009 83 10000 6.2 150 01:19 25.04.2020
4171 Clouds 28 1011 71 0 5.37 143 00:39 25.04.2020
4172 Clouds 25 1010 83 0 5.38 124 00:18 25.04.2020
4173 Clouds 25 1010 83 0 5.38 124 23:40 24.04.2020
4174 Clouds 25 1010 83 0 5.38 124 23:20 24.04.2020
4175 Clouds 25 1010 83 0 5.38 124 22:41 24.04.2020
4176 Clouds 25 1008 88 10000 1.5 0 22:20 24.04.2020
4177 Clouds 25 1008 88 10000 1.5 0 21:58 24.04.2020
4178 Clouds 25 1008 88 10000 1.5 0 21:40 24.04.2020
4179 Clouds 25 1009 84 0 5.01 124 21:22 24.04.2020
4180 Clouds 25 1009 84 0 5.01 124 20:56 24.04.2020
4181 Clouds 25 1009 84 0 5.01 124 20:38 24.04.2020
4182 Clouds 25 1009 84 0 5.01 124 20:18 24.04.2020
4183 Clouds 25 1009 84 0 5.01 124 19:43 24.04.2020
4184 Clouds 25 1009 84 0 5.01 124 19:25 24.04.2020
4185 Clouds 25 1009 84 0 5.01 124 18:46 24.04.2020
4186 Clouds 26 1009 83 0 6.24 126 18:28 24.04.2020
4187 Clouds 26 1009 83 0 6.24 126 17:59 24.04.2020
4188 Clouds 26 1009 83 0 6.24 126 17:41 24.04.2020
4189 Clouds 27 1010 78 10000 3.6 130 17:22 24.04.2020
4190 Clouds 27 1010 78 10000 3.6 130 16:58 24.04.2020
4191 Clouds 27 1010 78 10000 3.6 130 16:58 24.04.2020
4192 Clouds 26 1009 83 0 6.24 126 16:40 24.04.2020
4193 Clouds 26 1009 83 0 6.24 126 16:40 24.04.2020
4194 Clouds 27 1010 83 10000 3.1 130 16:21 24.04.2020
4195 Clouds 27 1010 83 10000 3.1 130 15:55 24.04.2020
4196 Clouds 27 1010 83 10000 4.1 140 15:37 24.04.2020
4197 Clouds 27 1010 83 10000 4.1 140 15:37 24.04.2020
4198 Clouds 27 1010 83 10000 4.1 140 15:18 24.04.2020
4199 Clouds 27 1010 83 10000 4.1 140 14:40 24.04.2020
4200 Clouds 28 1010 78 10000 4.6 140 14:20 24.04.2020
4201 Clouds 28 1010 78 10000 4.6 140 13:42 24.04.2020
4202 Clouds 28 1009 78 10000 5.1 140 13:22 24.04.2020
4203 Clouds 28 1009 78 10000 5.1 140 12:59 24.04.2020
4204 Clouds 28 1009 78 10000 5.1 140 12:41 24.04.2020
4205 Clouds 28 1008 78 10000 7.7 150 12:20 24.04.2020
4206 Clouds 28 1008 78 10000 7.7 150 11:56 24.04.2020
4207 Haze 28 1008 83 10000 10.3 150 11:37 24.04.2020
4208 Haze 28 1008 83 10000 10.3 150 11:18 24.04.2020
4209 Haze 28 1007 83 10000 10.3 150 10:38 24.04.2020
4210 Haze 28 1007 83 10000 10.3 150 10:20 24.04.2020
4211 Haze 28 1007 83 10000 10.3 150 09:57 24.04.2020
4212 Haze 29 1007 74 10000 10.3 150 09:39 24.04.2020
4213 Haze 29 1007 74 10000 10.3 150 09:20 24.04.2020
4214 Haze 29 1007 74 10000 10.3 150 08:43 24.04.2020
4215 Haze 30 1007 70 10000 9.3 150 08:21 24.04.2020
4216 Haze 30 1007 70 10000 9.3 150 07:58 24.04.2020
4217 Haze 30 1007 70 10000 9.3 150 07:40 24.04.2020
4218 Haze 32 1008 66 10000 9.3 160 07:21 24.04.2020
4219 Haze 32 1008 66 10000 9.3 160 06:44 24.04.2020
4220 Clouds 32 1008 66 10000 8.2 150 05:51 24.04.2020
4221 Haze 30 1009 74 10000 6.2 160 05:23 24.04.2020
4222 Clouds 29 1011 74 10000 5.1 150 03:39 24.04.2020
4223 Clouds 29 1011 74 10000 5.1 150 02:50 24.04.2020
4224 Clouds 29 1011 79 10000 5.1 150 02:30 24.04.2020
4225 Clouds 29 1011 79 10000 5.1 150 01:46 24.04.2020
4226 Clouds 26 1012 94 10000 1.5 0 00:50 24.04.2020
4227 Clouds 25 1011 100 10000 1.5 310 00:19 24.04.2020
4228 Clouds 25 1011 100 10000 1.5 310 23:46 23.04.2020
4229 Clouds 24 1010 100 10000 1.5 330 23:27 23.04.2020
4230 Clouds 24 1010 100 10000 1.5 330 22:57 23.04.2020
4231 Clouds 25 1009 94 10000 2.6 320 22:39 23.04.2020
4232 Clouds 25 1009 94 10000 2.6 320 22:20 23.04.2020
4233 Clouds 25 1009 94 10000 2.6 320 21:57 23.04.2020
4234 Clouds 25 1009 100 10000 2.6 330 21:39 23.04.2020
4235 Clouds 25 1009 100 10000 2.6 330 21:20 23.04.2020
4236 Clouds 25 1009 100 10000 2.6 330 20:56 23.04.2020
4237 Clouds 25 1009 100 10000 2.6 330 20:38 23.04.2020
4238 Clouds 25 1009 100 10000 2.6 330 20:18 23.04.2020
4239 Clouds 25 1009 100 10000 2.6 330 19:55 23.04.2020
4240 Clouds 25 1009 94 10000 2.6 310 19:37 23.04.2020
4241 Clouds 25 1009 94 10000 2.6 310 19:19 23.04.2020
4242 Clouds 25 1009 94 10000 2.6 310 18:40 23.04.2020
4243 Clouds 25 1010 100 10000 2.6 320 18:22 23.04.2020
4244 Clouds 25 1010 100 10000 2.6 320 17:57 23.04.2020
4245 Clouds 25 1010 100 10000 4.1 330 17:39 23.04.2020
4246 Clouds 25 1010 100 10000 4.1 330 17:20 23.04.2020
4247 Clouds 25 1010 100 10000 4.1 330 16:44 23.04.2020
4248 Clouds 25 1010 100 10000 4.1 330 16:44 23.04.2020
4249 Clouds 26 1011 94 10000 2.6 330 16:21 23.04.2020
4250 Clouds 26 1011 94 10000 2.6 330 15:59 23.04.2020
4251 Clouds 26 1011 94 10000 2.6 330 15:40 23.04.2020
4252 Clouds 27 1011 83 10000 1.5 0 15:21 23.04.2020
4253 Clouds 27 1011 83 10000 1.5 0 14:41 23.04.2020
4254 Rain 26 1012 79 0 6.6 125 14:22 23.04.2020
4255 Rain 26 1012 79 0 6.6 125 13:59 23.04.2020
4256 Rain 26 1012 79 0 6.6 125 13:40 23.04.2020
4257 Clouds 27 1010 94 10000 1.5 0 13:22 23.04.2020
4258 Clouds 27 1010 94 10000 1.5 0 12:57 23.04.2020
4259 Clouds 28 1010 88 10000 2.6 100 12:38 23.04.2020
4260 Clouds 28 1010 88 10000 2.6 100 12:20 23.04.2020
4261 Clouds 28 1010 88 10000 2.6 100 11:47 23.04.2020
4262 Rain 27 1010 79 0 7.69 136 11:27 23.04.2020
4263 Rain 27 1010 79 0 7.69 136 10:58 23.04.2020
4264 Rain 27 1010 79 0 7.69 136 10:39 23.04.2020
4265 Rain 27 1010 79 0 7.69 136 10:20 23.04.2020
4266 Rain 27 1010 79 0 7.69 136 09:40 23.04.2020
4267 Rain 28 1008 79 0 7.55 145 09:18 23.04.2020
4268 Rain 28 1008 79 0 7.55 145 09:18 23.04.2020
4269 Rain 28 1008 79 0 7.55 145 08:48 23.04.2020
4270 Smoke 32 1006 66 10000 9.8 160 08:29 23.04.2020
4271 Smoke 32 1006 66 10000 9.8 160 07:56 23.04.2020
4272 Smoke 32 1007 62 10000 8.2 160 07:38 23.04.2020
4273 Smoke 32 1007 62 10000 8.2 160 07:18 23.04.2020
4274 Smoke 32 1007 62 10000 8.2 160 06:42 23.04.2020
4275 Smoke 31 1009 62 10000 7.7 150 05:37 23.04.2020
4276 Smoke 31 1009 62 10000 7.7 150 05:18 23.04.2020
4277 Clouds 31 1011 70 10000 5.1 150 02:48 23.04.2020
4278 Clouds 30 1011 74 10000 1.5 0 02:22 23.04.2020
4279 Clouds 27 1011 88 10000 2.6 150 01:38 23.04.2020
4280 Clouds 27 1011 88 10000 2.6 150 00:50 23.04.2020
4281 Clouds 26 1010 88 10000 2.6 130 00:26 23.04.2020
4282 Clouds 26 1010 88 10000 2.6 130 23:53 22.04.2020
4283 Clouds 25 1009 94 10000 1.5 120 23:26 22.04.2020
4284 Clouds 25 1009 94 10000 1.5 120 22:59 22.04.2020
4285 Clouds 25 1009 94 10000 1.5 150 22:39 22.04.2020
4286 Clouds 25 1009 94 10000 1.5 150 22:39 22.04.2020
4287 Clouds 25 1009 94 10000 1.5 150 22:19 22.04.2020
4288 Clouds 25 1009 94 10000 1.5 150 21:57 22.04.2020
4289 Clouds 26 1009 88 10000 3.1 140 21:39 22.04.2020
4290 Clouds 26 1009 88 10000 3.1 140 21:20 22.04.2020
4291 Clouds 26 1009 88 10000 3.1 140 21:20 22.04.2020
4292 Clouds 26 1009 88 10000 3.1 140 20:55 22.04.2020
4293 Clouds 26 1009 88 10000 3.1 140 20:37 22.04.2020
4294 Clouds 26 1009 88 10000 3.1 140 20:18 22.04.2020
4295 Clouds 26 1008 88 10000 4.6 120 19:55 22.04.2020
4296 Clouds 26 1009 88 10000 3.1 140 19:36 22.04.2020
4297 Clouds 26 1009 88 10000 3.1 140 19:18 22.04.2020
4298 Clouds 26 1009 88 10000 3.1 140 18:55 22.04.2020
4299 Clouds 26 1009 88 10000 3.1 140 18:37 22.04.2020
4300 Clouds 26 1009 88 10000 3.1 140 18:18 22.04.2020
4301 Clouds 27 1009 83 10000 5.1 140 17:42 22.04.2020
4302 Clouds 27 1009 83 10000 5.1 140 17:23 22.04.2020
4303 Clouds 27 1010 83 10000 4.6 140 16:47 22.04.2020
4304 Haze 27 1010 83 10000 6.2 140 16:28 22.04.2020
4305 Haze 27 1010 83 10000 6.2 140 15:58 22.04.2020
4306 Haze 27 1010 83 10000 4.6 140 15:38 22.04.2020
4307 Haze 27 1010 83 10000 4.6 140 15:19 22.04.2020
4308 Haze 27 1010 83 10000 4.6 140 14:55 22.04.2020
4309 Haze 27 1010 83 10000 4.6 140 14:36 22.04.2020
4310 Haze 27 1010 83 10000 4.6 140 14:18 22.04.2020
4311 Haze 27 1010 83 10000 4.6 140 13:43 22.04.2020
4312 Haze 28 1009 78 10000 4.6 140 13:20 22.04.2020
4313 Haze 28 1009 78 10000 4.6 140 12:42 22.04.2020
4314 Haze 28 1008 78 10000 4.6 140 12:23 22.04.2020
4315 Haze 28 1008 78 10000 4.6 140 11:57 22.04.2020
4316 Haze 29 1007 70 10000 7.7 140 11:37 22.04.2020
4317 Haze 29 1007 70 10000 7.7 140 11:18 22.04.2020
4318 Haze 29 1007 70 10000 7.7 140 11:18 22.04.2020
4319 Haze 29 1007 70 10000 7.7 140 10:41 22.04.2020
4320 Haze 30 1007 70 10000 7.7 140 10:23 22.04.2020
4321 Haze 30 1007 70 10000 7.7 140 09:42 22.04.2020
4322 Haze 32 1006 66 10000 10.3 150 09:23 22.04.2020
4323 Haze 32 1006 66 10000 10.3 150 08:59 22.04.2020
4324 Haze 32 1006 66 10000 10.3 150 08:41 22.04.2020
4325 Haze 32 1006 66 10000 10.3 150 08:41 22.04.2020
4326 Haze 33 1006 63 10000 10.3 160 08:22 22.04.2020
4327 Haze 33 1006 63 10000 10.3 160 07:54 22.04.2020
4328 Haze 32 1007 70 10000 7.7 160 07:33 22.04.2020
4329 Haze 32 1007 70 10000 7.7 160 06:53 22.04.2020
4330 Haze 32 1008 70 10000 10.3 160 06:34 22.04.2020
4331 Haze 31 1009 70 10000 10.3 160 05:39 22.04.2020
4332 Haze 31 1010 70 10000 7.7 150 04:34 22.04.2020
4333 Clouds 29 1012 69 0 6.36 130 02:59 22.04.2020
4334 Haze 30 1011 70 10000 5.1 170 01:55 22.04.2020
4335 Haze 30 1011 70 10000 5.1 170 01:28 22.04.2020
4336 -273 0 0 0 0 0 00:59 22.04.2020
4337 Haze 28 1011 78 10000 2.1 0 00:41 22.04.2020
4338 Clear 24 1010 100 10000 1.5 10 00:19 22.04.2020
4339 Clear 24 1010 100 10000 1.5 10 23:43 21.04.2020
4340 Clear 24 1009 100 10000 1 30 23:20 21.04.2020
4341 Clear 24 1009 100 10000 1 30 22:41 21.04.2020
4342 Clouds 24 1009 100 10000 1.5 0 22:22 21.04.2020
4343 Clouds 24 1009 100 10000 1.5 0 21:59 21.04.2020
4344 Clouds 24 1009 100 10000 1.5 0 21:59 21.04.2020
4345 Clouds 24 1009 100 10000 1.5 0 21:59 21.04.2020
4346 Clouds 24 1009 100 10000 1.5 0 21:41 21.04.2020
4347 Clouds 24 1008 100 10000 1 0 21:23 21.04.2020
4348 Clouds 24 1008 100 10000 1 0 20:57 21.04.2020
4349 Clouds 24 1009 100 10000 1.5 0 20:39 21.04.2020
4350 Clouds 24 1009 100 10000 1.5 0 20:21 21.04.2020
4351 Clouds 24 1009 100 10000 1.5 0 19:41 21.04.2020
4352 Clouds 25 1009 100 10000 1.5 0 19:20 21.04.2020
4353 Clouds 25 1009 100 10000 1.5 0 18:58 21.04.2020
4354 Clouds 25 1010 100 10000 1.5 0 18:39 21.04.2020
4355 Clouds 25 1010 100 10000 1.5 0 18:39 21.04.2020
4356 Clouds 25 1010 100 10000 1.5 0 18:19 21.04.2020
4357 Clouds 25 1010 100 10000 1.5 0 17:57 21.04.2020
4358 Clouds 26 1010 94 10000 1.5 0 17:38 21.04.2020
4359 Clouds 26 1010 94 10000 1.5 0 17:19 21.04.2020
4360 Clouds 26 1010 82 0 6.89 126 16:39 21.04.2020
4361 Clouds 26 1011 81 0 6.87 124 16:19 21.04.2020
4362 Clouds 26 1010 82 0 6.89 126 15:58 21.04.2020
4363 Clouds 26 1010 82 0 6.89 126 15:40 21.04.2020
4364 Rain 27 1012 81 0 7.17 127 15:22 21.04.2020
4365 Rain 27 1012 81 0 7.17 127 14:58 21.04.2020
4366 Rain 27 1012 81 0 7.03 128 14:39 21.04.2020
4367 Rain 27 1012 81 0 7.17 127 14:21 21.04.2020
4368 Rain 27 1012 81 0 7.17 127 13:42 21.04.2020
4369 Rain 27 1012 81 0 7.17 127 13:42 21.04.2020
4370 Rain 27 1012 81 0 7.17 127 13:23 21.04.2020
4371 Rain 27 1012 81 0 7.17 127 12:57 21.04.2020
4372 Rain 27 1012 81 0 7.17 127 12:37 21.04.2020
4373 Rain 27 1010 80 0 7.74 137 12:18 21.04.2020
4374 Rain 27 1010 80 0 7.74 137 11:55 21.04.2020
4375 Clouds 28 1008 83 10000 5.1 150 11:36 21.04.2020
4376 Clouds 28 1008 83 10000 5.1 150 11:18 21.04.2020
4377 Clouds 28 1008 83 10000 5.1 150 10:55 21.04.2020
4378 Rain 27 1010 80 0 7.74 137 10:37 21.04.2020
4379 Rain 27 1010 80 0 7.74 137 10:19 21.04.2020
4380 Rain 27 1010 80 0 7.74 137 09:37 21.04.2020
4381 Rain 29 1009 75 0 7.35 144 09:18 21.04.2020
4382 Rain 29 1009 75 0 7.35 144 08:55 21.04.2020
4383 Clouds 30 1008 79 10000 10.3 160 08:37 21.04.2020
4384 Clouds 30 1008 79 10000 10.3 160 08:18 21.04.2020
4385 Clouds 30 1008 79 10000 10.3 160 07:43 21.04.2020
4386 Clouds 31 1009 74 10000 6.7 160 07:20 21.04.2020
4387 Clouds 31 1009 74 10000 6.7 160 06:44 21.04.2020
4388 Clouds 30 1010 79 10000 5.1 140 06:19 21.04.2020
4389 Clouds 30 1010 79 10000 5.1 140 05:45 21.04.2020
4390 Clouds 30 1012 79 10000 5.1 160 03:48 21.04.2020
4391 Clouds 29 1012 79 10000 2.6 130 03:27 21.04.2020
4392 Clouds 28 1013 83 10000 2.6 140 01:40 21.04.2020
4393 Clouds 27 1012 94 10000 1.5 0 00:52 21.04.2020
4394 Clouds 25 1012 94 10000 1.5 0 00:31 21.04.2020
4395 Clouds 25 1012 94 10000 1.5 0 23:44 20.04.2020
4396 Clouds 24 1011 100 10000 1.5 0 23:23 20.04.2020
4397 Clouds 24 1011 100 10000 1.5 0 22:57 20.04.2020
4398 Clouds 24 1010 100 10000 1.5 0 22:38 20.04.2020
4399 Clouds 24 1010 100 10000 1.5 0 22:19 20.04.2020
4400 Clouds 24 1010 100 10000 1.5 0 22:19 20.04.2020
4401 Clouds 24 1010 100 10000 1.5 0 22:19 20.04.2020
4402 Clouds 24 1010 100 10000 1.5 0 21:55 20.04.2020
4403 Rain 26 1012 81 0 4.97 121 21:37 20.04.2020
4404 Rain 26 1010 83 0 5.68 126 21:19 20.04.2020
4405 Rain 26 1010 83 0 5.68 126 20:56 20.04.2020
4406 Clouds 24 1010 100 10000 2.1 320 20:37 20.04.2020
4407 Clouds 24 1010 100 10000 2.1 320 20:18 20.04.2020
4408 Clouds 24 1010 100 10000 2.1 320 19:41 20.04.2020
4409 Clouds 24 1011 100 10000 2.6 330 19:23 20.04.2020
4410 -273 0 0 0 0 0 18:59 20.04.2020
4411 Clouds 24 1011 100 10000 2.6 330 18:41 20.04.2020
4412 Clouds 24 1011 100 10000 2.6 310 18:21 20.04.2020
4413 Clouds 24 1011 100 10000 2.6 310 17:55 20.04.2020
4414 Clouds 25 1012 100 10000 2.6 350 17:37 20.04.2020
4415 Clouds 25 1012 100 10000 2.6 350 17:19 20.04.2020
4416 Clouds 25 1012 100 10000 2.6 350 16:43 20.04.2020
4417 Clouds 25 1012 94 10000 2.6 340 16:21 20.04.2020
4418 Clouds 25 1012 94 10000 2.6 340 15:57 20.04.2020
4419 Rain 26 1011 84 0 6.64 134 15:39 20.04.2020
4420 Clouds 25 1012 100 10000 2.6 320 15:21 20.04.2020
4421 Clouds 25 1012 100 10000 2.6 320 14:54 20.04.2020
4422 Clouds 26 1012 94 10000 2.6 300 14:36 20.04.2020
4423 Clouds 26 1012 94 10000 2.6 300 14:18 20.04.2020
4424 Clouds 26 1012 94 10000 2.6 300 13:40 20.04.2020
4425 Clouds 26 1012 94 10000 2.6 300 13:40 20.04.2020
4426 Clouds 26 1011 94 10000 2.6 330 13:22 20.04.2020
4427 Clouds 26 1011 94 10000 2.6 330 12:44 20.04.2020
4428 Clouds 26 1010 94 10000 2.6 350 12:25 20.04.2020
4429 Clouds 26 1010 94 10000 2.6 350 11:58 20.04.2020
4430 Clouds 27 1009 88 10000 2.6 50 11:39 20.04.2020
4431 Clouds 27 1009 88 10000 2.6 50 11:20 20.04.2020
4432 Clouds 27 1009 88 10000 2.6 50 10:55 20.04.2020
4433 Clouds 29 1009 83 10000 5.1 150 10:37 20.04.2020
4434 Clouds 29 1009 83 10000 5.1 150 10:37 20.04.2020
4435 Clouds 29 1009 83 10000 5.1 150 10:18 20.04.2020
4436 Clouds 29 1009 83 10000 5.1 150 09:44 20.04.2020
4437 Clouds 30 1008 79 10000 7.7 150 09:26 20.04.2020
4438 Clouds 30 1008 79 10000 7.7 150 08:59 20.04.2020
4439 Clouds 30 1008 79 10000 7.7 150 08:40 20.04.2020
4440 Clouds 30 1009 79 10000 5.7 170 08:19 20.04.2020
4441 Clouds 30 1009 79 10000 5.7 170 07:52 20.04.2020
4442 Clouds 31 1009 74 10000 5.1 170 07:28 20.04.2020
4443 Clouds 31 1009 74 10000 5.1 170 06:54 20.04.2020
4444 Clouds 31 1010 79 10000 5.1 200 06:35 20.04.2020
4445 Clouds 32 1010 70 10000 5.1 150 05:25 20.04.2020
4446 Clouds 31 1011 70 10000 3.6 140 03:30 20.04.2020
4447 Haze 29 1012 79 10000 2.6 170 02:38 20.04.2020
4448 Haze 28 1011 88 10000 1 0 01:31 20.04.2020
4449 Haze 28 1011 88 10000 1 0 00:57 20.04.2020
4450 Clouds 25 1011 100 10000 1.5 0 00:27 20.04.2020
4451 Clouds 25 1011 100 10000 1.5 0 23:54 19.04.2020
4452 Fog 24 1010 100 10000 1.5 0 23:36 19.04.2020
4453 Fog 24 1010 100 10000 1.5 0 23:18 19.04.2020
4454 Clouds 26 1012 83 0 2.06 103 22:39 19.04.2020
4455 Fog 24 1010 100 10000 2.6 350 22:21 19.04.2020
4456 Fog 24 1010 100 10000 2.6 350 21:55 19.04.2020
4457 Clouds 26 1012 82 0 2.06 109 21:37 19.04.2020
4458 Clouds 26 1011 83 0 2.66 107 21:18 19.04.2020
4459 Clouds 26 1011 83 0 2.66 107 20:41 19.04.2020
4460 Clouds 24 1010 100 10000 1.5 0 20:21 19.04.2020
4461 Clouds 24 1010 100 10000 1.5 0 19:58 19.04.2020
4462 Clouds 24 1010 100 10000 1.5 0 19:40 19.04.2020
4463 Clouds 25 1010 100 10000 1.5 0 19:22 19.04.2020
4464 Clouds 25 1010 100 10000 1.5 0 18:58 19.04.2020
4465 Clouds 25 1010 100 10000 1.5 0 18:39 19.04.2020
4466 Clouds 25 1010 100 10000 1.5 0 18:19 19.04.2020
4467 Clouds 25 1010 100 10000 1.5 0 18:19 19.04.2020
4468 Clouds 26 1011 84 0 3.91 123 17:56 19.04.2020
4469 Clouds 26 1011 84 0 3.91 123 17:56 19.04.2020
4470 Clouds 25 1011 100 10000 1 0 17:38 19.04.2020
4471 Clouds 25 1011 100 10000 1 0 17:20 19.04.2020
4472 Clouds 25 1011 100 10000 1 0 16:56 19.04.2020
4473 Clouds 25 1011 100 10000 1 0 16:37 19.04.2020
4474 Clouds 25 1011 100 10000 1 0 16:18 19.04.2020
4475 Clouds 25 1011 100 10000 1 0 15:42 19.04.2020
4476 Clouds 27 1011 88 10000 2.6 120 15:20 19.04.2020
4477 Clouds 27 1011 88 10000 2.6 120 14:54 19.04.2020
4478 Clouds 27 1011 94 10000 5.1 160 14:36 19.04.2020
4479 Clouds 27 1011 94 10000 5.1 160 14:18 19.04.2020
4480 Clouds 28 1011 88 10000 5.1 150 13:38 19.04.2020
4481 Clouds 28 1011 88 10000 5.1 150 13:19 19.04.2020
4482 Clouds 28 1011 88 10000 5.1 150 12:49 19.04.2020
4483 Clouds 28 1010 83 10000 5.1 160 12:25 19.04.2020
4484 Clouds 28 1010 83 10000 5.1 160 11:55 19.04.2020
4485 Clouds 28 1009 83 10000 6.7 160 11:37 19.04.2020
4486 Clouds 28 1009 83 10000 6.7 160 11:18 19.04.2020
4487 Clouds 28 1009 83 10000 6.7 160 10:41 19.04.2020
4488 Clouds 29 1008 79 10000 6.2 160 10:21 19.04.2020
4489 Clouds 29 1008 79 10000 6.2 160 09:59 19.04.2020
4490 Clouds 29 1008 79 10000 6.2 160 09:41 19.04.2020
4491 Clouds 29 1008 79 10000 6.2 160 09:41 19.04.2020
4492 Haze 31 1007 70 10000 5.1 170 09:19 19.04.2020
4493 Haze 31 1007 70 10000 5.1 170 08:40 19.04.2020
4494 Haze 31 1007 70 10000 5.1 200 08:21 19.04.2020
4495 Haze 31 1007 70 10000 5.1 200 07:55 19.04.2020
4496 Haze 32 1008 75 10000 5.1 190 07:37 19.04.2020
4497 Haze 32 1008 75 10000 5.1 190 07:18 19.04.2020
4498 Haze 32 1008 75 10000 4.1 190 06:24 19.04.2020
4499 Clouds 31 1009 79 10000 6.2 210 05:35 19.04.2020
4500 Clouds 32 1010 62 10000 4.1 40 03:54 19.04.2020
4501 Haze 31 1011 70 10000 4.1 290 02:49 19.04.2020
4502 Clouds 29 1011 79 10000 1.5 0 02:18 19.04.2020
4503 Clouds 27 1011 88 10000 1.5 0 01:22 19.04.2020
4504 Clouds 27 1011 88 10000 1.5 0 00:41 19.04.2020
4505 Clouds 27 1011 88 10000 1.5 0 00:41 19.04.2020
4506 Clouds 24 1011 100 10000 1.5 0 00:19 19.04.2020
4507 Clouds 24 1011 100 10000 1.5 0 23:43 18.04.2020
4508 Clouds 24 1011 100 10000 1.5 0 23:19 18.04.2020
4509 Clouds 25 1012 81 0 1.74 70 22:44 18.04.2020
4510 Clouds 24 1010 100 10000 1.5 0 22:24 18.04.2020
4511 Clouds 24 1010 100 10000 1.5 0 21:59 18.04.2020
4512 Clouds 24 1010 100 10000 1.5 0 21:41 18.04.2020
4513 Clouds 24 1009 100 10000 1.5 0 21:22 18.04.2020
4514 Clouds 24 1009 100 10000 1.5 0 20:58 18.04.2020
4515 Clouds 24 1009 100 10000 1.5 0 20:40 18.04.2020
4516 Clouds 24 1010 100 10000 1.5 0 20:20 18.04.2020
4517 Clouds 24 1010 100 10000 1.5 0 19:41 18.04.2020
4518 Clouds 25 1010 82 0 2.98 115 19:22 18.04.2020
4519 Clouds 25 1010 82 0 2.98 115 18:39 18.04.2020
4520 Clouds 25 1010 100 10000 1.5 0 18:20 18.04.2020
4521 Clouds 25 1010 100 10000 1.5 0 17:58 18.04.2020
4522 Clouds 25 1011 100 10000 1.5 0 17:39 18.04.2020
4523 Clouds 25 1011 100 10000 1.5 0 17:19 18.04.2020
4524 Clouds 25 1011 100 10000 1.5 0 16:43 18.04.2020
4525 Clouds 25 1012 100 10000 1 0 16:22 18.04.2020
4526 Clouds 25 1012 100 10000 1 0 15:56 18.04.2020
4527 Clouds 26 1011 94 10000 1 0 15:37 18.04.2020
4528 Clouds 26 1011 94 10000 1 0 15:19 18.04.2020
4529 Clouds 26 1011 94 10000 1 0 14:44 18.04.2020
4530 Rain 26 1012 83 0 4.51 137 14:24 18.04.2020
4531 Rain 26 1012 83 0 4.51 137 13:44 18.04.2020
4532 Rain 26 1012 83 0 4.51 137 13:44 18.04.2020
4533 Clouds 27 1011 88 10000 2.6 130 13:22 18.04.2020
4534 Clouds 27 1011 88 10000 2.6 130 12:55 18.04.2020
4535 Clouds 28 1010 83 10000 2.6 180 12:36 18.04.2020
4536 Clouds 28 1010 83 10000 2.6 180 12:36 18.04.2020
4537 Clouds 28 1010 83 10000 2.6 180 12:18 18.04.2020
4538 Clouds 28 1010 83 10000 2.6 180 11:42 18.04.2020
4539 Clouds 28 1010 83 10000 5.1 160 11:22 18.04.2020
4540 Clouds 28 1010 83 10000 5.1 160 10:57 18.04.2020
4541 Clouds 28 1009 83 10000 7.7 150 10:36 18.04.2020
4542 Clouds 28 1009 83 10000 7.7 150 10:18 18.04.2020
4543 Clouds 28 1009 83 10000 7.7 150 09:41 18.04.2020
4544 Clouds 31 1008 70 10000 9.3 140 09:21 18.04.2020
4545 Clouds 31 1008 70 10000 9.3 140 08:43 18.04.2020
4546 Clouds 31 1008 70 10000 9.3 140 08:43 18.04.2020
4547 Clouds 31 1008 66 10000 6.2 170 08:23 18.04.2020
4548 Clouds 31 1008 66 10000 6.2 170 07:51 18.04.2020
4549 Clouds 32 1009 66 10000 7.7 190 07:32 18.04.2020
4550 Clouds 32 1009 66 10000 7.7 190 06:50 18.04.2020
4551 Clouds 32 1009 66 10000 7.7 150 05:50 18.04.2020
4552 Clouds 32 1010 59 10000 6.7 160 04:57 18.04.2020
4553 Clouds 31 1011 66 10000 4.6 130 04:39 18.04.2020
4554 Clouds 31 1011 66 10000 4.6 130 04:18 18.04.2020
4555 Clouds 31 1012 66 10000 2.6 130 02:42 18.04.2020
4556 Clouds 29 1012 79 10000 2.6 150 02:21 18.04.2020
4557 Clouds 29 1012 79 10000 2.6 150 02:21 18.04.2020
4558 Clouds 29 1012 79 10000 2.6 150 02:21 18.04.2020
4559 Clouds 29 1012 79 10000 2.6 150 01:45 18.04.2020
4560 Clouds 26 1012 94 10000 1.5 0 01:22 18.04.2020
4561 Clouds 26 1012 94 10000 1.5 0 00:37 18.04.2020
4562 Clouds 26 1012 94 10000 1.5 0 00:18 18.04.2020
4563 Fog 24 1012 100 10000 1.5 0 23:41 17.04.2020
4564 Fog 23 1011 100 10000 1.5 0 23:20 17.04.2020
4565 Fog 23 1011 100 10000 1.5 0 22:59 17.04.2020
4566 Fog 23 1011 100 10000 1.5 0 22:40 17.04.2020
4567 Fog 24 1010 100 10000 2.6 330 22:20 17.04.2020
4568 Fog 24 1010 100 10000 2.6 330 21:58 17.04.2020
4569 Clouds 25 1013 80 0 2.06 7 21:39 17.04.2020
4570 Clouds 25 1011 80 0 1.76 346 21:19 17.04.2020
4571 Clouds 25 1011 80 0 1.76 346 20:55 17.04.2020
4572 Clouds 25 1011 80 0 1.76 346 20:36 17.04.2020
4573 Clouds 25 1011 80 0 1.76 346 20:18 17.04.2020
4574 Clouds 25 1011 80 0 1.76 346 19:46 17.04.2020
4575 Clouds 25 1011 80 0 1.76 346 19:24 17.04.2020
4576 Clouds 25 1011 80 0 1.76 346 18:47 17.04.2020
4577 Clouds 25 1011 80 0 1.76 346 18:47 17.04.2020
4578 Clouds 25 1012 80 0 1.66 344 18:25 17.04.2020
4579 Clouds 25 1012 80 0 1.66 344 17:58 17.04.2020
4580 Clouds 24 1012 100 10000 2.6 330 17:37 17.04.2020
4581 Clouds 24 1012 100 10000 2.6 330 17:19 17.04.2020
4582 Clouds 24 1012 100 10000 2.6 330 16:44 17.04.2020
4583 Clouds 25 1012 80 0 1.66 344 16:23 17.04.2020
4584 Clouds 24 1013 100 10000 1.5 0 15:58 17.04.2020
4585 Clouds 24 1013 100 10000 5.1 340 15:37 17.04.2020
4586 Clouds 24 1013 100 10000 5.1 340 15:19 17.04.2020
4587 Clouds 24 1013 100 10000 5.1 340 14:40 17.04.2020
4588 Clouds 25 1013 94 10000 2.6 330 14:22 17.04.2020
4589 Clouds 25 1013 94 10000 2.6 330 13:56 17.04.2020
4590 Clouds 24 1012 100 10000 5.1 320 13:37 17.04.2020
4591 Clouds 24 1012 100 10000 5.1 320 13:18 17.04.2020
4592 Clouds 24 1012 100 10000 5.1 320 12:46 17.04.2020
4593 Clouds 24 1012 100 10000 5.1 320 12:25 17.04.2020
4594 Rain 26 1012 84 0 4.6 337 11:42 17.04.2020
4595 Clouds 24 1011 100 10000 3.1 330 11:20 17.04.2020
4596 Clouds 24 1011 100 10000 3.1 330 10:57 17.04.2020
4597 Clouds 25 1011 94 10000 8.2 340 10:39 17.04.2020
4598 Clouds 25 1011 94 10000 8.2 340 10:19 17.04.2020
4599 Clouds 25 1011 94 10000 8.2 340 09:41 17.04.2020
4600 Rain 27 1010 79 0 3.5 310 09:22 17.04.2020
4601 Rain 27 1010 79 0 3.5 310 08:59 17.04.2020
4602 Rain 27 1010 79 0 3.5 310 08:40 17.04.2020
4603 Clouds 28 1010 88 10000 6.2 200 08:21 17.04.2020
4604 Clouds 28 1010 88 10000 6.2 200 07:44 17.04.2020
4605 Haze 30 1010 74 10000 9.3 260 07:24 17.04.2020
4606 Haze 30 1010 74 10000 9.3 260 06:50 17.04.2020
4607 Haze 30 1011 74 10000 6.2 270 06:23 17.04.2020
4608 Haze 30 1012 74 10000 5.1 300 05:27 17.04.2020
4609 Haze 29 1014 79 10000 5.1 350 03:20 17.04.2020
4610 Haze 28 1014 78 10000 2.1 0 02:33 17.04.2020
4611 Haze 28 1014 78 10000 2.1 0 01:29 17.04.2020
4612 Haze 26 1013 94 10000 1.5 0 00:52 17.04.2020
4613 Clouds 26 1013 80 0 1.59 38 00:19 17.04.2020
4614 Clouds 26 1013 80 0 1.59 38 23:45 16.04.2020
4615 Clouds 26 1013 80 0 1.59 38 23:22 16.04.2020
4616 Clouds 26 1013 80 0 1.59 38 22:57 16.04.2020
4617 Clouds 24 1011 100 10000 1 340 22:37 16.04.2020
4618 Clouds 24 1011 100 10000 1 340 22:19 16.04.2020
4619 Clouds 24 1011 100 10000 1 340 21:43 16.04.2020
4620 Clear 24 1010 100 10000 0.5 360 21:20 16.04.2020
4621 Clear 24 1010 100 10000 0.5 360 20:59 16.04.2020
4622 Rain 25 1011 84 0 2.29 2 20:40 16.04.2020
4623 Clear 24 1011 100 10000 1.5 310 20:20 16.04.2020
4624 Clear 24 1011 100 10000 1.5 310 19:55 16.04.2020
4625 Rain 25 1011 84 0 2.29 2 19:37 16.04.2020
4626 Rain 25 1011 84 0 2.29 2 19:18 16.04.2020
4627 Rain 25 1011 84 0 2.29 2 18:42 16.04.2020
4628 Clouds 24 1012 100 10000 2.1 360 18:24 16.04.2020
4629 Clouds 24 1012 100 10000 2.1 360 17:57 16.04.2020
4630 Clouds 24 1012 100 10000 1.5 0 17:39 16.04.2020
4631 Clouds 24 1012 100 10000 1.5 0 17:18 16.04.2020
4632 Clouds 24 1012 100 10000 1.5 0 16:42 16.04.2020
4633 Clouds 25 1013 94 10000 1.5 0 16:24 16.04.2020
4634 Clouds 25 1013 94 10000 1.5 0 15:46 16.04.2020
4635 Clouds 25 1013 94 10000 1.5 0 15:46 16.04.2020
4636 Clouds 25 1013 94 10000 1.5 120 15:20 16.04.2020
4637 Clouds 25 1013 94 10000 1.5 120 15:20 16.04.2020
4638 Clouds 25 1013 94 10000 1.5 120 14:59 16.04.2020
4639 Rain 26 1013 83 0 3.72 47 14:40 16.04.2020
4640 Rain 25 1012 94 10000 3.1 340 14:22 16.04.2020
4641 Rain 25 1012 94 10000 3.1 340 13:58 16.04.2020
4642 Rain 24 1011 100 10000 3.1 311 13:38 16.04.2020
4643 Rain 24 1011 100 10000 3.1 311 13:20 16.04.2020
4644 Rain 24 1011 100 10000 3.1 311 12:57 16.04.2020
4645 Rain 26 1013 83 0 3.72 47 12:38 16.04.2020
4646 Rain 27 1011 82 0 2.78 97 12:19 16.04.2020
4647 Thunderstorm 24 1011 100 0 5.1 30 11:56 16.04.2020
4648 Thunderstorm 24 1011 100 0 5.1 30 11:37 16.04.2020
4649 Thunderstorm 24 1011 100 0 5.1 30 11:18 16.04.2020
4650 Thunderstorm 24 1011 100 0 5.1 30 11:18 16.04.2020
4651 Thunderstorm 24 1011 100 0 5.1 330 10:40 16.04.2020
4652 Thunderstorm 24 1011 100 0 5.1 330 10:19 16.04.2020
4653 Thunderstorm 24 1011 100 0 5.1 330 10:19 16.04.2020
4654 Rain 24 1011 100 0 7.7 330 09:59 16.04.2020
4655 Rain 29 1009 83 10000 7.7 220 09:38 16.04.2020
4656 Rain 29 1009 83 10000 7.7 220 09:38 16.04.2020
4657 Rain 29 1009 83 10000 7.7 220 09:38 16.04.2020
4658 Rain 29 1009 83 10000 7.7 220 09:20 16.04.2020
4659 Rain 29 1009 83 10000 7.7 220 08:45 16.04.2020
4660 Clouds 30 1008 79 10000 7.7 220 08:25 16.04.2020
4661 Clouds 30 1008 79 10000 7.7 220 07:46 16.04.2020
4662 Haze 32 1009 75 10000 7.7 220 07:28 16.04.2020
4663 Haze 32 1009 75 10000 7.7 220 07:28 16.04.2020
4664 Haze 32 1009 75 10000 7.7 220 06:58 16.04.2020
4665 Rain 27 1009 81 0 1.73 146 06:39 16.04.2020
4666 Haze 32 1009 75 10000 7.7 130 06:21 16.04.2020
4667 Clouds 32 1010 75 10000 5.1 200 04:48 16.04.2020
4668 Haze 31 1012 70 10000 5.1 330 03:25 16.04.2020
4669 Haze 31 1012 70 10000 5.1 330 02:57 16.04.2020
4670 Haze 30 1012 79 10000 2.6 340 02:33 16.04.2020
4671 Clear 28 1011 83 10000 1.5 360 01:22 16.04.2020
4672 Clear 28 1011 83 10000 1.5 360 00:49 16.04.2020
4673 Clear 25 1011 100 10000 1 0 00:18 16.04.2020
4674 Clear 25 1011 100 10000 1 0 23:43 15.04.2020
4675 Clouds 24 1010 100 10000 1.5 110 23:24 15.04.2020
4676 Clouds 24 1010 100 10000 1.5 110 22:58 15.04.2020
4677 Clouds 24 1009 100 10000 1 0 22:37 15.04.2020
4678 Clouds 24 1009 100 10000 1 0 22:19 15.04.2020
4679 Clouds 24 1009 100 10000 1 0 21:42 15.04.2020
4680 Clouds 24 1009 100 10000 2.6 330 21:23 15.04.2020
4681 Clouds 24 1009 100 10000 2.6 330 20:59 15.04.2020
4682 Clouds 24 1009 100 10000 2.6 330 20:41 15.04.2020
4683 Clouds 25 1009 94 10000 2.6 300 20:22 15.04.2020
4684 Clouds 25 1009 94 10000 2.6 300 19:57 15.04.2020
4685 Clouds 25 1009 94 10000 2.6 330 19:39 15.04.2020
4686 Clouds 25 1009 94 10000 2.6 330 19:18 15.04.2020
4687 Rain 26 1010 86 0 2.81 110 18:40 15.04.2020
4688 Clouds 25 1010 94 10000 2.6 350 18:22 15.04.2020
4689 Clouds 25 1010 94 10000 2.6 350 17:56 15.04.2020
4690 Clouds 25 1011 94 10000 1 0 17:38 15.04.2020
4691 Clouds 25 1011 94 10000 1 0 17:20 15.04.2020
4692 Clouds 25 1011 94 10000 1 0 16:55 15.04.2020
4693 Rain 26 1011 86 0 5.04 123 16:36 15.04.2020
4694 Rain 26 1011 86 0 5.04 123 16:18 15.04.2020
4695 Rain 26 1011 86 0 5.04 123 15:55 15.04.2020
4696 Rain 26 1011 86 0 5.04 123 15:37 15.04.2020
4697 Rain 27 1013 84 0 5.85 129 15:18 15.04.2020
4698 Rain 27 1013 84 0 5.85 129 14:54 15.04.2020
4699 Rain 27 1013 84 0 5.85 129 14:36 15.04.2020
4700 Rain 27 1013 84 0 6.12 132 14:18 15.04.2020
4701 Rain 27 1013 84 0 6.12 132 13:40 15.04.2020
4702 Rain 27 1013 84 0 6.12 132 13:21 15.04.2020
4703 Rain 27 1013 84 0 6.12 132 12:59 15.04.2020
4704 Rain 27 1013 84 0 6.12 132 12:40 15.04.2020
4705 Rain 27 1010 83 0 7.03 142 12:22 15.04.2020
4706 Rain 27 1010 83 0 7.03 142 11:58 15.04.2020
4707 Rain 27 1010 83 0 7.03 142 11:38 15.04.2020
4708 Rain 27 1010 83 0 7.03 142 11:38 15.04.2020
4709 Rain 27 1010 83 0 7.03 142 11:20 15.04.2020
4710 Rain 27 1010 83 0 7.03 142 10:38 15.04.2020
4711 Rain 27 1010 83 0 7.03 142 10:20 15.04.2020
4712 Rain 27 1010 83 0 7.03 142 09:57 15.04.2020
4713 Rain 27 1010 83 0 7.03 142 09:38 15.04.2020
4714 Rain 29 1008 76 0 4.94 149 09:20 15.04.2020
4715 Rain 29 1008 76 0 4.94 149 08:54 15.04.2020
4716 Rain 29 1008 76 0 4.94 149 08:36 15.04.2020
4717 Rain 29 1008 76 0 4.94 149 08:18 15.04.2020
4718 Rain 29 1008 76 0 4.94 149 07:44 15.04.2020
4719 Haze 30 1008 79 10000 7.7 150 07:26 15.04.2020
4720 Haze 32 1009 66 10000 5.1 130 06:25 15.04.2020
4721 Haze 32 1009 66 10000 5.1 130 05:48 15.04.2020
4722 Haze 31 1010 70 10000 2.6 190 04:47 15.04.2020
4723 Haze 30 1011 74 10000 2.6 160 04:22 15.04.2020
4724 Haze 30 1012 74 10000 1 0 03:22 15.04.2020
4725 Haze 30 1012 74 10000 1 0 02:49 15.04.2020
4726 Clouds 29 1012 79 10000 1.5 0 01:51 15.04.2020
4727 Smoke 26 1012 94 10000 2.6 330 01:25 15.04.2020
4728 Smoke 26 1012 94 10000 2.6 330 00:48 15.04.2020
4729 Smoke 24 1012 100 10000 1.5 0 00:25 15.04.2020
4730 Smoke 24 1012 100 10000 1.5 0 23:56 14.04.2020
4731 Smoke 24 1012 100 10000 1.5 0 23:38 14.04.2020
4732 Smoke 24 1012 100 10000 1.5 0 23:20 14.04.2020
4733 Smoke 24 1012 100 10000 1.5 0 22:56 14.04.2020
4734 Smoke 24 1012 100 10000 1.5 0 22:56 14.04.2020
4735 Clouds 24 1011 100 10000 1.5 0 22:38 14.04.2020
4736 Clouds 24 1011 100 10000 1.5 0 22:20 14.04.2020
4737 Clouds 24 1011 100 10000 1.5 0 21:56 14.04.2020
4738 Clouds 24 1010 100 10000 1.5 0 21:37 14.04.2020
4739 Clouds 24 1010 100 10000 1.5 0 21:19 14.04.2020
4740 Clouds 24 1010 100 10000 1.5 0 20:41 14.04.2020
4741 Clouds 24 1010 100 10000 1.5 0 20:41 14.04.2020
4742 Clouds 24 1010 100 10000 1.5 0 20:23 14.04.2020
4743 Clouds 24 1010 100 10000 1.5 0 20:00 14.04.2020
4744 Rain 25 1012 84 0 1.21 64 19:40 14.04.2020
4745 Clouds 25 1010 94 10000 1.5 0 19:21 14.04.2020
4746 Clouds 25 1010 94 10000 1.5 0 18:57 14.04.2020
4747 Clouds 26 1011 94 10000 1.5 0 18:39 14.04.2020
4748 Clouds 26 1011 94 10000 1.5 0 18:20 14.04.2020
4749 Clouds 26 1011 94 10000 1.5 0 17:57 14.04.2020
4750 Rain 26 1012 84 0 3.52 113 17:38 14.04.2020
4751 Rain 26 1012 84 0 3.29 113 17:19 14.04.2020
4752 Rain 26 1012 84 0 3.52 113 17:19 14.04.2020
4753 Rain 26 1012 84 0 3.52 113 16:54 14.04.2020
4754 Rain 26 1012 84 0 3.52 113 16:36 14.04.2020
4755 Rain 26 1012 84 0 3.52 113 16:18 14.04.2020
4756 Rain 26 1012 84 0 3.29 113 16:18 14.04.2020
4757 Rain 26 1012 84 0 3.29 113 15:41 14.04.2020
4758 Rain 26 1013 84 0 5.57 123 15:23 14.04.2020
4759 Rain 26 1013 84 0 5.91 124 14:59 14.04.2020
4760 Rain 26 1013 84 0 5.91 124 14:40 14.04.2020
4761 Rain 26 1013 84 0 5.57 123 14:22 14.04.2020
4762 Rain 26 1013 84 0 5.57 123 13:57 14.04.2020
4763 Rain 26 1013 84 0 5.57 123 13:39 14.04.2020
4764 Rain 26 1013 84 0 5.57 123 13:20 14.04.2020
4765 Rain 26 1013 84 0 5.57 123 12:42 14.04.2020
4766 Rain 26 1012 84 0 5.9 138 12:21 14.04.2020
4767 Rain 26 1012 84 0 5.9 138 11:55 14.04.2020
4768 Clouds 28 1010 83 10000 7.7 160 11:37 14.04.2020
4769 Clouds 28 1010 83 10000 7.7 160 11:18 14.04.2020
4770 Clouds 28 1010 83 10000 7.7 160 10:44 14.04.2020
4771 Clouds 29 1010 83 10000 7.7 160 10:24 14.04.2020
4772 Clouds 29 1010 83 10000 7.7 160 09:55 14.04.2020
4773 Clouds 29 1010 74 10000 6.7 150 09:37 14.04.2020
4774 Clouds 29 1010 74 10000 6.7 150 09:18 14.04.2020
4775 Clouds 29 1010 74 10000 6.7 150 08:41 14.04.2020
4776 Clouds 30 1010 74 10000 6.7 150 08:22 14.04.2020
4777 Clouds 30 1010 74 10000 6.7 150 07:54 14.04.2020
4778 Haze 30 1011 74 10000 6.2 160 07:30 14.04.2020
4779 Haze 30 1011 74 10000 6.2 160 07:30 14.04.2020
4780 Haze 30 1011 74 10000 6.2 160 06:50 14.04.2020
4781 Haze 31 1012 70 10000 5.1 220 06:24 14.04.2020
4782 Haze 30 1013 74 10000 3.6 320 03:52 14.04.2020
4783 Clouds 29 1013 69 0 2.4 141 02:56 14.04.2020
4784 Haze 28 1013 74 10000 2.1 0 01:46 14.04.2020
4785 Clear 29 1014 70 0 2.35 137 01:24 14.04.2020
4786 Clouds 24 1012 100 10000 1.5 0 00:38 14.04.2020
4787 Clouds 24 1012 100 10000 1.5 0 00:18 14.04.2020
4788 Clouds 26 1013 81 0 3.53 114 23:44 13.04.2020
4789 Clouds 24 1011 100 10000 2.6 320 23:25 13.04.2020
4790 Clouds 24 1011 100 10000 2.6 320 22:57 13.04.2020
4791 Clouds 24 1011 100 10000 5.1 320 22:39 13.04.2020
4792 Clouds 24 1011 100 10000 5.1 320 22:20 13.04.2020
4793 Clouds 24 1011 100 10000 5.1 320 21:55 13.04.2020
4794 Clouds 26 1013 81 0 3.53 114 21:36 13.04.2020
4795 Rain 25 1011 82 0 3.52 115 21:18 13.04.2020
4796 Rain 25 1011 82 0 3.52 115 20:41 13.04.2020
4797 Clouds 26 1011 94 10000 2.6 340 20:20 13.04.2020
4798 Clouds 26 1011 94 10000 2.6 340 19:59 13.04.2020
4799 Clouds 26 1011 94 10000 2.6 340 19:37 13.04.2020
4800 Clouds 26 1011 94 10000 2.6 340 19:37 13.04.2020
4801 Clouds 26 1011 94 10000 2.6 340 19:37 13.04.2020
4802 Clouds 26 1011 94 10000 2.6 340 19:19 13.04.2020
4803 Clouds 26 1011 94 10000 2.6 340 18:58 13.04.2020
4804 Clouds 26 1012 94 10000 2.6 330 18:38 13.04.2020
4805 Clouds 26 1012 94 10000 2.6 330 18:19 13.04.2020
4806 Clouds 26 1012 94 10000 2.6 330 17:58 13.04.2020
4807 Clear 26 1011 82 0 4.4 129 17:37 13.04.2020
4808 Clear 26 1011 82 0 4.4 129 17:19 13.04.2020
4809 Clear 26 1011 82 0 4.4 129 17:19 13.04.2020
4810 Clear 26 1011 82 0 4.4 129 16:58 13.04.2020
4811 Clouds 27 1012 83 10000 1.5 90 16:38 13.04.2020
4812 Clouds 27 1012 83 10000 1.5 90 16:19 13.04.2020
4813 Clouds 27 1012 83 10000 1.5 90 15:55 13.04.2020
4814 Clear 26 1011 82 0 4.4 129 15:37 13.04.2020
4815 Rain 26 1013 81 0 5.42 129 15:18 13.04.2020
4816 Rain 26 1013 81 0 5.42 129 14:41 13.04.2020
4817 Clouds 28 1012 78 10000 4.1 140 14:22 13.04.2020
4818 Clouds 28 1012 78 10000 4.1 140 13:56 13.04.2020
4819 Clouds 28 1012 78 10000 5.7 160 13:38 13.04.2020
4820 Clouds 28 1012 78 10000 5.7 160 13:20 13.04.2020
4821 Clouds 28 1012 78 10000 5.7 160 12:58 13.04.2020
4822 Clouds 26 1013 81 0 5.9 130 12:40 13.04.2020
4823 Haze 28 1011 83 10000 5.7 170 12:20 13.04.2020
4824 Haze 28 1011 83 10000 5.7 170 11:58 13.04.2020
4825 Rain 27 1011 81 0 5.86 144 11:39 13.04.2020
4826 Haze 28 1010 83 10000 7.7 150 11:18 13.04.2020
4827 Haze 28 1010 83 10000 7.7 150 10:55 13.04.2020
4828 Haze 29 1009 79 10000 10.3 160 10:36 13.04.2020
4829 Haze 29 1009 79 10000 10.3 160 10:18 13.04.2020
4830 Haze 29 1009 79 10000 10.3 160 09:44 13.04.2020
4831 Haze 29 1008 79 10000 8.7 140 09:25 13.04.2020
4832 Haze 29 1008 79 10000 8.7 140 08:45 13.04.2020
4833 Haze 30 1008 74 10000 7.7 180 08:27 13.04.2020
4834 Haze 30 1008 74 10000 7.7 180 08:27 13.04.2020
4835 Haze 30 1008 74 10000 7.7 180 07:57 13.04.2020
4836 Haze 30 1009 74 10000 7.7 200 07:38 13.04.2020
4837 Haze 30 1009 74 10000 7.7 200 07:18 13.04.2020
4838 Haze 30 1009 74 10000 7.7 200 06:44 13.04.2020
4839 Haze 31 1009 74 10000 7.7 220 05:52 13.04.2020
4840 Haze 31 1010 74 10000 6.7 200 05:20 13.04.2020
4841 Haze 31 1011 70 10000 1.5 0 04:32 13.04.2020
4842 Haze 31 1011 70 10000 1.5 0 03:56 13.04.2020
4843 Smoke 29 1012 83 10000 2.6 300 03:34 13.04.2020
4844 Smoke 29 1012 83 10000 2.6 300 02:41 13.04.2020
4845 Haze 28 1012 88 10000 4.1 320 01:47 13.04.2020
4846 Haze 27 1012 88 10000 1.5 0 01:28 13.04.2020
4847 Haze 27 1012 88 10000 1.5 0 00:50 13.04.2020
4848 Clouds 26 1011 94 10000 1.5 0 00:25 13.04.2020
4849 Clouds 26 1011 94 10000 1.5 0 23:57 12.04.2020
4850 Clouds 25 1010 100 10000 1 0 23:38 12.04.2020
4851 Clouds 25 1010 100 10000 1 0 23:20 12.04.2020
4852 Clouds 25 1010 100 10000 1 0 22:54 12.04.2020
4853 Clouds 25 1010 94 10000 1.5 0 22:36 12.04.2020
4854 Clouds 25 1010 94 10000 1.5 0 22:18 12.04.2020
4855 Clouds 25 1009 100 10000 1.5 0 21:38 12.04.2020
4856 Clouds 25 1009 100 10000 1.5 0 21:19 12.04.2020
4857 Clouds 25 1009 100 10000 1.5 0 20:43 12.04.2020
4858 Clouds 25 1009 100 10000 1.5 0 20:23 12.04.2020
4859 Clouds 25 1010 83 0 4.69 121 19:58 12.04.2020
4860 Clouds 25 1010 83 0 4.69 121 19:40 12.04.2020
4861 Clouds 25 1010 83 0 4.69 121 19:19 12.04.2020
4862 Clouds 25 1010 83 0 4.69 121 18:56 12.04.2020
4863 Clouds 25 1010 100 10000 1.5 0 18:37 12.04.2020
4864 Clouds 25 1010 100 10000 1.5 0 18:19 12.04.2020
4865 Clouds 25 1010 100 10000 1.5 0 17:41 12.04.2020
4866 Clouds 26 1011 94 10000 1 0 17:23 12.04.2020
4867 Clouds 26 1011 94 10000 1 0 16:59 12.04.2020
4868 Clouds 25 1010 82 0 5.3 132 16:39 12.04.2020
4869 Clouds 26 1011 94 10000 1 120 16:20 12.04.2020
4870 Clouds 26 1011 94 10000 1 120 15:49 12.04.2020
4871 Clouds 27 1011 88 10000 1 200 15:31 12.04.2020
4872 Clouds 27 1011 88 10000 1 200 14:56 12.04.2020
4873 Clouds 27 1011 88 10000 2.6 140 14:37 12.04.2020
4874 Clouds 27 1011 88 10000 2.6 140 14:18 12.04.2020
4875 Clouds 27 1011 88 10000 2.6 140 13:42 12.04.2020
4876 Clouds 28 1010 83 10000 5.1 160 13:24 12.04.2020
4877 Clouds 28 1010 83 10000 5.1 160 12:55 12.04.2020
4878 Clouds 28 1009 83 10000 7.7 170 12:37 12.04.2020
4879 Clouds 28 1009 83 10000 7.7 170 12:18 12.04.2020
4880 Clouds 28 1009 83 10000 7.7 170 11:55 12.04.2020
4881 Clouds 28 1008 83 10000 6.7 150 11:36 12.04.2020
4882 Clouds 28 1008 83 10000 6.7 150 11:18 12.04.2020
4883 Clouds 28 1008 83 10000 6.7 150 10:54 12.04.2020
4884 Haze 30 1008 74 10000 7.7 160 10:36 12.04.2020
4885 Haze 30 1008 74 10000 7.7 160 10:18 12.04.2020
4886 Clouds 27 1010 78 0 5.59 134 09:40 12.04.2020
4887 Clouds 27 1010 78 0 5.59 134 09:40 12.04.2020
4888 Haze 31 1007 70 10000 5.7 160 09:21 12.04.2020
4889 Haze 31 1007 70 10000 5.7 160 08:53 12.04.2020
4890 Rain 29 1008 71 0 4.97 160 08:34 12.04.2020
4891 Rain 29 1008 71 0 4.97 160 07:58 12.04.2020
4892 Rain 29 1008 71 0 4.97 160 07:40 12.04.2020
4893 Haze 31 1008 70 10000 7.7 150 07:18 12.04.2020
4894 Haze 31 1009 70 10000 7.7 150 06:33 12.04.2020
4895 Haze 31 1009 70 10000 7.7 150 05:51 12.04.2020
4896 Haze 31 1010 70 10000 6.2 120 05:29 12.04.2020
4897 Clouds 29 1009 68 0 3.94 161 03:43 12.04.2020
4898 Haze 30 1011 70 10000 2.6 240 03:19 12.04.2020
4899 Haze 27 1011 88 10000 4.1 340 02:34 12.04.2020
4900 Haze 27 1011 88 10000 4.1 340 01:47 12.04.2020
4901 Clouds 29 1012 71 0 3.37 145 00:57 12.04.2020
4902 Clouds 25 1011 100 10000 1.5 0 00:39 12.04.2020
4903 Clouds 25 1011 100 10000 1.5 0 00:19 12.04.2020
4904 Clouds 25 1011 100 10000 1.5 0 23:46 11.04.2020
4905 Clouds 24 1010 100 10000 1.5 0 23:24 11.04.2020
4906 Clouds 24 1010 100 10000 1.5 0 22:41 11.04.2020
4907 Clouds 24 1010 100 10000 1.5 0 22:22 11.04.2020
4908 Clouds 24 1010 100 10000 1.5 0 21:57 11.04.2020
4909 Clouds 25 1010 94 10000 1.5 0 21:37 11.04.2020
4910 Clouds 25 1010 94 10000 1.5 0 21:37 11.04.2020
4911 Clouds 25 1010 94 10000 1.5 0 21:19 11.04.2020
4912 Clouds 25 1010 94 10000 1.5 0 20:58 11.04.2020
4913 Clouds 25 1010 100 10000 1.5 0 20:39 11.04.2020
4914 Clouds 25 1010 100 10000 1.5 0 20:20 11.04.2020
4915 Clouds 25 1010 100 10000 1.5 0 20:20 11.04.2020
4916 Clouds 25 1010 100 10000 1.5 0 19:58 11.04.2020
4917 Clouds 26 1010 94 10000 1.5 0 19:38 11.04.2020
4918 Clouds 26 1010 94 10000 1.5 0 19:19 11.04.2020
4919 Clouds 26 1010 94 10000 1.5 0 18:56 11.04.2020
4920 Clouds 26 1011 94 10000 1.5 0 18:38 11.04.2020
4921 Clouds 26 1011 94 10000 1.5 0 18:20 11.04.2020
4922 Clouds 26 1011 94 10000 1.5 0 17:58 11.04.2020
4923 Rain 26 1011 83 0 5.63 123 17:40 11.04.2020
4924 Clouds 26 1012 94 10000 2.6 150 17:20 11.04.2020
4925 Clouds 26 1012 94 10000 2.6 150 16:43 11.04.2020
4926 Rain 26 1011 83 0 5.63 123 16:22 11.04.2020
4927 Rain 26 1011 83 0 5.63 123 15:59 11.04.2020
4928 Rain 26 1011 83 0 5.63 123 15:59 11.04.2020
4929 Rain 26 1011 83 0 5.63 123 15:36 11.04.2020
4930 Rain 26 1013 83 0 6.34 132 15:18 11.04.2020
4931 Rain 26 1013 82 0 5.85 130 14:42 11.04.2020
4932 Rain 26 1013 83 0 6.34 132 14:42 11.04.2020
4933 Rain 26 1013 82 0 5.85 130 14:23 11.04.2020
4934 Rain 26 1013 82 0 5.85 130 13:58 11.04.2020
4935 Rain 26 1013 82 0 5.85 130 13:38 11.04.2020
4936 Rain 26 1013 82 0 5.85 130 13:18 11.04.2020
4937 Rain 26 1013 82 0 5.85 130 12:41 11.04.2020
4938 Rain 27 1011 82 0 5.83 139 12:18 11.04.2020
4939 Rain 27 1011 82 0 5.83 139 11:56 11.04.2020
4940 Clouds 28 1009 83 10000 10.3 150 11:38 11.04.2020
4941 Clouds 28 1009 83 10000 10.3 150 11:18 11.04.2020
4942 Clouds 28 1009 83 10000 10.3 150 10:42 11.04.2020
4943 Clouds 30 1008 74 10000 5.1 160 10:22 11.04.2020
4944 Clouds 30 1008 74 10000 5.1 160 09:58 11.04.2020
4945 Clouds 30 1008 74 0 10.3 160 09:39 11.04.2020
4946 Clouds 30 1008 74 0 10.3 160 09:20 11.04.2020
4947 Rain 28 1009 81 0 5.41 155 08:46 11.04.2020
4948 Haze 32 1008 66 10000 5.1 180 08:27 11.04.2020
4949 Haze 32 1008 66 10000 5.1 180 07:50 11.04.2020
4950 Clouds 32 1009 70 10000 5.1 160 07:28 11.04.2020
4951 Clouds 32 1009 70 10000 5.1 160 06:49 11.04.2020
4952 Clouds 32 1010 70 10000 7.7 160 06:18 11.04.2020
4953 Clouds 31 1011 74 10000 5.7 130 05:24 11.04.2020
4954 Rain 29 1010 73 0 4.45 162 03:40 11.04.2020
4955 Clouds 29 1013 89 10000 1.5 120 01:55 11.04.2020
4956 Clouds 28 1013 83 10000 1.5 0 01:23 11.04.2020
4957 Clouds 28 1013 83 10000 1.5 0 00:44 11.04.2020
4958 Clouds 25 1012 100 10000 1.5 0 00:19 11.04.2020
4959 Clouds 25 1012 100 10000 1.5 0 23:57 10.04.2020
4960 Clouds 25 1012 100 10000 1.5 0 23:38 10.04.2020
4961 Clouds 25 1012 100 10000 1.5 0 23:18 10.04.2020
4962 Clouds 25 1012 100 10000 1.5 0 23:18 10.04.2020
4963 Clouds 25 1012 100 10000 1.5 0 22:43 10.04.2020
4964 Clouds 26 1012 81 0 2.6 117 22:21 10.04.2020
4965 Clouds 26 1012 81 0 2.6 117 21:58 10.04.2020
4966 Clouds 26 1012 81 0 2.6 117 21:39 10.04.2020
4967 Rain 24 1011 86 0 1.43 82 21:20 10.04.2020
4968 Rain 24 1011 86 0 1.43 82 20:41 10.04.2020
4969 Rain 24 1011 86 0 1.43 82 20:23 10.04.2020
4970 Rain 24 1011 86 0 1.43 82 19:58 10.04.2020
4971 Rain 24 1011 86 0 1.43 82 19:40 10.04.2020
4972 Rain 24 1011 86 0 1.43 82 19:20 10.04.2020
4973 Rain 24 1011 86 0 1.43 82 18:57 10.04.2020
4974 Rain 24 1011 86 0 1.43 82 18:39 10.04.2020
4975 Rain 24 1012 88 0 1.64 84 18:21 10.04.2020
4976 Rain 24 1012 88 0 1.64 84 17:58 10.04.2020
4977 Rain 24 1012 88 0 1.64 84 17:39 10.04.2020
4978 Rain 24 1012 88 0 1.64 84 17:20 10.04.2020
4979 Rain 24 1012 88 0 1.64 84 16:55 10.04.2020
4980 Clouds 26 1013 94 10000 1.5 0 16:36 10.04.2020
4981 Clouds 26 1013 94 10000 1.5 0 16:18 10.04.2020
4982 Clouds 26 1013 94 10000 1.5 0 15:54 10.04.2020
4983 Clouds 26 1013 94 10000 1.5 0 15:36 10.04.2020
4984 Clouds 26 1013 94 10000 1.5 0 15:18 10.04.2020
4985 Clouds 26 1013 94 10000 1.5 0 14:42 10.04.2020
4986 Clouds 27 1013 88 10000 2.6 170 14:23 10.04.2020
4987 Clouds 27 1013 88 10000 2.6 170 13:57 10.04.2020
4988 Clouds 27 1012 88 10000 2.6 140 13:39 10.04.2020
4989 Clouds 27 1012 88 10000 2.6 140 13:20 10.04.2020
4990 Clouds 27 1012 88 10000 2.6 140 12:43 10.04.2020
4991 Rain 26 1012 83 0 3.24 112 12:22 10.04.2020
4992 Rain 26 1012 83 0 3.24 112 11:55 10.04.2020
4993 Clouds 27 1011 88 10000 5.1 140 11:36 10.04.2020
4994 Clouds 27 1011 88 10000 5.1 140 11:36 10.04.2020
4995 Clouds 27 1011 88 10000 5.1 140 11:18 10.04.2020
4996 Clouds 27 1011 88 10000 5.1 140 10:42 10.04.2020
4997 Clouds 28 1010 83 10000 5.1 130 10:22 10.04.2020
4998 Clouds 28 1010 83 10000 5.1 130 09:45 10.04.2020
4999 Rain 28 1010 80 0 4.05 154 09:25 10.04.2020
5000 Rain 28 1010 80 0 4.05 154 08:57 10.04.2020
5001 Clouds 30 1010 74 10000 6.2 190 08:39 10.04.2020
5002 Clouds 30 1010 74 10000 6.2 190 08:20 10.04.2020
5003 Clouds 30 1010 74 10000 6.2 190 07:44 10.04.2020
5004 Clouds 31 1011 70 10000 3.6 240 07:22 10.04.2020
5005 Clouds 31 1011 70 10000 3.6 240 06:45 10.04.2020
5006 Clouds 31 1011 70 10000 3.6 200 06:25 10.04.2020
5007 Clouds 30 1013 74 10000 5.7 180 05:38 10.04.2020
5008 Clouds 30 1013 74 10000 5.7 180 04:57 10.04.2020
5009 Clouds 31 1014 70 10000 4.1 10 03:41 10.04.2020
5010 Clouds 30 1014 74 10000 5.1 350 02:59 10.04.2020
5011 Clouds 28 1014 83 10000 5.1 350 02:38 10.04.2020
5012 Clouds 28 1014 83 10000 5.1 350 02:19 10.04.2020
5013 Clouds 28 1014 83 10000 5.1 350 01:29 10.04.2020
5014 Clouds 26 1014 88 10000 2.6 340 00:49 10.04.2020
5015 Clouds 24 1013 100 10000 2.6 300 00:22 10.04.2020
5016 Clouds 24 1013 100 10000 2.6 300 23:44 09.04.2020
5017 Haze 24 1012 100 10000 1.5 0 23:26 09.04.2020
5018 Haze 24 1012 100 10000 1.5 0 22:59 09.04.2020
5019 Clouds 26 1013 81 0 4.06 117 22:40 09.04.2020
5020 Clouds 24 1011 100 10000 1.5 350 22:22 09.04.2020
5021 Clouds 24 1011 100 10000 1.5 350 21:42 09.04.2020
5022 Clouds 25 1011 100 4000 2.6 350 21:24 09.04.2020
5023 Clouds 25 1011 100 4000 2.6 350 20:55 09.04.2020
5024 Clouds 25 1011 100 10000 2.6 350 20:37 09.04.2020
5025 Clouds 25 1011 100 10000 2.6 350 20:18 09.04.2020
5026 Rain 26 1012 82 0 4.6 114 19:40 09.04.2020
5027 Clouds 25 1011 100 10000 1 0 19:22 09.04.2020
5028 Clouds 25 1011 100 10000 1 0 18:42 09.04.2020
5029 Clouds 25 1012 100 10000 1 360 18:21 09.04.2020
5030 Clouds 25 1012 100 10000 1 360 17:59 09.04.2020
5031 Clouds 25 1012 100 10000 1 360 17:59 09.04.2020
5032 Clouds 25 1012 100 10000 1.5 0 17:39 09.04.2020
5033 Clouds 25 1012 100 10000 1.5 0 17:19 09.04.2020
5034 Rain 26 1012 83 0 5.31 115 16:40 09.04.2020
5035 Clouds 25 1012 100 10000 1.5 0 16:20 09.04.2020
5036 Clouds 25 1012 100 10000 1.5 0 15:57 09.04.2020
5037 Clouds 25 1012 100 10000 3.1 320 15:38 09.04.2020
5038 Clouds 25 1012 100 10000 3.1 320 15:38 09.04.2020
5039 Clouds 25 1012 100 10000 3.1 320 15:19 09.04.2020
5040 Clouds 25 1012 100 10000 3.1 320 14:56 09.04.2020
5041 Clouds 25 1012 100 10000 3.1 330 14:36 09.04.2020
5042 Clouds 25 1012 100 10000 3.1 330 14:18 09.04.2020
5043 Rain 26 1014 83 0 5.64 132 13:42 09.04.2020
5044 Clouds 27 1012 88 10000 3.1 100 13:23 09.04.2020
5045 Clouds 27 1012 88 10000 3.1 100 12:55 09.04.2020
5046 Clouds 27 1011 88 10000 2.6 60 12:36 09.04.2020
5047 Clouds 27 1011 88 10000 2.6 60 12:18 09.04.2020
5048 Clouds 27 1011 88 10000 2.6 60 11:43 09.04.2020
5049 Clouds 27 1010 88 10000 5.1 140 11:20 09.04.2020
5050 Clouds 27 1010 88 10000 5.1 140 10:58 09.04.2020
5051 Rain 27 1012 82 0 6.05 129 10:40 09.04.2020
5052 Rain 27 1012 82 0 6.05 129 10:21 09.04.2020
5053 Rain 27 1012 82 0 6.05 129 09:57 09.04.2020
5054 Rain 27 1012 82 0 6.05 129 09:56 09.04.2020
5055 Rain 27 1012 82 0 6.05 129 09:38 09.04.2020
5056 Rain 27 1010 80 0 4.36 157 09:20 09.04.2020
5057 Rain 27 1010 80 0 4.36 157 08:44 09.04.2020
5058 Rain 27 1010 80 0 4.36 157 08:23 09.04.2020
5059 Rain 27 1010 80 0 4.36 157 07:56 09.04.2020
5060 Rain 27 1010 80 0 4.36 157 07:27 09.04.2020
5061 Rain 27 1010 80 0 4.36 157 06:56 09.04.2020
5062 Rain 28 1010 76 0 3.84 166 06:25 09.04.2020
5063 Rain 28 1010 76 0 3.84 166 05:40 09.04.2020
5064 Clouds 30 1012 74 10000 5.1 150 03:55 09.04.2020
5065 Clouds 28 1013 83 10000 1 0 02:30 09.04.2020
5066 Clouds 28 1013 83 10000 1 0 01:41 09.04.2020
5067 Clouds 28 1013 83 10000 1 0 01:41 09.04.2020
5068 Clouds 27 1012 88 10000 1.5 0 01:23 09.04.2020
5069 Clouds 27 1012 88 10000 1.5 0 00:43 09.04.2020
5070 Clear 25 1012 100 10000 1.5 30 00:20 09.04.2020
5071 Clear 25 1012 100 10000 1.5 30 23:58 08.04.2020
5072 Rain 26 1012 81 0 3 113 23:40 08.04.2020
5073 Rain 26 1012 81 0 3 113 23:40 08.04.2020
5074 Clear 24 1011 100 10000 3 113 23:21 08.04.2020
5075 Clear 24 1011 100 10000 3 113 22:43 08.04.2020
5076 Clouds 25 1010 100 10000 1.5 0 22:24 08.04.2020
5077 Clouds 25 1010 100 10000 1.5 0 22:24 08.04.2020
5078 Clouds 25 1010 100 10000 1.5 0 21:56 08.04.2020
5079 Clouds 25 1010 100 10000 1.5 0 21:38 08.04.2020
5080 Clouds 25 1010 100 10000 1.5 0 21:19 08.04.2020
5081 Clouds 25 1010 100 10000 1.5 0 20:57 08.04.2020
5082 Clouds 25 1010 100 10000 1 0 20:38 08.04.2020
5083 Clouds 25 1010 100 10000 1 0 20:20 08.04.2020
5084 Clouds 25 1010 100 10000 1 0 19:42 08.04.2020
5085 Clouds 25 1010 100 10000 1.5 0 19:22 08.04.2020
5086 Clouds 25 1010 100 10000 1.5 0 18:58 08.04.2020
5087 Clouds 25 1010 100 10000 1.5 0 18:58 08.04.2020
5088 Rain 26 1011 82 0 3.95 125 18:40 08.04.2020
5089 Rain 26 1011 82 0 3.95 125 18:40 08.04.2020
5090 Clouds 25 1011 100 10000 1.5 0 18:21 08.04.2020
5091 Clouds 25 1011 100 10000 1.5 0 17:43 08.04.2020
5092 Clouds 27 1011 88 10000 2.6 110 17:22 08.04.2020
5093 Clouds 27 1011 88 10000 2.6 110 17:22 08.04.2020
5094 Clouds 27 1011 88 10000 2.6 110 16:59 08.04.2020
5095 Rain 26 1011 82 0 4.14 122 16:40 08.04.2020
5096 Clouds 27 1011 88 10000 5.1 110 16:22 08.04.2020
5097 Clouds 28 1011 83 10000 5.1 150 15:39 08.04.2020
5098 Clouds 28 1011 83 10000 5.1 150 15:39 08.04.2020
5099 Clouds 28 1011 83 10000 5.1 150 15:21 08.04.2020
5100 Clouds 28 1011 83 10000 5.1 150 14:59 08.04.2020
5101 Rain 26 1012 81 0 6.16 132 14:40 08.04.2020
5102 Clouds 28 1011 83 10000 7.7 150 14:22 08.04.2020
5103 Clouds 28 1011 83 10000 7.7 150 13:44 08.04.2020
5104 Clouds 28 1010 83 10000 7.7 150 13:21 08.04.2020
5105 Clouds 28 1010 83 10000 7.7 150 13:21 08.04.2020
5106 Clouds 28 1010 83 10000 7.7 150 12:58 08.04.2020
5107 Clouds 28 1009 83 10000 7.7 150 12:39 08.04.2020
5108 Clouds 28 1009 83 10000 7.7 150 12:18 08.04.2020
5109 Clouds 28 1009 83 10000 7.7 150 11:42 08.04.2020
5110 Clouds 28 1009 83 10000 10.3 140 11:23 08.04.2020
5111 Clouds 28 1009 83 10000 10.3 140 10:59 08.04.2020
5112 Rain 27 1010 79 0 6.24 145 10:40 08.04.2020
5113 Clouds 30 1008 74 10000 9.3 160 10:21 08.04.2020
5114 Clouds 30 1008 74 10000 9.3 160 09:59 08.04.2020
5115 Clouds 30 1008 74 10000 9.3 160 09:59 08.04.2020
5116 Clouds 30 1008 74 10000 9.3 160 09:41 08.04.2020
5117 Clouds 31 1007 66 10000 6.7 150 09:19 08.04.2020
5118 Clouds 31 1007 66 10000 6.7 150 08:57 08.04.2020
5119 Clouds 31 1007 66 10000 6.2 170 08:38 08.04.2020
5120 Clouds 31 1007 66 10000 6.2 170 08:20 08.04.2020
5121 Clouds 31 1007 66 10000 6.2 170 07:42 08.04.2020
5122 Haze 32 1007 66 10000 7.7 140 07:21 08.04.2020
5123 Clouds 32 1008 66 10000 5.7 160 06:28 08.04.2020
5124 Clouds 31 1009 70 10000 5.1 140 04:54 08.04.2020
5125 Clouds 31 1010 66 10000 5.1 170 02:50 08.04.2020
5126 Clouds 30 1011 74 10000 2.6 350 02:21 08.04.2020
5127 Clouds 30 1011 74 10000 2.6 350 01:56 08.04.2020
5128 Clouds 28 1011 83 10000 2.6 350 01:27 08.04.2020
5129 Clouds 28 1011 83 10000 2.6 350 00:45 08.04.2020
5130 Clouds 24 1010 100 10000 1.5 0 00:25 08.04.2020
5131 Clouds 25 1010 79 0 3.21 109 23:40 07.04.2020
5132 Clouds 23 1009 100 10000 1 0 23:22 07.04.2020
5133 Clouds 23 1009 100 10000 1 0 22:58 07.04.2020
5134 Clouds 25 1010 79 0 3.21 109 22:40 07.04.2020
5135 Clouds 23 1008 100 10000 1 0 22:21 07.04.2020
5136 Clouds 23 1008 100 10000 1 0 21:58 07.04.2020
5137 Clouds 25 1010 79 0 3.21 109 21:40 07.04.2020
5138 Clouds 24 1008 94 10000 2.6 0 21:20 07.04.2020
5139 Clouds 24 1008 94 10000 2.6 0 20:57 07.04.2020
5140 Clouds 25 1008 94 10000 2.6 0 20:38 07.04.2020
5141 Clouds 25 1008 94 10000 2.6 0 20:20 07.04.2020
5142 Clouds 25 1008 94 10000 2.6 0 19:57 07.04.2020
5143 Clouds 24 1009 100 10000 1.5 0 19:36 07.04.2020
5144 Clouds 24 1009 100 10000 1.5 0 19:18 07.04.2020
5145 Clouds 24 1009 100 10000 1.5 0 18:54 07.04.2020
5146 Clouds 25 1010 94 10000 1.5 0 18:36 07.04.2020
5147 Clouds 25 1010 94 10000 1.5 0 18:18 07.04.2020
5148 Clouds 25 1010 94 10000 1.5 0 17:44 07.04.2020
5149 Clouds 27 1010 83 10000 2.1 160 17:20 07.04.2020
5150 Clouds 27 1010 83 10000 2.1 160 16:46 07.04.2020
5151 Clouds 25 1009 81 0 4.35 123 16:27 07.04.2020
5152 Clouds 25 1009 81 0 4.35 123 15:55 07.04.2020
5153 Clouds 25 1009 81 0 4.35 123 15:36 07.04.2020
5154 Clouds 26 1011 80 0 4.89 124 15:18 07.04.2020
5155 Clouds 26 1011 80 0 4.89 124 14:39 07.04.2020
5156 Clouds 26 1011 80 0 5.01 123 14:21 07.04.2020
5157 Clouds 26 1011 80 0 5.01 123 13:54 07.04.2020
5158 Clouds 26 1011 80 0 5.01 123 13:36 07.04.2020
5159 Clouds 26 1011 80 0 5.01 123 13:18 07.04.2020
5160 Clouds 26 1011 80 0 5.01 123 12:40 07.04.2020
5161 Clouds 26 1009 78 0 4.68 139 12:22 07.04.2020
5162 Clouds 26 1009 78 0 4.68 139 11:59 07.04.2020
5163 Clouds 26 1009 78 0 4.68 139 11:41 07.04.2020
5164 Clouds 28 1008 78 10000 5.1 160 11:21 07.04.2020
5165 Clouds 28 1008 78 10000 5.1 160 10:56 07.04.2020
5166 Clouds 29 1007 74 10000 5.1 150 10:37 07.04.2020
5167 Clouds 29 1007 74 10000 5.1 150 10:18 07.04.2020
5168 Clouds 29 1007 74 10000 5.1 150 09:43 07.04.2020
5169 Clouds 31 1007 66 10000 5.1 170 09:18 07.04.2020
5170 Clouds 31 1007 66 10000 5.1 170 08:41 07.04.2020
5171 Clouds 31 1007 70 10000 6.2 160 08:23 07.04.2020
5172 Clouds 31 1007 70 10000 6.2 160 07:57 07.04.2020
5173 Clouds 32 1007 66 10000 6.2 160 07:38 07.04.2020
5174 Clouds 32 1007 66 10000 6.2 160 07:20 07.04.2020
5175 Clouds 32 1007 66 10000 6.2 160 06:42 07.04.2020
5176 Clouds 32 1008 66 10000 6.2 160 06:18 07.04.2020
5177 Haze 32 1009 62 10000 5.1 170 05:29 07.04.2020
5178 Haze 31 1010 66 10000 5.1 150 04:35 07.04.2020
5179 Haze 32 1011 62 10000 5.1 180 03:24 07.04.2020
5180 Haze 32 1011 62 10000 5.1 180 02:47 07.04.2020
5181 Clouds 30 1011 66 10000 1.5 0 01:43 07.04.2020
5182 Clouds 27 1010 83 10000 2.1 340 01:23 07.04.2020
5183 Clouds 24 1010 100 10000 1 0 00:26 07.04.2020
5184 Clouds 24 1010 100 10000 1 0 23:44 06.04.2020
5185 Clouds 24 1010 100 10000 1 0 23:44 06.04.2020
5186 Clouds 23 1009 100 10000 1.5 0 23:23 06.04.2020
5187 Clouds 23 1009 100 10000 1.5 0 22:56 06.04.2020
5188 Clouds 25 1010 77 0 1.86 93 22:37 06.04.2020
5189 Clouds 25 1010 77 0 1.86 93 22:19 06.04.2020
5190 Clouds 25 1010 77 0 1.86 93 21:56 06.04.2020
5191 Clouds 24 1009 100 10000 1.5 0 21:37 06.04.2020
5192 Clouds 24 1009 100 10000 1.5 0 21:18 06.04.2020
5193 Clouds 24 1009 100 10000 1.5 0 20:42 06.04.2020
5194 Clouds 24 1009 100 10000 2.6 330 20:21 06.04.2020
5195 Clouds 24 1009 100 10000 2.6 330 19:58 06.04.2020
5196 Clouds 24 1009 100 10000 1.5 0 19:39 06.04.2020
5197 Clouds 24 1009 100 10000 1.5 0 19:20 06.04.2020
5198 Clouds 24 1009 100 10000 1.5 0 18:45 06.04.2020
5199 Clouds 24 1010 100 10000 1.5 0 18:24 06.04.2020
5200 Clouds 24 1010 100 10000 1.5 0 18:24 06.04.2020
5201 Clouds 24 1010 100 10000 1.5 0 17:59 06.04.2020
5202 Clouds 24 1010 100 10000 1.5 0 17:41 06.04.2020
5203 Clouds 24 1010 94 10000 1.5 0 17:19 06.04.2020
5204 Clouds 24 1010 94 10000 1.5 0 16:49 06.04.2020
5205 Clouds 24 1010 94 10000 1.5 0 16:49 06.04.2020
5206 Clouds 25 1011 88 10000 1.5 0 16:31 06.04.2020
5207 Clouds 25 1011 88 10000 2.6 160 15:00 06.04.2020
5208 Clouds 25 1011 88 10000 2.6 140 13:45 06.04.2020
5209 Clouds 25 1011 88 10000 2.6 140 13:45 06.04.2020
5210 Clouds 26 1010 83 10000 2.6 140 13:23 06.04.2020
5211 Clouds 26 1010 83 10000 2.6 140 12:50 06.04.2020
5212 Clouds 26 1010 83 10000 2.6 140 12:50 06.04.2020
5213 Clouds 26 1010 83 10000 2.6 140 12:50 06.04.2020
5214 Clouds 26 1010 83 10000 2.6 140 12:50 06.04.2020
5215 Clouds 26 1010 83 10000 2.6 140 12:50 06.04.2020
5216 Clouds 26 1009 83 10000 2.6 150 12:21 06.04.2020
5217 Clouds 26 1009 83 10000 2.6 150 11:53 06.04.2020
5218 Clouds 26 1009 83 10000 2.6 150 11:53 06.04.2020
5219 Clouds 26 1009 83 10000 2.6 150 11:53 06.04.2020
5220 Clouds 26 1009 83 10000 2.6 150 11:53 06.04.2020
5221 Clouds 26 1009 83 10000 2.6 150 11:53 06.04.2020
5222 Clouds 27 1008 78 10000 3.6 150 11:28 06.04.2020
5223 Clouds 27 1008 78 10000 3.6 150 11:28 06.04.2020
5224 Clouds 27 1008 78 10000 3.6 150 11:28 06.04.2020
5225 Clouds 27 1008 78 10000 3.6 150 11:28 06.04.2020
5226 Clouds 27 1008 78 10000 3.6 150 11:28 06.04.2020
5227 Clouds 27 1008 78 10000 3.6 150 10:49 06.04.2020
5228 Clouds 27 1008 78 10000 3.6 150 10:49 06.04.2020
5229 Clouds 27 1008 78 10000 3.6 150 10:49 06.04.2020
5230 Clouds 27 1008 78 10000 3.6 150 10:49 06.04.2020
5231 Clouds 27 1008 78 10000 3.6 150 10:49 06.04.2020
5232 Clouds 29 1008 74 10000 5.1 170 10:21 06.04.2020
5233 Clouds 29 1008 74 10000 5.1 170 10:21 06.04.2020
5234 Clouds 29 1008 74 10000 5.1 170 09:42 06.04.2020
5235 Clouds 29 1008 74 10000 5.1 170 09:42 06.04.2020
5236 Clouds 29 1008 74 10000 5.1 170 09:42 06.04.2020
5237 Clouds 29 1008 74 10000 5.1 170 09:42 06.04.2020
5238 Clouds 29 1008 74 10000 5.1 170 09:42 06.04.2020
5239 Clouds 30 1008 70 10000 5.1 200 09:20 06.04.2020
5240 Clouds 30 1008 70 10000 5.1 200 08:49 06.04.2020
5241 Clouds 30 1008 70 10000 7.7 200 08:29 06.04.2020
5242 Clouds 30 1008 70 10000 7.7 200 08:29 06.04.2020
5243 Clouds 30 1008 70 10000 7.7 200 08:29 06.04.2020
5244 Clouds 31 1008 66 10000 5.1 200 07:24 06.04.2020
5245 Clouds 31 1008 66 10000 5.1 200 07:24 06.04.2020
5246 Clouds 31 1008 66 10000 5.1 200 07:24 06.04.2020
5247 Clouds 31 1009 62 10000 5.1 200 06:28 06.04.2020
5248 Clouds 31 1009 62 10000 5.1 200 06:01 06.04.2020
5249 Clouds 31 1009 62 10000 5.1 200 05:57 06.04.2020
5250 Clouds 31 1009 62 10000 5.1 200 05:57 06.04.2020
5251 Clouds 32 1011 55 10000 1.5 0 04:18 06.04.2020
5252 Haze 30 1012 66 10000 1.5 0 02:54 06.04.2020
5253 Haze 27 1012 78 10000 3.1 340 01:56 06.04.2020
5254 Haze 25 1012 94 10000 3.1 320 00:58 06.04.2020
5255 Clouds 28 1012 61 0 1.29 159 00:28 06.04.2020
5256 Clouds 24 1012 74 0 1.74 93 23:55 05.04.2020
5257 Clouds 24 1012 74 0 1.74 93 23:37 05.04.2020
5258 Clouds 24 1012 74 0 1.74 93 23:19 05.04.2020
5259 Clouds 24 1012 74 0 1.74 93 22:54 05.04.2020
5260 Clouds 24 1012 74 0 1.74 93 22:36 05.04.2020
5261 Clouds 21 1010 100 10000 2.6 330 22:18 05.04.2020
5262 Clouds 21 1010 100 10000 2.6 330 21:41 05.04.2020
5263 Clouds 21 1010 100 10000 2.6 330 21:23 05.04.2020
5264 Clouds 22 1010 100 10000 2.6 340 20:24 05.04.2020
5265 Clouds 22 1010 100 10000 2.6 340 19:43 05.04.2020
5266 Clouds 22 1010 100 10000 2.6 340 19:23 05.04.2020
5267 Clouds 22 1010 100 10000 1.5 0 18:48 05.04.2020
5268 Clouds 22 1010 100 10000 1.5 0 18:48 05.04.2020
5269 Clouds 22 1010 100 10000 1.5 0 18:18 05.04.2020
5270 Clouds 22 1011 100 10000 1.5 0 17:46 05.04.2020
5271 Clouds 22 1011 100 10000 1.5 0 17:46 05.04.2020
5272 Clouds 22 1011 100 10000 1.5 0 17:46 05.04.2020
5273 Clouds 22 1011 100 10000 1.5 0 17:46 05.04.2020
5274 Clouds 22 1011 100 10000 1.5 0 17:46 05.04.2020
5275 Clouds 22 1011 100 10000 1.5 0 17:21 05.04.2020
5276 Clouds 23 1011 100 10000 1.5 0 16:47 05.04.2020
5277 Clouds 24 1012 94 10000 1.5 150 16:19 05.04.2020
5278 Clouds 24 1012 94 10000 1.5 150 15:45 05.04.2020
5279 Clouds 24 1012 94 10000 1.5 150 15:45 05.04.2020
5280 Clouds 25 1012 94 10000 1.5 150 15:25 05.04.2020
5281 Clouds 25 1012 94 10000 1.5 150 14:48 05.04.2020
5282 Clouds 25 1012 94 10000 1.5 150 14:48 05.04.2020
5283 Clouds 25 1012 94 10000 1.5 150 14:48 05.04.2020
5284 Clouds 25 1012 94 10000 1.5 150 14:48 05.04.2020
5285 Clouds 25 1012 94 10000 1.5 150 14:48 05.04.2020
5286 Clouds 25 1012 94 10000 3.1 130 13:59 05.04.2020
5287 Clouds 25 1012 94 10000 3.1 130 13:40 05.04.2020
5288 Clouds 25 1012 94 10000 3.1 130 13:40 05.04.2020
5289 Clouds 25 1012 94 10000 3.1 130 13:40 05.04.2020
5290 Clouds 25 1012 94 10000 3.1 130 13:40 05.04.2020
5291 Clouds 25 1012 94 10000 3.1 130 13:40 05.04.2020
5292 Clouds 26 1010 88 10000 3.1 130 12:00 05.04.2020
5293 Clouds 26 1010 88 10000 3.1 130 12:00 05.04.2020
5294 Clouds 26 1010 88 10000 3.1 130 12:00 05.04.2020
5295 Clouds 26 1010 88 10000 3.1 130 11:39 05.04.2020
5296 Clouds 28 1009 78 10000 5.1 130 11:19 05.04.2020
5297 Clouds 28 1009 78 10000 5.1 130 10:46 05.04.2020
5298 Clouds 28 1009 78 10000 5.1 130 10:46 05.04.2020
5299 Clouds 28 1009 78 10000 5.1 130 10:46 05.04.2020
5300 Clouds 30 1009 70 10000 5.1 160 10:22 05.04.2020
5301 Clouds 30 1009 70 10000 5.1 160 09:52 05.04.2020
5302 Clouds 30 1009 70 10000 5.1 160 09:52 05.04.2020
5303 Clouds 26 1010 72 0 3.84 139 09:25 05.04.2020
5304 Clouds 26 1010 72 0 3.84 139 09:25 05.04.2020
5305 Clouds 26 1010 72 0 3.84 139 09:25 05.04.2020
5306 Clouds 26 1010 72 0 3.84 139 09:25 05.04.2020
5307 Clouds 26 1010 72 0 3.84 139 09:25 05.04.2020
5308 Clouds 31 1007 66 10000 5.1 190 07:58 05.04.2020
5309 Clouds 33 1009 49 10000 7.7 190 05:37 05.04.2020
5310 Clouds 33 1009 49 10000 7.7 190 05:37 05.04.2020
5311 Haze 31 1010 62 10000 5.1 150 03:58 05.04.2020
5312 Clear 29 1009 58 0 2.86 187 03:24 05.04.2020
5313 Haze 29 1012 74 10000 2.6 350 01:57 05.04.2020
5314 Haze 29 1012 74 10000 2.6 350 01:39 05.04.2020
5315 Clouds 26 1011 83 10000 2.6 290 00:52 05.04.2020
5316 Clear 28 1012 63 0 1.35 160 00:22 05.04.2020
5317 Clear 25 1011 78 0 1.73 82 23:58 04.04.2020
5318 Clear 25 1011 78 0 1.73 82 23:58 04.04.2020
5319 Clear 25 1011 78 0 1.73 82 23:38 04.04.2020
5320 Clear 25 1011 78 0 1.73 82 23:20 04.04.2020
5321 Clear 25 1011 78 0 1.73 82 22:56 04.04.2020
5322 Clear 25 1011 78 0 1.73 82 22:38 04.04.2020
5323 Clouds 23 1010 100 10000 1.5 0 22:19 04.04.2020
5324 Clouds 23 1010 100 10000 1.5 0 22:19 04.04.2020
5325 Clouds 23 1010 100 10000 1.5 0 21:55 04.04.2020
5326 Clouds 23 1010 100 10000 1.5 0 21:37 04.04.2020
5327 Clouds 23 1010 100 10000 1.5 0 21:18 04.04.2020
5328 Clouds 23 1010 100 10000 1.5 0 20:43 04.04.2020
5329 Clouds 25 1010 79 0 2.28 116 20:23 04.04.2020
5330 Clouds 25 1010 79 0 2.28 116 19:59 04.04.2020
5331 Clouds 25 1010 79 0 2.28 116 19:38 04.04.2020
5332 Clouds 23 1010 100 10000 1.5 0 19:20 04.04.2020
5333 Clouds 25 1010 79 0 2.28 116 18:58 04.04.2020
5334 Clouds 25 1010 79 0 2.28 116 18:38 04.04.2020
5335 Clouds 24 1010 100 10000 1.5 0 18:19 04.04.2020
5336 Clouds 24 1010 100 10000 1.5 0 18:19 04.04.2020
5337 Clouds 24 1010 100 10000 1.5 0 17:56 04.04.2020
5338 Clouds 24 1010 100 10000 1.5 0 17:38 04.04.2020
5339 Clouds 24 1011 100 10000 1.5 0 17:18 04.04.2020
5340 Clouds 24 1011 100 10000 1.5 0 16:42 04.04.2020
5341 Clouds 25 1011 94 10000 1.5 0 16:23 04.04.2020
5342 Clouds 25 1011 94 10000 1.5 0 15:56 04.04.2020
5343 Clouds 25 1011 94 10000 1.5 0 15:38 04.04.2020
5344 Clouds 25 1011 94 10000 1.5 0 15:19 04.04.2020
5345 Clouds 25 1011 94 10000 1.5 0 14:43 04.04.2020
5346 Clouds 25 1011 100 10000 1.5 0 14:23 04.04.2020
5347 Clouds 25 1011 100 10000 1.5 0 13:56 04.04.2020
5348 Clouds 25 1011 100 10000 1.5 0 13:38 04.04.2020
5349 Clouds 26 1011 94 10000 1.5 0 13:20 04.04.2020
5350 Clouds 26 1011 94 10000 1.5 0 12:45 04.04.2020
5351 Clouds 26 1010 94 10000 3.6 160 12:27 04.04.2020
5352 Clouds 26 1010 94 10000 3.6 160 11:59 04.04.2020
5353 Clouds 26 1010 94 10000 3.6 160 11:39 04.04.2020
5354 Clouds 28 1009 83 10000 3.6 150 11:21 04.04.2020
5355 Clouds 28 1009 83 10000 3.6 150 10:56 04.04.2020
5356 Clouds 28 1009 83 10000 3.6 150 10:38 04.04.2020
5357 Clouds 28 1009 83 10000 3.6 150 10:19 04.04.2020
5358 Clouds 30 1008 74 10000 3.6 190 09:55 04.04.2020
5359 Clouds 30 1008 74 10000 3.6 190 09:37 04.04.2020
5360 Clouds 30 1008 74 10000 3.6 190 09:18 04.04.2020
5361 Rain 29 1008 66 0 2.44 234 08:42 04.04.2020
5362 Clouds 31 1007 70 10000 4.6 230 08:21 04.04.2020
5363 Clouds 31 1007 70 10000 4.6 230 07:47 04.04.2020
5364 Clouds 31 1007 70 10000 4.6 230 07:27 04.04.2020
5365 Clouds 31 1008 70 10000 4.6 240 06:56 04.04.2020
5366 Clouds 30 1008 79 10000 3.1 300 06:20 04.04.2020
5367 Clouds 30 1008 79 10000 3.1 300 05:43 04.04.2020
5368 Clouds 30 1008 79 10000 3.1 300 05:43 04.04.2020
5369 Clouds 31 1010 70 10000 5.1 320 05:24 04.04.2020
5370 Clouds 31 1010 70 10000 5.1 320 04:31 04.04.2020
5371 Clouds 30 1011 74 10000 5.1 330 03:51 04.04.2020
5372 Clouds 30 1011 74 10000 5.1 330 02:52 04.04.2020
5373 Clouds 30 1011 74 10000 5.1 330 02:33 04.04.2020
5374 Clouds 28 1011 83 10000 4.1 330 01:55 04.04.2020
5375 Clouds 27 1011 88 10000 2.6 330 01:25 04.04.2020
5376 Clouds 27 1011 88 10000 2.6 330 00:49 04.04.2020
5377 Clouds 24 1011 100 10000 2.6 330 00:30 04.04.2020
5378 Clouds 24 1011 100 10000 2.6 330 23:40 03.04.2020
5379 Clouds 24 1010 100 10000 2.1 350 23:21 03.04.2020
5380 Clouds 24 1010 100 10000 2.1 350 22:58 03.04.2020
5381 Clouds 24 1010 100 10000 2.1 350 22:39 03.04.2020
5382 Clouds 25 1011 84 0 1.88 33 22:18 03.04.2020
5383 Clouds 25 1011 84 0 1.88 33 22:18 03.04.2020
5384 Clouds 25 1011 84 0 1.88 33 21:44 03.04.2020
5385 Clouds 25 1011 80 0 1.35 49 21:25 03.04.2020
5386 Clouds 25 1009 79 0 0.93 135 20:57 03.04.2020
5387 Clouds 25 1009 79 0 0.93 135 20:37 03.04.2020
5388 Clouds 25 1009 79 0 0.93 135 20:19 03.04.2020
5389 Clouds 25 1009 79 0 0.93 135 19:57 03.04.2020
5390 Clouds 25 1009 79 0 0.93 135 19:38 03.04.2020
5391 Clouds 25 1009 79 0 0.93 135 19:20 03.04.2020
5392 Clouds 25 1009 79 0 0.93 135 18:58 03.04.2020
5393 Clouds 25 1009 79 0 0.93 135 18:40 03.04.2020
5394 Clouds 25 1009 79 0 0.93 135 18:22 03.04.2020
5395 Clouds 26 1010 78 0 1.17 115 17:54 03.04.2020
5396 Clouds 26 1010 78 0 1.17 115 17:36 03.04.2020
5397 Clouds 24 1010 100 10000 3.1 350 17:18 03.04.2020
5398 Clouds 24 1010 100 10000 3.1 350 16:42 03.04.2020
5399 Clouds 24 1010 100 10000 3.1 350 16:21 03.04.2020
5400 Clouds 26 1010 78 0 1.17 115 15:58 03.04.2020
5401 Clouds 26 1010 78 0 1.17 115 15:39 03.04.2020
5402 Rain 25 1011 100 0 3.1 60 15:20 03.04.2020
5403 Rain 25 1011 100 0 3.1 60 14:55 03.04.2020
5404 Rain 25 1011 100 0 3.1 60 14:55 03.04.2020
5405 Clouds 26 1012 79 0 1.55 133 14:37 03.04.2020
5406 Clouds 26 1010 94 10000 5.1 340 14:19 03.04.2020
5407 Clouds 26 1010 94 10000 5.1 340 13:42 03.04.2020
5408 Clouds 26 1010 94 10000 5.1 340 13:24 03.04.2020
5409 Clouds 26 1010 94 10000 3.6 160 12:44 03.04.2020
5410 Clouds 27 1009 88 10000 3.6 160 12:20 03.04.2020
5411 Clouds 27 1009 88 10000 3.6 160 11:57 03.04.2020
5412 Clouds 27 1009 88 10000 3.6 160 11:39 03.04.2020
5413 Clouds 27 1009 88 10000 3.6 160 11:20 03.04.2020
5414 Clouds 28 1008 83 10000 2.1 190 10:59 03.04.2020
5415 Clouds 28 1008 83 10000 2.1 190 10:38 03.04.2020
5416 Clouds 28 1008 83 10000 2.1 190 10:20 03.04.2020
5417 Clouds 29 1008 79 10000 4.1 190 09:59 03.04.2020
5418 Clouds 29 1008 79 10000 4.1 190 09:40 03.04.2020
5419 Clouds 29 1008 79 10000 4.1 190 09:40 03.04.2020
5420 Clouds 29 1008 79 10000 4.1 190 09:21 03.04.2020
5421 Clouds 29 1007 79 10000 3.6 200 08:55 03.04.2020
5422 Clouds 29 1007 79 10000 3.6 200 08:37 03.04.2020
5423 Clouds 29 1007 79 10000 3.6 200 08:37 03.04.2020
5424 Clouds 29 1007 79 10000 3.6 200 08:18 03.04.2020
5425 Clouds 29 1007 79 10000 5.1 200 07:46 03.04.2020
5426 Clouds 29 1007 79 10000 5.1 200 07:27 03.04.2020
5427 Clouds 30 1007 79 10000 4.1 180 06:40 03.04.2020
5428 Clouds 30 1007 79 10000 4.1 180 06:21 03.04.2020
5429 Clouds 30 1008 74 10000 2.6 220 05:34 03.04.2020
5430 Clouds 27 1010 94 10000 2.6 170 03:40 03.04.2020
5431 Rain 27 1011 76 0 1.4 352 02:55 03.04.2020
5432 Rain 27 1011 76 0 0.78 310 01:53 03.04.2020
5433 Rain 27 1011 76 0 0.78 310 01:18 03.04.2020
5434 Rain 27 1011 76 0 0.78 310 00:34 03.04.2020
5435 Clouds 25 1010 81 0 1.12 58 23:57 02.04.2020
5436 Clouds 25 1010 81 0 1.12 58 23:39 02.04.2020
5437 Clouds 25 1010 81 0 1.12 58 23:19 02.04.2020
5438 Clouds 25 1010 81 0 1.12 58 23:19 02.04.2020
5439 Clouds 25 1010 81 0 1.12 58 22:43 02.04.2020
5440 Clouds 25 1010 81 0 1.12 58 22:25 02.04.2020
5441 Clouds 25 1010 81 0 1.12 58 21:59 02.04.2020
5442 Clouds 25 1010 81 0 1.12 58 21:38 02.04.2020
5443 Clouds 23 1008 100 10000 2.6 300 21:19 02.04.2020
5444 Clouds 23 1008 100 10000 2.6 300 20:55 02.04.2020
5445 Clouds 23 1008 100 10000 2.6 300 20:37 02.04.2020
5446 Clouds 23 1008 100 10000 2.1 0 20:18 02.04.2020
5447 Clouds 23 1008 100 10000 2.1 0 19:42 02.04.2020
5448 Clouds 24 1008 100 10000 2.6 330 19:20 02.04.2020
5449 Clouds 24 1008 100 10000 2.6 330 19:20 02.04.2020
5450 Clouds 24 1008 100 10000 2.6 330 18:56 02.04.2020
5451 Clouds 24 1008 100 10000 2.6 330 18:38 02.04.2020
5452 Clouds 24 1009 100 10000 1.5 0 18:19 02.04.2020
5453 Clouds 24 1009 100 10000 1.5 0 17:44 02.04.2020
5454 Clouds 24 1010 100 10000 2.1 300 17:26 02.04.2020
5455 Clouds 24 1010 100 10000 2.1 300 16:59 02.04.2020
5456 Clouds 24 1010 100 10000 2.1 300 16:40 02.04.2020
5457 Clouds 24 1010 100 10000 1 0 16:22 02.04.2020
5458 Clouds 24 1010 100 10000 1 0 15:57 02.04.2020
5459 Clouds 24 1010 100 10000 1 0 15:39 02.04.2020
5460 Clouds 24 1010 100 10000 1 0 15:19 02.04.2020
5461 Clouds 24 1010 100 10000 1 0 14:57 02.04.2020
5462 Clouds 24 1010 100 10000 1 0 14:38 02.04.2020
5463 Clouds 24 1010 100 10000 1 0 14:18 02.04.2020
5464 Clouds 24 1010 100 10000 1 0 13:55 02.04.2020
5465 Clouds 24 1010 100 10000 1 0 13:37 02.04.2020
5466 Clouds 24 1009 100 10000 1 0 13:18 02.04.2020
5467 Clouds 24 1009 100 10000 1 0 12:45 02.04.2020
5468 Clouds 24 1009 100 10000 1 0 12:45 02.04.2020
5469 Rain 24 1009 100 10000 2.1 0 12:20 02.04.2020
5470 Rain 24 1009 100 10000 2.1 0 11:58 02.04.2020
5471 Rain 24 1009 100 10000 2.1 0 11:58 02.04.2020
5472 Rain 24 1009 100 10000 2.1 0 11:39 02.04.2020
5473 Rain 25 1009 82 0 2.69 19 11:20 02.04.2020
5474 Rain 25 1009 82 0 2.69 19 11:20 02.04.2020
5475 Rain 25 1009 82 0 2.69 19 10:57 02.04.2020
5476 Rain 25 1009 82 0 2.69 19 10:38 02.04.2020
5477 Rain 25 1009 82 0 2.69 19 10:20 02.04.2020
5478 Rain 25 1009 82 0 2.69 19 09:58 02.04.2020
5479 Rain 25 1009 82 0 2.69 19 09:58 02.04.2020
5480 Rain 25 1009 82 0 2.69 19 09:58 02.04.2020
5481 Rain 25 1009 82 0 2.69 19 09:40 02.04.2020
5482 Rain 25 1008 84 0 2.18 26 09:20 02.04.2020
5483 Rain 25 1007 85 0 1.54 23 08:47 02.04.2020
5484 Rain 25 1007 85 0 1.54 23 08:28 02.04.2020
5485 Rain 25 1007 85 0 1.54 23 07:54 02.04.2020
5486 Rain 25 1007 85 0 1.54 23 07:36 02.04.2020
5487 Rain 28 1007 88 10000 1.5 170 07:18 02.04.2020
5488 Rain 28 1008 94 10000 2.1 90 06:23 02.04.2020
5489 Rain 28 1008 94 10000 2.1 90 05:46 02.04.2020
5490 Rain 28 1008 94 10000 2.1 90 05:46 02.04.2020
5491 Clouds 27 1009 94 10000 2.6 0 04:50 02.04.2020
5492 Clouds 27 1010 94 10000 1 0 02:19 02.04.2020
5493 Clouds 26 1010 94 10000 1 0 00:58 02.04.2020
5494 Clouds 26 1010 94 10000 1 0 00:36 02.04.2020
5495 Clouds 25 1009 100 10000 2.1 170 00:18 02.04.2020
5496 Clouds 25 1009 100 10000 2.1 170 23:38 01.04.2020
5497 Clouds 24 1008 100 10000 1 0 23:18 01.04.2020
5498 Clouds 24 1008 100 10000 1 0 22:41 01.04.2020
5499 Clouds 24 1007 100 10000 2.6 340 22:22 01.04.2020
5500 Clouds 24 1007 100 10000 2.6 340 21:58 01.04.2020
5501 Clouds 24 1007 100 10000 2.6 340 21:58 01.04.2020
5502 Clouds 24 1007 100 10000 2.6 340 21:39 01.04.2020
5503 Clouds 25 1008 94 10000 5.1 330 21:19 01.04.2020
5504 Clouds 25 1008 94 10000 5.1 330 21:19 01.04.2020
5505 Clouds 25 1008 94 10000 5.1 330 20:55 01.04.2020
5506 Clouds 25 1008 94 10000 5.1 330 20:37 01.04.2020
5507 Rain 25 1008 100 10000 2.6 350 20:18 01.04.2020
5508 Rain 25 1008 100 10000 2.6 350 19:43 01.04.2020
5509 Rain 25 1008 100 10000 3.1 330 19:22 01.04.2020
5510 Rain 25 1008 100 10000 3.1 330 18:59 01.04.2020
5511 Rain 25 1008 100 10000 3.1 330 18:59 01.04.2020
5512 Rain 25 1008 100 10000 3.1 330 18:59 01.04.2020
5513 Rain 25 1008 100 10000 3.1 330 18:59 01.04.2020
5514 Rain 25 1008 100 10000 3.1 330 18:40 01.04.2020
5515 Rain 25 1008 100 10000 2.1 0 18:21 01.04.2020
5516 Rain 25 1008 100 10000 2.1 0 17:56 01.04.2020
5517 Rain 25 1008 100 10000 2.1 0 17:56 01.04.2020
5518 Rain 25 1008 100 10000 2.1 0 17:56 01.04.2020
5519 Rain 25 1008 100 10000 2.1 0 17:36 01.04.2020
5520 Rain 25 1008 82 0 3.41 111 17:18 01.04.2020
5521 Rain 25 1008 82 0 3.41 111 16:43 01.04.2020
5522 Rain 25 1008 82 0 3.41 111 16:43 01.04.2020
5523 Rain 25 1008 82 0 3.41 111 16:25 01.04.2020
5524 Rain 25 1008 82 0 3.41 111 15:59 01.04.2020
5525 Rain 25 1008 82 0 3.41 111 15:41 01.04.2020
5526 Rain 25 1008 82 0 3.41 111 15:22 01.04.2020
5527 Rain 25 1010 84 0 3.07 129 14:58 01.04.2020
5528 Rain 25 1010 84 0 3.07 129 14:39 01.04.2020
5529 Rain 25 1010 84 0 3.02 104 14:20 01.04.2020
5530 Rain 25 1010 84 0 3.02 104 13:58 01.04.2020
5531 Rain 25 1010 84 0 3.02 104 13:38 01.04.2020
5532 Rain 25 1010 84 0 3.02 104 13:19 01.04.2020
5533 Rain 25 1010 84 0 3.02 104 12:56 01.04.2020
5534 Rain 25 1010 84 0 3.02 104 12:36 01.04.2020
5535 Rain 25 1008 80 0 2.5 22 12:18 01.04.2020
5536 Rain 25 1008 80 0 2.5 22 11:44 01.04.2020
5537 Rain 27 1008 83 10000 2.5 22 11:24 01.04.2020
5538 Rain 27 1008 83 10000 2.5 22 10:59 01.04.2020
5539 Rain 27 1008 83 10000 2.5 22 10:38 01.04.2020
5540 Rain 27 1008 83 10000 3.6 210 10:19 01.04.2020
5541 Rain 27 1008 83 10000 3.6 210 09:57 01.04.2020
5542 Rain 27 1008 83 10000 3.6 210 09:39 01.04.2020
5543 Clouds 29 1007 79 10000 3.6 210 09:18 01.04.2020
5544 Clouds 29 1007 79 10000 3.6 210 08:41 01.04.2020
5545 Clouds 30 1006 74 10000 5.1 220 08:18 01.04.2020
5546 Clouds 30 1006 74 10000 5.1 220 07:44 01.04.2020
5547 Clouds 31 1007 70 10000 3.6 240 07:21 01.04.2020
5548 Clouds 31 1007 70 10000 3.6 240 06:48 01.04.2020
5549 Clouds 31 1007 70 10000 1.5 0 06:26 01.04.2020
5550 Clouds 31 1007 70 10000 1.5 0 05:56 01.04.2020
5551 Clouds 31 1008 70 10000 3.1 200 04:32 01.04.2020
5552 Rain 26 1007 83 0 4.44 335 03:30 01.04.2020
5553 Clouds 30 1010 74 10000 5.1 140 02:49 01.04.2020
5554 Clouds 29 1009 83 10000 5.1 170 01:57 01.04.2020
5555 Clouds 29 1009 83 10000 5.1 170 01:38 01.04.2020
5556 Clouds 27 1009 88 10000 3.1 150 01:18 01.04.2020
5557 Clouds 27 1009 88 10000 3.1 150 00:45 01.04.2020
5558 Clouds 25 1009 100 10000 2.1 150 00:20 01.04.2020
5559 Clouds 25 1009 100 10000 2.1 150 23:42 31.03.2020
5560 Clouds 25 1008 100 10000 2.6 140 23:23 31.03.2020
5561 Clouds 25 1008 100 10000 2.6 140 22:58 31.03.2020
5562 Clouds 25 1008 100 10000 2.6 140 22:37 31.03.2020
5563 Clouds 25 1007 94 10000 1 40 22:19 31.03.2020
5564 Clouds 25 1007 94 10000 1 40 21:56 31.03.2020
5565 Clouds 25 1007 94 10000 1 40 21:37 31.03.2020
5566 Clouds 25 1007 100 10000 4.1 360 21:19 31.03.2020
5567 Clouds 25 1007 100 10000 4.1 360 20:55 31.03.2020
5568 Clouds 25 1007 100 10000 4.1 360 20:36 31.03.2020
5569 Clouds 25 1007 100 10000 4.1 340 20:18 31.03.2020
5570 Clouds 25 1007 100 10000 4.1 340 19:41 31.03.2020
5571 Clouds 25 1007 100 10000 5.1 340 19:22 31.03.2020
5572 Clouds 25 1007 100 10000 5.1 340 18:56 31.03.2020
5573 Clouds 25 1007 100 10000 5.1 340 18:37 31.03.2020
5574 Clouds 26 1008 94 10000 6.2 310 18:18 31.03.2020
5575 Clouds 26 1008 94 10000 6.2 310 17:54 31.03.2020
5576 Clouds 26 1008 94 10000 6.2 310 17:36 31.03.2020
5577 Clouds 25 1009 100 10000 1 10 17:18 31.03.2020
5578 Clouds 25 1009 100 10000 1 10 16:39 31.03.2020
5579 Clear 26 1009 94 10000 0.5 0 16:19 31.03.2020
5580 Clear 26 1009 94 10000 0.5 0 15:57 31.03.2020
5581 Clear 26 1009 94 10000 0.5 0 15:57 31.03.2020
5582 Clear 26 1009 94 10000 0.5 0 15:39 31.03.2020
5583 Clear 26 1009 94 10000 2.6 50 15:20 31.03.2020
5584 -273 0 0 0 0 0 15:20 31.03.2020
5585 Clear 26 1009 94 10000 2.6 50 14:57 31.03.2020
5586 Clear 26 1009 94 10000 2.6 50 14:38 31.03.2020
5587 Clouds 27 1008 88 0 2.1 30 14:20 31.03.2020
5588 Clouds 27 1008 88 0 2.1 30 13:42 31.03.2020
5589 Clouds 27 1008 88 10000 2.1 30 13:19 31.03.2020
5590 Clouds 27 1008 88 10000 2.1 30 12:55 31.03.2020
5591 Clouds 27 1008 88 10000 2.1 30 12:37 31.03.2020
5592 Clouds 27 1007 88 10000 2.1 34 12:18 31.03.2020
5593 Clouds 27 1007 88 10000 2.1 34 11:39 31.03.2020
5594 Rain 27 1008 80 0 2.75 328 11:20 31.03.2020
5595 Rain 27 1008 80 0 2.75 328 10:58 31.03.2020
5596 Rain 27 1008 80 0 2.75 328 10:39 31.03.2020
5597 Rain 27 1008 80 0 2.75 328 10:21 31.03.2020
5598 Rain 27 1008 80 0 2.75 328 09:56 31.03.2020
5599 Rain 27 1008 80 0 2.75 328 09:37 31.03.2020
5600 Rain 27 1008 80 0 2.75 328 09:37 31.03.2020
5601 Rain 27 1008 80 0 2.75 328 09:37 31.03.2020
5602 Rain 28 1006 76 0 5.03 308 09:19 31.03.2020
5603 Rain 28 1006 77 0 5.86 308 08:56 31.03.2020
5604 Rain 28 1006 77 0 5.86 308 08:37 31.03.2020
5605 Rain 28 1006 77 0 5.86 308 08:18 31.03.2020
5606 Clouds 33 1005 63 10000 8.2 280 07:44 31.03.2020
5607 Clouds 33 1005 63 10000 8.2 280 07:26 31.03.2020
5608 Clouds 32 1005 62 10000 9.3 310 06:59 31.03.2020
5609 Clouds 32 1005 62 10000 9.3 310 06:41 31.03.2020
5610 Clouds 32 1006 62 10000 10.3 310 05:44 31.03.2020
5611 Clouds 32 1008 62 10000 7.7 310 05:24 31.03.2020
5612 Clouds 30 1009 70 10000 7.7 320 02:57 31.03.2020
5613 Haze 28 1009 78 10000 6.2 330 01:47 31.03.2020
5614 Haze 27 1009 83 10000 5.1 330 01:22 31.03.2020
5615 Haze 27 1009 83 10000 5.1 330 00:43 31.03.2020
5616 Haze 27 1009 83 10000 5.1 330 00:23 31.03.2020
5617 Clouds 25 1008 94 10000 5.1 310 23:40 30.03.2020
5618 Clouds 24 1007 94 10000 5.1 340 23:20 30.03.2020
5619 Clouds 24 1007 94 10000 5.1 340 23:20 30.03.2020
5620 Clouds 24 1007 94 10000 5.1 340 22:58 30.03.2020
5621 Clouds 24 1007 94 10000 5.1 340 22:38 30.03.2020
5622 Clouds 24 1008 94 10000 6.2 330 22:19 30.03.2020
5623 Clouds 24 1008 94 10000 6.2 330 21:57 30.03.2020
5624 Clouds 24 1008 94 10000 6.2 330 21:38 30.03.2020
5625 Clouds 24 1008 94 10000 7.7 340 21:20 30.03.2020
5626 Clouds 24 1008 94 10000 7.7 340 20:58 30.03.2020
5627 Clouds 24 1008 94 10000 7.7 340 20:38 30.03.2020
5628 Clouds 24 1008 100 10000 9.3 330 20:19 30.03.2020
5629 Clouds 24 1008 100 10000 9.3 330 19:54 30.03.2020
5630 Clouds 24 1008 100 10000 9.3 330 19:36 30.03.2020
5631 Clouds 25 1007 100 10000 5.1 320 19:18 30.03.2020
5632 Clouds 25 1007 100 10000 5.1 320 18:41 30.03.2020
5633 Clouds 25 1007 100 10000 2.6 0 18:23 30.03.2020
5634 Clouds 25 1007 100 10000 2.6 0 17:57 30.03.2020
5635 Clouds 25 1007 100 10000 2.6 0 17:39 30.03.2020
5636 Clouds 25 1008 100 10000 1.5 0 17:19 30.03.2020
5637 Clouds 25 1008 100 10000 1.5 0 16:57 30.03.2020
5638 Clouds 25 1008 100 10000 1.5 0 16:38 30.03.2020
5639 Clouds 25 1009 100 10000 1 0 16:20 30.03.2020
5640 Clouds 25 1009 100 10000 1 0 15:55 30.03.2020
5641 Clouds 25 1009 100 10000 1 0 15:36 30.03.2020
5642 Clouds 25 1009 100 10000 1.5 0 15:18 30.03.2020
5643 Clouds 25 1009 100 10000 1.5 0 14:55 30.03.2020
5644 Clouds 25 1009 100 10000 1.5 0 14:36 30.03.2020
5645 Clouds 26 1008 94 10000 2.1 0 14:18 30.03.2020
5646 Clouds 26 1008 94 10000 2.1 0 13:43 30.03.2020
5647 Clouds 26 1008 94 10000 2.6 340 13:21 30.03.2020
5648 Clouds 26 1008 94 10000 2.6 340 12:57 30.03.2020
5649 Clouds 26 1008 94 10000 2.6 340 12:38 30.03.2020
5650 Clouds 26 1008 94 10000 2.6 340 12:38 30.03.2020
5651 Clouds 26 1007 94 10000 2.6 340 12:19 30.03.2020
5652 Clouds 26 1007 94 10000 2.6 340 11:56 30.03.2020
5653 Clouds 26 1007 94 10000 2.6 340 11:38 30.03.2020
5654 Rain 27 1007 80 0 2.86 236 11:20 30.03.2020
5655 Rain 27 1007 80 0 2.86 236 10:39 30.03.2020
5656 Rain 27 1007 80 0 2.86 236 10:21 30.03.2020
5657 Rain 27 1007 80 0 2.86 236 09:55 30.03.2020
5658 Rain 27 1007 80 0 2.86 236 09:37 30.03.2020
5659 Rain 29 1006 73 0 2.93 242 09:18 30.03.2020
5660 Rain 29 1006 71 0 2.47 232 08:40 30.03.2020
5661 Rain 29 1006 71 0 2.47 232 08:22 30.03.2020
5662 Rain 29 1006 71 0 2.47 232 07:49 30.03.2020
5663 Clouds 29 1006 79 10000 2.6 280 07:27 30.03.2020
5664 Clouds 29 1006 79 10000 2.6 280 06:54 30.03.2020
5665 Rain 29 1006 71 0 2.47 232 06:31 30.03.2020
5666 Rain 29 1006 71 0 2.47 232 06:31 30.03.2020
5667 Rain 30 1007 66 0 1.95 212 05:52 30.03.2020
5668 Clouds 28 1009 88 10000 5.1 280 05:18 30.03.2020
5669 Rain 27 1010 94 10000 2.6 270 04:22 30.03.2020
5670 Rain 27 1010 94 10000 2.6 270 03:34 30.03.2020
5671 Clouds 28 1010 83 10000 5.1 330 02:37 30.03.2020
5672 Clouds 28 1010 88 10000 4.1 300 01:35 30.03.2020
5673 Haze 27 1009 88 10000 3.6 310 00:47 30.03.2020
5674 Haze 27 1009 88 10000 3.6 310 00:21 30.03.2020
5675 Clouds 25 1008 94 10000 1.5 0 23:41 29.03.2020
5676 Clouds 25 1008 94 10000 1.5 0 23:23 29.03.2020
5677 Rain 26 1009 80 0 2.04 54 22:57 29.03.2020
5678 Rain 26 1009 80 0 2.04 54 22:37 29.03.2020
5679 Rain 26 1009 80 0 2.04 54 22:18 29.03.2020
5680 Rain 26 1009 80 0 2.04 54 21:40 29.03.2020
5681 Clouds 24 1006 100 10000 1.5 0 21:21 29.03.2020
5682 Clouds 24 1006 100 10000 1.5 0 20:56 29.03.2020
5683 Clouds 24 1006 100 10000 1.5 0 20:56 29.03.2020
5684 Clouds 24 1006 100 10000 1.5 0 20:38 29.03.2020
5685 Clouds 24 1006 100 10000 1.5 0 20:19 29.03.2020
5686 Clouds 24 1006 100 10000 1.5 0 19:59 29.03.2020
5687 Clouds 24 1006 100 10000 1.5 0 19:41 29.03.2020
5688 Clouds 25 1007 100 10000 1.5 0 19:23 29.03.2020
5689 Clouds 25 1007 100 10000 1.5 0 18:57 29.03.2020
5690 Clouds 25 1007 100 10000 1.5 0 18:38 29.03.2020
5691 Clouds 25 1007 100 10000 1.5 0 18:20 29.03.2020
5692 Clouds 25 1007 100 10000 1.5 0 17:56 29.03.2020
5693 Clouds 25 1007 100 10000 1.5 0 17:38 29.03.2020
5694 Clouds 26 1008 100 10000 1.5 0 17:19 29.03.2020
5695 Clouds 26 1008 100 10000 1.5 0 16:56 29.03.2020
5696 Clouds 26 1008 100 10000 1.5 0 16:38 29.03.2020
5697 Clouds 26 1009 100 10000 1.5 0 16:19 29.03.2020
5698 Clouds 26 1009 100 10000 1.5 0 15:42 29.03.2020
5699 Clouds 26 1009 94 10000 1.5 0 15:24 29.03.2020
5700 Clouds 26 1009 94 10000 1.5 0 14:58 29.03.2020
5701 Clouds 26 1009 94 10000 1.5 0 14:40 29.03.2020
5702 Clouds 26 1008 94 10000 1.5 0 14:20 29.03.2020
5703 Clouds 26 1008 94 10000 1.5 0 13:58 29.03.2020
5704 Clouds 26 1008 94 10000 1.5 0 13:39 29.03.2020
5705 Clouds 27 1008 88 10000 1.5 0 13:20 29.03.2020
5706 Clouds 27 1008 88 10000 1.5 0 12:55 29.03.2020
5707 Clouds 27 1008 88 10000 1.5 0 12:37 29.03.2020
5708 Rain 27 1008 80 0 2.02 305 12:19 29.03.2020
5709 Rain 27 1008 80 0 2.02 305 11:55 29.03.2020
5710 Rain 27 1008 80 0 2.02 305 11:37 29.03.2020
5711 Rain 27 1008 80 0 2.02 305 11:18 29.03.2020
5712 Rain 27 1008 80 0 2.02 305 11:18 29.03.2020
5713 Rain 27 1008 80 0 2.02 305 10:38 29.03.2020
5714 Clouds 29 1006 79 10000 4.1 230 10:18 29.03.2020
5715 Clouds 29 1006 79 10000 4.1 230 09:41 29.03.2020
5716 Clouds 29 1006 79 10000 4.1 230 09:41 29.03.2020
5717 Clouds 29 1006 79 10000 5.1 250 09:20 29.03.2020
5718 Clouds 29 1006 79 10000 5.1 250 08:54 29.03.2020
5719 Clouds 29 1006 79 10000 5.1 250 08:54 29.03.2020
5720 Clouds 29 1006 79 10000 5.1 250 08:30 29.03.2020
5721 Clouds 31 1006 66 10000 7.7 240 07:59 29.03.2020
5722 Clouds 31 1006 66 10000 7.7 240 07:41 29.03.2020
5723 Clouds 31 1006 70 10000 7.7 240 07:20 29.03.2020
5724 Clouds 30 1007 74 10000 5.1 340 05:41 29.03.2020
5725 Rain 27 1007 77 0 4.61 310 03:58 29.03.2020
5726 Clouds 28 1009 83 10000 8.7 330 03:28 29.03.2020
5727 Clouds 28 1009 83 10000 8.7 330 01:51 29.03.2020
5728 Clouds 27 1010 83 10000 5.1 330 01:23 29.03.2020
5729 Clouds 27 1010 83 10000 5.1 330 00:55 29.03.2020
5730 Clouds 27 1010 83 10000 5.1 330 00:32 29.03.2020
5731 Clouds 25 1009 94 10000 5.1 340 23:43 28.03.2020
5732 Clouds 24 1009 100 10000 5.1 340 23:24 28.03.2020
5733 Clouds 24 1009 100 10000 5.1 340 22:59 28.03.2020
5734 Clouds 24 1009 100 10000 5.1 340 22:39 28.03.2020
5735 Fog 24 1008 100 10000 3.1 330 22:20 28.03.2020
5736 Fog 24 1008 100 10000 3.1 330 21:54 28.03.2020
5737 Fog 24 1008 100 10000 3.1 330 21:36 28.03.2020
5738 Clouds 26 1008 77 0 1.06 31 21:18 28.03.2020
5739 Clouds 26 1008 77 0 1.06 31 20:41 28.03.2020
5740 Clouds 26 1008 77 0 1.06 31 20:23 28.03.2020
5741 Rain 25 1006 80 0 2.04 109 19:57 28.03.2020
5742 Rain 25 1006 80 0 2.04 109 19:38 28.03.2020
5743 Rain 25 1006 80 0 2.04 109 19:20 28.03.2020
5744 Rain 25 1006 80 0 2.04 109 18:56 28.03.2020
5745 Rain 25 1006 80 0 2.04 109 18:38 28.03.2020
5746 Rain 25 1006 80 0 2.04 109 18:38 28.03.2020
5747 Rain 25 1006 80 0 2.04 109 18:19 28.03.2020
5748 Rain 25 1006 80 0 2.04 109 17:38 28.03.2020
5749 Rain 25 1008 84 0 3.01 68 17:20 28.03.2020
5750 Rain 25 1008 84 0 3.01 68 16:42 28.03.2020
5751 Clouds 25 1008 100 10000 1.5 0 16:20 28.03.2020
5752 Clouds 25 1008 100 10000 1.5 0 15:57 28.03.2020
5753 Clouds 25 1008 100 10000 1.5 0 15:39 28.03.2020
5754 Clouds 25 1008 100 10000 1.5 0 15:19 28.03.2020
5755 Clouds 24 1008 100 10000 1.5 0 14:43 28.03.2020
5756 Clouds 24 1008 100 10000 1.5 0 14:23 28.03.2020
5757 Clouds 25 1008 100 10000 1.5 0 13:57 28.03.2020
5758 Clouds 25 1008 100 10000 1.5 0 13:37 28.03.2020
5759 Clouds 25 1008 100 10000 1.5 0 13:18 28.03.2020
5760 Clouds 24 1008 100 10000 4.1 310 12:38 28.03.2020
5761 Rain 25 1009 88 0 3.64 30 12:19 28.03.2020
5762 Rain 25 1009 88 0 3.64 30 11:42 28.03.2020
5763 Rain 25 1009 88 0 3.64 30 11:21 28.03.2020
5764 Clouds 25 1007 100 0 4.1 30 10:55 28.03.2020
5765 Clouds 25 1007 100 0 4.1 30 10:36 28.03.2020
5766 Clouds 25 1007 100 0 4.1 30 10:18 28.03.2020
5767 Clouds 25 1007 100 0 4.1 30 09:40 28.03.2020
5768 Rain 25 1007 100 0 5.1 100 09:22 28.03.2020
5769 Rain 25 1007 100 0 5.1 100 08:45 28.03.2020
5770 Rain 26 1006 94 0 5.1 150 08:25 28.03.2020
5771 Rain 26 1006 94 0 8.2 200 07:58 28.03.2020
5772 Rain 26 1006 94 0 8.2 200 07:40 28.03.2020
5773 Rain 28 1006 88 0 5.1 210 06:53 28.03.2020
5774 Clouds 29 1006 83 10000 5.1 240 06:26 28.03.2020
5775 Clouds 28 1008 88 10000 5.1 240 05:30 28.03.2020
5776 Clouds 28 1008 88 10000 5.1 240 05:30 28.03.2020
5777 Clouds 28 1008 88 10000 5.1 240 04:58 28.03.2020
5778 Clouds 28 1008 88 10000 5.1 240 04:39 28.03.2020
5779 Clouds 28 1009 88 10000 3.6 240 02:51 28.03.2020
5780 Clouds 31 1010 74 10000 3.6 320 01:47 28.03.2020
5781 Clouds 28 1009 78 10000 3.6 320 01:23 28.03.2020
5782 Clouds 28 1009 78 10000 3.6 320 00:49 28.03.2020
5783 Rain 29 1009 69 0 2.14 301 00:24 28.03.2020
5784 Rain 29 1009 69 0 2.14 301 23:44 27.03.2020
5785 Rain 29 1009 69 0 2.14 301 23:25 27.03.2020
5786 Rain 26 1009 80 0 2.08 46 22:57 27.03.2020
5787 Rain 26 1009 80 0 2.08 46 22:39 27.03.2020
5788 Rain 26 1009 80 0 2.08 46 22:20 27.03.2020
5789 Rain 26 1009 80 0 2.08 46 21:57 27.03.2020
5790 Rain 26 1009 80 0 2.08 46 21:38 27.03.2020
5791 Rain 26 1009 80 0 2.08 46 21:20 27.03.2020
5792 Rain 26 1009 80 0 2.08 46 20:55 27.03.2020
5793 Rain 26 1009 80 0 2.08 46 20:55 27.03.2020
5794 Rain 26 1009 80 0 2.58 90 20:37 27.03.2020
5795 Rain 26 1007 80 0 2.97 115 20:18 27.03.2020
5796 Rain 26 1007 81 0 3.23 114 19:42 27.03.2020
5797 Rain 26 1007 81 0 3.23 114 19:23 27.03.2020
5798 Rain 26 1007 81 0 3.23 114 18:57 27.03.2020
5799 Rain 26 1007 81 0 3.23 114 18:38 27.03.2020
5800 Rain 26 1007 81 0 3.23 114 18:19 27.03.2020
5801 Rain 26 1007 81 0 3.23 114 17:40 27.03.2020
5802 Clouds 25 1008 100 10000 1 20 17:20 27.03.2020
5803 Clouds 25 1008 100 10000 1 20 16:55 27.03.2020
5804 Clouds 25 1008 100 10000 1 20 16:37 27.03.2020
5805 Clouds 26 1008 94 10000 1.5 0 16:19 27.03.2020
5806 Clouds 26 1008 94 10000 1.5 0 15:42 27.03.2020
5807 Clouds 26 1008 94 10000 1.5 0 15:24 27.03.2020
5808 Clouds 26 1008 94 10000 1.5 0 14:46 27.03.2020
5809 Clouds 26 1009 94 10000 1.5 0 14:25 27.03.2020
5810 Clouds 26 1009 94 10000 1.5 0 13:57 27.03.2020
5811 Clouds 26 1009 94 10000 1.5 0 13:38 27.03.2020
5812 Clouds 26 1009 100 10000 1.5 0 13:19 27.03.2020
5813 Clouds 26 1009 100 10000 1.5 0 12:55 27.03.2020
5814 Clouds 26 1009 100 10000 1.5 0 12:37 27.03.2020
5815 Clouds 27 1009 94 10000 1.5 0 12:18 27.03.2020
5816 Clouds 27 1009 94 10000 1.5 0 11:41 27.03.2020
5817 Clouds 27 1008 94 10000 3.6 100 11:22 27.03.2020
5818 Clouds 27 1008 94 10000 3.6 100 10:54 27.03.2020
5819 Clouds 27 1008 94 10000 3.6 100 10:36 27.03.2020
5820 Clouds 28 1008 88 10000 1.5 120 10:18 27.03.2020
5821 Clouds 28 1008 88 10000 1.5 120 09:56 27.03.2020
5822 Clouds 28 1008 88 10000 1.5 120 09:37 27.03.2020
5823 Rain 27 1008 77 0 2.47 134 09:18 27.03.2020
5824 Rain 27 1008 77 0 2.47 134 08:55 27.03.2020
5825 Rain 27 1008 77 0 2.47 134 08:36 27.03.2020
5826 Rain 28 1007 71 0 2.17 178 08:18 27.03.2020
5827 Rain 28 1007 76 0 2.77 192 07:49 27.03.2020
5828 Rain 28 1007 76 0 2.77 192 07:22 27.03.2020
5829 Rain 28 1007 76 0 2.77 192 06:45 27.03.2020
5830 Clouds 32 1007 66 10000 7.7 180 06:26 27.03.2020
5831 Clouds 32 1009 66 10000 7.7 200 03:42 27.03.2020
5832 Clouds 30 1010 70 10000 5.1 140 02:25 27.03.2020
5833 Clouds 29 1010 79 10000 4.1 140 01:21 27.03.2020
5834 Clouds 29 1010 79 10000 4.1 140 00:45 27.03.2020
5835 Clouds 26 1009 94 10000 1 160 00:21 27.03.2020
5836 Clouds 26 1009 94 10000 1 160 23:42 26.03.2020
5837 Clear 24 1009 100 10000 0.5 0 23:19 26.03.2020
5838 Clear 24 1009 100 10000 0.5 0 22:57 26.03.2020
5839 Clear 24 1009 100 10000 0.5 0 22:36 26.03.2020
5840 Clouds 24 1008 100 10000 1 0 22:18 26.03.2020
5841 Clouds 24 1008 100 10000 1 0 21:40 26.03.2020
5842 Fog 24 1008 100 0 3.6 330 21:22 26.03.2020
5843 Fog 24 1008 100 0 3.6 330 20:59 26.03.2020
5844 Fog 24 1008 100 0 3.6 330 20:39 26.03.2020
5845 Fog 24 1008 100 0 3.6 330 20:21 26.03.2020
5846 Fog 24 1008 100 0 3.6 330 19:58 26.03.2020
5847 Fog 24 1008 100 0 3.6 330 19:40 26.03.2020
5848 Clouds 25 1008 100 10000 2.1 340 19:21 26.03.2020
5849 Clouds 25 1008 100 10000 2.1 340 18:58 26.03.2020
5850 Clouds 25 1008 100 10000 2.1 340 18:40 26.03.2020
5851 Clouds 25 1009 100 10000 3.1 320 18:21 26.03.2020
5852 Clouds 25 1009 100 10000 3.1 320 17:45 26.03.2020
5853 Clouds 25 1009 100 10000 3.1 300 17:20 26.03.2020
5854 Clouds 25 1009 100 10000 3.1 300 16:57 26.03.2020
5855 Clouds 25 1009 100 10000 3.1 300 16:38 26.03.2020
5856 Clouds 25 1010 100 10000 2.1 330 16:19 26.03.2020
5857 Clouds 25 1010 100 10000 2.1 330 15:55 26.03.2020
5858 Clouds 25 1010 100 10000 2.1 330 15:55 26.03.2020
5859 Clouds 25 1010 100 10000 2.1 330 15:37 26.03.2020
5860 Clouds 26 1009 81 0 1.6 45 15:18 26.03.2020
5861 Clouds 26 1009 81 0 1.6 45 14:43 26.03.2020
5862 Clouds 26 1009 81 0 1.6 45 14:24 26.03.2020
5863 Rain 26 1011 81 0 1.93 89 13:55 26.03.2020
5864 Rain 26 1011 81 0 1.93 89 13:37 26.03.2020
5865 Rain 26 1011 81 0 1.93 89 13:19 26.03.2020
5866 Rain 26 1011 80 0 1.4 82 12:38 26.03.2020
5867 Rain 26 1011 80 0 1.4 82 12:20 26.03.2020
5868 Rain 26 1011 80 0 1.4 82 11:46 26.03.2020
5869 Rain 26 1011 80 0 1.4 82 11:23 26.03.2020
5870 Rain 26 1009 81 0 2.21 112 10:57 26.03.2020
5871 Rain 26 1009 81 0 2.21 112 10:38 26.03.2020
5872 Clouds 27 1008 94 10000 5.1 340 10:19 26.03.2020
5873 Clouds 27 1008 94 10000 5.1 340 09:44 26.03.2020
5874 Rain 28 1008 88 10000 5.1 30 09:21 26.03.2020
5875 Rain 28 1008 88 10000 5.1 30 08:56 26.03.2020
5876 Rain 28 1008 88 10000 5.1 30 08:37 26.03.2020
5877 Clouds 30 1007 74 10000 5.1 280 08:19 26.03.2020
5878 Clouds 30 1007 74 10000 5.1 280 07:44 26.03.2020
5879 Clouds 32 1007 62 10000 5.1 280 07:22 26.03.2020
5880 Clouds 32 1007 62 10000 5.1 280 06:56 26.03.2020
5881 Clouds 32 1007 66 10000 5.1 300 05:59 26.03.2020
5882 Clouds 30 1008 74 10000 4.1 270 04:49 26.03.2020
5883 Clouds 30 1009 74 10000 4.1 250 03:44 26.03.2020
5884 Clouds 31 1010 70 10000 4.1 300 02:55 26.03.2020
5885 Clouds 30 1010 74 10000 1 0 01:50 26.03.2020
5886 Rain 26 1011 82 0 2.13 339 00:53 26.03.2020
5887 Clouds 24 1010 100 10000 1.5 0 00:20 26.03.2020
5888 Clouds 24 1010 100 10000 1.5 0 23:40 25.03.2020
5889 Clouds 24 1008 100 10000 1.5 0 23:20 25.03.2020
5890 Clouds 24 1008 100 10000 1.5 0 22:40 25.03.2020
5891 Clouds 23 1008 100 10000 1.5 0 22:21 25.03.2020
5892 Clouds 23 1008 100 10000 1.5 0 21:56 25.03.2020
5893 Clouds 23 1008 100 10000 1.5 0 21:37 25.03.2020
5894 Clouds 23 1007 100 10000 2.1 340 21:19 25.03.2020
5895 Clouds 23 1007 100 10000 2.1 340 20:55 25.03.2020
5896 Clouds 23 1007 100 10000 2.1 340 20:37 25.03.2020
5897 Rain 25 1009 86 0 2.87 13 20:18 25.03.2020
5898 Rain 25 1008 86 0 2.64 13 19:42 25.03.2020
5899 Clouds 24 1008 100 10000 1 0 19:22 25.03.2020
5900 Clouds 24 1008 100 10000 1 0 18:57 25.03.2020
5901 Clouds 24 1008 100 10000 1 0 18:38 25.03.2020
5902 Clouds 24 1008 100 10000 1 0 18:20 25.03.2020
5903 Clouds 24 1008 100 10000 1 0 17:55 25.03.2020
5904 Clouds 24 1008 100 10000 1 0 17:37 25.03.2020
5905 Clouds 24 1009 100 10000 2.1 120 17:18 25.03.2020
5906 Clouds 24 1009 100 10000 2.1 120 16:43 25.03.2020
5907 Clouds 24 1009 100 10000 2.1 120 16:43 25.03.2020
5908 Clouds 24 1009 100 10000 2.1 120 16:43 25.03.2020
5909 Clouds 24 1009 100 10000 1 0 16:23 25.03.2020
5910 Clouds 24 1009 100 10000 1 0 15:57 25.03.2020
5911 Clouds 24 1009 100 10000 1 0 15:38 25.03.2020
5912 Clouds 24 1010 100 10000 3.1 320 15:19 25.03.2020
5913 Clouds 24 1010 100 10000 3.1 320 14:42 25.03.2020
5914 Clouds 24 1010 100 10000 3.1 320 14:21 25.03.2020
5915 Rain 25 1010 88 0 2.85 29 13:46 25.03.2020
5916 Clouds 24 1010 100 10000 5.1 320 13:26 25.03.2020
5917 Clouds 24 1010 100 10000 5.1 320 12:57 25.03.2020
5918 Clouds 24 1010 100 10000 5.1 320 12:37 25.03.2020
5919 Rain 24 1010 100 10000 5.1 340 12:18 25.03.2020
5920 Rain 24 1010 100 10000 5.1 340 11:43 25.03.2020
5921 Rain 25 1009 100 10000 1.5 0 11:21 25.03.2020
5922 Rain 25 1009 100 10000 1.5 0 11:21 25.03.2020
5923 Rain 25 1009 100 0 1.5 0 10:59 25.03.2020
5924 Rain 25 1009 100 0 1.5 0 10:40 25.03.2020
5925 Rain 25 1009 100 0 1.5 0 10:19 25.03.2020
5926 Rain 25 1009 100 0 1.5 0 10:19 25.03.2020
5927 Rain 25 1009 100 0 1.5 0 09:59 25.03.2020
5928 Rain 25 1009 100 0 1.5 0 09:40 25.03.2020
5929 Rain 25 1009 100 0 1.5 0 09:21 25.03.2020
5930 Rain 25 1007 100 0 5.1 100 08:43 25.03.2020
5931 Rain 25 1008 100 0 5.1 90 08:25 25.03.2020
5932 Rain 26 1007 100 0 5.1 290 07:58 25.03.2020
5933 Rain 26 1007 100 0 5.1 290 07:38 25.03.2020
5934 Rain 27 1007 94 0 5.1 320 07:18 25.03.2020
5935 Clouds 30 1006 74 10000 5.1 270 06:43 25.03.2020
5936 Rain 28 1006 88 10000 5.1 230 06:25 25.03.2020
5937 Rain 28 1006 88 10000 5.1 230 05:47 25.03.2020
5938 Clouds 32 1007 70 10000 5.1 300 04:46 25.03.2020
5939 Clouds 31 1008 74 10000 5.1 310 03:58 25.03.2020
5940 Clouds 31 1008 74 10000 5.1 310 03:34 25.03.2020
5941 Clouds 30 1009 79 10000 5.1 310 01:41 25.03.2020
5942 Clouds 30 1009 79 10000 5.1 310 01:41 25.03.2020
5943 Clouds 30 1009 79 10000 5.1 310 01:41 25.03.2020
5944 Clouds 30 1009 79 10000 5.1 310 01:41 25.03.2020
5945 Clouds 27 1009 88 10000 2.6 330 00:51 25.03.2020
5946 Clouds 27 1009 88 10000 2.6 330 00:32 25.03.2020
5947 Clouds 25 1009 100 10000 3.1 320 23:59 24.03.2020
5948 Clouds 25 1009 100 10000 3.1 320 23:40 24.03.2020
5949 Clouds 24 1008 100 10000 3.1 320 23:20 24.03.2020
5950 Clouds 24 1008 100 10000 3.1 320 22:55 24.03.2020
5951 Clouds 24 1008 100 10000 3.1 320 22:36 24.03.2020
5952 Clouds 24 1008 100 10000 5.1 320 22:18 24.03.2020
5953 Clouds 24 1008 100 10000 5.1 320 21:42 24.03.2020
5954 Clouds 25 1007 100 10000 1.5 0 21:19 24.03.2020
5955 Clouds 25 1007 100 10000 1.5 0 20:59 24.03.2020
5956 Clouds 25 1007 100 10000 1.5 0 20:41 24.03.2020
5957 Clouds 25 1007 100 10000 1.5 0 20:22 24.03.2020
5958 Clouds 25 1007 100 10000 1.5 0 19:48 24.03.2020
5959 Rain 26 1007 85 0 5.35 109 19:23 24.03.2020
5960 Rain 26 1007 85 0 5.35 109 18:59 24.03.2020
5961 Rain 26 1007 85 0 5.35 109 18:39 24.03.2020
5962 Rain 26 1007 85 0 5.35 109 18:20 24.03.2020
5963 Rain 26 1007 85 0 5.35 109 17:58 24.03.2020
5964 Rain 26 1007 85 0 5.35 109 17:40 24.03.2020
5965 Rain 26 1007 85 0 5.35 109 17:40 24.03.2020
5966 Rain 26 1007 85 0 5.35 109 17:22 24.03.2020
5967 Rain 27 1007 87 0 8.23 134 16:56 24.03.2020
5968 Rain 27 1007 87 0 8.23 134 16:37 24.03.2020
5969 Clouds 25 1008 100 10000 1 0 16:19 24.03.2020
5970 Clouds 25 1008 100 10000 1 0 15:42 24.03.2020
5971 Clouds 25 1009 94 10000 1 0 15:24 24.03.2020
5972 Clouds 25 1009 94 10000 1 0 14:44 24.03.2020
5973 Clouds 25 1009 94 10000 1 0 14:44 24.03.2020
5974 Clouds 25 1009 94 10000 1.5 0 14:23 24.03.2020
5975 Clouds 25 1009 94 10000 1.5 0 13:59 24.03.2020
5976 Clouds 25 1009 94 10000 1.5 0 13:40 24.03.2020
5977 Clouds 25 1009 100 10000 1 0 13:22 24.03.2020
5978 Clouds 25 1009 100 10000 1 0 12:42 24.03.2020
5979 Clouds 25 1009 100 10000 1.5 0 12:24 24.03.2020
5980 Clouds 25 1009 100 10000 1.5 0 11:42 24.03.2020
5981 Rain 25 1008 100 10000 1.5 0 11:22 24.03.2020
5982 Rain 25 1008 100 10000 1.5 0 11:22 24.03.2020
5983 Rain 25 1008 100 10000 1.5 0 10:59 24.03.2020
5984 Rain 25 1008 100 10000 1.5 0 10:41 24.03.2020
5985 Rain 26 1006 100 0 1.5 0 10:19 24.03.2020
5986 Rain 26 1006 100 0 1.5 0 09:47 24.03.2020
5987 Rain 26 1006 100 0 1.5 0 09:27 24.03.2020
5988 Rain 28 1006 94 0 5.1 250 08:57 24.03.2020
5989 Rain 28 1006 94 0 5.1 250 08:38 24.03.2020
5990 Clouds 29 1004 89 10000 5.1 250 08:19 24.03.2020
5991 Clouds 29 1004 89 10000 5.1 250 07:44 24.03.2020
5992 Clouds 30 1005 79 10000 6.7 240 07:22 24.03.2020
5993 Clouds 30 1005 79 10000 6.7 240 06:42 24.03.2020
5994 Clouds 31 1005 79 10000 5.1 190 06:21 24.03.2020
5995 Clouds 31 1006 74 10000 5.1 200 04:52 24.03.2020
5996 Clouds 29 1006 78 0 3.24 238 03:32 24.03.2020
5997 Clouds 31 1008 74 10000 5.1 330 02:43 24.03.2020
5998 Clouds 29 1009 83 10000 2.6 330 00:57 24.03.2020
5999 Clouds 27 1008 88 10000 2.6 300 00:28 24.03.2020
6000 Clouds 27 1008 88 10000 2.6 300 23:58 23.03.2020
6001 Clouds 27 1008 88 10000 2.6 300 23:38 23.03.2020
6002 Clouds 24 1007 100 10000 2.6 330 23:19 23.03.2020
6003 Clouds 24 1007 100 10000 2.6 330 22:44 23.03.2020
6004 Clouds 24 1007 100 10000 3.1 310 22:23 23.03.2020
6005 Clouds 24 1007 100 10000 3.1 310 21:55 23.03.2020
6006 Clouds 24 1007 100 10000 3.1 310 21:37 23.03.2020
6007 Clouds 24 1007 100 10000 1.5 340 21:18 23.03.2020
6008 Clouds 24 1007 100 10000 1.5 340 21:18 23.03.2020
6009 Clouds 24 1007 100 10000 1.5 340 20:44 23.03.2020
6010 Clouds 24 1006 100 10000 1.5 0 20:26 23.03.2020
6011 Clouds 24 1006 100 10000 1.5 0 19:59 23.03.2020
6012 Clouds 24 1006 100 10000 1.5 0 19:41 23.03.2020
6013 Clouds 24 1006 100 10000 1.5 340 19:22 23.03.2020
6014 Clouds 24 1006 100 10000 1.5 340 18:54 23.03.2020
6015 Clouds 24 1006 100 10000 1.5 340 18:36 23.03.2020
6016 Clouds 25 1006 100 10000 1.5 320 18:18 23.03.2020
6017 Clouds 25 1006 100 10000 1.5 320 17:41 23.03.2020
6018 Clouds 25 1007 100 10000 1.5 320 17:20 23.03.2020
6019 Clouds 25 1007 100 10000 1.5 320 16:44 23.03.2020
6020 Clouds 25 1007 100 10000 1.5 0 16:25 23.03.2020
6021 Clouds 25 1007 100 10000 1.5 0 15:59 23.03.2020
6022 Clouds 25 1007 100 10000 1.5 0 15:39 23.03.2020
6023 Rain 28 1007 82 0 4.92 118 15:18 23.03.2020
6024 Rain 28 1007 82 0 4.92 118 14:37 23.03.2020
6025 Rain 29 1009 82 0 7.95 131 14:19 23.03.2020
6026 Rain 29 1009 82 0 7.95 131 13:57 23.03.2020
6027 Rain 29 1009 82 0 7.95 131 13:38 23.03.2020
6028 Rain 29 1009 82 0 7.95 131 13:38 23.03.2020
6029 Rain 29 1009 82 0 8.28 133 13:20 23.03.2020
6030 Rain 29 1009 82 0 8.28 133 12:43 23.03.2020
6031 Rain 29 1009 82 0 8.28 133 12:23 23.03.2020
6032 Rain 29 1009 82 0 8.28 133 11:56 23.03.2020
6033 Rain 29 1009 82 0 8.28 133 11:37 23.03.2020
6034 Rain 29 1007 80 0 10.16 140 11:19 23.03.2020
6035 Rain 29 1007 80 0 10.16 140 10:56 23.03.2020
6036 Rain 29 1007 80 0 10.16 140 10:36 23.03.2020
6037 Clouds 26 1007 100 10000 1.5 0 10:18 23.03.2020
6038 Clouds 26 1007 100 10000 1.5 0 09:42 23.03.2020
6039 Clouds 26 1006 100 10000 5.1 140 09:20 23.03.2020
6040 Clouds 26 1006 100 10000 5.1 140 08:38 23.03.2020
6041 Rain 25 1006 100 0 7.7 150 08:20 23.03.2020
6042 Rain 25 1006 100 0 7.7 150 07:52 23.03.2020
6043 Rain 25 1006 100 0 7.7 150 07:33 23.03.2020
6044 Clouds 30 1005 79 10000 6.7 180 06:56 23.03.2020
6045 Clouds 30 1005 79 10000 6.7 180 06:34 23.03.2020
6046 Clouds 32 1006 75 10000 5.7 190 05:44 23.03.2020
6047 Clouds 32 1007 75 10000 6.2 230 03:54 23.03.2020
6048 Clouds 31 1008 74 10000 5.1 350 02:45 23.03.2020
6049 Clouds 31 1009 79 10000 4.1 350 01:50 23.03.2020
6050 Clouds 30 1009 79 10000 4.1 350 00:47 23.03.2020
6051 Clouds 27 1009 94 10000 3.1 360 00:27 23.03.2020
6052 Clouds 27 1009 94 10000 3.1 360 23:42 22.03.2020
6053 Fog 26 1009 100 0 3.1 360 23:24 22.03.2020
6054 Fog 26 1009 100 0 3.1 360 22:42 22.03.2020
6055 Clouds 25 1008 100 10000 1.5 0 22:21 22.03.2020
6056 Clouds 25 1008 100 10000 1.5 0 21:41 22.03.2020
6057 Clouds 27 1009 84 0 2.61 23 21:23 22.03.2020
6058 Clouds 27 1009 84 0 2.61 23 20:59 22.03.2020
6059 Clouds 27 1009 84 0 2.61 23 20:40 22.03.2020
6060 Rain 27 1009 85 0 3.03 16 20:22 22.03.2020
6061 Rain 28 1008 82 0 3.31 106 19:56 22.03.2020
6062 Rain 28 1008 82 0 3.31 106 19:38 22.03.2020
6063 Rain 28 1008 82 0 3.31 106 19:19 22.03.2020
6064 Rain 28 1008 82 0 3.31 106 18:57 22.03.2020
6065 Rain 28 1008 82 0 3.31 106 18:39 22.03.2020
6066 Rain 28 1008 82 0 3.31 106 18:19 22.03.2020
6067 Rain 28 1008 82 0 3.31 106 17:56 22.03.2020
6068 Rain 28 1008 82 0 3.31 106 17:37 22.03.2020
6069 Rain 28 1008 82 0 3.18 101 17:19 22.03.2020
6070 Rain 28 1008 82 0 3.18 101 16:55 22.03.2020
6071 Rain 28 1008 82 0 3.18 101 16:37 22.03.2020
6072 Rain 28 1008 82 0 3.18 101 16:19 22.03.2020
6073 Rain 28 1008 82 0 3.18 101 15:40 22.03.2020
6074 Rain 28 1008 82 0 3.18 101 15:19 22.03.2020
6075 Rain 28 1008 82 0 3.18 101 14:46 22.03.2020
6076 Rain 28 1008 82 0 3.18 101 14:46 22.03.2020
6077 Rain 28 1010 81 0 3.74 127 14:18 22.03.2020
6078 Rain 28 1010 81 0 3.74 127 13:42 22.03.2020
6079 Rain 28 1010 81 0 3.74 127 13:20 22.03.2020
6080 Rain 29 1010 81 0 3.88 135 12:47 22.03.2020
6081 Rain 29 1010 81 0 3.88 135 12:23 22.03.2020
6082 Rain 29 1010 81 0 3.88 135 11:59 22.03.2020
6083 Rain 29 1010 81 0 3.88 135 11:41 22.03.2020
6084 Rain 29 1010 81 0 3.88 135 11:23 22.03.2020
6085 Clouds 29 1008 78 0 4.53 136 10:57 22.03.2020
6086 Clouds 29 1008 78 0 4.53 136 10:39 22.03.2020
6087 Clouds 29 1007 83 10000 4.1 190 10:21 22.03.2020
6088 Clouds 29 1007 83 10000 4.1 190 09:43 22.03.2020
6089 Clouds 30 1006 79 10000 6.2 180 09:23 22.03.2020
6090 Clouds 30 1006 79 10000 6.2 180 08:44 22.03.2020
6091 Clouds 31 1006 74 10000 7.7 220 08:25 22.03.2020
6092 Clouds 31 1006 74 10000 7.7 220 07:53 22.03.2020
6093 Clouds 33 1006 66 10000 7.7 220 07:28 22.03.2020
6094 Clouds 33 1006 66 10000 7.7 220 06:40 22.03.2020
6095 Clouds 31 1007 74 10000 6.2 210 05:35 22.03.2020
6096 Clouds 32 1009 70 10000 5.1 350 03:46 22.03.2020
6097 Clouds 28 1011 83 10000 3.6 340 01:28 22.03.2020
6098 Clouds 28 1011 83 10000 3.6 340 00:48 22.03.2020
6099 Clouds 27 1010 88 10000 5.1 310 00:28 22.03.2020
6100 Clouds 27 1010 88 10000 5.1 310 23:43 21.03.2020
6101 Clouds 25 1010 100 10000 5.1 340 23:19 21.03.2020
6102 Clouds 25 1010 100 10000 5.1 340 22:55 21.03.2020
6103 Clouds 25 1010 100 10000 5.1 340 22:37 21.03.2020
6104 Clouds 25 1009 100 10000 3.1 340 22:18 21.03.2020
6105 Clouds 25 1009 100 10000 3.1 340 21:41 21.03.2020
6106 Clouds 25 1009 100 10000 0.5 340 21:23 21.03.2020
6107 Clouds 25 1009 100 10000 0.5 340 20:56 21.03.2020
6108 Clouds 25 1009 100 10000 0.5 340 20:38 21.03.2020
6109 Clouds 25 1008 100 10000 0.5 0 20:19 21.03.2020
6110 Clouds 25 1008 100 10000 0.5 0 19:43 21.03.2020
6111 Clouds 25 1009 100 10000 1 330 19:25 21.03.2020
6112 Clouds 25 1009 100 10000 1 330 19:25 21.03.2020
6113 Clouds 25 1009 100 10000 1 330 18:55 21.03.2020
6114 Clouds 25 1009 100 10000 1 330 18:37 21.03.2020
6115 Clouds 25 1009 100 10000 1.5 340 18:19 21.03.2020
6116 Clouds 25 1009 100 10000 1.5 340 17:55 21.03.2020
6117 Clouds 25 1009 100 10000 1.5 340 17:37 21.03.2020
6118 Clouds 25 1010 100 10000 0.5 0 17:18 21.03.2020
6119 Clouds 25 1010 100 10000 0.5 0 16:40 21.03.2020
6120 Clouds 25 1010 100 10000 1.5 0 16:19 21.03.2020
6121 Clouds 25 1010 100 10000 1.5 0 15:55 21.03.2020
6122 Clouds 25 1010 100 10000 1.5 0 15:36 21.03.2020
6123 Clouds 25 1011 100 10000 2.6 15 15:18 21.03.2020
6124 Clouds 25 1011 100 10000 2.6 15 14:54 21.03.2020
6125 Clouds 25 1011 100 10000 2.6 15 14:36 21.03.2020
6126 Clouds 25 1011 100 10000 2.6 210 14:18 21.03.2020
6127 Clouds 25 1011 100 10000 2.6 210 13:54 21.03.2020
6128 Clouds 25 1011 100 10000 2.6 210 13:36 21.03.2020
6129 Clouds 26 1010 94 10000 5.1 130 13:18 21.03.2020
6130 Clouds 26 1010 94 10000 5.1 130 12:39 21.03.2020
6131 Clouds 26 1010 94 10000 5.1 130 12:19 21.03.2020
6132 Rain 27 1012 85 0 6.98 129 11:57 21.03.2020
6133 Rain 27 1012 85 0 6.98 129 11:38 21.03.2020
6134 Rain 27 1012 85 0 6.98 129 11:38 21.03.2020
6135 Clouds 26 1010 100 10000 5.1 140 11:19 21.03.2020
6136 Clouds 26 1010 100 10000 5.1 140 10:57 21.03.2020
6137 Clouds 26 1010 100 10000 5.1 140 10:38 21.03.2020
6138 Rain 27 1009 88 10000 2.6 140 10:19 21.03.2020
6139 Rain 27 1009 88 10000 2.6 140 09:56 21.03.2020
6140 Rain 27 1009 88 10000 2.6 140 09:37 21.03.2020
6141 Clouds 27 1008 94 10000 5.1 160 09:19 21.03.2020
6142 Clouds 27 1008 94 10000 5.1 160 08:43 21.03.2020
6143 Clouds 28 1008 83 10000 3.6 160 08:24 21.03.2020
6144 Clouds 28 1008 83 10000 3.6 160 07:47 21.03.2020
6145 Clouds 28 1008 83 10000 5.1 200 07:28 21.03.2020
6146 Clouds 28 1008 83 10000 5.1 200 06:48 21.03.2020
6147 Clouds 28 1009 83 10000 5.1 150 06:28 21.03.2020
6148 Clouds 28 1009 83 10000 5.1 150 05:46 21.03.2020
6149 Clouds 30 1010 84 10000 5.1 140 04:46 21.03.2020
6150 Rain 28 1012 88 10000 4.6 210 02:51 21.03.2020
6151 Rain 28 1012 88 10000 4.6 210 02:33 21.03.2020
6152 Rain 29 1012 79 10000 5.1 350 01:32 21.03.2020
6153 Rain 27 1011 88 10000 2.6 350 00:48 21.03.2020
6154 Clouds 25 1011 100 10000 1 0 00:26 21.03.2020
6155 Clouds 25 1011 100 10000 1 0 23:51 20.03.2020
6156 Clouds 24 1010 100 10000 5.1 340 23:27 20.03.2020
6157 Clouds 24 1010 100 10000 5.1 340 22:57 20.03.2020
6158 Clouds 24 1010 100 10000 5.1 340 22:39 20.03.2020
6159 Clouds 24 1010 100 10000 5.1 340 22:20 20.03.2020
6160 Clouds 24 1010 100 10000 5.1 340 21:55 20.03.2020
6161 Clouds 24 1010 100 10000 5.1 340 21:37 20.03.2020
6162 Clouds 24 1009 100 10000 2.6 300 21:18 20.03.2020
6163 Clouds 24 1009 100 10000 2.6 300 21:18 20.03.2020
6164 Clouds 24 1009 100 10000 2.6 300 20:42 20.03.2020
6165 Clouds 24 1009 100 10000 2.6 350 20:21 20.03.2020
6166 Clouds 24 1009 100 10000 2.6 350 19:59 20.03.2020
6167 Clouds 24 1009 100 10000 2.6 350 19:40 20.03.2020
6168 Fog 24 1009 100 0 2.6 310 19:18 20.03.2020
6169 Clouds 24 1008 100 10000 2.6 310 18:39 20.03.2020
6170 Clouds 24 1008 100 10000 2.6 310 18:39 20.03.2020
6171 Clouds 24 1008 100 10000 2.6 310 18:39 20.03.2020
6172 Clouds 25 1008 100 10000 2.6 340 18:20 20.03.2020
6173 Clouds 25 1008 100 10000 2.6 340 17:57 20.03.2020
6174 Clouds 25 1008 100 10000 2.6 340 17:39 20.03.2020
6175 Clouds 25 1009 100 10000 2.6 330 17:20 20.03.2020
6176 Clouds 25 1009 100 10000 2.6 330 16:43 20.03.2020
6177 Clouds 25 1010 100 10000 1.5 0 16:22 20.03.2020
6178 Clouds 25 1010 100 10000 1.5 0 15:59 20.03.2020
6179 Clouds 25 1010 100 10000 1.5 0 15:41 20.03.2020
6180 Clouds 27 1010 83 0 8.1 122 15:20 20.03.2020
6181 Clouds 27 1010 83 0 8.1 122 14:42 20.03.2020
6182 Clouds 27 1010 83 0 8.1 122 14:21 20.03.2020
6183 Rain 28 1011 82 0 9.93 124 13:55 20.03.2020
6184 Rain 28 1011 82 0 9.93 124 13:36 20.03.2020
6185 Rain 28 1011 82 0 9.93 124 13:18 20.03.2020
6186 Rain 28 1011 82 0 10.53 130 12:39 20.03.2020
6187 Rain 28 1011 82 0 10.53 130 12:20 20.03.2020
6188 Rain 28 1011 82 0 10.53 130 12:20 20.03.2020
6189 Rain 28 1011 82 0 10.53 130 11:42 20.03.2020
6190 Rain 28 1011 82 0 10.53 130 11:22 20.03.2020
6191 Rain 28 1010 79 0 10.67 135 10:59 20.03.2020
6192 Rain 28 1010 79 0 10.67 135 10:41 20.03.2020
6193 Clouds 27 1008 78 10000 5.1 130 10:20 20.03.2020
6194 Clouds 27 1008 78 10000 5.1 130 09:47 20.03.2020
6195 Clouds 27 1008 78 10000 5.1 130 09:47 20.03.2020
6196 Clouds 28 1008 88 10000 5.1 150 09:21 20.03.2020
6197 Clouds 28 1008 88 10000 5.1 150 08:59 20.03.2020
6198 Clouds 28 1008 88 10000 5.1 150 08:40 20.03.2020
6199 Clouds 31 1007 74 10000 7.7 140 08:19 20.03.2020
6200 Clouds 31 1007 74 10000 7.7 140 07:46 20.03.2020
6201 Clouds 31 1007 74 10000 7.7 140 07:26 20.03.2020
6202 Clouds 31 1007 74 10000 7.7 140 06:47 20.03.2020
6203 Clouds 32 1008 66 10000 7.7 140 06:29 20.03.2020
6204 Clouds 31 1009 70 10000 7.7 130 04:49 20.03.2020
6205 Clouds 30 1011 70 10000 1 0 03:18 20.03.2020
6206 Clouds 30 1011 66 10000 1 0 01:51 20.03.2020
6207 Haze 28 1011 74 10000 2.6 150 00:46 20.03.2020
6208 Haze 25 1011 94 10000 2.6 300 00:24 20.03.2020
6209 Haze 25 1011 94 10000 2.6 300 23:42 19.03.2020
6210 Clouds 24 1011 100 10000 2.6 320 23:23 19.03.2020
6211 Clouds 24 1011 100 10000 2.6 320 22:55 19.03.2020
6212 Clouds 24 1011 100 10000 2.6 320 22:37 19.03.2020
6213 Clouds 24 1010 100 10000 1.5 0 22:18 19.03.2020
6214 Clouds 24 1010 100 10000 1.5 0 21:40 19.03.2020
6215 Clouds 24 1009 94 10000 3.6 320 21:20 19.03.2020
6216 Clouds 24 1009 94 10000 3.6 320 20:55 19.03.2020
6217 Clouds 24 1009 94 10000 3.6 320 20:37 19.03.2020
6218 Clouds 24 1009 94 10000 3.6 320 20:19 19.03.2020
6219 Rain 27 1010 83 0 3.52 65 19:54 19.03.2020
6220 Rain 27 1010 83 0 3.52 65 19:36 19.03.2020
6221 Clouds 24 1009 100 10000 1.5 0 19:18 19.03.2020
6222 Clouds 24 1009 100 10000 1.5 0 18:41 19.03.2020
6223 Clouds 24 1009 100 10000 1.5 0 18:22 19.03.2020
6224 Rain 27 1010 83 0 3.52 65 17:56 19.03.2020
6225 Rain 27 1010 83 0 3.52 65 17:37 19.03.2020
6226 Clouds 26 1009 83 10000 3.6 110 17:18 19.03.2020
6227 Clouds 26 1009 83 10000 3.6 110 16:43 19.03.2020
6228 Clouds 26 1009 83 10000 3.6 110 16:22 19.03.2020
6229 Clouds 27 1010 78 10000 2.6 0 15:44 19.03.2020
6230 Clouds 27 1011 78 10000 5.1 130 15:25 19.03.2020
6231 Clouds 27 1011 78 10000 5.1 130 14:54 19.03.2020
6232 Clouds 27 1011 78 10000 5.1 130 14:36 19.03.2020
6233 Clouds 27 1011 83 10000 7.7 130 14:18 19.03.2020
6234 Clouds 27 1011 83 10000 7.7 130 13:38 19.03.2020
6235 Clouds 27 1011 83 10000 7.7 130 13:18 19.03.2020
6236 Clouds 27 1011 83 10000 7.7 130 13:18 19.03.2020
6237 Clouds 27 1011 83 10000 7.7 130 12:42 19.03.2020
6238 Rain 26 1010 88 10000 5.1 120 12:24 19.03.2020
6239 Rain 26 1010 88 10000 5.1 120 11:58 19.03.2020
6240 Rain 26 1010 88 10000 5.1 120 11:40 19.03.2020
6241 Haze 26 1010 88 10000 5.1 120 11:22 19.03.2020
6242 Haze 26 1010 88 10000 5.1 120 10:43 19.03.2020
6243 Haze 26 1009 88 10000 2.6 280 10:22 19.03.2020
6244 Haze 26 1009 88 10000 2.6 280 09:58 19.03.2020
6245 Haze 26 1009 88 10000 2.6 280 09:39 19.03.2020
6246 Haze 28 1008 83 10000 5.1 250 09:19 19.03.2020
6247 Haze 28 1008 83 10000 5.1 250 08:46 19.03.2020
6248 Haze 31 1007 74 10000 7.7 150 08:22 19.03.2020
6249 Haze 31 1007 74 10000 7.7 150 07:47 19.03.2020
6250 Haze 33 1007 66 10000 7.7 150 07:29 19.03.2020
6251 Haze 33 1007 66 10000 7.7 150 06:51 19.03.2020
6252 Haze 32 1008 70 10000 7.7 160 05:52 19.03.2020
6253 Haze 32 1009 70 10000 8.2 170 05:19 19.03.2020
6254 Haze 32 1009 70 10000 8.2 170 04:40 19.03.2020
6255 Haze 31 1011 66 10000 5.1 140 03:20 19.03.2020
6256 Haze 30 1012 70 10000 2.6 150 01:27 19.03.2020
6257 Haze 30 1012 70 10000 2.6 150 00:35 19.03.2020
6258 Clouds 27 1012 88 10000 2.6 280 23:57 18.03.2020
6259 Clouds 28 1012 74 0 6.36 130 23:31 18.03.2020
6260 Clouds 25 1011 94 10000 2.1 330 22:58 18.03.2020
6261 Clouds 25 1011 94 10000 2.1 330 22:40 18.03.2020
6262 Clouds 23 1011 100 10000 2.1 330 22:21 18.03.2020
6263 Clouds 23 1011 100 10000 2.1 330 21:43 18.03.2020
6264 Clouds 23 1011 100 10000 2.1 330 21:43 18.03.2020
6265 Clouds 23 1010 100 10000 2.6 310 21:22 18.03.2020
6266 Clouds 23 1010 100 10000 2.6 310 20:59 18.03.2020
6267 Clouds 23 1010 100 10000 2.6 310 20:41 18.03.2020
6268 Clouds 27 1011 80 0 5.6 114 20:20 18.03.2020
6269 Clouds 27 1011 80 0 5.6 114 19:58 18.03.2020
6270 Clouds 27 1011 80 0 5.6 114 19:39 18.03.2020
6271 Clouds 24 1010 100 10000 1.5 0 19:20 18.03.2020
6272 Clouds 24 1010 100 10000 1.5 0 18:42 18.03.2020
6273 Clouds 24 1011 100 10000 2.6 300 18:21 18.03.2020
6274 Clouds 24 1011 100 10000 2.6 300 18:21 18.03.2020
6275 Clouds 24 1011 100 10000 2.6 300 17:59 18.03.2020
6276 Clouds 24 1011 100 10000 2.6 300 17:41 18.03.2020
6277 Clouds 24 1011 100 10000 2.6 300 17:22 18.03.2020
6278 Clouds 24 1011 100 10000 3.1 360 16:58 18.03.2020
6279 Clouds 24 1011 100 10000 3.1 360 16:40 18.03.2020
6280 Clouds 24 1011 100 10000 3.1 360 16:20 18.03.2020
6281 Clouds 24 1011 100 10000 3.1 360 16:20 18.03.2020
6282 Clouds 28 1012 79 0 6.04 125 15:45 18.03.2020
6283 Clouds 28 1012 79 0 6.04 125 15:23 18.03.2020
6284 Clouds 28 1012 79 0 6.04 125 14:56 18.03.2020
6285 Clouds 28 1012 79 0 6.04 125 14:38 18.03.2020
6286 Clouds 27 1012 83 10000 0.5 0 14:19 18.03.2020
6287 Clouds 27 1012 83 10000 0.5 0 13:38 18.03.2020
6288 Clouds 28 1012 78 10000 1.5 70 13:19 18.03.2020
6289 Clouds 28 1012 78 10000 1.5 70 12:42 18.03.2020
6290 Clouds 28 1012 83 10000 2.6 150 12:20 18.03.2020
6291 Clouds 28 1012 83 10000 2.6 150 11:41 18.03.2020
6292 Clouds 28 1011 83 10000 5.1 170 11:21 18.03.2020
6293 Clouds 28 1011 83 10000 5.1 170 10:58 18.03.2020
6294 Clouds 28 1011 83 10000 5.1 170 10:39 18.03.2020
6295 Clouds 29 1010 79 10000 5.7 170 10:20 18.03.2020
6296 Clouds 29 1010 79 10000 5.7 170 09:56 18.03.2020
6297 Clouds 29 1010 79 10000 5.7 170 09:38 18.03.2020
6298 Clouds 30 1009 74 10000 7.7 170 09:20 18.03.2020
6299 Clouds 30 1009 74 10000 7.7 170 08:39 18.03.2020
6300 Clouds 31 1009 66 10000 6.2 160 08:21 18.03.2020
6301 Clouds 31 1009 66 10000 6.2 160 07:49 18.03.2020
6302 Clear 28 1009 73 0 6.27 170 07:30 18.03.2020
6303 Clear 28 1009 73 0 6.27 170 06:50 18.03.2020
6304 Clouds 31 1009 62 10000 5.1 200 06:24 18.03.2020
6305 Clouds 31 1009 62 10000 5.1 200 05:35 18.03.2020
6306 Clouds 32 1012 66 10000 7.7 180 04:27 18.03.2020
6307 Clouds 31 1012 62 10000 5.1 150 02:49 18.03.2020
6308 Clouds 31 1013 66 10000 4.1 150 01:48 18.03.2020
6309 Clouds 29 1013 74 10000 4.1 300 01:27 18.03.2020
6310 Clouds 27 1013 83 10000 3.1 320 00:26 18.03.2020
6311 Clouds 27 1013 83 10000 3.1 320 23:57 17.03.2020
6312 Clouds 27 1013 83 10000 3.1 320 23:37 17.03.2020
6313 Clouds 25 1013 94 10000 2.6 340 23:18 17.03.2020
6314 Clouds 25 1013 94 10000 2.6 340 22:41 17.03.2020
6315 Clouds 24 1012 100 10000 2.6 330 22:22 17.03.2020
6316 Clouds 24 1012 100 10000 2.6 330 21:42 17.03.2020
6317 Clouds 24 1012 100 10000 1.5 0 21:22 17.03.2020
6318 Clouds 24 1012 100 10000 1.5 0 20:41 17.03.2020
6319 Clouds 25 1012 100 10000 1.5 0 20:23 17.03.2020
6320 Clouds 25 1012 100 10000 1.5 0 19:59 17.03.2020
6321 Clouds 25 1012 100 10000 1.5 0 19:40 17.03.2020
6322 Clouds 25 1012 100 10000 1.5 0 19:18 17.03.2020
6323 Clouds 25 1012 100 10000 1.5 0 18:56 17.03.2020
6324 Clouds 25 1012 100 10000 1.5 0 18:37 17.03.2020
6325 Clouds 25 1012 100 10000 1.5 0 18:37 17.03.2020
6326 Clouds 24 1012 100 10000 1.5 0 18:19 17.03.2020
6327 Clouds 24 1012 100 10000 1.5 0 17:41 17.03.2020
6328 Clouds 24 1012 100 10000 1.5 0 17:41 17.03.2020
6329 Clouds 24 1013 100 10000 1.5 0 17:22 17.03.2020
6330 Clouds 24 1013 100 10000 1.5 0 16:55 17.03.2020
6331 Clouds 24 1013 100 10000 1.5 0 16:37 17.03.2020
6332 Rain 26 1013 82 0 2.53 7 16:18 17.03.2020
6333 Rain 26 1013 82 0 2.53 7 15:43 17.03.2020
6334 Clouds 25 1013 94 10000 1.5 0 15:21 17.03.2020
6335 Clouds 25 1013 94 10000 1.5 0 14:43 17.03.2020
6336 Clouds 25 1013 94 10000 1.5 0 14:43 17.03.2020
6337 Rain 26 1013 82 0 2.53 7 14:21 17.03.2020
6338 Rain 26 1014 84 0 4.31 357 13:45 17.03.2020
6339 Clouds 26 1013 88 10000 2.6 150 13:27 17.03.2020
6340 Clouds 26 1013 88 10000 2.6 150 12:58 17.03.2020
6341 Clouds 26 1013 88 10000 2.6 150 12:40 17.03.2020
6342 Rain 27 1014 82 0 4.11 1 12:22 17.03.2020
6343 Rain 27 1014 82 0 4.11 1 11:47 17.03.2020
6344 Rain 27 1014 82 0 4.11 1 11:28 17.03.2020
6345 Rain 28 1013 74 0 2.11 145 10:58 17.03.2020
6346 Rain 28 1013 76 0 2.53 91 10:38 17.03.2020
6347 Clouds 28 1011 83 10000 2.6 200 10:20 17.03.2020
6348 Clouds 28 1011 83 10000 2.6 200 09:57 17.03.2020
6349 Clouds 28 1011 83 10000 2.6 200 09:39 17.03.2020
6350 Clouds 29 1011 79 10000 2.6 230 09:18 17.03.2020
6351 Clouds 29 1011 79 10000 2.6 230 08:43 17.03.2020
6352 Clouds 30 1011 70 10000 2.6 200 08:21 17.03.2020
6353 Clouds 30 1011 70 10000 2.6 200 07:50 17.03.2020
6354 Clouds 31 1011 66 10000 2.6 300 07:25 17.03.2020
6355 Clouds 31 1011 66 10000 2.6 300 06:56 17.03.2020
6356 Clouds 31 1011 66 10000 2.6 300 06:33 17.03.2020
6357 Clouds 30 1011 70 10000 5.1 280 05:41 17.03.2020
6358 Clouds 29 1013 74 10000 5.7 350 03:36 17.03.2020
6359 Clouds 28 1011 73 0 3.41 151 02:45 17.03.2020
6360 Clouds 26 1014 94 10000 5.1 350 01:41 17.03.2020
6361 Clouds 26 1014 88 10000 5.1 330 01:19 17.03.2020
6362 Clouds 24 1014 100 10000 5.1 320 00:19 17.03.2020
6363 Clouds 24 1014 100 10000 5.1 320 23:44 16.03.2020
6364 Clouds 24 1013 100 10000 5.1 320 23:23 16.03.2020
6365 Clouds 24 1013 100 10000 5.1 320 22:40 16.03.2020
6366 Clouds 24 1012 94 10000 1.5 0 22:22 16.03.2020
6367 Clouds 24 1012 94 10000 1.5 0 21:55 16.03.2020
6368 Clouds 24 1012 94 10000 1.5 0 21:36 16.03.2020
6369 Rain 27 1013 77 0 5.55 117 21:18 16.03.2020
6370 Rain 27 1013 77 0 5.55 117 20:42 16.03.2020
6371 Rain 27 1013 75 0 3.83 102 20:24 16.03.2020
6372 Rain 27 1011 78 0 6.37 128 19:47 16.03.2020
6373 Rain 27 1011 78 0 6.37 128 19:47 16.03.2020
6374 Rain 27 1011 78 0 6.37 128 19:25 16.03.2020
6375 Rain 27 1011 78 0 6.37 128 19:00 16.03.2020
6376 Rain 27 1011 78 0 6.37 128 18:40 16.03.2020
6377 Rain 27 1011 78 0 6.37 128 18:20 16.03.2020
6378 Rain 27 1011 78 0 6.37 128 17:46 16.03.2020
6379 Rain 27 1011 78 0 6.37 128 17:26 16.03.2020
6380 Rain 27 1012 78 0 5.98 135 16:58 16.03.2020
6381 Rain 27 1012 78 0 5.98 135 16:40 16.03.2020
6382 Rain 27 1012 78 0 5.98 135 16:40 16.03.2020
6383 Rain 27 1012 78 0 5.98 135 16:21 16.03.2020
6384 Rain 27 1012 78 0 5.98 135 15:43 16.03.2020
6385 Rain 27 1012 78 0 5.98 135 15:24 16.03.2020
6386 Rain 27 1012 78 0 5.98 135 14:48 16.03.2020
6387 Rain 27 1012 78 0 5.98 135 14:23 16.03.2020
6388 Rain 28 1013 73 0 2.92 135 13:48 16.03.2020
6389 Rain 28 1013 73 0 2.92 135 13:28 16.03.2020
6390 Rain 28 1013 70 0 1.67 132 12:57 16.03.2020
6391 Rain 28 1013 70 0 1.67 132 12:38 16.03.2020
6392 Rain 28 1013 70 0 1.67 132 12:20 16.03.2020
6393 Rain 28 1013 70 0 1.67 132 11:43 16.03.2020
6394 Rain 28 1013 70 0 1.67 132 11:23 16.03.2020
6395 Rain 29 1011 71 0 2.46 205 10:44 16.03.2020
6396 Clouds 28 1010 83 10000 5.1 220 10:24 16.03.2020
6397 Clouds 28 1010 83 10000 5.1 220 09:49 16.03.2020
6398 Clouds 28 1010 83 10000 5.1 220 09:49 16.03.2020
6399 Clouds 29 1010 83 10000 7.7 200 09:30 16.03.2020
6400 Clouds 29 1010 83 10000 7.7 200 08:59 16.03.2020
6401 Clouds 29 1010 83 10000 7.7 200 08:39 16.03.2020
6402 Clouds 30 1009 74 10000 7.7 230 08:20 16.03.2020
6403 Clouds 30 1009 74 10000 7.7 230 07:41 16.03.2020
6404 Clouds 32 1009 62 10000 7.7 260 07:18 16.03.2020
6405 Clouds 32 1009 62 10000 7.7 260 06:28 16.03.2020
6406 Clouds 32 1009 62 10000 7.7 260 05:55 16.03.2020
6407 Clouds 31 1011 66 10000 5.1 300 03:54 16.03.2020
6408 Clouds 31 1012 70 10000 3.6 330 01:44 16.03.2020
6409 Clouds 28 1012 83 10000 2.1 330 00:44 16.03.2020
6410 Clouds 25 1012 94 10000 4.1 330 23:56 15.03.2020
6411 Clouds 25 1012 94 10000 4.1 330 23:37 15.03.2020
6412 Fog 23 1011 100 10000 3.1 320 23:18 15.03.2020
6413 Fog 23 1011 100 10000 3.1 320 22:41 15.03.2020
6414 Fog 23 1010 100 10000 2.1 340 22:20 15.03.2020
6415 Fog 23 1010 100 10000 2.1 340 21:39 15.03.2020
6416 Clouds 26 1011 76 0 2.62 18 21:21 15.03.2020
6417 Clouds 26 1011 76 0 2.62 18 20:55 15.03.2020
6418 Clouds 26 1011 76 0 2.62 18 20:36 15.03.2020
6419 Rain 26 1010 77 0 2.82 3 20:18 15.03.2020
6420 Rain 26 1010 77 0 2.82 3 19:42 15.03.2020
6421 Rain 26 1010 77 0 2.82 3 19:24 15.03.2020
6422 Rain 26 1010 77 0 2.82 3 18:59 15.03.2020
6423 Rain 26 1010 77 0 2.82 3 18:39 15.03.2020
6424 Rain 26 1010 77 0 2.82 3 18:21 15.03.2020
6425 Rain 26 1010 77 0 2.82 3 17:54 15.03.2020
6426 Rain 26 1010 77 0 2.82 3 17:36 15.03.2020
6427 Rain 27 1010 78 0 3.96 356 17:18 15.03.2020
6428 Rain 27 1010 78 0 3.96 356 16:42 15.03.2020
6429 Clouds 24 1011 100 10000 2.6 310 16:24 15.03.2020
6430 Clouds 24 1011 100 10000 2.6 310 15:57 15.03.2020
6431 Clouds 24 1011 100 10000 2.6 310 15:57 15.03.2020
6432 Clouds 24 1011 100 10000 2.6 310 15:38 15.03.2020
6433 Clouds 24 1011 100 10000 2.6 310 15:19 15.03.2020
6434 Rain 27 1010 78 0 3.96 356 14:46 15.03.2020
6435 Clouds 25 1011 94 10000 3.6 320 14:24 15.03.2020
6436 Clouds 25 1011 94 10000 3.6 320 13:57 15.03.2020
6437 Clouds 25 1011 94 10000 3.6 320 13:38 15.03.2020
6438 Rain 28 1012 77 0 3.87 344 13:19 15.03.2020
6439 Rain 28 1012 77 0 3.87 344 12:43 15.03.2020
6440 Clouds 25 1010 100 10000 2.6 360 12:25 15.03.2020
6441 Clouds 25 1010 100 10000 2.6 360 11:45 15.03.2020
6442 Clouds 25 1010 100 10000 2.6 360 11:26 15.03.2020
6443 Rain 28 1009 76 0 6.2 318 11:00 15.03.2020
6444 Rain 28 1009 76 0 6.2 318 10:41 15.03.2020
6445 Clouds 27 1009 88 10000 5.1 340 10:22 15.03.2020
6446 Clouds 27 1009 88 10000 5.1 340 10:22 15.03.2020
6447 Clouds 27 1009 88 10000 5.1 340 09:59 15.03.2020
6448 Clouds 27 1009 88 10000 5.1 340 09:59 15.03.2020
6449 Clouds 27 1009 88 10000 5.1 340 09:39 15.03.2020
6450 Clouds 27 1008 88 10000 5.1 350 09:20 15.03.2020
6451 Clouds 27 1008 88 10000 5.1 350 08:41 15.03.2020
6452 Clouds 28 1008 88 10000 5.1 360 08:19 15.03.2020
6453 Clouds 28 1008 88 10000 5.1 360 07:49 15.03.2020
6454 Rain 26 1009 94 0 5.1 330 07:22 15.03.2020
6455 Rain 26 1009 94 0 5.1 330 06:44 15.03.2020
6456 Rain 25 1009 100 0 5.1 340 05:48 15.03.2020
6457 Clouds 27 1009 83 10000 7.7 330 04:57 15.03.2020
6458 Clouds 27 1009 83 10000 7.7 330 04:38 15.03.2020
6459 Clouds 27 1010 83 10000 7.7 320 04:20 15.03.2020
6460 Clouds 28 1010 78 10000 5.1 320 03:19 15.03.2020
6461 Clouds 28 1010 78 10000 5.1 330 02:22 15.03.2020
6462 Rain 28 1009 71 0 4.9 316 00:58 15.03.2020
6463 Rain 28 1009 71 0 4.9 316 00:40 15.03.2020
6464 Clouds 25 1010 94 10000 5.1 350 00:19 15.03.2020
6465 Clouds 25 1010 94 10000 5.1 350 23:39 14.03.2020
6466 Clouds 24 1009 100 10000 5.1 340 23:20 14.03.2020
6467 Clouds 24 1009 100 10000 5.1 340 22:55 14.03.2020
6468 Clouds 24 1009 100 10000 5.1 340 22:37 14.03.2020
6469 Clouds 24 1007 100 10000 5.1 340 22:19 14.03.2020
6470 Clouds 24 1007 100 10000 5.1 340 21:55 14.03.2020
6471 Clouds 24 1007 100 10000 5.1 340 21:55 14.03.2020
6472 Clouds 24 1007 100 10000 5.1 340 21:55 14.03.2020
6473 Clouds 24 1007 100 10000 5.1 340 21:36 14.03.2020
6474 Clouds 24 1007 100 10000 2.1 340 21:18 14.03.2020
6475 Clouds 24 1007 100 10000 2.1 340 20:55 14.03.2020
6476 Clouds 24 1007 100 10000 2.1 340 20:37 14.03.2020
6477 Clouds 24 1007 100 10000 2.6 340 20:18 14.03.2020
6478 Clouds 24 1007 100 10000 2.6 340 19:40 14.03.2020
6479 Clouds 24 1007 100 10000 1.5 340 19:20 14.03.2020
6480 Clouds 24 1007 100 10000 1.5 340 18:40 14.03.2020
6481 Clouds 24 1007 100 10000 1.5 340 18:40 14.03.2020
6482 Clouds 24 1007 100 10000 1.5 340 18:20 14.03.2020
6483 Clouds 24 1007 100 10000 1.5 340 17:42 14.03.2020
6484 Clear 24 1008 100 10000 1 0 17:23 14.03.2020
6485 Clear 24 1008 100 10000 1 0 17:23 14.03.2020
6486 Clear 24 1008 100 10000 1 0 16:58 14.03.2020
6487 Clear 24 1008 100 10000 1 0 16:38 14.03.2020
6488 Clouds 24 1008 100 10000 1.5 0 16:19 14.03.2020
6489 Clouds 24 1008 100 10000 1.5 0 15:44 14.03.2020
6490 Clouds 25 1008 100 10000 1.5 0 15:22 14.03.2020
6491 Clouds 25 1008 100 10000 1.5 0 14:40 14.03.2020
6492 Clouds 25 1008 100 10000 1.5 0 14:21 14.03.2020
6493 Clouds 25 1008 100 10000 1.5 0 13:57 14.03.2020
6494 Clouds 25 1008 100 10000 1.5 0 13:38 14.03.2020
6495 Clouds 25 1008 100 10000 1.5 0 13:19 14.03.2020
6496 Clouds 25 1008 100 10000 1.5 0 12:44 14.03.2020
6497 Clouds 26 1007 94 10000 2.6 340 12:25 14.03.2020
6498 Clouds 26 1007 94 10000 2.6 340 11:45 14.03.2020
6499 Clouds 26 1007 94 10000 2.6 320 11:25 14.03.2020
6500 Clouds 26 1007 94 10000 2.6 320 10:54 14.03.2020
6501 Clouds 26 1007 94 10000 2.6 320 10:54 14.03.2020
6502 Clouds 26 1007 94 10000 2.6 320 10:36 14.03.2020
6503 Clouds 28 1006 78 10000 5.7 320 10:18 14.03.2020
6504 Clouds 28 1006 78 10000 5.7 320 09:41 14.03.2020
6505 Clouds 30 1006 74 10000 7.7 310 09:22 14.03.2020
6506 Clouds 30 1006 74 10000 7.7 310 08:47 14.03.2020
6507 Clouds 30 1006 70 10000 7.7 290 08:27 14.03.2020
6508 Clouds 30 1006 70 10000 7.7 290 07:45 14.03.2020
6509 Clouds 29 1006 74 10000 5.1 330 07:22 14.03.2020
6510 Clouds 29 1006 74 10000 5.1 330 06:55 14.03.2020
6511 Clouds 29 1006 74 10000 5.1 330 06:36 14.03.2020
6512 Rain 29 1006 79 10000 7.7 320 04:56 14.03.2020
6513 Clouds 32 1007 66 10000 5.1 330 03:37 14.03.2020
6514 Clouds 31 1008 70 10000 5.1 330 02:53 14.03.2020
6515 Clouds 29 1008 79 10000 7.7 340 01:47 14.03.2020
6516 Clouds 27 1008 83 10000 7.7 340 00:34 14.03.2020
6517 Clear 25 1008 94 10000 1.5 340 23:42 13.03.2020
6518 Clouds 23 1008 100 10000 2.1 340 23:23 13.03.2020
6519 Clouds 23 1008 100 10000 2.1 340 22:45 13.03.2020
6520 Clouds 23 1007 94 10000 5.1 350 22:22 13.03.2020
6521 Clouds 23 1007 94 10000 5.1 350 21:41 13.03.2020
6522 Clouds 23 1008 100 10000 5.1 350 21:19 13.03.2020
6523 Clouds 23 1008 100 10000 5.1 350 20:43 13.03.2020
6524 Clouds 24 1008 94 10000 5.1 340 20:23 13.03.2020
6525 Clouds 24 1008 94 10000 5.1 340 19:59 13.03.2020
6526 Clouds 24 1008 94 10000 5.1 340 19:40 13.03.2020
6527 Clouds 24 1007 100 10000 3.6 330 19:22 13.03.2020
6528 Clouds 24 1007 100 10000 3.6 330 18:44 13.03.2020
6529 Clouds 25 1007 88 10000 4.1 340 18:23 13.03.2020
6530 Clouds 25 1007 88 10000 4.1 340 17:43 13.03.2020
6531 Clouds 25 1008 94 10000 5.1 350 17:21 13.03.2020
6532 Clouds 25 1008 94 10000 5.1 350 16:57 13.03.2020
6533 Clouds 25 1008 94 10000 5.1 350 16:38 13.03.2020
6534 Clouds 25 1009 94 10000 3.1 350 16:20 13.03.2020
6535 Clouds 25 1009 94 10000 3.1 350 15:45 13.03.2020
6536 Rain 28 1008 73 0 8.43 328 15:22 13.03.2020
6537 Rain 28 1008 73 0 8.43 328 14:59 13.03.2020
6538 Rain 28 1008 73 0 8.43 328 14:40 13.03.2020
6539 Rain 28 1008 73 0 8.43 328 14:21 13.03.2020
6540 Clouds 29 1010 71 0 9.41 314 13:42 13.03.2020
6541 Clouds 29 1009 71 0 8.91 311 13:24 13.03.2020
6542 Clouds 29 1009 71 0 8.91 311 12:59 13.03.2020
6543 Clouds 29 1009 71 0 8.91 311 12:38 13.03.2020
6544 Clouds 29 1009 71 0 8.91 311 12:19 13.03.2020
6545 Clouds 29 1009 71 0 8.91 311 11:55 13.03.2020
6546 Clouds 29 1009 71 0 8.91 311 11:36 13.03.2020
6547 Clouds 29 1007 70 0 9.29 319 11:18 13.03.2020
6548 Clouds 29 1007 70 0 9.29 319 10:46 13.03.2020
6549 Clouds 27 1007 83 10000 3.6 350 10:25 13.03.2020
6550 Clouds 27 1007 83 10000 3.6 350 09:48 13.03.2020
6551 Clouds 28 1007 83 10000 4.1 340 09:28 13.03.2020
6552 Clouds 28 1007 83 10000 4.1 340 08:57 13.03.2020
6553 Clouds 28 1007 83 10000 4.1 340 08:38 13.03.2020
6554 Clouds 28 1007 83 10000 2.1 10 08:19 13.03.2020
6555 Clouds 28 1007 83 10000 2.1 10 07:44 13.03.2020
6556 Rain 27 1008 88 10000 3.1 40 07:23 13.03.2020
6557 Rain 27 1008 88 10000 3.1 40 06:46 13.03.2020
6558 Rain 26 1008 94 10000 4.6 270 06:21 13.03.2020
6559 Rain 26 1008 94 10000 4.6 270 05:44 13.03.2020
6560 Rain 27 1009 83 10000 6.7 320 04:39 13.03.2020
6561 Clouds 29 1010 83 10000 3.1 340 03:51 13.03.2020
6562 Clouds 26 1011 88 10000 6.2 340 02:29 13.03.2020
6563 Clouds 25 1012 94 10000 5.1 360 01:20 13.03.2020
6564 Clouds 25 1012 94 10000 5.1 360 00:59 13.03.2020
6565 Clouds 25 1012 94 10000 5.1 360 00:39 13.03.2020
6566 Rain 24 1011 94 10000 5.1 330 00:18 13.03.2020
6567 Rain 24 1011 94 10000 5.1 330 23:37 12.03.2020
6568 Rain 23 1011 100 10000 5.1 350 23:18 12.03.2020
6569 Rain 23 1011 100 10000 5.1 350 22:44 12.03.2020
6570 Rain 23 1011 100 10000 5.1 350 22:25 12.03.2020
6571 Rain 22 1010 100 10000 5.1 320 21:55 12.03.2020
6572 Rain 22 1010 100 10000 5.1 320 21:36 12.03.2020
6573 Clouds 23 1009 94 10000 7.7 340 21:18 12.03.2020
6574 Clouds 23 1009 94 10000 7.7 340 20:42 12.03.2020
6575 Clouds 23 1009 94 10000 7.7 340 20:20 12.03.2020
6576 Rain 29 1008 73 0 11.23 332 19:42 12.03.2020
6577 Rain 29 1008 73 0 11.23 332 19:21 12.03.2020
6578 Rain 29 1008 73 0 11.23 332 18:45 12.03.2020
6579 Rain 29 1008 73 0 11.23 332 18:25 12.03.2020
6580 Rain 29 1008 73 0 11.23 332 17:58 12.03.2020
6581 Rain 29 1008 73 0 11.23 332 17:39 12.03.2020
6582 Clouds 28 1008 74 10000 6.2 340 17:21 12.03.2020
6583 Clouds 28 1008 74 10000 6.2 340 17:21 12.03.2020
6584 Clouds 28 1008 74 10000 6.2 340 16:58 12.03.2020
6585 Clouds 28 1008 74 10000 6.2 340 16:38 12.03.2020
6586 Clouds 26 1009 88 10000 5.1 340 16:19 12.03.2020
6587 Clouds 26 1009 88 10000 5.1 340 15:45 12.03.2020
6588 Rain 29 1009 71 0 11.64 318 15:27 12.03.2020
6589 Rain 29 1009 71 0 11.64 318 14:43 12.03.2020
6590 Clouds 26 1009 88 10000 5.1 330 14:24 12.03.2020
6591 Clouds 26 1009 88 10000 5.1 330 13:57 12.03.2020
6592 Clouds 26 1009 88 10000 5.1 330 13:37 12.03.2020
6593 Clouds 27 1009 83 10000 5.1 340 13:19 12.03.2020
6594 Clouds 27 1009 83 10000 5.1 340 12:41 12.03.2020
6595 Clouds 28 1009 78 10000 5.1 340 12:22 12.03.2020
6596 Clouds 28 1009 78 10000 5.1 340 11:57 12.03.2020
6597 Clouds 28 1009 78 10000 5.1 340 11:39 12.03.2020
6598 Clouds 28 1008 78 10000 5.1 340 11:20 12.03.2020
6599 Clouds 28 1008 78 10000 5.1 340 10:59 12.03.2020
6600 Clouds 28 1008 78 10000 5.1 340 10:40 12.03.2020
6601 Clouds 28 1008 78 10000 5.1 340 10:22 12.03.2020
6602 Clouds 28 1008 78 10000 5.1 340 09:47 12.03.2020
6603 Clouds 30 1008 70 10000 5.1 320 09:28 12.03.2020
6604 Clouds 30 1008 70 10000 5.1 320 08:46 12.03.2020
6605 Clouds 32 1008 66 10000 7.7 340 08:21 12.03.2020
6606 Clouds 32 1008 66 10000 7.7 340 07:59 12.03.2020
6607 Clouds 32 1008 66 10000 7.7 340 07:41 12.03.2020
6608 Clouds 32 1008 66 10000 7.7 320 07:21 12.03.2020
6609 Clouds 32 1008 66 10000 7.7 320 07:21 12.03.2020
6610 Clouds 32 1008 62 10000 7.7 330 05:55 12.03.2020
6611 Clouds 31 1008 62 10000 7.7 350 05:26 12.03.2020
6612 Clouds 30 1010 74 10000 7.7 340 02:43 12.03.2020
6613 Clouds 28 1011 78 10000 5.1 340 01:36 12.03.2020
6614 Clouds 28 1012 78 10000 5.1 340 01:18 12.03.2020
6615 Clouds 28 1012 78 10000 5.1 340 00:40 12.03.2020
6616 Clouds 26 1010 88 10000 7.7 320 23:51 11.03.2020
6617 Clouds 25 1009 88 10000 5.1 340 23:26 11.03.2020
6618 Clouds 25 1009 88 10000 5.1 340 22:55 11.03.2020
6619 Clouds 25 1009 88 10000 5.1 340 22:37 11.03.2020
6620 Clouds 26 1008 83 10000 5.1 350 22:18 11.03.2020
6621 Clouds 26 1008 83 10000 5.1 350 21:41 11.03.2020
6622 Clouds 25 1008 88 10000 7.7 330 21:23 11.03.2020
6623 Clouds 25 1008 88 10000 7.7 330 20:58 11.03.2020
6624 Clouds 25 1008 88 10000 7.7 330 20:39 11.03.2020
6625 Clouds 25 1008 88 10000 7.7 330 20:20 11.03.2020
6626 Clouds 25 1008 94 10000 10.3 330 19:44 11.03.2020
6627 Clouds 25 1008 94 10000 10.3 330 19:26 11.03.2020
6628 Clouds 25 1009 94 10000 10.3 320 18:59 11.03.2020
6629 Clouds 25 1009 94 10000 10.3 320 18:40 11.03.2020
6630 Rain 28 1008 82 0 8.81 338 18:22 11.03.2020
6631 Rain 28 1008 82 0 8.81 338 17:58 11.03.2020
6632 Rain 28 1008 82 0 8.81 338 17:58 11.03.2020
6633 Rain 28 1008 82 0 8.81 338 17:39 11.03.2020
6634 Clouds 25 1009 94 10000 7.7 350 17:20 11.03.2020
6635 Clouds 25 1009 94 10000 7.7 350 16:46 11.03.2020
6636 Clouds 25 1009 94 10000 7.7 350 16:23 11.03.2020
6637 Clouds 26 1009 94 10000 5.1 350 15:57 11.03.2020
6638 Clouds 26 1009 94 10000 5.1 350 15:39 11.03.2020
6639 Clouds 26 1009 94 10000 3.1 350 15:21 11.03.2020
6640 Clouds 26 1009 94 10000 3.1 350 14:42 11.03.2020
6641 Clouds 27 1009 94 10000 3.1 350 14:22 11.03.2020
6642 Clouds 27 1009 94 10000 3.1 350 13:45 11.03.2020
6643 Clouds 27 1009 94 10000 3.1 340 13:27 11.03.2020
6644 Clouds 27 1009 94 10000 3.1 340 12:58 11.03.2020
6645 Clouds 27 1009 94 10000 3.1 340 12:40 11.03.2020
6646 Clouds 27 1009 94 10000 5.1 320 12:20 11.03.2020
6647 Clouds 27 1009 94 10000 5.1 320 11:55 11.03.2020
6648 Clouds 27 1009 94 10000 5.1 320 11:36 11.03.2020
6649 Clouds 28 1008 88 10000 5.1 340 11:18 11.03.2020
6650 Clouds 28 1008 88 10000 5.1 340 10:42 11.03.2020
6651 Clouds 29 1008 83 10000 5.1 340 10:18 11.03.2020
6652 Clouds 29 1008 83 10000 5.1 340 09:43 11.03.2020
6653 Clouds 29 1008 71 0 4.12 337 09:25 11.03.2020
6654 Clouds 29 1008 71 0 4.12 337 08:49 11.03.2020
6655 Clouds 29 1008 71 0 4.12 337 08:31 11.03.2020
6656 Clouds 29 1007 83 10000 5.1 360 07:59 11.03.2020
6657 Clouds 29 1007 83 10000 5.1 360 07:38 11.03.2020
6658 Clouds 28 1007 88 10000 4.1 340 07:18 11.03.2020
6659 Clouds 28 1007 88 10000 4.1 340 06:37 11.03.2020
6660 Rain 27 1007 94 0 2.6 340 05:35 11.03.2020
6661 Clouds 26 1009 100 10000 3.6 350 04:18 11.03.2020
6662 Clouds 28 1010 83 0 15.4 300 02:19 11.03.2020
6663 Haze 32 1009 70 10000 5.1 320 01:27 11.03.2020
6664 Haze 32 1009 70 10000 5.1 320 00:46 11.03.2020
6665 Haze 29 1009 79 10000 4.1 320 23:58 10.03.2020
6666 Haze 29 1009 79 10000 4.1 320 23:39 10.03.2020
6667 Haze 27 1008 88 10000 4.1 310 23:20 10.03.2020
6668 Haze 27 1008 88 10000 4.1 310 22:38 10.03.2020
6669 Clouds 25 1007 100 10000 2.6 320 22:20 10.03.2020
6670 Clouds 25 1007 100 10000 2.6 320 21:57 10.03.2020
6671 Clouds 25 1007 100 10000 2.6 320 21:38 10.03.2020
6672 Clouds 25 1007 100 10000 2.6 320 21:38 10.03.2020
6673 Clouds 25 1007 100 10000 2.6 340 21:20 10.03.2020
6674 Clouds 25 1007 100 10000 2.6 340 20:58 10.03.2020
6675 Clouds 25 1007 100 10000 2.6 340 20:40 10.03.2020
6676 Rain 28 1007 76 0 3.58 19 20:18 10.03.2020
6677 Rain 28 1007 76 0 3.58 19 19:56 10.03.2020
6678 Rain 28 1007 76 0 3.58 19 19:36 10.03.2020
6679 Rain 28 1007 76 0 3.58 19 19:18 10.03.2020
6680 Rain 28 1007 76 0 3.58 19 18:44 10.03.2020
6681 Rain 28 1007 76 0 3.58 19 18:25 10.03.2020
6682 Rain 28 1007 76 0 3.58 19 17:57 10.03.2020
6683 Rain 28 1007 76 0 3.58 19 17:38 10.03.2020
6684 Clouds 28 1008 73 0 1.32 352 17:20 10.03.2020
6685 Clouds 28 1008 73 0 1.32 352 16:38 10.03.2020
6686 Clouds 26 1008 94 10000 2.1 300 16:18 10.03.2020
6687 Clouds 26 1008 94 10000 2.1 300 15:55 10.03.2020
6688 Clouds 26 1008 94 10000 2.1 300 15:37 10.03.2020
6689 Clouds 28 1008 73 0 1.32 352 15:18 10.03.2020
6690 Clouds 28 1008 73 0 1.32 352 14:40 10.03.2020
6691 Clouds 29 1010 73 0 2.25 352 14:19 10.03.2020
6692 Clouds 29 1010 73 0 2.25 352 13:54 10.03.2020
6693 Clouds 29 1010 73 0 2.25 352 13:36 10.03.2020
6694 Clouds 29 1010 72 0 1.49 334 13:18 10.03.2020
6695 Clouds 29 1010 72 0 1.49 334 12:39 10.03.2020
6696 Clouds 29 1010 72 0 1.49 334 12:19 10.03.2020
6697 Clouds 29 1010 72 0 1.49 334 11:43 10.03.2020
6698 Clouds 29 1010 72 0 1.49 334 11:25 10.03.2020
6699 -273 0 0 0 0 0 10:59 10.03.2020
6700 Clouds 29 1007 74 0 2.99 274 10:41 10.03.2020
6701 Clouds 30 1007 74 10000 5.